<?xml version="1.0" encoding="UTF-8" standalone="no" ?>
<gpx xmlns="http://www.topografix.com/GPX/1/1" xmlns:xsi="http://www.w3.org/2001/XMLSchema-instance" xsi:schemaLocation="http://www.topografix.com/GPX/1/1 http://www.topografix.com/GPX/1/1/gpx.xsd" version="1.1" creator="VisuGPX - https://www.visugpx.com">
  <metadata>
    <name>RoadTrip Moto Ecosse Juin 2021</name>
  </metadata>
  <trk>
    <name><![CDATA[J01 - North Tyneside - Ardrossan]]></name>
    <trkseg>
      <trkpt lat="54.99524" lon="-1.4609">
        <ele>23.2</ele>
        <time>2021-03-20T14:23:34Z</time>
      </trkpt>
      <trkpt lat="54.99586" lon="-1.46334">
        <ele>22.87</ele>
        <time>2021-03-20T14:23:40Z</time>
      </trkpt>
      <trkpt lat="54.99589" lon="-1.4635">
        <ele>22.44</ele>
        <time>2021-03-20T14:23:46Z</time>
      </trkpt>
      <trkpt lat="54.99589" lon="-1.46373">
        <ele>21.93</ele>
        <time>2021-03-20T14:23:52Z</time>
      </trkpt>
      <trkpt lat="54.99588" lon="-1.46378">
        <ele>21.73</ele>
        <time>2021-03-20T14:23:54Z</time>
      </trkpt>
      <trkpt lat="54.99588" lon="-1.46395">
        <ele>21.77</ele>
        <time>2021-03-20T14:23:56Z</time>
      </trkpt>
      <trkpt lat="54.99594" lon="-1.46409">
        <ele>23.13</ele>
        <time>2021-03-20T14:23:58Z</time>
      </trkpt>
      <trkpt lat="54.996" lon="-1.46415">
        <ele>24.3</ele>
        <time>2021-03-20T14:24:01Z</time>
      </trkpt>
      <trkpt lat="54.99615" lon="-1.46444">
        <ele>27.73</ele>
        <time>2021-03-20T14:24:03Z</time>
      </trkpt>
      <trkpt lat="54.99639" lon="-1.46551">
        <ele>25.37</ele>
        <time>2021-03-20T14:24:05Z</time>
      </trkpt>
      <trkpt lat="54.99649" lon="-1.46599">
        <ele>24.8</ele>
        <time>2021-03-20T14:24:07Z</time>
      </trkpt>
      <trkpt lat="54.99655" lon="-1.46658">
        <ele>26.09</ele>
        <time>2021-03-20T14:24:09Z</time>
      </trkpt>
      <trkpt lat="54.99656" lon="-1.46679">
        <ele>27.51</ele>
        <time>2021-03-20T14:24:11Z</time>
      </trkpt>
      <trkpt lat="54.99654" lon="-1.46707">
        <ele>29.69</ele>
        <time>2021-03-20T14:24:14Z</time>
      </trkpt>
      <trkpt lat="54.9965" lon="-1.4672">
        <ele>30.27</ele>
        <time>2021-03-20T14:24:17Z</time>
      </trkpt>
      <trkpt lat="54.99648" lon="-1.46742">
        <ele>29.85</ele>
        <time>2021-03-20T14:24:20Z</time>
      </trkpt>
      <trkpt lat="54.99651" lon="-1.46755">
        <ele>29.85</ele>
        <time>2021-03-20T14:24:23Z</time>
      </trkpt>
      <trkpt lat="54.99657" lon="-1.46766">
        <ele>30.28</ele>
        <time>2021-03-20T14:24:26Z</time>
      </trkpt>
      <trkpt lat="54.99663" lon="-1.46784">
        <ele>30.28</ele>
        <time>2021-03-20T14:24:29Z</time>
      </trkpt>
      <trkpt lat="54.99667" lon="-1.46811">
        <ele>28.59</ele>
        <time>2021-03-20T14:24:32Z</time>
      </trkpt>
      <trkpt lat="54.99666" lon="-1.46838">
        <ele>27</ele>
        <time>2021-03-20T14:24:35Z</time>
      </trkpt>
      <trkpt lat="54.99662" lon="-1.46866">
        <ele>26.83</ele>
        <time>2021-03-20T14:24:38Z</time>
      </trkpt>
      <trkpt lat="54.99651" lon="-1.46911">
        <ele>26.43</ele>
        <time>2021-03-20T14:24:41Z</time>
      </trkpt>
      <trkpt lat="54.99579" lon="-1.47147">
        <ele>28.83</ele>
        <time>2021-03-20T14:24:44Z</time>
      </trkpt>
      <trkpt lat="54.99547" lon="-1.4728">
        <ele>31.72</ele>
        <time>2021-03-20T14:24:47Z</time>
      </trkpt>
      <trkpt lat="54.99538" lon="-1.47311">
        <ele>32</ele>
        <time>2021-03-20T14:24:50Z</time>
      </trkpt>
      <trkpt lat="54.99529" lon="-1.47327">
        <ele>32</ele>
        <time>2021-03-20T14:24:53Z</time>
      </trkpt>
      <trkpt lat="54.99517" lon="-1.47339">
        <ele>31.07</ele>
        <time>2021-03-20T14:24:56Z</time>
      </trkpt>
      <trkpt lat="54.99508" lon="-1.47347">
        <ele>30.42</ele>
        <time>2021-03-20T14:24:59Z</time>
      </trkpt>
      <trkpt lat="54.99499" lon="-1.47372">
        <ele>29.88</ele>
        <time>2021-03-20T14:25:03Z</time>
      </trkpt>
      <trkpt lat="54.99499" lon="-1.47384">
        <ele>29.84</ele>
        <time>2021-03-20T14:25:06Z</time>
      </trkpt>
      <trkpt lat="54.99501" lon="-1.47396">
        <ele>30.27</ele>
        <time>2021-03-20T14:25:10Z</time>
      </trkpt>
      <trkpt lat="54.99514" lon="-1.4743">
        <ele>30.24</ele>
        <time>2021-03-20T14:25:13Z</time>
      </trkpt>
      <trkpt lat="54.99519" lon="-1.47457">
        <ele>30.05</ele>
        <time>2021-03-20T14:25:17Z</time>
      </trkpt>
      <trkpt lat="54.99524" lon="-1.47516">
        <ele>30.58</ele>
        <time>2021-03-20T14:25:20Z</time>
      </trkpt>
      <trkpt lat="54.99521" lon="-1.47643">
        <ele>27.14</ele>
        <time>2021-03-20T14:25:24Z</time>
      </trkpt>
      <trkpt lat="54.99519" lon="-1.47925">
        <ele>29.38</ele>
        <time>2021-03-20T14:25:27Z</time>
      </trkpt>
      <trkpt lat="54.9952" lon="-1.47951">
        <ele>29.06</ele>
        <time>2021-03-20T14:25:31Z</time>
      </trkpt>
      <trkpt lat="54.99529" lon="-1.48009">
        <ele>27.08</ele>
        <time>2021-03-20T14:25:34Z</time>
      </trkpt>
      <trkpt lat="54.9953" lon="-1.48034">
        <ele>27.09</ele>
        <time>2021-03-20T14:25:38Z</time>
      </trkpt>
      <trkpt lat="54.99527" lon="-1.48051">
        <ele>26.96</ele>
        <time>2021-03-20T14:25:41Z</time>
      </trkpt>
      <trkpt lat="54.99521" lon="-1.48066">
        <ele>26.84</ele>
        <time>2021-03-20T14:25:45Z</time>
      </trkpt>
      <trkpt lat="54.99492" lon="-1.48121">
        <ele>27.35</ele>
        <time>2021-03-20T14:25:49Z</time>
      </trkpt>
      <trkpt lat="54.99463" lon="-1.4816">
        <ele>24.89</ele>
        <time>2021-03-20T14:25:52Z</time>
      </trkpt>
      <trkpt lat="54.99414" lon="-1.4821">
        <ele>21.17</ele>
        <time>2021-03-20T14:25:56Z</time>
      </trkpt>
      <trkpt lat="54.99353" lon="-1.48264">
        <ele>23.85</ele>
        <time>2021-03-20T14:26:00Z</time>
      </trkpt>
      <trkpt lat="54.99266" lon="-1.48358">
        <ele>19.44</ele>
        <time>2021-03-20T14:26:03Z</time>
      </trkpt>
      <trkpt lat="54.99235" lon="-1.4838">
        <ele>18.8</ele>
        <time>2021-03-20T14:26:07Z</time>
      </trkpt>
      <trkpt lat="54.99211" lon="-1.48393">
        <ele>17.02</ele>
        <time>2021-03-20T14:26:11Z</time>
      </trkpt>
      <trkpt lat="54.99189" lon="-1.48398">
        <ele>15.4</ele>
        <time>2021-03-20T14:26:14Z</time>
      </trkpt>
      <trkpt lat="54.99163" lon="-1.48397">
        <ele>14.17</ele>
        <time>2021-03-20T14:26:18Z</time>
      </trkpt>
      <trkpt lat="54.99149" lon="-1.48394">
        <ele>13.47</ele>
        <time>2021-03-20T14:26:21Z</time>
      </trkpt>
      <trkpt lat="54.99115" lon="-1.48372">
        <ele>11.9</ele>
        <time>2021-03-20T14:26:25Z</time>
      </trkpt>
      <trkpt lat="54.99093" lon="-1.48347">
        <ele>12.05</ele>
        <time>2021-03-20T14:26:29Z</time>
      </trkpt>
      <trkpt lat="54.99082" lon="-1.48314">
        <ele>11.9</ele>
        <time>2021-03-20T14:26:32Z</time>
      </trkpt>
      <trkpt lat="54.99083" lon="-1.48302">
        <ele>12.14</ele>
        <time>2021-03-20T14:26:35Z</time>
      </trkpt>
      <trkpt lat="54.99081" lon="-1.48282">
        <ele>12.64</ele>
        <time>2021-03-20T14:26:38Z</time>
      </trkpt>
      <trkpt lat="54.99072" lon="-1.48266">
        <ele>12.16</ele>
        <time>2021-03-20T14:26:41Z</time>
      </trkpt>
      <trkpt lat="54.99065" lon="-1.48262">
        <ele>11.7</ele>
        <time>2021-03-20T14:26:44Z</time>
      </trkpt>
      <trkpt lat="54.99059" lon="-1.48262">
        <ele>11.21</ele>
        <time>2021-03-20T14:26:47Z</time>
      </trkpt>
      <trkpt lat="54.99051" lon="-1.48265">
        <ele>10.7</ele>
        <time>2021-03-20T14:26:50Z</time>
      </trkpt>
      <trkpt lat="54.99045" lon="-1.48272">
        <ele>10.27</ele>
        <time>2021-03-20T14:26:53Z</time>
      </trkpt>
      <trkpt lat="54.99009" lon="-1.48276">
        <ele>8.32</ele>
        <time>2021-03-20T14:26:56Z</time>
      </trkpt>
      <trkpt lat="54.99004" lon="-1.4828">
        <ele>8.05</ele>
        <time>2021-03-20T14:26:59Z</time>
      </trkpt>
      <trkpt lat="54.98996" lon="-1.48296">
        <ele>7.18</ele>
        <time>2021-03-20T14:27:02Z</time>
      </trkpt>
      <trkpt lat="54.98992" lon="-1.48325">
        <ele>6.5</ele>
        <time>2021-03-20T14:27:04Z</time>
      </trkpt>
      <trkpt lat="54.9898" lon="-1.4848">
        <ele>5.58</ele>
        <time>2021-03-20T14:27:07Z</time>
      </trkpt>
      <trkpt lat="54.98978" lon="-1.48549">
        <ele>6.22</ele>
        <time>2021-03-20T14:27:10Z</time>
      </trkpt>
      <trkpt lat="54.98982" lon="-1.48621">
        <ele>7.11</ele>
        <time>2021-03-20T14:27:13Z</time>
      </trkpt>
      <trkpt lat="54.98987" lon="-1.4866">
        <ele>7.53</ele>
        <time>2021-03-20T14:27:16Z</time>
      </trkpt>
      <trkpt lat="54.98994" lon="-1.48693">
        <ele>8.31</ele>
        <time>2021-03-20T14:27:19Z</time>
      </trkpt>
      <trkpt lat="54.99006" lon="-1.4873">
        <ele>9.49</ele>
        <time>2021-03-20T14:27:22Z</time>
      </trkpt>
      <trkpt lat="54.99024" lon="-1.48777">
        <ele>11.73</ele>
        <time>2021-03-20T14:27:25Z</time>
      </trkpt>
      <trkpt lat="54.99085" lon="-1.48977">
        <ele>17.15</ele>
        <time>2021-03-20T14:27:28Z</time>
      </trkpt>
      <trkpt lat="54.99094" lon="-1.49028">
        <ele>16.76</ele>
        <time>2021-03-20T14:27:31Z</time>
      </trkpt>
      <trkpt lat="54.991" lon="-1.49088">
        <ele>15.84</ele>
        <time>2021-03-20T14:27:34Z</time>
      </trkpt>
      <trkpt lat="54.99096" lon="-1.49089">
        <ele>15.33</ele>
        <time>2021-03-20T14:27:38Z</time>
      </trkpt>
      <trkpt lat="54.99092" lon="-1.49095">
        <ele>14.95</ele>
        <time>2021-03-20T14:27:42Z</time>
      </trkpt>
      <trkpt lat="54.99091" lon="-1.49103">
        <ele>14.86</ele>
        <time>2021-03-20T14:27:47Z</time>
      </trkpt>
      <trkpt lat="54.99095" lon="-1.49113">
        <ele>15.31</ele>
        <time>2021-03-20T14:27:51Z</time>
      </trkpt>
      <trkpt lat="54.99086" lon="-1.4913">
        <ele>14.31</ele>
        <time>2021-03-20T14:27:56Z</time>
      </trkpt>
      <trkpt lat="54.99076" lon="-1.49154">
        <ele>13.07</ele>
        <time>2021-03-20T14:28:00Z</time>
      </trkpt>
      <trkpt lat="54.99064" lon="-1.49213">
        <ele>14.3</ele>
        <time>2021-03-20T14:28:05Z</time>
      </trkpt>
      <trkpt lat="54.99061" lon="-1.49252">
        <ele>15.19</ele>
        <time>2021-03-20T14:28:09Z</time>
      </trkpt>
      <trkpt lat="54.99061" lon="-1.49337">
        <ele>13.33</ele>
        <time>2021-03-20T14:28:14Z</time>
      </trkpt>
      <trkpt lat="54.99055" lon="-1.496">
        <ele>10.39</ele>
        <time>2021-03-20T14:28:18Z</time>
      </trkpt>
      <trkpt lat="54.99061" lon="-1.49696">
        <ele>9.59</ele>
        <time>2021-03-20T14:28:22Z</time>
      </trkpt>
      <trkpt lat="54.99069" lon="-1.49753">
        <ele>9.92</ele>
        <time>2021-03-20T14:28:27Z</time>
      </trkpt>
      <trkpt lat="54.9908" lon="-1.49801">
        <ele>10.76</ele>
        <time>2021-03-20T14:28:31Z</time>
      </trkpt>
      <trkpt lat="54.99093" lon="-1.49873">
        <ele>11.72</ele>
        <time>2021-03-20T14:28:36Z</time>
      </trkpt>
      <trkpt lat="54.99099" lon="-1.49932">
        <ele>12.56</ele>
        <time>2021-03-20T14:28:40Z</time>
      </trkpt>
      <trkpt lat="54.99091" lon="-1.50051">
        <ele>10.46</ele>
        <time>2021-03-20T14:28:45Z</time>
      </trkpt>
      <trkpt lat="54.9908" lon="-1.50153">
        <ele>8.83</ele>
        <time>2021-03-20T14:28:49Z</time>
      </trkpt>
      <trkpt lat="54.99077" lon="-1.50197">
        <ele>7.74</ele>
        <time>2021-03-20T14:28:53Z</time>
      </trkpt>
      <trkpt lat="54.99077" lon="-1.50241">
        <ele>6.37</ele>
        <time>2021-03-20T14:28:58Z</time>
      </trkpt>
      <trkpt lat="54.99079" lon="-1.50283">
        <ele>4.83</ele>
        <time>2021-03-20T14:29:02Z</time>
      </trkpt>
      <trkpt lat="54.99088" lon="-1.50338">
        <ele>4.51</ele>
        <time>2021-03-20T14:29:07Z</time>
      </trkpt>
      <trkpt lat="54.99098" lon="-1.50371">
        <ele>4.31</ele>
        <time>2021-03-20T14:29:11Z</time>
      </trkpt>
      <trkpt lat="54.99113" lon="-1.50409">
        <ele>4.07</ele>
        <time>2021-03-20T14:29:16Z</time>
      </trkpt>
      <trkpt lat="54.99134" lon="-1.5044">
        <ele>3.85</ele>
        <time>2021-03-20T14:29:20Z</time>
      </trkpt>
      <trkpt lat="54.9922" lon="-1.50555">
        <ele>9.16</ele>
        <time>2021-03-20T14:29:24Z</time>
      </trkpt>
      <trkpt lat="54.99238" lon="-1.50586">
        <ele>8.35</ele>
        <time>2021-03-20T14:29:29Z</time>
      </trkpt>
      <trkpt lat="54.99253" lon="-1.50622">
        <ele>8.2</ele>
        <time>2021-03-20T14:29:33Z</time>
      </trkpt>
      <trkpt lat="54.99269" lon="-1.50669">
        <ele>9.43</ele>
        <time>2021-03-20T14:29:38Z</time>
      </trkpt>
      <trkpt lat="54.99282" lon="-1.50717">
        <ele>11.93</ele>
        <time>2021-03-20T14:29:42Z</time>
      </trkpt>
      <trkpt lat="54.99291" lon="-1.50787">
        <ele>13.22</ele>
        <time>2021-03-20T14:29:47Z</time>
      </trkpt>
      <trkpt lat="54.99295" lon="-1.50866">
        <ele>17.98</ele>
        <time>2021-03-20T14:29:51Z</time>
      </trkpt>
      <trkpt lat="54.99292" lon="-1.50955">
        <ele>20.88</ele>
        <time>2021-03-20T14:29:55Z</time>
      </trkpt>
      <trkpt lat="54.99285" lon="-1.51026">
        <ele>21.73</ele>
        <time>2021-03-20T14:30:00Z</time>
      </trkpt>
      <trkpt lat="54.99226" lon="-1.51449">
        <ele>21.02</ele>
        <time>2021-03-20T14:30:04Z</time>
      </trkpt>
      <trkpt lat="54.99213" lon="-1.51508">
        <ele>21.2</ele>
        <time>2021-03-20T14:30:09Z</time>
      </trkpt>
      <trkpt lat="54.99198" lon="-1.51553">
        <ele>21.13</ele>
        <time>2021-03-20T14:30:13Z</time>
      </trkpt>
      <trkpt lat="54.99178" lon="-1.51595">
        <ele>20.41</ele>
        <time>2021-03-20T14:30:18Z</time>
      </trkpt>
      <trkpt lat="54.99119" lon="-1.51704">
        <ele>23</ele>
        <time>2021-03-20T14:30:22Z</time>
      </trkpt>
      <trkpt lat="54.99098" lon="-1.51755">
        <ele>22.07</ele>
        <time>2021-03-20T14:30:26Z</time>
      </trkpt>
      <trkpt lat="54.99083" lon="-1.51827">
        <ele>20.95</ele>
        <time>2021-03-20T14:30:31Z</time>
      </trkpt>
      <trkpt lat="54.99076" lon="-1.51831">
        <ele>20.46</ele>
        <time>2021-03-20T14:30:37Z</time>
      </trkpt>
      <trkpt lat="54.99073" lon="-1.51839">
        <ele>20.12</ele>
        <time>2021-03-20T14:30:42Z</time>
      </trkpt>
      <trkpt lat="54.99076" lon="-1.51854">
        <ele>19.9</ele>
        <time>2021-03-20T14:30:48Z</time>
      </trkpt>
      <trkpt lat="54.99071" lon="-1.51873">
        <ele>19.31</ele>
        <time>2021-03-20T14:30:54Z</time>
      </trkpt>
      <trkpt lat="54.99052" lon="-1.51922">
        <ele>18.86</ele>
        <time>2021-03-20T14:31:00Z</time>
      </trkpt>
      <trkpt lat="54.99039" lon="-1.5197">
        <ele>18.04</ele>
        <time>2021-03-20T14:31:06Z</time>
      </trkpt>
      <trkpt lat="54.99025" lon="-1.52069">
        <ele>17.15</ele>
        <time>2021-03-20T14:31:11Z</time>
      </trkpt>
      <trkpt lat="54.99022" lon="-1.52119">
        <ele>15.88</ele>
        <time>2021-03-20T14:31:17Z</time>
      </trkpt>
      <trkpt lat="54.99019" lon="-1.52218">
        <ele>15.02</ele>
        <time>2021-03-20T14:31:23Z</time>
      </trkpt>
      <trkpt lat="54.9902" lon="-1.52307">
        <ele>16.93</ele>
        <time>2021-03-20T14:31:29Z</time>
      </trkpt>
      <trkpt lat="54.99028" lon="-1.52444">
        <ele>19.97</ele>
        <time>2021-03-20T14:31:35Z</time>
      </trkpt>
      <trkpt lat="54.99026" lon="-1.52519">
        <ele>22.59</ele>
        <time>2021-03-20T14:31:40Z</time>
      </trkpt>
      <trkpt lat="54.99008" lon="-1.52654">
        <ele>21</ele>
        <time>2021-03-20T14:31:46Z</time>
      </trkpt>
      <trkpt lat="54.98967" lon="-1.52841">
        <ele>22.27</ele>
        <time>2021-03-20T14:31:52Z</time>
      </trkpt>
      <trkpt lat="54.98962" lon="-1.52861">
        <ele>23</ele>
        <time>2021-03-20T14:31:58Z</time>
      </trkpt>
      <trkpt lat="54.98956" lon="-1.5288">
        <ele>23</ele>
        <time>2021-03-20T14:32:04Z</time>
      </trkpt>
      <trkpt lat="54.98874" lon="-1.53098">
        <ele>24.54</ele>
        <time>2021-03-20T14:32:09Z</time>
      </trkpt>
      <trkpt lat="54.98847" lon="-1.53162">
        <ele>25.5</ele>
        <time>2021-03-20T14:32:15Z</time>
      </trkpt>
      <trkpt lat="54.98804" lon="-1.53283">
        <ele>24.07</ele>
        <time>2021-03-20T14:32:21Z</time>
      </trkpt>
      <trkpt lat="54.98783" lon="-1.53332">
        <ele>24.16</ele>
        <time>2021-03-20T14:32:27Z</time>
      </trkpt>
      <trkpt lat="54.98762" lon="-1.53369">
        <ele>24.72</ele>
        <time>2021-03-20T14:32:33Z</time>
      </trkpt>
      <trkpt lat="54.98688" lon="-1.53481">
        <ele>25.33</ele>
        <time>2021-03-20T14:32:38Z</time>
      </trkpt>
      <trkpt lat="54.98486" lon="-1.53776">
        <ele>22.98</ele>
        <time>2021-03-20T14:32:44Z</time>
      </trkpt>
      <trkpt lat="54.98473" lon="-1.53806">
        <ele>23.06</ele>
        <time>2021-03-20T14:32:50Z</time>
      </trkpt>
      <trkpt lat="54.98466" lon="-1.53806">
        <ele>22.56</ele>
        <time>2021-03-20T14:32:54Z</time>
      </trkpt>
      <trkpt lat="54.98462" lon="-1.53815">
        <ele>22.26</ele>
        <time>2021-03-20T14:32:57Z</time>
      </trkpt>
      <trkpt lat="54.98464" lon="-1.53827">
        <ele>22.42</ele>
        <time>2021-03-20T14:33:01Z</time>
      </trkpt>
      <trkpt lat="54.98471" lon="-1.53831">
        <ele>22.92</ele>
        <time>2021-03-20T14:33:04Z</time>
      </trkpt>
      <trkpt lat="54.98471" lon="-1.53846">
        <ele>22.91</ele>
        <time>2021-03-20T14:33:08Z</time>
      </trkpt>
      <trkpt lat="54.98463" lon="-1.5394">
        <ele>21.67</ele>
        <time>2021-03-20T14:33:11Z</time>
      </trkpt>
      <trkpt lat="54.98426" lon="-1.54197">
        <ele>20.38</ele>
        <time>2021-03-20T14:33:15Z</time>
      </trkpt>
      <trkpt lat="54.98422" lon="-1.54195">
        <ele>20.2</ele>
        <time>2021-03-20T14:33:27Z</time>
      </trkpt>
      <trkpt lat="54.98414" lon="-1.54198">
        <ele>20.14</ele>
        <time>2021-03-20T14:33:39Z</time>
      </trkpt>
      <trkpt lat="54.98409" lon="-1.54209">
        <ele>20.52</ele>
        <time>2021-03-20T14:33:50Z</time>
      </trkpt>
      <trkpt lat="54.98408" lon="-1.54216">
        <ele>20.76</ele>
        <time>2021-03-20T14:34:02Z</time>
      </trkpt>
      <trkpt lat="54.98408" lon="-1.54222">
        <ele>21</ele>
        <time>2021-03-20T14:34:14Z</time>
      </trkpt>
      <trkpt lat="54.98412" lon="-1.54234">
        <ele>21.41</ele>
        <time>2021-03-20T14:34:26Z</time>
      </trkpt>
      <trkpt lat="54.98419" lon="-1.54239">
        <ele>21.6</ele>
        <time>2021-03-20T14:34:38Z</time>
      </trkpt>
      <trkpt lat="54.98409" lon="-1.54302">
        <ele>23.88</ele>
        <time>2021-03-20T14:34:50Z</time>
      </trkpt>
      <trkpt lat="54.9835" lon="-1.54763">
        <ele>27</ele>
        <time>2021-03-20T14:35:01Z</time>
      </trkpt>
      <trkpt lat="54.98284" lon="-1.5525">
        <ele>27.24</ele>
        <time>2021-03-20T14:35:13Z</time>
      </trkpt>
      <trkpt lat="54.98259" lon="-1.55444">
        <ele>27.67</ele>
        <time>2021-03-20T14:35:25Z</time>
      </trkpt>
      <trkpt lat="54.98224" lon="-1.55689">
        <ele>33.75</ele>
        <time>2021-03-20T14:35:37Z</time>
      </trkpt>
      <trkpt lat="54.9819" lon="-1.55822">
        <ele>33.85</ele>
        <time>2021-03-20T14:35:49Z</time>
      </trkpt>
      <trkpt lat="54.9797" lon="-1.5672">
        <ele>46.87</ele>
        <time>2021-03-20T14:36:00Z</time>
      </trkpt>
      <trkpt lat="54.97936" lon="-1.56869">
        <ele>49.42</ele>
        <time>2021-03-20T14:36:12Z</time>
      </trkpt>
      <trkpt lat="54.97921" lon="-1.56937">
        <ele>48.28</ele>
        <time>2021-03-20T14:36:17Z</time>
      </trkpt>
      <trkpt lat="54.97923" lon="-1.56993">
        <ele>50.01</ele>
        <time>2021-03-20T14:36:21Z</time>
      </trkpt>
      <trkpt lat="54.97911" lon="-1.57019">
        <ele>50.54</ele>
        <time>2021-03-20T14:36:25Z</time>
      </trkpt>
      <trkpt lat="54.97894" lon="-1.57049">
        <ele>50.18</ele>
        <time>2021-03-20T14:36:30Z</time>
      </trkpt>
      <trkpt lat="54.97854" lon="-1.57201">
        <ele>54.49</ele>
        <time>2021-03-20T14:36:34Z</time>
      </trkpt>
      <trkpt lat="54.9785" lon="-1.572">
        <ele>54.6</ele>
        <time>2021-03-20T14:36:36Z</time>
      </trkpt>
      <trkpt lat="54.97843" lon="-1.57207">
        <ele>55.09</ele>
        <time>2021-03-20T14:36:38Z</time>
      </trkpt>
      <trkpt lat="54.97842" lon="-1.5722">
        <ele>55.62</ele>
        <time>2021-03-20T14:36:40Z</time>
      </trkpt>
      <trkpt lat="54.97847" lon="-1.57231">
        <ele>55.51</ele>
        <time>2021-03-20T14:36:42Z</time>
      </trkpt>
      <trkpt lat="54.97829" lon="-1.57281">
        <ele>56.3</ele>
        <time>2021-03-20T14:36:44Z</time>
      </trkpt>
      <trkpt lat="54.97809" lon="-1.57329">
        <ele>57.74</ele>
        <time>2021-03-20T14:36:46Z</time>
      </trkpt>
      <trkpt lat="54.97779" lon="-1.57372">
        <ele>58.9</ele>
        <time>2021-03-20T14:36:48Z</time>
      </trkpt>
      <trkpt lat="54.97772" lon="-1.57376">
        <ele>59.1</ele>
        <time>2021-03-20T14:36:53Z</time>
      </trkpt>
      <trkpt lat="54.97768" lon="-1.57384">
        <ele>59.29</ele>
        <time>2021-03-20T14:36:58Z</time>
      </trkpt>
      <trkpt lat="54.97764" lon="-1.574">
        <ele>59.9</ele>
        <time>2021-03-20T14:37:03Z</time>
      </trkpt>
      <trkpt lat="54.97747" lon="-1.57424">
        <ele>61.35</ele>
        <time>2021-03-20T14:37:08Z</time>
      </trkpt>
      <trkpt lat="54.97728" lon="-1.57439">
        <ele>62.59</ele>
        <time>2021-03-20T14:37:13Z</time>
      </trkpt>
      <trkpt lat="54.97712" lon="-1.57459">
        <ele>62.12</ele>
        <time>2021-03-20T14:37:18Z</time>
      </trkpt>
      <trkpt lat="54.97684" lon="-1.57503">
        <ele>60.51</ele>
        <time>2021-03-20T14:37:23Z</time>
      </trkpt>
      <trkpt lat="54.9767" lon="-1.57539">
        <ele>59.06</ele>
        <time>2021-03-20T14:37:28Z</time>
      </trkpt>
      <trkpt lat="54.97658" lon="-1.57576">
        <ele>58.57</ele>
        <time>2021-03-20T14:37:33Z</time>
      </trkpt>
      <trkpt lat="54.97649" lon="-1.57616">
        <ele>58.26</ele>
        <time>2021-03-20T14:37:38Z</time>
      </trkpt>
      <trkpt lat="54.97609" lon="-1.57873">
        <ele>54.32</ele>
        <time>2021-03-20T14:37:43Z</time>
      </trkpt>
      <trkpt lat="54.97541" lon="-1.58335">
        <ele>39.88</ele>
        <time>2021-03-20T14:37:48Z</time>
      </trkpt>
      <trkpt lat="54.97535" lon="-1.58385">
        <ele>37.9</ele>
        <time>2021-03-20T14:37:53Z</time>
      </trkpt>
      <trkpt lat="54.9753" lon="-1.58498">
        <ele>36.08</ele>
        <time>2021-03-20T14:37:58Z</time>
      </trkpt>
      <trkpt lat="54.97532" lon="-1.58564">
        <ele>35.29</ele>
        <time>2021-03-20T14:38:03Z</time>
      </trkpt>
      <trkpt lat="54.97538" lon="-1.58636">
        <ele>36.29</ele>
        <time>2021-03-20T14:38:08Z</time>
      </trkpt>
      <trkpt lat="54.97546" lon="-1.58699">
        <ele>37.28</ele>
        <time>2021-03-20T14:38:13Z</time>
      </trkpt>
      <trkpt lat="54.97544" lon="-1.58709">
        <ele>37.17</ele>
        <time>2021-03-20T14:38:20Z</time>
      </trkpt>
      <trkpt lat="54.97545" lon="-1.58722">
        <ele>37.25</ele>
        <time>2021-03-20T14:38:27Z</time>
      </trkpt>
      <trkpt lat="54.97548" lon="-1.58729">
        <ele>37.01</ele>
        <time>2021-03-20T14:38:33Z</time>
      </trkpt>
      <trkpt lat="54.97567" lon="-1.58774">
        <ele>35.56</ele>
        <time>2021-03-20T14:38:40Z</time>
      </trkpt>
      <trkpt lat="54.97587" lon="-1.5885">
        <ele>32.66</ele>
        <time>2021-03-20T14:38:46Z</time>
      </trkpt>
      <trkpt lat="54.97598" lon="-1.58902">
        <ele>31.56</ele>
        <time>2021-03-20T14:38:53Z</time>
      </trkpt>
      <trkpt lat="54.97601" lon="-1.58939">
        <ele>29.53</ele>
        <time>2021-03-20T14:39:00Z</time>
      </trkpt>
      <trkpt lat="54.97599" lon="-1.58951">
        <ele>28.16</ele>
        <time>2021-03-20T14:39:06Z</time>
      </trkpt>
      <trkpt lat="54.97535" lon="-1.59455">
        <ele>30.43</ele>
        <time>2021-03-20T14:39:13Z</time>
      </trkpt>
      <trkpt lat="54.97521" lon="-1.59524">
        <ele>30.74</ele>
        <time>2021-03-20T14:39:19Z</time>
      </trkpt>
      <trkpt lat="54.97494" lon="-1.59628">
        <ele>35.52</ele>
        <time>2021-03-20T14:39:26Z</time>
      </trkpt>
      <trkpt lat="54.97474" lon="-1.59692">
        <ele>37.85</ele>
        <time>2021-03-20T14:39:33Z</time>
      </trkpt>
      <trkpt lat="54.97447" lon="-1.59833">
        <ele>36.85</ele>
        <time>2021-03-20T14:39:39Z</time>
      </trkpt>
      <trkpt lat="54.97445" lon="-1.59854">
        <ele>37</ele>
        <time>2021-03-20T14:39:46Z</time>
      </trkpt>
      <trkpt lat="54.97436" lon="-1.60296">
        <ele>41.13</ele>
        <time>2021-03-20T14:39:52Z</time>
      </trkpt>
      <trkpt lat="54.97438" lon="-1.60366">
        <ele>41.57</ele>
        <time>2021-03-20T14:39:59Z</time>
      </trkpt>
      <trkpt lat="54.97434" lon="-1.60388">
        <ele>41.23</ele>
        <time>2021-03-20T14:40:05Z</time>
      </trkpt>
      <trkpt lat="54.97448" lon="-1.60566">
        <ele>37.2</ele>
        <time>2021-03-20T14:40:12Z</time>
      </trkpt>
      <trkpt lat="54.97457" lon="-1.60592">
        <ele>37.47</ele>
        <time>2021-03-20T14:40:19Z</time>
      </trkpt>
      <trkpt lat="54.97471" lon="-1.60616">
        <ele>38.12</ele>
        <time>2021-03-20T14:40:25Z</time>
      </trkpt>
      <trkpt lat="54.9748" lon="-1.60629">
        <ele>39.53</ele>
        <time>2021-03-20T14:40:32Z</time>
      </trkpt>
      <trkpt lat="54.97478" lon="-1.60645">
        <ele>39.6</ele>
        <time>2021-03-20T14:40:34Z</time>
      </trkpt>
      <trkpt lat="54.97478" lon="-1.60664">
        <ele>39.65</ele>
        <time>2021-03-20T14:40:37Z</time>
      </trkpt>
      <trkpt lat="54.97482" lon="-1.60683">
        <ele>41.66</ele>
        <time>2021-03-20T14:40:39Z</time>
      </trkpt>
      <trkpt lat="54.97491" lon="-1.607">
        <ele>43.63</ele>
        <time>2021-03-20T14:40:41Z</time>
      </trkpt>
      <trkpt lat="54.97498" lon="-1.60707">
        <ele>44.34</ele>
        <time>2021-03-20T14:40:44Z</time>
      </trkpt>
      <trkpt lat="54.97512" lon="-1.60711">
        <ele>44.43</ele>
        <time>2021-03-20T14:40:46Z</time>
      </trkpt>
      <trkpt lat="54.97521" lon="-1.60734">
        <ele>46.18</ele>
        <time>2021-03-20T14:40:49Z</time>
      </trkpt>
      <trkpt lat="54.97532" lon="-1.60776">
        <ele>49.72</ele>
        <time>2021-03-20T14:40:51Z</time>
      </trkpt>
      <trkpt lat="54.97554" lon="-1.60824">
        <ele>51.71</ele>
        <time>2021-03-20T14:40:53Z</time>
      </trkpt>
      <trkpt lat="54.97579" lon="-1.60871">
        <ele>53</ele>
        <time>2021-03-20T14:40:56Z</time>
      </trkpt>
      <trkpt lat="54.97586" lon="-1.60917">
        <ele>53.1</ele>
        <time>2021-03-20T14:41:00Z</time>
      </trkpt>
      <trkpt lat="54.97582" lon="-1.60956">
        <ele>53.34</ele>
        <time>2021-03-20T14:41:05Z</time>
      </trkpt>
      <trkpt lat="54.97567" lon="-1.6104">
        <ele>53.8</ele>
        <time>2021-03-20T14:41:09Z</time>
      </trkpt>
      <trkpt lat="54.97626" lon="-1.61072">
        <ele>55.4</ele>
        <time>2021-03-20T14:41:31Z</time>
      </trkpt>
      <trkpt lat="54.97791" lon="-1.61153">
        <ele>51.77</ele>
        <time>2021-03-20T14:41:52Z</time>
      </trkpt>
      <trkpt lat="54.97783" lon="-1.61306">
        <ele>49.98</ele>
        <time>2021-03-20T14:41:59Z</time>
      </trkpt>
      <trkpt lat="54.97783" lon="-1.6134">
        <ele>49.49</ele>
        <time>2021-03-20T14:42:05Z</time>
      </trkpt>
      <trkpt lat="54.9779" lon="-1.61366">
        <ele>51.06</ele>
        <time>2021-03-20T14:42:12Z</time>
      </trkpt>
      <trkpt lat="54.97802" lon="-1.61389">
        <ele>52.78</ele>
        <time>2021-03-20T14:42:18Z</time>
      </trkpt>
      <trkpt lat="54.97799" lon="-1.614">
        <ele>53.26</ele>
        <time>2021-03-20T14:42:26Z</time>
      </trkpt>
      <trkpt lat="54.97788" lon="-1.6142">
        <ele>53.87</ele>
        <time>2021-03-20T14:42:34Z</time>
      </trkpt>
      <trkpt lat="54.9774" lon="-1.61462">
        <ele>52.98</ele>
        <time>2021-03-20T14:42:42Z</time>
      </trkpt>
      <trkpt lat="54.97733" lon="-1.61469">
        <ele>53.51</ele>
        <time>2021-03-20T14:42:49Z</time>
      </trkpt>
      <trkpt lat="54.97638" lon="-1.61559">
        <ele>54.14</ele>
        <time>2021-03-20T14:42:57Z</time>
      </trkpt>
      <trkpt lat="54.97549" lon="-1.61652">
        <ele>58.78</ele>
        <time>2021-03-20T14:43:05Z</time>
      </trkpt>
      <trkpt lat="54.97528" lon="-1.6167">
        <ele>58.13</ele>
        <time>2021-03-20T14:43:13Z</time>
      </trkpt>
      <trkpt lat="54.97492" lon="-1.61694">
        <ele>58.32</ele>
        <time>2021-03-20T14:43:20Z</time>
      </trkpt>
      <trkpt lat="54.97459" lon="-1.61708">
        <ele>59.96</ele>
        <time>2021-03-20T14:43:28Z</time>
      </trkpt>
      <trkpt lat="54.97462" lon="-1.61736">
        <ele>60.23</ele>
        <time>2021-03-20T14:43:37Z</time>
      </trkpt>
      <trkpt lat="54.9753" lon="-1.61815">
        <ele>60.39</ele>
        <time>2021-03-20T14:43:46Z</time>
      </trkpt>
      <trkpt lat="54.97484" lon="-1.61975">
        <ele>61.19</ele>
        <time>2021-03-20T14:43:53Z</time>
      </trkpt>
      <trkpt lat="54.97443" lon="-1.62126">
        <ele>65.5</ele>
        <time>2021-03-20T14:44:00Z</time>
      </trkpt>
      <trkpt lat="54.97432" lon="-1.62161">
        <ele>66.8</ele>
        <time>2021-03-20T14:44:06Z</time>
      </trkpt>
      <trkpt lat="54.97408" lon="-1.62224">
        <ele>65.16</ele>
        <time>2021-03-20T14:44:13Z</time>
      </trkpt>
      <trkpt lat="54.97446" lon="-1.62272">
        <ele>76.98</ele>
        <time>2021-03-20T14:44:22Z</time>
      </trkpt>
      <trkpt lat="54.9749" lon="-1.62332">
        <ele>83.79</ele>
        <time>2021-03-20T14:44:30Z</time>
      </trkpt>
      <trkpt lat="54.9752" lon="-1.62428">
        <ele>70.58</ele>
        <time>2021-03-20T14:44:39Z</time>
      </trkpt>
      <trkpt lat="54.97539" lon="-1.62499">
        <ele>68.39</ele>
        <time>2021-03-20T14:44:47Z</time>
      </trkpt>
      <trkpt lat="54.97556" lon="-1.62577">
        <ele>69.83</ele>
        <time>2021-03-20T14:44:55Z</time>
      </trkpt>
      <trkpt lat="54.97571" lon="-1.62632">
        <ele>72.3</ele>
        <time>2021-03-20T14:45:04Z</time>
      </trkpt>
      <trkpt lat="54.97588" lon="-1.62684">
        <ele>74.78</ele>
        <time>2021-03-20T14:45:12Z</time>
      </trkpt>
      <trkpt lat="54.97609" lon="-1.62718">
        <ele>75.91</ele>
        <time>2021-03-20T14:45:21Z</time>
      </trkpt>
      <trkpt lat="54.97644" lon="-1.62759">
        <ele>78.09</ele>
        <time>2021-03-20T14:45:29Z</time>
      </trkpt>
      <trkpt lat="54.97739" lon="-1.62863">
        <ele>78</ele>
        <time>2021-03-20T14:45:38Z</time>
      </trkpt>
      <trkpt lat="54.9776" lon="-1.62893">
        <ele>78.14</ele>
        <time>2021-03-20T14:45:46Z</time>
      </trkpt>
      <trkpt lat="54.97788" lon="-1.62944">
        <ele>79</ele>
        <time>2021-03-20T14:45:54Z</time>
      </trkpt>
      <trkpt lat="54.97853" lon="-1.6311">
        <ele>83.29</ele>
        <time>2021-03-20T14:46:03Z</time>
      </trkpt>
      <trkpt lat="54.9791" lon="-1.63246">
        <ele>84.9</ele>
        <time>2021-03-20T14:46:11Z</time>
      </trkpt>
      <trkpt lat="54.97976" lon="-1.63361">
        <ele>86.99</ele>
        <time>2021-03-20T14:46:20Z</time>
      </trkpt>
      <trkpt lat="54.97995" lon="-1.63388">
        <ele>87</ele>
        <time>2021-03-20T14:46:28Z</time>
      </trkpt>
      <trkpt lat="54.98069" lon="-1.6348">
        <ele>87.29</ele>
        <time>2021-03-20T14:46:37Z</time>
      </trkpt>
      <trkpt lat="54.98154" lon="-1.63602">
        <ele>85.94</ele>
        <time>2021-03-20T14:46:45Z</time>
      </trkpt>
      <trkpt lat="54.98183" lon="-1.63645">
        <ele>85.53</ele>
        <time>2021-03-20T14:46:54Z</time>
      </trkpt>
      <trkpt lat="54.98363" lon="-1.63943">
        <ele>89</ele>
        <time>2021-03-20T14:47:02Z</time>
      </trkpt>
      <trkpt lat="54.98426" lon="-1.6404">
        <ele>91.79</ele>
        <time>2021-03-20T14:47:10Z</time>
      </trkpt>
      <trkpt lat="54.98434" lon="-1.64062">
        <ele>92.75</ele>
        <time>2021-03-20T14:47:19Z</time>
      </trkpt>
      <trkpt lat="54.98445" lon="-1.64097">
        <ele>94.01</ele>
        <time>2021-03-20T14:47:21Z</time>
      </trkpt>
      <trkpt lat="54.98446" lon="-1.64116">
        <ele>94.05</ele>
        <time>2021-03-20T14:47:22Z</time>
      </trkpt>
      <trkpt lat="54.98445" lon="-1.64141">
        <ele>94.01</ele>
        <time>2021-03-20T14:47:24Z</time>
      </trkpt>
      <trkpt lat="54.9844" lon="-1.64174">
        <ele>93.88</ele>
        <time>2021-03-20T14:47:26Z</time>
      </trkpt>
      <trkpt lat="54.98435" lon="-1.64224">
        <ele>94.07</ele>
        <time>2021-03-20T14:47:38Z</time>
      </trkpt>
      <trkpt lat="54.98419" lon="-1.64619">
        <ele>100.21</ele>
        <time>2021-03-20T14:47:49Z</time>
      </trkpt>
      <trkpt lat="54.98414" lon="-1.64849">
        <ele>103.57</ele>
        <time>2021-03-20T14:48:01Z</time>
      </trkpt>
      <trkpt lat="54.98401" lon="-1.65271">
        <ele>107.43</ele>
        <time>2021-03-20T14:48:13Z</time>
      </trkpt>
      <trkpt lat="54.98387" lon="-1.65671">
        <ele>110.92</ele>
        <time>2021-03-20T14:48:25Z</time>
      </trkpt>
      <trkpt lat="54.98383" lon="-1.65749">
        <ele>109.25</ele>
        <time>2021-03-20T14:48:36Z</time>
      </trkpt>
      <trkpt lat="54.98382" lon="-1.65795">
        <ele>109.38</ele>
        <time>2021-03-20T14:48:48Z</time>
      </trkpt>
      <trkpt lat="54.98389" lon="-1.65875">
        <ele>109</ele>
        <time>2021-03-20T14:49:00Z</time>
      </trkpt>
      <trkpt lat="54.98406" lon="-1.65962">
        <ele>108.96</ele>
        <time>2021-03-20T14:49:12Z</time>
      </trkpt>
      <trkpt lat="54.98454" lon="-1.66155">
        <ele>108.66</ele>
        <time>2021-03-20T14:49:23Z</time>
      </trkpt>
      <trkpt lat="54.98514" lon="-1.66366">
        <ele>109.51</ele>
        <time>2021-03-20T14:49:35Z</time>
      </trkpt>
      <trkpt lat="54.98592" lon="-1.66569">
        <ele>102.07</ele>
        <time>2021-03-20T14:49:47Z</time>
      </trkpt>
      <trkpt lat="54.98715" lon="-1.6686">
        <ele>91.31</ele>
        <time>2021-03-20T14:49:58Z</time>
      </trkpt>
      <trkpt lat="54.98733" lon="-1.66897">
        <ele>90.71</ele>
        <time>2021-03-20T14:50:10Z</time>
      </trkpt>
      <trkpt lat="54.98774" lon="-1.6697">
        <ele>89.01</ele>
        <time>2021-03-20T14:50:22Z</time>
      </trkpt>
      <trkpt lat="54.98857" lon="-1.67107">
        <ele>87</ele>
        <time>2021-03-20T14:50:34Z</time>
      </trkpt>
      <trkpt lat="54.989" lon="-1.67042">
        <ele>88</ele>
        <time>2021-03-20T14:50:39Z</time>
      </trkpt>
      <trkpt lat="54.98953" lon="-1.66953">
        <ele>87.45</ele>
        <time>2021-03-20T14:50:44Z</time>
      </trkpt>
      <trkpt lat="54.9897" lon="-1.66939">
        <ele>86.34</ele>
        <time>2021-03-20T14:50:50Z</time>
      </trkpt>
      <trkpt lat="54.98985" lon="-1.66933">
        <ele>86.67</ele>
        <time>2021-03-20T14:50:55Z</time>
      </trkpt>
      <trkpt lat="54.98987" lon="-1.66936">
        <ele>86.67</ele>
        <time>2021-03-20T14:51:01Z</time>
      </trkpt>
      <trkpt lat="54.9899" lon="-1.66993">
        <ele>87.64</ele>
        <time>2021-03-20T14:51:07Z</time>
      </trkpt>
      <trkpt lat="54.98991" lon="-1.67151">
        <ele>87.67</ele>
        <time>2021-03-20T14:51:13Z</time>
      </trkpt>
      <trkpt lat="54.98993" lon="-1.67208">
        <ele>88.5</ele>
        <time>2021-03-20T14:51:19Z</time>
      </trkpt>
      <trkpt lat="54.99003" lon="-1.67283">
        <ele>88.25</ele>
        <time>2021-03-20T14:51:25Z</time>
      </trkpt>
      <trkpt lat="54.99029" lon="-1.67374">
        <ele>88.04</ele>
        <time>2021-03-20T14:51:31Z</time>
      </trkpt>
      <trkpt lat="54.9906" lon="-1.6744">
        <ele>88.15</ele>
        <time>2021-03-20T14:51:37Z</time>
      </trkpt>
      <trkpt lat="54.99095" lon="-1.67487">
        <ele>88</ele>
        <time>2021-03-20T14:51:43Z</time>
      </trkpt>
      <trkpt lat="54.99159" lon="-1.67555">
        <ele>90.72</ele>
        <time>2021-03-20T14:51:49Z</time>
      </trkpt>
      <trkpt lat="54.9918" lon="-1.67584">
        <ele>91</ele>
        <time>2021-03-20T14:51:55Z</time>
      </trkpt>
      <trkpt lat="54.99181" lon="-1.6759">
        <ele>91</ele>
        <time>2021-03-20T14:52:01Z</time>
      </trkpt>
      <trkpt lat="54.99185" lon="-1.67597">
        <ele>91</ele>
        <time>2021-03-20T14:52:06Z</time>
      </trkpt>
      <trkpt lat="54.99193" lon="-1.676">
        <ele>91</ele>
        <time>2021-03-20T14:52:12Z</time>
      </trkpt>
      <trkpt lat="54.9926" lon="-1.67675">
        <ele>91.29</ele>
        <time>2021-03-20T14:52:17Z</time>
      </trkpt>
      <trkpt lat="54.99409" lon="-1.67854">
        <ele>94.75</ele>
        <time>2021-03-20T14:52:22Z</time>
      </trkpt>
      <trkpt lat="54.99451" lon="-1.67924">
        <ele>97</ele>
        <time>2021-03-20T14:52:28Z</time>
      </trkpt>
      <trkpt lat="54.99475" lon="-1.67972">
        <ele>101.07</ele>
        <time>2021-03-20T14:52:33Z</time>
      </trkpt>
      <trkpt lat="54.99482" lon="-1.67988">
        <ele>101.14</ele>
        <time>2021-03-20T14:52:39Z</time>
      </trkpt>
      <trkpt lat="54.99488" lon="-1.68012">
        <ele>100.58</ele>
        <time>2021-03-20T14:52:44Z</time>
      </trkpt>
      <trkpt lat="54.99491" lon="-1.68041">
        <ele>99.69</ele>
        <time>2021-03-20T14:52:50Z</time>
      </trkpt>
      <trkpt lat="54.99488" lon="-1.68062">
        <ele>99.33</ele>
        <time>2021-03-20T14:52:52Z</time>
      </trkpt>
      <trkpt lat="54.99491" lon="-1.68086">
        <ele>99</ele>
        <time>2021-03-20T14:52:55Z</time>
      </trkpt>
      <trkpt lat="54.99501" lon="-1.68117">
        <ele>99.55</ele>
        <time>2021-03-20T14:52:58Z</time>
      </trkpt>
      <trkpt lat="54.99516" lon="-1.68141">
        <ele>100.03</ele>
        <time>2021-03-20T14:53:00Z</time>
      </trkpt>
      <trkpt lat="54.99534" lon="-1.68151">
        <ele>100.79</ele>
        <time>2021-03-20T14:53:03Z</time>
      </trkpt>
      <trkpt lat="54.99559" lon="-1.68174">
        <ele>102.59</ele>
        <time>2021-03-20T14:53:05Z</time>
      </trkpt>
      <trkpt lat="54.99577" lon="-1.68204">
        <ele>104.63</ele>
        <time>2021-03-20T14:53:08Z</time>
      </trkpt>
      <trkpt lat="54.99589" lon="-1.68235">
        <ele>105.11</ele>
        <time>2021-03-20T14:53:11Z</time>
      </trkpt>
      <trkpt lat="54.99587" lon="-1.68246">
        <ele>105.02</ele>
        <time>2021-03-20T14:53:18Z</time>
      </trkpt>
      <trkpt lat="54.99588" lon="-1.68257">
        <ele>105</ele>
        <time>2021-03-20T14:53:25Z</time>
      </trkpt>
      <trkpt lat="54.9959" lon="-1.68267">
        <ele>105</ele>
        <time>2021-03-20T14:53:32Z</time>
      </trkpt>
      <trkpt lat="54.99598" lon="-1.68279">
        <ele>105.05</ele>
        <time>2021-03-20T14:53:40Z</time>
      </trkpt>
      <trkpt lat="54.99609" lon="-1.68282">
        <ele>105.15</ele>
        <time>2021-03-20T14:53:47Z</time>
      </trkpt>
      <trkpt lat="54.99614" lon="-1.6828">
        <ele>105.17</ele>
        <time>2021-03-20T14:53:54Z</time>
      </trkpt>
      <trkpt lat="54.99623" lon="-1.68291">
        <ele>105.87</ele>
        <time>2021-03-20T14:54:01Z</time>
      </trkpt>
      <trkpt lat="54.99657" lon="-1.68352">
        <ele>108.3</ele>
        <time>2021-03-20T14:54:09Z</time>
      </trkpt>
      <trkpt lat="54.99676" lon="-1.68382">
        <ele>109</ele>
        <time>2021-03-20T14:54:16Z</time>
      </trkpt>
      <trkpt lat="54.99731" lon="-1.68527">
        <ele>110.68</ele>
        <time>2021-03-20T14:54:23Z</time>
      </trkpt>
      <trkpt lat="54.9979" lon="-1.68642">
        <ele>108.68</ele>
        <time>2021-03-20T14:54:30Z</time>
      </trkpt>
      <trkpt lat="54.99816" lon="-1.68721">
        <ele>109</ele>
        <time>2021-03-20T14:54:38Z</time>
      </trkpt>
      <trkpt lat="54.99828" lon="-1.68773">
        <ele>110.17</ele>
        <time>2021-03-20T14:54:45Z</time>
      </trkpt>
      <trkpt lat="54.99911" lon="-1.69209">
        <ele>109.8</ele>
        <time>2021-03-20T14:54:52Z</time>
      </trkpt>
      <trkpt lat="54.9992" lon="-1.69247">
        <ele>110.9</ele>
        <time>2021-03-20T14:54:59Z</time>
      </trkpt>
      <trkpt lat="54.99935" lon="-1.69301">
        <ele>111.29</ele>
        <time>2021-03-20T14:55:07Z</time>
      </trkpt>
      <trkpt lat="54.99975" lon="-1.69401">
        <ele>112.44</ele>
        <time>2021-03-20T14:55:14Z</time>
      </trkpt>
      <trkpt lat="55.00017" lon="-1.69497">
        <ele>114</ele>
        <time>2021-03-20T14:55:21Z</time>
      </trkpt>
      <trkpt lat="55.00059" lon="-1.69604">
        <ele>113</ele>
        <time>2021-03-20T14:55:28Z</time>
      </trkpt>
      <trkpt lat="55.00089" lon="-1.69665">
        <ele>112.57</ele>
        <time>2021-03-20T14:55:36Z</time>
      </trkpt>
      <trkpt lat="55.00145" lon="-1.69803">
        <ele>112.69</ele>
        <time>2021-03-20T14:55:43Z</time>
      </trkpt>
      <trkpt lat="55.00154" lon="-1.69824">
        <ele>112.46</ele>
        <time>2021-03-20T14:55:50Z</time>
      </trkpt>
      <trkpt lat="55.00194" lon="-1.6994">
        <ele>112.05</ele>
        <time>2021-03-20T14:55:57Z</time>
      </trkpt>
      <trkpt lat="55.00233" lon="-1.70063">
        <ele>110.88</ele>
        <time>2021-03-20T14:56:04Z</time>
      </trkpt>
      <trkpt lat="55.00338" lon="-1.70446">
        <ele>99.74</ele>
        <time>2021-03-20T14:56:12Z</time>
      </trkpt>
      <trkpt lat="55.00387" lon="-1.70606">
        <ele>100.94</ele>
        <time>2021-03-20T14:56:19Z</time>
      </trkpt>
      <trkpt lat="55.00462" lon="-1.70818">
        <ele>101.63</ele>
        <time>2021-03-20T14:56:26Z</time>
      </trkpt>
      <trkpt lat="55.00472" lon="-1.70854">
        <ele>102.73</ele>
        <time>2021-03-20T14:56:33Z</time>
      </trkpt>
      <trkpt lat="55.00481" lon="-1.70895">
        <ele>103.15</ele>
        <time>2021-03-20T14:56:41Z</time>
      </trkpt>
      <trkpt lat="55.00501" lon="-1.70965">
        <ele>103.73</ele>
        <time>2021-03-20T14:56:48Z</time>
      </trkpt>
      <trkpt lat="55.0055" lon="-1.71123">
        <ele>106.63</ele>
        <time>2021-03-20T14:56:55Z</time>
      </trkpt>
      <trkpt lat="55.00575" lon="-1.71194">
        <ele>106.57</ele>
        <time>2021-03-20T14:57:02Z</time>
      </trkpt>
      <trkpt lat="55.00598" lon="-1.71241">
        <ele>105.11</ele>
        <time>2021-03-20T14:57:10Z</time>
      </trkpt>
      <trkpt lat="55.00594" lon="-1.71253">
        <ele>105.23</ele>
        <time>2021-03-20T14:57:10Z</time>
      </trkpt>
      <trkpt lat="55.00595" lon="-1.71266">
        <ele>105.15</ele>
        <time>2021-03-20T14:57:11Z</time>
      </trkpt>
      <trkpt lat="55.006" lon="-1.71276">
        <ele>104.77</ele>
        <time>2021-03-20T14:57:12Z</time>
      </trkpt>
      <trkpt lat="55.00604" lon="-1.71278">
        <ele>104.5</ele>
        <time>2021-03-20T14:57:13Z</time>
      </trkpt>
      <trkpt lat="55.00612" lon="-1.71275">
        <ele>103.96</ele>
        <time>2021-03-20T14:57:13Z</time>
      </trkpt>
      <trkpt lat="55.00673" lon="-1.71417">
        <ele>100.53</ele>
        <time>2021-03-20T14:57:19Z</time>
      </trkpt>
      <trkpt lat="55.00708" lon="-1.71505">
        <ele>99.91</ele>
        <time>2021-03-20T14:57:24Z</time>
      </trkpt>
      <trkpt lat="55.00738" lon="-1.71605">
        <ele>97.43</ele>
        <time>2021-03-20T14:57:30Z</time>
      </trkpt>
      <trkpt lat="55.00767" lon="-1.71681">
        <ele>97.68</ele>
        <time>2021-03-20T14:57:35Z</time>
      </trkpt>
      <trkpt lat="55.00802" lon="-1.71765">
        <ele>94.65</ele>
        <time>2021-03-20T14:57:41Z</time>
      </trkpt>
      <trkpt lat="55.00845" lon="-1.7189">
        <ele>90.9</ele>
        <time>2021-03-20T14:57:46Z</time>
      </trkpt>
      <trkpt lat="55.00951" lon="-1.72164">
        <ele>82.77</ele>
        <time>2021-03-20T14:57:52Z</time>
      </trkpt>
      <trkpt lat="55.01031" lon="-1.72384">
        <ele>74.89</ele>
        <time>2021-03-20T14:57:58Z</time>
      </trkpt>
      <trkpt lat="55.01125" lon="-1.72547">
        <ele>75</ele>
        <time>2021-03-20T14:58:03Z</time>
      </trkpt>
      <trkpt lat="55.01143" lon="-1.72588">
        <ele>75.14</ele>
        <time>2021-03-20T14:58:09Z</time>
      </trkpt>
      <trkpt lat="55.01158" lon="-1.72638">
        <ele>75.4</ele>
        <time>2021-03-20T14:58:14Z</time>
      </trkpt>
      <trkpt lat="55.01202" lon="-1.72824">
        <ele>74.71</ele>
        <time>2021-03-20T14:58:20Z</time>
      </trkpt>
      <trkpt lat="55.0126" lon="-1.7309">
        <ele>74.37</ele>
        <time>2021-03-20T14:58:25Z</time>
      </trkpt>
      <trkpt lat="55.01295" lon="-1.73314">
        <ele>78.61</ele>
        <time>2021-03-20T14:58:31Z</time>
      </trkpt>
      <trkpt lat="55.01303" lon="-1.7342">
        <ele>81.9</ele>
        <time>2021-03-20T14:58:36Z</time>
      </trkpt>
      <trkpt lat="55.01307" lon="-1.73564">
        <ele>84.32</ele>
        <time>2021-03-20T14:58:42Z</time>
      </trkpt>
      <trkpt lat="55.01325" lon="-1.73916">
        <ele>83.01</ele>
        <time>2021-03-20T14:58:47Z</time>
      </trkpt>
      <trkpt lat="55.01329" lon="-1.73957">
        <ele>83</ele>
        <time>2021-03-20T14:58:53Z</time>
      </trkpt>
      <trkpt lat="55.01336" lon="-1.74118">
        <ele>84.75</ele>
        <time>2021-03-20T14:58:59Z</time>
      </trkpt>
      <trkpt lat="55.01341" lon="-1.74143">
        <ele>84</ele>
        <time>2021-03-20T14:59:04Z</time>
      </trkpt>
      <trkpt lat="55.01496" lon="-1.74526">
        <ele>93.93</ele>
        <time>2021-03-20T14:59:10Z</time>
      </trkpt>
      <trkpt lat="55.01506" lon="-1.74564">
        <ele>94.31</ele>
        <time>2021-03-20T14:59:15Z</time>
      </trkpt>
      <trkpt lat="55.01515" lon="-1.74608">
        <ele>95</ele>
        <time>2021-03-20T14:59:21Z</time>
      </trkpt>
      <trkpt lat="55.01535" lon="-1.74736">
        <ele>97.85</ele>
        <time>2021-03-20T14:59:26Z</time>
      </trkpt>
      <trkpt lat="55.01544" lon="-1.74829">
        <ele>103.05</ele>
        <time>2021-03-20T14:59:32Z</time>
      </trkpt>
      <trkpt lat="55.01544" lon="-1.74879">
        <ele>105.81</ele>
        <time>2021-03-20T14:59:37Z</time>
      </trkpt>
      <trkpt lat="55.0154" lon="-1.74928">
        <ele>106.9</ele>
        <time>2021-03-20T14:59:43Z</time>
      </trkpt>
      <trkpt lat="55.01541" lon="-1.74962">
        <ele>106.33</ele>
        <time>2021-03-20T14:59:48Z</time>
      </trkpt>
      <trkpt lat="55.0156" lon="-1.75065">
        <ele>107.34</ele>
        <time>2021-03-20T14:59:54Z</time>
      </trkpt>
      <trkpt lat="55.01564" lon="-1.75109">
        <ele>108</ele>
        <time>2021-03-20T15:00:00Z</time>
      </trkpt>
      <trkpt lat="55.01597" lon="-1.7564">
        <ele>117.96</ele>
        <time>2021-03-20T15:00:05Z</time>
      </trkpt>
      <trkpt lat="55.0161" lon="-1.75691">
        <ele>119.76</ele>
        <time>2021-03-20T15:00:11Z</time>
      </trkpt>
      <trkpt lat="55.0168" lon="-1.7591">
        <ele>132.97</ele>
        <time>2021-03-20T15:00:16Z</time>
      </trkpt>
      <trkpt lat="55.01708" lon="-1.76007">
        <ele>136.13</ele>
        <time>2021-03-20T15:00:22Z</time>
      </trkpt>
      <trkpt lat="55.01806" lon="-1.76196">
        <ele>141</ele>
        <time>2021-03-20T15:00:27Z</time>
      </trkpt>
      <trkpt lat="55.01912" lon="-1.76381">
        <ele>142.82</ele>
        <time>2021-03-20T15:00:33Z</time>
      </trkpt>
      <trkpt lat="55.02046" lon="-1.7666">
        <ele>142.58</ele>
        <time>2021-03-20T15:00:38Z</time>
      </trkpt>
      <trkpt lat="55.02089" lon="-1.7719">
        <ele>136.6</ele>
        <time>2021-03-20T15:00:44Z</time>
      </trkpt>
      <trkpt lat="55.02138" lon="-1.77468">
        <ele>134.05</ele>
        <time>2021-03-20T15:00:49Z</time>
      </trkpt>
      <trkpt lat="55.02147" lon="-1.77528">
        <ele>132.44</ele>
        <time>2021-03-20T15:00:55Z</time>
      </trkpt>
      <trkpt lat="55.02159" lon="-1.77712">
        <ele>131.86</ele>
        <time>2021-03-20T15:01:01Z</time>
      </trkpt>
      <trkpt lat="55.02159" lon="-1.77777">
        <ele>130.55</ele>
        <time>2021-03-20T15:01:06Z</time>
      </trkpt>
      <trkpt lat="55.02158" lon="-1.77834">
        <ele>128.98</ele>
        <time>2021-03-20T15:01:12Z</time>
      </trkpt>
      <trkpt lat="55.02153" lon="-1.77893">
        <ele>128.86</ele>
        <time>2021-03-20T15:01:17Z</time>
      </trkpt>
      <trkpt lat="55.02112" lon="-1.78101">
        <ele>129.93</ele>
        <time>2021-03-20T15:01:23Z</time>
      </trkpt>
      <trkpt lat="55.02058" lon="-1.78408">
        <ele>124.22</ele>
        <time>2021-03-20T15:01:28Z</time>
      </trkpt>
      <trkpt lat="55.02054" lon="-1.78466">
        <ele>123.22</ele>
        <time>2021-03-20T15:01:34Z</time>
      </trkpt>
      <trkpt lat="55.02063" lon="-1.78566">
        <ele>122.9</ele>
        <time>2021-03-20T15:01:39Z</time>
      </trkpt>
      <trkpt lat="55.0205" lon="-1.78837">
        <ele>121</ele>
        <time>2021-03-20T15:01:45Z</time>
      </trkpt>
      <trkpt lat="55.02039" lon="-1.78941">
        <ele>121</ele>
        <time>2021-03-20T15:01:50Z</time>
      </trkpt>
      <trkpt lat="55.0203" lon="-1.79089">
        <ele>122.94</ele>
        <time>2021-03-20T15:01:56Z</time>
      </trkpt>
      <trkpt lat="55.02027" lon="-1.79282">
        <ele>123.93</ele>
        <time>2021-03-20T15:02:02Z</time>
      </trkpt>
      <trkpt lat="55.02024" lon="-1.79334">
        <ele>123.71</ele>
        <time>2021-03-20T15:02:07Z</time>
      </trkpt>
      <trkpt lat="55.02017" lon="-1.79375">
        <ele>122.25</ele>
        <time>2021-03-20T15:02:13Z</time>
      </trkpt>
      <trkpt lat="55.0199" lon="-1.7949">
        <ele>120.65</ele>
        <time>2021-03-20T15:02:18Z</time>
      </trkpt>
      <trkpt lat="55.01974" lon="-1.79547">
        <ele>120</ele>
        <time>2021-03-20T15:02:24Z</time>
      </trkpt>
      <trkpt lat="55.01937" lon="-1.79664">
        <ele>118.27</ele>
        <time>2021-03-20T15:02:29Z</time>
      </trkpt>
      <trkpt lat="55.01921" lon="-1.79709">
        <ele>119</ele>
        <time>2021-03-20T15:02:35Z</time>
      </trkpt>
      <trkpt lat="55.0191" lon="-1.79757">
        <ele>119.25</ele>
        <time>2021-03-20T15:02:40Z</time>
      </trkpt>
      <trkpt lat="55.01894" lon="-1.79844">
        <ele>118.49</ele>
        <time>2021-03-20T15:02:46Z</time>
      </trkpt>
      <trkpt lat="55.01884" lon="-1.79919">
        <ele>118</ele>
        <time>2021-03-20T15:02:51Z</time>
      </trkpt>
      <trkpt lat="55.01875" lon="-1.80005">
        <ele>117.92</ele>
        <time>2021-03-20T15:02:57Z</time>
      </trkpt>
      <trkpt lat="55.01871" lon="-1.80026">
        <ele>117.65</ele>
        <time>2021-03-20T15:03:03Z</time>
      </trkpt>
      <trkpt lat="55.01866" lon="-1.80041">
        <ele>117.81</ele>
        <time>2021-03-20T15:03:08Z</time>
      </trkpt>
      <trkpt lat="55.01817" lon="-1.8014">
        <ele>116.59</ele>
        <time>2021-03-20T15:03:14Z</time>
      </trkpt>
      <trkpt lat="55.01813" lon="-1.80153">
        <ele>116.75</ele>
        <time>2021-03-20T15:03:19Z</time>
      </trkpt>
      <trkpt lat="55.01804" lon="-1.80186">
        <ele>117.69</ele>
        <time>2021-03-20T15:03:25Z</time>
      </trkpt>
      <trkpt lat="55.01792" lon="-1.80246">
        <ele>118.48</ele>
        <time>2021-03-20T15:03:30Z</time>
      </trkpt>
      <trkpt lat="55.01787" lon="-1.80316">
        <ele>119</ele>
        <time>2021-03-20T15:03:36Z</time>
      </trkpt>
      <trkpt lat="55.01784" lon="-1.8038">
        <ele>120</ele>
        <time>2021-03-20T15:03:41Z</time>
      </trkpt>
      <trkpt lat="55.01785" lon="-1.80483">
        <ele>123.11</ele>
        <time>2021-03-20T15:03:47Z</time>
      </trkpt>
      <trkpt lat="55.01781" lon="-1.80537">
        <ele>124</ele>
        <time>2021-03-20T15:03:52Z</time>
      </trkpt>
      <trkpt lat="55.01763" lon="-1.80661">
        <ele>126</ele>
        <time>2021-03-20T15:03:58Z</time>
      </trkpt>
      <trkpt lat="55.01761" lon="-1.80688">
        <ele>126</ele>
        <time>2021-03-20T15:04:04Z</time>
      </trkpt>
      <trkpt lat="55.0176" lon="-1.80716">
        <ele>126</ele>
        <time>2021-03-20T15:04:09Z</time>
      </trkpt>
      <trkpt lat="55.01764" lon="-1.8084">
        <ele>126</ele>
        <time>2021-03-20T15:04:15Z</time>
      </trkpt>
      <trkpt lat="55.01762" lon="-1.80914">
        <ele>126.89</ele>
        <time>2021-03-20T15:04:20Z</time>
      </trkpt>
      <trkpt lat="55.0175" lon="-1.81039">
        <ele>127</ele>
        <time>2021-03-20T15:04:26Z</time>
      </trkpt>
      <trkpt lat="55.01745" lon="-1.8113">
        <ele>126.79</ele>
        <time>2021-03-20T15:04:31Z</time>
      </trkpt>
      <trkpt lat="55.01737" lon="-1.81219">
        <ele>126.46</ele>
        <time>2021-03-20T15:04:37Z</time>
      </trkpt>
      <trkpt lat="55.01718" lon="-1.81749">
        <ele>128.01</ele>
        <time>2021-03-20T15:04:42Z</time>
      </trkpt>
      <trkpt lat="55.01719" lon="-1.81798">
        <ele>128.07</ele>
        <time>2021-03-20T15:04:48Z</time>
      </trkpt>
      <trkpt lat="55.01722" lon="-1.81839">
        <ele>127.99</ele>
        <time>2021-03-20T15:04:53Z</time>
      </trkpt>
      <trkpt lat="55.0173" lon="-1.8188">
        <ele>127.47</ele>
        <time>2021-03-20T15:04:59Z</time>
      </trkpt>
      <trkpt lat="55.01742" lon="-1.81923">
        <ele>126.54</ele>
        <time>2021-03-20T15:05:05Z</time>
      </trkpt>
      <trkpt lat="55.01927" lon="-1.8243">
        <ele>121</ele>
        <time>2021-03-20T15:05:10Z</time>
      </trkpt>
      <trkpt lat="55.01624" lon="-1.82452">
        <ele>133</ele>
        <time>2021-03-20T15:05:15Z</time>
      </trkpt>
      <trkpt lat="55.01594" lon="-1.82464">
        <ele>133</ele>
        <time>2021-03-20T15:05:20Z</time>
      </trkpt>
      <trkpt lat="55.01567" lon="-1.82483">
        <ele>133</ele>
        <time>2021-03-20T15:05:25Z</time>
      </trkpt>
      <trkpt lat="55.01533" lon="-1.82519">
        <ele>134.33</ele>
        <time>2021-03-20T15:05:29Z</time>
      </trkpt>
      <trkpt lat="55.0151" lon="-1.82534">
        <ele>135.64</ele>
        <time>2021-03-20T15:05:34Z</time>
      </trkpt>
      <trkpt lat="55.01496" lon="-1.82533">
        <ele>136.15</ele>
        <time>2021-03-20T15:05:39Z</time>
      </trkpt>
      <trkpt lat="55.01477" lon="-1.82519">
        <ele>136.84</ele>
        <time>2021-03-20T15:05:44Z</time>
      </trkpt>
      <trkpt lat="55.01406" lon="-1.82452">
        <ele>137.28</ele>
        <time>2021-03-20T15:05:49Z</time>
      </trkpt>
      <trkpt lat="55.01374" lon="-1.8243">
        <ele>137.01</ele>
        <time>2021-03-20T15:05:53Z</time>
      </trkpt>
      <trkpt lat="55.01283" lon="-1.82385">
        <ele>136.81</ele>
        <time>2021-03-20T15:05:58Z</time>
      </trkpt>
      <trkpt lat="55.01192" lon="-1.82352">
        <ele>135</ele>
        <time>2021-03-20T15:06:03Z</time>
      </trkpt>
      <trkpt lat="55.01162" lon="-1.82332">
        <ele>135</ele>
        <time>2021-03-20T15:06:08Z</time>
      </trkpt>
      <trkpt lat="55.0113" lon="-1.823">
        <ele>134.69</ele>
        <time>2021-03-20T15:06:13Z</time>
      </trkpt>
      <trkpt lat="55.01116" lon="-1.82294">
        <ele>134.16</ele>
        <time>2021-03-20T15:06:17Z</time>
      </trkpt>
      <trkpt lat="55.01107" lon="-1.82293">
        <ele>134</ele>
        <time>2021-03-20T15:06:22Z</time>
      </trkpt>
      <trkpt lat="55.01041" lon="-1.82295">
        <ele>135.52</ele>
        <time>2021-03-20T15:06:27Z</time>
      </trkpt>
      <trkpt lat="55.00999" lon="-1.82291">
        <ele>137.08</ele>
        <time>2021-03-20T15:06:32Z</time>
      </trkpt>
      <trkpt lat="55.00921" lon="-1.82268">
        <ele>141</ele>
        <time>2021-03-20T15:06:37Z</time>
      </trkpt>
      <trkpt lat="55.00849" lon="-1.82254">
        <ele>140.55</ele>
        <time>2021-03-20T15:06:41Z</time>
      </trkpt>
      <trkpt lat="55.00806" lon="-1.82248">
        <ele>139.09</ele>
        <time>2021-03-20T15:06:46Z</time>
      </trkpt>
      <trkpt lat="55.00766" lon="-1.82257">
        <ele>138.57</ele>
        <time>2021-03-20T15:06:51Z</time>
      </trkpt>
      <trkpt lat="55.00749" lon="-1.82266">
        <ele>137.98</ele>
        <time>2021-03-20T15:06:56Z</time>
      </trkpt>
      <trkpt lat="55.00718" lon="-1.82293">
        <ele>136.29</ele>
        <time>2021-03-20T15:07:01Z</time>
      </trkpt>
      <trkpt lat="55.00702" lon="-1.82301">
        <ele>135.43</ele>
        <time>2021-03-20T15:07:05Z</time>
      </trkpt>
      <trkpt lat="55.00603" lon="-1.82333">
        <ele>135</ele>
        <time>2021-03-20T15:07:10Z</time>
      </trkpt>
      <trkpt lat="55.00536" lon="-1.82366">
        <ele>134.69</ele>
        <time>2021-03-20T15:07:15Z</time>
      </trkpt>
      <trkpt lat="55.00479" lon="-1.82391">
        <ele>136.04</ele>
        <time>2021-03-20T15:07:20Z</time>
      </trkpt>
      <trkpt lat="55.00229" lon="-1.82457">
        <ele>137.76</ele>
        <time>2021-03-20T15:07:25Z</time>
      </trkpt>
      <trkpt lat="55.00266" lon="-1.82713">
        <ele>137.8</ele>
        <time>2021-03-20T15:07:36Z</time>
      </trkpt>
      <trkpt lat="55.00368" lon="-1.8337">
        <ele>134</ele>
        <time>2021-03-20T15:07:47Z</time>
      </trkpt>
      <trkpt lat="55.00376" lon="-1.83444">
        <ele>134</ele>
        <time>2021-03-20T15:07:58Z</time>
      </trkpt>
      <trkpt lat="55.00377" lon="-1.83494">
        <ele>135</ele>
        <time>2021-03-20T15:08:09Z</time>
      </trkpt>
      <trkpt lat="55.00372" lon="-1.84311">
        <ele>137.61</ele>
        <time>2021-03-20T15:08:20Z</time>
      </trkpt>
      <trkpt lat="55.00373" lon="-1.84363">
        <ele>137</ele>
        <time>2021-03-20T15:08:31Z</time>
      </trkpt>
      <trkpt lat="55.00379" lon="-1.84418">
        <ele>136.61</ele>
        <time>2021-03-20T15:08:42Z</time>
      </trkpt>
      <trkpt lat="55.00771" lon="-1.86945">
        <ele>119.75</ele>
        <time>2021-03-20T15:08:53Z</time>
      </trkpt>
      <trkpt lat="55.00846" lon="-1.87412">
        <ele>135.7</ele>
        <time>2021-03-20T15:09:04Z</time>
      </trkpt>
      <trkpt lat="55.00877" lon="-1.87609">
        <ele>142.1</ele>
        <time>2021-03-20T15:09:16Z</time>
      </trkpt>
      <trkpt lat="55.00887" lon="-1.87652">
        <ele>143.8</ele>
        <time>2021-03-20T15:09:27Z</time>
      </trkpt>
      <trkpt lat="55.00922" lon="-1.87781">
        <ele>149.35</ele>
        <time>2021-03-20T15:09:38Z</time>
      </trkpt>
      <trkpt lat="55.00927" lon="-1.8781">
        <ele>149.76</ele>
        <time>2021-03-20T15:09:49Z</time>
      </trkpt>
      <trkpt lat="55.00946" lon="-1.88033">
        <ele>154.06</ele>
        <time>2021-03-20T15:10:00Z</time>
      </trkpt>
      <trkpt lat="55.00947" lon="-1.88084">
        <ele>153.27</ele>
        <time>2021-03-20T15:10:11Z</time>
      </trkpt>
      <trkpt lat="55.0094" lon="-1.88213">
        <ele>146.58</ele>
        <time>2021-03-20T15:10:22Z</time>
      </trkpt>
      <trkpt lat="55.00921" lon="-1.88675">
        <ele>130.12</ele>
        <time>2021-03-20T15:10:33Z</time>
      </trkpt>
      <trkpt lat="55.00877" lon="-1.89986">
        <ele>116</ele>
        <time>2021-03-20T15:10:44Z</time>
      </trkpt>
      <trkpt lat="55.00854" lon="-1.90721">
        <ele>132.25</ele>
        <time>2021-03-20T15:10:55Z</time>
      </trkpt>
      <trkpt lat="55.00854" lon="-1.9077">
        <ele>133</ele>
        <time>2021-03-20T15:11:06Z</time>
      </trkpt>
      <trkpt lat="55.01112" lon="-1.94337">
        <ele>160.13</ele>
        <time>2021-03-20T15:11:18Z</time>
      </trkpt>
      <trkpt lat="55.01184" lon="-1.95431">
        <ele>183.63</ele>
        <time>2021-03-20T15:11:29Z</time>
      </trkpt>
      <trkpt lat="55.01211" lon="-1.95896">
        <ele>188.59</ele>
        <time>2021-03-20T15:11:40Z</time>
      </trkpt>
      <trkpt lat="55.01271" lon="-1.97034">
        <ele>193.74</ele>
        <time>2021-03-20T15:11:51Z</time>
      </trkpt>
      <trkpt lat="55.0128" lon="-1.97135">
        <ele>194.96</ele>
        <time>2021-03-20T15:12:02Z</time>
      </trkpt>
      <trkpt lat="55.01294" lon="-1.97241">
        <ele>196.86</ele>
        <time>2021-03-20T15:12:13Z</time>
      </trkpt>
      <trkpt lat="55.01298" lon="-1.97294">
        <ele>197</ele>
        <time>2021-03-20T15:12:24Z</time>
      </trkpt>
      <trkpt lat="55.01307" lon="-1.9786">
        <ele>204.92</ele>
        <time>2021-03-20T15:12:35Z</time>
      </trkpt>
      <trkpt lat="55.01305" lon="-1.97989">
        <ele>208.57</ele>
        <time>2021-03-20T15:12:46Z</time>
      </trkpt>
      <trkpt lat="55.01296" lon="-1.98142">
        <ele>211.04</ele>
        <time>2021-03-20T15:12:57Z</time>
      </trkpt>
      <trkpt lat="55.01288" lon="-1.98234">
        <ele>211.73</ele>
        <time>2021-03-20T15:13:08Z</time>
      </trkpt>
      <trkpt lat="55.01274" lon="-1.98351">
        <ele>209.25</ele>
        <time>2021-03-20T15:13:20Z</time>
      </trkpt>
      <trkpt lat="55.01251" lon="-1.98508">
        <ele>207.33</ele>
        <time>2021-03-20T15:13:31Z</time>
      </trkpt>
      <trkpt lat="55.01183" lon="-1.98917">
        <ele>202.59</ele>
        <time>2021-03-20T15:13:42Z</time>
      </trkpt>
      <trkpt lat="55.01173" lon="-1.98989">
        <ele>203.46</ele>
        <time>2021-03-20T15:13:53Z</time>
      </trkpt>
      <trkpt lat="55.01174" lon="-1.99052">
        <ele>206.09</ele>
        <time>2021-03-20T15:14:04Z</time>
      </trkpt>
      <trkpt lat="55.01179" lon="-1.99084">
        <ele>206.79</ele>
        <time>2021-03-20T15:14:15Z</time>
      </trkpt>
      <trkpt lat="55.01194" lon="-1.99152">
        <ele>203.03</ele>
        <time>2021-03-20T15:14:26Z</time>
      </trkpt>
      <trkpt lat="55.01197" lon="-1.99183">
        <ele>201.61</ele>
        <time>2021-03-20T15:14:37Z</time>
      </trkpt>
      <trkpt lat="55.01197" lon="-1.9921">
        <ele>201.38</ele>
        <time>2021-03-20T15:14:48Z</time>
      </trkpt>
      <trkpt lat="55.01193" lon="-1.99253">
        <ele>200.43</ele>
        <time>2021-03-20T15:14:59Z</time>
      </trkpt>
      <trkpt lat="55.01186" lon="-1.99301">
        <ele>200.03</ele>
        <time>2021-03-20T15:15:10Z</time>
      </trkpt>
      <trkpt lat="55.01179" lon="-1.9934">
        <ele>199.7</ele>
        <time>2021-03-20T15:15:22Z</time>
      </trkpt>
      <trkpt lat="55.01132" lon="-1.99519">
        <ele>189.33</ele>
        <time>2021-03-20T15:15:33Z</time>
      </trkpt>
      <trkpt lat="55.01125" lon="-1.9956">
        <ele>188.92</ele>
        <time>2021-03-20T15:15:44Z</time>
      </trkpt>
      <trkpt lat="55.0112" lon="-1.99602">
        <ele>188.33</ele>
        <time>2021-03-20T15:15:55Z</time>
      </trkpt>
      <trkpt lat="55.01089" lon="-2.00406">
        <ele>184.49</ele>
        <time>2021-03-20T15:16:06Z</time>
      </trkpt>
      <trkpt lat="55.01083" lon="-2.0059">
        <ele>185</ele>
        <time>2021-03-20T15:16:17Z</time>
      </trkpt>
      <trkpt lat="55.01083" lon="-2.00708">
        <ele>185.02</ele>
        <time>2021-03-20T15:16:28Z</time>
      </trkpt>
      <trkpt lat="55.01089" lon="-2.00764">
        <ele>183.8</ele>
        <time>2021-03-20T15:16:39Z</time>
      </trkpt>
      <trkpt lat="55.01192" lon="-2.01555">
        <ele>192.9</ele>
        <time>2021-03-20T15:16:50Z</time>
      </trkpt>
      <trkpt lat="55.01211" lon="-2.01661">
        <ele>197.39</ele>
        <time>2021-03-20T15:17:01Z</time>
      </trkpt>
      <trkpt lat="55.01223" lon="-2.01715">
        <ele>199.75</ele>
        <time>2021-03-20T15:17:12Z</time>
      </trkpt>
      <trkpt lat="55.01269" lon="-2.01885">
        <ele>205.15</ele>
        <time>2021-03-20T15:17:24Z</time>
      </trkpt>
      <trkpt lat="55.01306" lon="-2.02008">
        <ele>208.59</ele>
        <time>2021-03-20T15:17:35Z</time>
      </trkpt>
      <trkpt lat="55.01303" lon="-2.02034">
        <ele>210.33</ele>
        <time>2021-03-20T15:17:46Z</time>
      </trkpt>
      <trkpt lat="55.01294" lon="-2.02056">
        <ele>211.41</ele>
        <time>2021-03-20T15:17:57Z</time>
      </trkpt>
      <trkpt lat="55.0129" lon="-2.02062">
        <ele>211.8</ele>
        <time>2021-03-20T15:18:03Z</time>
      </trkpt>
      <trkpt lat="55.01283" lon="-2.02078">
        <ele>212.64</ele>
        <time>2021-03-20T15:18:09Z</time>
      </trkpt>
      <trkpt lat="55.0128" lon="-2.02098">
        <ele>212.97</ele>
        <time>2021-03-20T15:18:15Z</time>
      </trkpt>
      <trkpt lat="55.01282" lon="-2.02119">
        <ele>213.23</ele>
        <time>2021-03-20T15:18:21Z</time>
      </trkpt>
      <trkpt lat="55.0129" lon="-2.0214">
        <ele>213.57</ele>
        <time>2021-03-20T15:18:28Z</time>
      </trkpt>
      <trkpt lat="55.01296" lon="-2.02147">
        <ele>213.36</ele>
        <time>2021-03-20T15:18:34Z</time>
      </trkpt>
      <trkpt lat="55.01302" lon="-2.02194">
        <ele>214.1</ele>
        <time>2021-03-20T15:18:40Z</time>
      </trkpt>
      <trkpt lat="55.01311" lon="-2.02343">
        <ele>218.34</ele>
        <time>2021-03-20T15:18:46Z</time>
      </trkpt>
      <trkpt lat="55.01327" lon="-2.02591">
        <ele>225.5</ele>
        <time>2021-03-20T15:18:52Z</time>
      </trkpt>
      <trkpt lat="55.01335" lon="-2.02666">
        <ele>228.88</ele>
        <time>2021-03-20T15:18:58Z</time>
      </trkpt>
      <trkpt lat="55.01721" lon="-2.05719">
        <ele>253.04</ele>
        <time>2021-03-20T15:19:05Z</time>
      </trkpt>
      <trkpt lat="55.01869" lon="-2.06926">
        <ele>245.73</ele>
        <time>2021-03-20T15:19:11Z</time>
      </trkpt>
      <trkpt lat="55.01896" lon="-2.0715">
        <ele>246</ele>
        <time>2021-03-20T15:19:17Z</time>
      </trkpt>
      <trkpt lat="55.01904" lon="-2.07238">
        <ele>246</ele>
        <time>2021-03-20T15:19:23Z</time>
      </trkpt>
      <trkpt lat="55.01907" lon="-2.07319">
        <ele>246.67</ele>
        <time>2021-03-20T15:19:29Z</time>
      </trkpt>
      <trkpt lat="55.01913" lon="-2.07637">
        <ele>249.3</ele>
        <time>2021-03-20T15:19:35Z</time>
      </trkpt>
      <trkpt lat="55.01924" lon="-2.08332">
        <ele>250.46</ele>
        <time>2021-03-20T15:19:42Z</time>
      </trkpt>
      <trkpt lat="55.01935" lon="-2.09156">
        <ele>228.65</ele>
        <time>2021-03-20T15:19:48Z</time>
      </trkpt>
      <trkpt lat="55.01935" lon="-2.09368">
        <ele>226.31</ele>
        <time>2021-03-20T15:19:54Z</time>
      </trkpt>
      <trkpt lat="55.01933" lon="-2.09413">
        <ele>225.28</ele>
        <time>2021-03-20T15:20:00Z</time>
      </trkpt>
      <trkpt lat="55.01916" lon="-2.09561">
        <ele>224.79</ele>
        <time>2021-03-20T15:20:06Z</time>
      </trkpt>
      <trkpt lat="55.01901" lon="-2.09639">
        <ele>221.32</ele>
        <time>2021-03-20T15:20:12Z</time>
      </trkpt>
      <trkpt lat="55.01898" lon="-2.09685">
        <ele>220.09</ele>
        <time>2021-03-20T15:20:19Z</time>
      </trkpt>
      <trkpt lat="55.01906" lon="-2.10048">
        <ele>215.2</ele>
        <time>2021-03-20T15:20:25Z</time>
      </trkpt>
      <trkpt lat="55.01901" lon="-2.1028">
        <ele>213.79</ele>
        <time>2021-03-20T15:20:31Z</time>
      </trkpt>
      <trkpt lat="55.01897" lon="-2.10362">
        <ele>212.6</ele>
        <time>2021-03-20T15:20:37Z</time>
      </trkpt>
      <trkpt lat="55.01897" lon="-2.10423">
        <ele>211.46</ele>
        <time>2021-03-20T15:20:43Z</time>
      </trkpt>
      <trkpt lat="55.01912" lon="-2.10556">
        <ele>204.44</ele>
        <time>2021-03-20T15:20:49Z</time>
      </trkpt>
      <trkpt lat="55.01925" lon="-2.10651">
        <ele>199.44</ele>
        <time>2021-03-20T15:20:56Z</time>
      </trkpt>
      <trkpt lat="55.01934" lon="-2.10697">
        <ele>194.95</ele>
        <time>2021-03-20T15:21:02Z</time>
      </trkpt>
      <trkpt lat="55.01949" lon="-2.10757">
        <ele>187.92</ele>
        <time>2021-03-20T15:21:08Z</time>
      </trkpt>
      <trkpt lat="55.01958" lon="-2.10785">
        <ele>183.6</ele>
        <time>2021-03-20T15:21:14Z</time>
      </trkpt>
      <trkpt lat="55.02057" lon="-2.11031">
        <ele>167</ele>
        <time>2021-03-20T15:21:20Z</time>
      </trkpt>
      <trkpt lat="55.02088" lon="-2.11114">
        <ele>165.08</ele>
        <time>2021-03-20T15:21:26Z</time>
      </trkpt>
      <trkpt lat="55.02106" lon="-2.11176">
        <ele>163.16</ele>
        <time>2021-03-20T15:21:33Z</time>
      </trkpt>
      <trkpt lat="55.02141" lon="-2.11321">
        <ele>159.94</ele>
        <time>2021-03-20T15:21:39Z</time>
      </trkpt>
      <trkpt lat="55.02152" lon="-2.11374">
        <ele>156.36</ele>
        <time>2021-03-20T15:21:45Z</time>
      </trkpt>
      <trkpt lat="55.02163" lon="-2.11492">
        <ele>143.07</ele>
        <time>2021-03-20T15:21:51Z</time>
      </trkpt>
      <trkpt lat="55.02168" lon="-2.11532">
        <ele>138.52</ele>
        <time>2021-03-20T15:21:57Z</time>
      </trkpt>
      <trkpt lat="55.02232" lon="-2.11908">
        <ele>121.14</ele>
        <time>2021-03-20T15:22:03Z</time>
      </trkpt>
      <trkpt lat="55.02245" lon="-2.11975">
        <ele>118</ele>
        <time>2021-03-20T15:22:10Z</time>
      </trkpt>
      <trkpt lat="55.02251" lon="-2.11999">
        <ele>117.95</ele>
        <time>2021-03-20T15:22:16Z</time>
      </trkpt>
      <trkpt lat="55.02262" lon="-2.12022">
        <ele>117.9</ele>
        <time>2021-03-20T15:22:22Z</time>
      </trkpt>
      <trkpt lat="55.02359" lon="-2.12144">
        <ele>109.25</ele>
        <time>2021-03-20T15:22:28Z</time>
      </trkpt>
      <trkpt lat="55.02411" lon="-2.12218">
        <ele>100.3</ele>
        <time>2021-03-20T15:22:34Z</time>
      </trkpt>
      <trkpt lat="55.02456" lon="-2.12274">
        <ele>90.53</ele>
        <time>2021-03-20T15:22:40Z</time>
      </trkpt>
      <trkpt lat="55.02594" lon="-2.12408">
        <ele>71.89</ele>
        <time>2021-03-20T15:22:47Z</time>
      </trkpt>
      <trkpt lat="55.0272" lon="-2.12536">
        <ele>58.07</ele>
        <time>2021-03-20T15:22:53Z</time>
      </trkpt>
      <trkpt lat="55.02786" lon="-2.12598">
        <ele>58.61</ele>
        <time>2021-03-20T15:22:59Z</time>
      </trkpt>
      <trkpt lat="55.02858" lon="-2.12661">
        <ele>59</ele>
        <time>2021-03-20T15:23:05Z</time>
      </trkpt>
      <trkpt lat="55.02889" lon="-2.12685">
        <ele>57.33</ele>
        <time>2021-03-20T15:23:11Z</time>
      </trkpt>
      <trkpt lat="55.02955" lon="-2.12772">
        <ele>56.39</ele>
        <time>2021-03-20T15:23:17Z</time>
      </trkpt>
      <trkpt lat="55.02977" lon="-2.12808">
        <ele>58.47</ele>
        <time>2021-03-20T15:23:24Z</time>
      </trkpt>
      <trkpt lat="55.02972" lon="-2.12822">
        <ele>57.99</ele>
        <time>2021-03-20T15:23:28Z</time>
      </trkpt>
      <trkpt lat="55.02972" lon="-2.1283">
        <ele>57.99</ele>
        <time>2021-03-20T15:23:33Z</time>
      </trkpt>
      <trkpt lat="55.02973" lon="-2.12838">
        <ele>58.27</ele>
        <time>2021-03-20T15:23:38Z</time>
      </trkpt>
      <trkpt lat="55.02979" lon="-2.1285">
        <ele>59.36</ele>
        <time>2021-03-20T15:23:43Z</time>
      </trkpt>
      <trkpt lat="55.02986" lon="-2.12853">
        <ele>60.2</ele>
        <time>2021-03-20T15:23:48Z</time>
      </trkpt>
      <trkpt lat="55.02991" lon="-2.12852">
        <ele>60.7</ele>
        <time>2021-03-20T15:23:53Z</time>
      </trkpt>
      <trkpt lat="55.02999" lon="-2.12843">
        <ele>61.19</ele>
        <time>2021-03-20T15:23:57Z</time>
      </trkpt>
      <trkpt lat="55.03041" lon="-2.12894">
        <ele>63.48</ele>
        <time>2021-03-20T15:24:02Z</time>
      </trkpt>
      <trkpt lat="55.03175" lon="-2.13043">
        <ele>72</ele>
        <time>2021-03-20T15:24:07Z</time>
      </trkpt>
      <trkpt lat="55.03665" lon="-2.13602">
        <ele>102</ele>
        <time>2021-03-20T15:24:12Z</time>
      </trkpt>
      <trkpt lat="55.0366" lon="-2.13616">
        <ele>102.19</ele>
        <time>2021-03-20T15:24:16Z</time>
      </trkpt>
      <trkpt lat="55.03657" lon="-2.13634">
        <ele>102.82</ele>
        <time>2021-03-20T15:24:20Z</time>
      </trkpt>
      <trkpt lat="55.03661" lon="-2.13673">
        <ele>104.24</ele>
        <time>2021-03-20T15:24:24Z</time>
      </trkpt>
      <trkpt lat="55.03662" lon="-2.13711">
        <ele>105</ele>
        <time>2021-03-20T15:24:27Z</time>
      </trkpt>
      <trkpt lat="55.03662" lon="-2.13744">
        <ele>105.79</ele>
        <time>2021-03-20T15:24:31Z</time>
      </trkpt>
      <trkpt lat="55.03658" lon="-2.13769">
        <ele>106.22</ele>
        <time>2021-03-20T15:24:35Z</time>
      </trkpt>
      <trkpt lat="55.03629" lon="-2.13912">
        <ele>110.82</ele>
        <time>2021-03-20T15:24:39Z</time>
      </trkpt>
      <trkpt lat="55.03605" lon="-2.13999">
        <ele>112</ele>
        <time>2021-03-20T15:24:43Z</time>
      </trkpt>
      <trkpt lat="55.03597" lon="-2.14035">
        <ele>111</ele>
        <time>2021-03-20T15:24:47Z</time>
      </trkpt>
      <trkpt lat="55.03597" lon="-2.14055">
        <ele>111</ele>
        <time>2021-03-20T15:24:51Z</time>
      </trkpt>
      <trkpt lat="55.03599" lon="-2.14075">
        <ele>111.71</ele>
        <time>2021-03-20T15:24:55Z</time>
      </trkpt>
      <trkpt lat="55.03609" lon="-2.1413">
        <ele>112.66</ele>
        <time>2021-03-20T15:24:59Z</time>
      </trkpt>
      <trkpt lat="55.03612" lon="-2.14149">
        <ele>112.98</ele>
        <time>2021-03-20T15:25:03Z</time>
      </trkpt>
      <trkpt lat="55.03611" lon="-2.14164">
        <ele>112.99</ele>
        <time>2021-03-20T15:25:06Z</time>
      </trkpt>
      <trkpt lat="55.03609" lon="-2.14177">
        <ele>113.02</ele>
        <time>2021-03-20T15:25:10Z</time>
      </trkpt>
      <trkpt lat="55.03599" lon="-2.14216">
        <ele>113.42</ele>
        <time>2021-03-20T15:25:14Z</time>
      </trkpt>
      <trkpt lat="55.03596" lon="-2.14292">
        <ele>114.55</ele>
        <time>2021-03-20T15:25:18Z</time>
      </trkpt>
      <trkpt lat="55.03588" lon="-2.14348">
        <ele>115.28</ele>
        <time>2021-03-20T15:25:22Z</time>
      </trkpt>
      <trkpt lat="55.03576" lon="-2.1438">
        <ele>116.19</ele>
        <time>2021-03-20T15:25:26Z</time>
      </trkpt>
      <trkpt lat="55.03558" lon="-2.14415">
        <ele>118.69</ele>
        <time>2021-03-20T15:25:30Z</time>
      </trkpt>
      <trkpt lat="55.03493" lon="-2.14804">
        <ele>133.2</ele>
        <time>2021-03-20T15:25:34Z</time>
      </trkpt>
      <trkpt lat="55.03455" lon="-2.14829">
        <ele>134</ele>
        <time>2021-03-20T15:25:38Z</time>
      </trkpt>
      <trkpt lat="55.03428" lon="-2.14888">
        <ele>131.8</ele>
        <time>2021-03-20T15:25:41Z</time>
      </trkpt>
      <trkpt lat="55.03425" lon="-2.14899">
        <ele>131.21</ele>
        <time>2021-03-20T15:25:45Z</time>
      </trkpt>
      <trkpt lat="55.03419" lon="-2.14908">
        <ele>130.48</ele>
        <time>2021-03-20T15:25:49Z</time>
      </trkpt>
      <trkpt lat="55.03413" lon="-2.14913">
        <ele>129.83</ele>
        <time>2021-03-20T15:25:53Z</time>
      </trkpt>
      <trkpt lat="55.0339" lon="-2.14917">
        <ele>128.06</ele>
        <time>2021-03-20T15:25:57Z</time>
      </trkpt>
      <trkpt lat="55.03382" lon="-2.14924">
        <ele>128</ele>
        <time>2021-03-20T15:26:01Z</time>
      </trkpt>
      <trkpt lat="55.03379" lon="-2.14937">
        <ele>128</ele>
        <time>2021-03-20T15:26:05Z</time>
      </trkpt>
      <trkpt lat="55.03374" lon="-2.15154">
        <ele>131.55</ele>
        <time>2021-03-20T15:26:09Z</time>
      </trkpt>
      <trkpt lat="55.03371" lon="-2.15163">
        <ele>131.88</ele>
        <time>2021-03-20T15:26:13Z</time>
      </trkpt>
      <trkpt lat="55.03321" lon="-2.15219">
        <ele>132.87</ele>
        <time>2021-03-20T15:26:17Z</time>
      </trkpt>
      <trkpt lat="55.03284" lon="-2.15254">
        <ele>135.31</ele>
        <time>2021-03-20T15:26:20Z</time>
      </trkpt>
      <trkpt lat="55.03276" lon="-2.1526">
        <ele>135.62</ele>
        <time>2021-03-20T15:26:24Z</time>
      </trkpt>
      <trkpt lat="55.0326" lon="-2.15266">
        <ele>135.1</ele>
        <time>2021-03-20T15:26:28Z</time>
      </trkpt>
      <trkpt lat="55.03234" lon="-2.15265">
        <ele>134.55</ele>
        <time>2021-03-20T15:26:32Z</time>
      </trkpt>
      <trkpt lat="55.03201" lon="-2.15254">
        <ele>134.14</ele>
        <time>2021-03-20T15:26:36Z</time>
      </trkpt>
      <trkpt lat="55.03172" lon="-2.15237">
        <ele>133.44</ele>
        <time>2021-03-20T15:26:40Z</time>
      </trkpt>
      <trkpt lat="55.03143" lon="-2.15213">
        <ele>132.68</ele>
        <time>2021-03-20T15:26:44Z</time>
      </trkpt>
      <trkpt lat="55.03128" lon="-2.15207">
        <ele>132.84</ele>
        <time>2021-03-20T15:26:48Z</time>
      </trkpt>
      <trkpt lat="55.03105" lon="-2.15209">
        <ele>133.83</ele>
        <time>2021-03-20T15:26:52Z</time>
      </trkpt>
      <trkpt lat="55.03078" lon="-2.15225">
        <ele>135.29</ele>
        <time>2021-03-20T15:26:55Z</time>
      </trkpt>
      <trkpt lat="55.02961" lon="-2.15326">
        <ele>138</ele>
        <time>2021-03-20T15:26:59Z</time>
      </trkpt>
      <trkpt lat="55.02925" lon="-2.15344">
        <ele>136.32</ele>
        <time>2021-03-20T15:27:03Z</time>
      </trkpt>
      <trkpt lat="55.02929" lon="-2.15582">
        <ele>147.65</ele>
        <time>2021-03-20T15:27:15Z</time>
      </trkpt>
      <trkpt lat="55.02932" lon="-2.15618">
        <ele>149.48</ele>
        <time>2021-03-20T15:27:27Z</time>
      </trkpt>
      <trkpt lat="55.02937" lon="-2.15643">
        <ele>151.05</ele>
        <time>2021-03-20T15:27:40Z</time>
      </trkpt>
      <trkpt lat="55.0295" lon="-2.15687">
        <ele>154.5</ele>
        <time>2021-03-20T15:27:52Z</time>
      </trkpt>
      <trkpt lat="55.02965" lon="-2.15727">
        <ele>158.07</ele>
        <time>2021-03-20T15:28:04Z</time>
      </trkpt>
      <trkpt lat="55.02974" lon="-2.15759">
        <ele>160.08</ele>
        <time>2021-03-20T15:28:16Z</time>
      </trkpt>
      <trkpt lat="55.03034" lon="-2.16003">
        <ele>172.91</ele>
        <time>2021-03-20T15:28:28Z</time>
      </trkpt>
      <trkpt lat="55.03245" lon="-2.16903">
        <ele>182.18</ele>
        <time>2021-03-20T15:28:40Z</time>
      </trkpt>
      <trkpt lat="55.033" lon="-2.17147">
        <ele>196.63</ele>
        <time>2021-03-20T15:28:52Z</time>
      </trkpt>
      <trkpt lat="55.03363" lon="-2.17473">
        <ele>214.8</ele>
        <time>2021-03-20T15:29:04Z</time>
      </trkpt>
      <trkpt lat="55.03372" lon="-2.17508">
        <ele>214.86</ele>
        <time>2021-03-20T15:29:16Z</time>
      </trkpt>
      <trkpt lat="55.03386" lon="-2.17551">
        <ele>212.72</ele>
        <time>2021-03-20T15:29:29Z</time>
      </trkpt>
      <trkpt lat="55.03417" lon="-2.1766">
        <ele>200.95</ele>
        <time>2021-03-20T15:29:41Z</time>
      </trkpt>
      <trkpt lat="55.03441" lon="-2.17752">
        <ele>200.4</ele>
        <time>2021-03-20T15:29:53Z</time>
      </trkpt>
      <trkpt lat="55.03507" lon="-2.18036">
        <ele>195.73</ele>
        <time>2021-03-20T15:30:05Z</time>
      </trkpt>
      <trkpt lat="55.03772" lon="-2.1919">
        <ele>245.61</ele>
        <time>2021-03-20T15:30:17Z</time>
      </trkpt>
      <trkpt lat="55.03825" lon="-2.19431">
        <ele>251.31</ele>
        <time>2021-03-20T15:30:29Z</time>
      </trkpt>
      <trkpt lat="55.03828" lon="-2.19478">
        <ele>250.42</ele>
        <time>2021-03-20T15:30:41Z</time>
      </trkpt>
      <trkpt lat="55.03826" lon="-2.19521">
        <ele>250.35</ele>
        <time>2021-03-20T15:30:53Z</time>
      </trkpt>
      <trkpt lat="55.03801" lon="-2.19757">
        <ele>245.57</ele>
        <time>2021-03-20T15:31:05Z</time>
      </trkpt>
      <trkpt lat="55.03632" lon="-2.21455">
        <ele>237.13</ele>
        <time>2021-03-20T15:31:17Z</time>
      </trkpt>
      <trkpt lat="55.03575" lon="-2.22049">
        <ele>228.71</ele>
        <time>2021-03-20T15:31:30Z</time>
      </trkpt>
      <trkpt lat="55.03514" lon="-2.22669">
        <ele>218.12</ele>
        <time>2021-03-20T15:31:42Z</time>
      </trkpt>
      <trkpt lat="55.03466" lon="-2.23165">
        <ele>235.94</ele>
        <time>2021-03-20T15:31:54Z</time>
      </trkpt>
      <trkpt lat="55.03412" lon="-2.23706">
        <ele>242.82</ele>
        <time>2021-03-20T15:32:06Z</time>
      </trkpt>
      <trkpt lat="55.03341" lon="-2.24271">
        <ele>240</ele>
        <time>2021-03-20T15:32:18Z</time>
      </trkpt>
      <trkpt lat="55.03122" lon="-2.26113">
        <ele>245.55</ele>
        <time>2021-03-20T15:32:30Z</time>
      </trkpt>
      <trkpt lat="55.03112" lon="-2.26169">
        <ele>244.88</ele>
        <time>2021-03-20T15:32:42Z</time>
      </trkpt>
      <trkpt lat="55.0308" lon="-2.26317">
        <ele>242.64</ele>
        <time>2021-03-20T15:32:54Z</time>
      </trkpt>
      <trkpt lat="55.03071" lon="-2.26379">
        <ele>240.63</ele>
        <time>2021-03-20T15:33:06Z</time>
      </trkpt>
      <trkpt lat="55.03048" lon="-2.26602">
        <ele>236.74</ele>
        <time>2021-03-20T15:33:19Z</time>
      </trkpt>
      <trkpt lat="55.02993" lon="-2.27089">
        <ele>236.75</ele>
        <time>2021-03-20T15:33:31Z</time>
      </trkpt>
      <trkpt lat="55.02923" lon="-2.27737">
        <ele>231.88</ele>
        <time>2021-03-20T15:33:43Z</time>
      </trkpt>
      <trkpt lat="55.02915" lon="-2.27792">
        <ele>231.48</ele>
        <time>2021-03-20T15:33:55Z</time>
      </trkpt>
      <trkpt lat="55.02908" lon="-2.27827">
        <ele>231</ele>
        <time>2021-03-20T15:34:07Z</time>
      </trkpt>
      <trkpt lat="55.02895" lon="-2.27877">
        <ele>229.55</ele>
        <time>2021-03-20T15:34:19Z</time>
      </trkpt>
      <trkpt lat="55.02863" lon="-2.27978">
        <ele>229.19</ele>
        <time>2021-03-20T15:34:31Z</time>
      </trkpt>
      <trkpt lat="55.02769" lon="-2.28239">
        <ele>237.38</ele>
        <time>2021-03-20T15:34:43Z</time>
      </trkpt>
      <trkpt lat="55.02732" lon="-2.28334">
        <ele>233.99</ele>
        <time>2021-03-20T15:34:55Z</time>
      </trkpt>
      <trkpt lat="55.02505" lon="-2.28947">
        <ele>240.07</ele>
        <time>2021-03-20T15:35:07Z</time>
      </trkpt>
      <trkpt lat="55.02358" lon="-2.29355">
        <ele>249.85</ele>
        <time>2021-03-20T15:35:20Z</time>
      </trkpt>
      <trkpt lat="55.02318" lon="-2.29457">
        <ele>252.69</ele>
        <time>2021-03-20T15:35:32Z</time>
      </trkpt>
      <trkpt lat="55.02045" lon="-2.30114">
        <ele>250.33</ele>
        <time>2021-03-20T15:35:44Z</time>
      </trkpt>
      <trkpt lat="55.01849" lon="-2.3058">
        <ele>246.18</ele>
        <time>2021-03-20T15:35:56Z</time>
      </trkpt>
      <trkpt lat="55.01614" lon="-2.31044">
        <ele>225.9</ele>
        <time>2021-03-20T15:36:08Z</time>
      </trkpt>
      <trkpt lat="55.01419" lon="-2.3142">
        <ele>214.07</ele>
        <time>2021-03-20T15:36:20Z</time>
      </trkpt>
      <trkpt lat="55.0115" lon="-2.31946">
        <ele>217.26</ele>
        <time>2021-03-20T15:36:32Z</time>
      </trkpt>
      <trkpt lat="55.00985" lon="-2.32277">
        <ele>224.45</ele>
        <time>2021-03-20T15:36:44Z</time>
      </trkpt>
      <trkpt lat="55.0095" lon="-2.32357">
        <ele>224.88</ele>
        <time>2021-03-20T15:36:56Z</time>
      </trkpt>
      <trkpt lat="55.00938" lon="-2.32394">
        <ele>225.18</ele>
        <time>2021-03-20T15:37:08Z</time>
      </trkpt>
      <trkpt lat="55.00759" lon="-2.33137">
        <ele>233.86</ele>
        <time>2021-03-20T15:37:21Z</time>
      </trkpt>
      <trkpt lat="55.00639" lon="-2.33623">
        <ele>239.8</ele>
        <time>2021-03-20T15:37:33Z</time>
      </trkpt>
      <trkpt lat="55.00589" lon="-2.33831">
        <ele>243.7</ele>
        <time>2021-03-20T15:37:45Z</time>
      </trkpt>
      <trkpt lat="55.00526" lon="-2.34174">
        <ele>245.93</ele>
        <time>2021-03-20T15:37:57Z</time>
      </trkpt>
      <trkpt lat="55.00495" lon="-2.34335">
        <ele>246.76</ele>
        <time>2021-03-20T15:38:09Z</time>
      </trkpt>
      <trkpt lat="55.00354" lon="-2.3493">
        <ele>228.38</ele>
        <time>2021-03-20T15:38:21Z</time>
      </trkpt>
      <trkpt lat="55.00015" lon="-2.36319">
        <ele>232.46</ele>
        <time>2021-03-20T15:38:33Z</time>
      </trkpt>
      <trkpt lat="55.00003" lon="-2.3638">
        <ele>234.4</ele>
        <time>2021-03-20T15:38:45Z</time>
      </trkpt>
      <trkpt lat="54.99983" lon="-2.3651">
        <ele>241.59</ele>
        <time>2021-03-20T15:38:57Z</time>
      </trkpt>
      <trkpt lat="54.99793" lon="-2.37783">
        <ele>230.65</ele>
        <time>2021-03-20T15:39:10Z</time>
      </trkpt>
      <trkpt lat="54.99748" lon="-2.38095">
        <ele>232.62</ele>
        <time>2021-03-20T15:39:22Z</time>
      </trkpt>
      <trkpt lat="54.99654" lon="-2.38717">
        <ele>223.56</ele>
        <time>2021-03-20T15:39:34Z</time>
      </trkpt>
      <trkpt lat="54.99652" lon="-2.38736">
        <ele>223.72</ele>
        <time>2021-03-20T15:39:46Z</time>
      </trkpt>
      <trkpt lat="54.99603" lon="-2.39049">
        <ele>219.45</ele>
        <time>2021-03-20T15:39:58Z</time>
      </trkpt>
      <trkpt lat="54.9958" lon="-2.39219">
        <ele>219</ele>
        <time>2021-03-20T15:40:10Z</time>
      </trkpt>
      <trkpt lat="54.99541" lon="-2.39471">
        <ele>223.99</ele>
        <time>2021-03-20T15:40:22Z</time>
      </trkpt>
      <trkpt lat="54.99394" lon="-2.40347">
        <ele>216.62</ele>
        <time>2021-03-20T15:40:34Z</time>
      </trkpt>
      <trkpt lat="54.99275" lon="-2.41098">
        <ele>219</ele>
        <time>2021-03-20T15:40:46Z</time>
      </trkpt>
      <trkpt lat="54.99162" lon="-2.41786">
        <ele>229.16</ele>
        <time>2021-03-20T15:40:58Z</time>
      </trkpt>
      <trkpt lat="54.99064" lon="-2.42409">
        <ele>236.11</ele>
        <time>2021-03-20T15:41:11Z</time>
      </trkpt>
      <trkpt lat="54.9901" lon="-2.42872">
        <ele>225.4</ele>
        <time>2021-03-20T15:41:23Z</time>
      </trkpt>
      <trkpt lat="54.98961" lon="-2.43343">
        <ele>214.54</ele>
        <time>2021-03-20T15:41:35Z</time>
      </trkpt>
      <trkpt lat="54.98904" lon="-2.43849">
        <ele>215.16</ele>
        <time>2021-03-20T15:41:47Z</time>
      </trkpt>
      <trkpt lat="54.98803" lon="-2.44577">
        <ele>186.54</ele>
        <time>2021-03-20T15:41:59Z</time>
      </trkpt>
      <trkpt lat="54.98773" lon="-2.44812">
        <ele>174.72</ele>
        <time>2021-03-20T15:42:11Z</time>
      </trkpt>
      <trkpt lat="54.98767" lon="-2.44849">
        <ele>173.27</ele>
        <time>2021-03-20T15:42:23Z</time>
      </trkpt>
      <trkpt lat="54.9872" lon="-2.45222">
        <ele>177.72</ele>
        <time>2021-03-20T15:42:35Z</time>
      </trkpt>
      <trkpt lat="54.98657" lon="-2.45684">
        <ele>186.29</ele>
        <time>2021-03-20T15:42:47Z</time>
      </trkpt>
      <trkpt lat="54.98634" lon="-2.45833">
        <ele>190.62</ele>
        <time>2021-03-20T15:42:59Z</time>
      </trkpt>
      <trkpt lat="54.98552" lon="-2.46427">
        <ele>207.5</ele>
        <time>2021-03-20T15:43:12Z</time>
      </trkpt>
      <trkpt lat="54.98527" lon="-2.46649">
        <ele>210.4</ele>
        <time>2021-03-20T15:43:24Z</time>
      </trkpt>
      <trkpt lat="54.98391" lon="-2.47661">
        <ele>216.85</ele>
        <time>2021-03-20T15:43:36Z</time>
      </trkpt>
      <trkpt lat="54.98346" lon="-2.48026">
        <ele>214.93</ele>
        <time>2021-03-20T15:43:48Z</time>
      </trkpt>
      <trkpt lat="54.98267" lon="-2.48643">
        <ele>217.4</ele>
        <time>2021-03-20T15:44:00Z</time>
      </trkpt>
      <trkpt lat="54.9818" lon="-2.49338">
        <ele>223.5</ele>
        <time>2021-03-20T15:44:12Z</time>
      </trkpt>
      <trkpt lat="54.98125" lon="-2.4976">
        <ele>223.06</ele>
        <time>2021-03-20T15:44:24Z</time>
      </trkpt>
      <trkpt lat="54.9811" lon="-2.49942">
        <ele>217.85</ele>
        <time>2021-03-20T15:44:36Z</time>
      </trkpt>
      <trkpt lat="54.98108" lon="-2.50055">
        <ele>215.81</ele>
        <time>2021-03-20T15:44:48Z</time>
      </trkpt>
      <trkpt lat="54.9811" lon="-2.50142">
        <ele>210.86</ele>
        <time>2021-03-20T15:45:01Z</time>
      </trkpt>
      <trkpt lat="54.98115" lon="-2.50219">
        <ele>207.42</ele>
        <time>2021-03-20T15:45:13Z</time>
      </trkpt>
      <trkpt lat="54.98214" lon="-2.5142">
        <ele>198.34</ele>
        <time>2021-03-20T15:45:25Z</time>
      </trkpt>
      <trkpt lat="54.98258" lon="-2.51915">
        <ele>206.57</ele>
        <time>2021-03-20T15:45:37Z</time>
      </trkpt>
      <trkpt lat="54.98278" lon="-2.52163">
        <ele>206.04</ele>
        <time>2021-03-20T15:45:49Z</time>
      </trkpt>
      <trkpt lat="54.98288" lon="-2.5224">
        <ele>204.28</ele>
        <time>2021-03-20T15:46:01Z</time>
      </trkpt>
      <trkpt lat="54.98318" lon="-2.52405">
        <ele>195.11</ele>
        <time>2021-03-20T15:46:13Z</time>
      </trkpt>
      <trkpt lat="54.98334" lon="-2.52528">
        <ele>188.01</ele>
        <time>2021-03-20T15:46:25Z</time>
      </trkpt>
      <trkpt lat="54.98359" lon="-2.52848">
        <ele>162.93</ele>
        <time>2021-03-20T15:46:37Z</time>
      </trkpt>
      <trkpt lat="54.9836" lon="-2.5289">
        <ele>159.98</ele>
        <time>2021-03-20T15:46:49Z</time>
      </trkpt>
      <trkpt lat="54.98359" lon="-2.52906">
        <ele>159.36</ele>
        <time>2021-03-20T15:47:02Z</time>
      </trkpt>
      <trkpt lat="54.98355" lon="-2.52926">
        <ele>158.34</ele>
        <time>2021-03-20T15:47:14Z</time>
      </trkpt>
      <trkpt lat="54.98345" lon="-2.5295">
        <ele>156.49</ele>
        <time>2021-03-20T15:47:26Z</time>
      </trkpt>
      <trkpt lat="54.98241" lon="-2.53174">
        <ele>133.89</ele>
        <time>2021-03-20T15:47:38Z</time>
      </trkpt>
      <trkpt lat="54.98206" lon="-2.53254">
        <ele>130.57</ele>
        <time>2021-03-20T15:47:50Z</time>
      </trkpt>
      <trkpt lat="54.982" lon="-2.53286">
        <ele>130.86</ele>
        <time>2021-03-20T15:48:02Z</time>
      </trkpt>
      <trkpt lat="54.98197" lon="-2.53331">
        <ele>131</ele>
        <time>2021-03-20T15:48:14Z</time>
      </trkpt>
      <trkpt lat="54.98199" lon="-2.53439">
        <ele>135.44</ele>
        <time>2021-03-20T15:48:26Z</time>
      </trkpt>
      <trkpt lat="54.98261" lon="-2.53445">
        <ele>132.27</ele>
        <time>2021-03-20T15:48:30Z</time>
      </trkpt>
      <trkpt lat="54.98293" lon="-2.53451">
        <ele>130.66</ele>
        <time>2021-03-20T15:48:34Z</time>
      </trkpt>
      <trkpt lat="54.98334" lon="-2.53466">
        <ele>130.8</ele>
        <time>2021-03-20T15:48:37Z</time>
      </trkpt>
      <trkpt lat="54.98349" lon="-2.53476">
        <ele>131.56</ele>
        <time>2021-03-20T15:48:41Z</time>
      </trkpt>
      <trkpt lat="54.98358" lon="-2.53488">
        <ele>131.87</ele>
        <time>2021-03-20T15:48:44Z</time>
      </trkpt>
      <trkpt lat="54.98406" lon="-2.53575">
        <ele>138.46</ele>
        <time>2021-03-20T15:48:48Z</time>
      </trkpt>
      <trkpt lat="54.98438" lon="-2.53615">
        <ele>142.34</ele>
        <time>2021-03-20T15:48:52Z</time>
      </trkpt>
      <trkpt lat="54.98466" lon="-2.53635">
        <ele>142.93</ele>
        <time>2021-03-20T15:48:55Z</time>
      </trkpt>
      <trkpt lat="54.98498" lon="-2.53643">
        <ele>141.32</ele>
        <time>2021-03-20T15:48:59Z</time>
      </trkpt>
      <trkpt lat="54.98566" lon="-2.53645">
        <ele>140.22</ele>
        <time>2021-03-20T15:49:02Z</time>
      </trkpt>
      <trkpt lat="54.98591" lon="-2.53649">
        <ele>139.79</ele>
        <time>2021-03-20T15:49:06Z</time>
      </trkpt>
      <trkpt lat="54.98625" lon="-2.53662">
        <ele>137.92</ele>
        <time>2021-03-20T15:49:10Z</time>
      </trkpt>
      <trkpt lat="54.98655" lon="-2.53689">
        <ele>136.93</ele>
        <time>2021-03-20T15:49:13Z</time>
      </trkpt>
      <trkpt lat="54.98807" lon="-2.53913">
        <ele>138.88</ele>
        <time>2021-03-20T15:49:17Z</time>
      </trkpt>
      <trkpt lat="54.98896" lon="-2.54063">
        <ele>139.28</ele>
        <time>2021-03-20T15:49:20Z</time>
      </trkpt>
      <trkpt lat="54.98926" lon="-2.54121">
        <ele>138.35</ele>
        <time>2021-03-20T15:49:24Z</time>
      </trkpt>
      <trkpt lat="54.98954" lon="-2.54186">
        <ele>140.37</ele>
        <time>2021-03-20T15:49:28Z</time>
      </trkpt>
      <trkpt lat="54.98987" lon="-2.54284">
        <ele>143.86</ele>
        <time>2021-03-20T15:49:31Z</time>
      </trkpt>
      <trkpt lat="54.99009" lon="-2.54405">
        <ele>145.2</ele>
        <time>2021-03-20T15:49:35Z</time>
      </trkpt>
      <trkpt lat="54.99023" lon="-2.54517">
        <ele>147.13</ele>
        <time>2021-03-20T15:49:38Z</time>
      </trkpt>
      <trkpt lat="54.99038" lon="-2.54662">
        <ele>147.82</ele>
        <time>2021-03-20T15:49:42Z</time>
      </trkpt>
      <trkpt lat="54.99036" lon="-2.54753">
        <ele>149.7</ele>
        <time>2021-03-20T15:49:46Z</time>
      </trkpt>
      <trkpt lat="54.99041" lon="-2.54803">
        <ele>148.62</ele>
        <time>2021-03-20T15:49:49Z</time>
      </trkpt>
      <trkpt lat="54.99051" lon="-2.54847">
        <ele>147.73</ele>
        <time>2021-03-20T15:49:53Z</time>
      </trkpt>
      <trkpt lat="54.99054" lon="-2.5488">
        <ele>146.48</ele>
        <time>2021-03-20T15:49:56Z</time>
      </trkpt>
      <trkpt lat="54.99055" lon="-2.54978">
        <ele>147.01</ele>
        <time>2021-03-20T15:50:00Z</time>
      </trkpt>
      <trkpt lat="54.99061" lon="-2.55081">
        <ele>147.71</ele>
        <time>2021-03-20T15:50:04Z</time>
      </trkpt>
      <trkpt lat="54.99063" lon="-2.55099">
        <ele>148.3</ele>
        <time>2021-03-20T15:50:07Z</time>
      </trkpt>
      <trkpt lat="54.99069" lon="-2.55129">
        <ele>149.16</ele>
        <time>2021-03-20T15:50:11Z</time>
      </trkpt>
      <trkpt lat="54.99087" lon="-2.552">
        <ele>148.88</ele>
        <time>2021-03-20T15:50:14Z</time>
      </trkpt>
      <trkpt lat="54.9909" lon="-2.55244">
        <ele>148.16</ele>
        <time>2021-03-20T15:50:18Z</time>
      </trkpt>
      <trkpt lat="54.9909" lon="-2.55269">
        <ele>148</ele>
        <time>2021-03-20T15:50:22Z</time>
      </trkpt>
      <trkpt lat="54.99083" lon="-2.55374">
        <ele>150</ele>
        <time>2021-03-20T15:50:25Z</time>
      </trkpt>
      <trkpt lat="54.99078" lon="-2.55404">
        <ele>150</ele>
        <time>2021-03-20T15:50:29Z</time>
      </trkpt>
      <trkpt lat="54.99059" lon="-2.55466">
        <ele>150.08</ele>
        <time>2021-03-20T15:50:33Z</time>
      </trkpt>
      <trkpt lat="54.99054" lon="-2.5549">
        <ele>149.92</ele>
        <time>2021-03-20T15:50:36Z</time>
      </trkpt>
      <trkpt lat="54.99051" lon="-2.5552">
        <ele>149.84</ele>
        <time>2021-03-20T15:50:40Z</time>
      </trkpt>
      <trkpt lat="54.99052" lon="-2.55548">
        <ele>149.85</ele>
        <time>2021-03-20T15:50:43Z</time>
      </trkpt>
      <trkpt lat="54.9906" lon="-2.55643">
        <ele>150.14</ele>
        <time>2021-03-20T15:50:47Z</time>
      </trkpt>
      <trkpt lat="54.99058" lon="-2.55729">
        <ele>150.12</ele>
        <time>2021-03-20T15:50:51Z</time>
      </trkpt>
      <trkpt lat="54.99053" lon="-2.5584">
        <ele>150.91</ele>
        <time>2021-03-20T15:50:54Z</time>
      </trkpt>
      <trkpt lat="54.99028" lon="-2.56048">
        <ele>150.96</ele>
        <time>2021-03-20T15:50:58Z</time>
      </trkpt>
      <trkpt lat="54.99024" lon="-2.56188">
        <ele>151.36</ele>
        <time>2021-03-20T15:51:01Z</time>
      </trkpt>
      <trkpt lat="54.99013" lon="-2.56325">
        <ele>151.53</ele>
        <time>2021-03-20T15:51:05Z</time>
      </trkpt>
      <trkpt lat="54.99014" lon="-2.56368">
        <ele>150.87</ele>
        <time>2021-03-20T15:51:09Z</time>
      </trkpt>
      <trkpt lat="54.99011" lon="-2.56407">
        <ele>149.89</ele>
        <time>2021-03-20T15:51:12Z</time>
      </trkpt>
      <trkpt lat="54.99002" lon="-2.56476">
        <ele>148.68</ele>
        <time>2021-03-20T15:51:16Z</time>
      </trkpt>
      <trkpt lat="54.98998" lon="-2.56536">
        <ele>147</ele>
        <time>2021-03-20T15:51:19Z</time>
      </trkpt>
      <trkpt lat="54.98998" lon="-2.56619">
        <ele>144.07</ele>
        <time>2021-03-20T15:51:23Z</time>
      </trkpt>
      <trkpt lat="54.99001" lon="-2.56663">
        <ele>142.88</ele>
        <time>2021-03-20T15:51:27Z</time>
      </trkpt>
      <trkpt lat="54.99004" lon="-2.56716">
        <ele>143.48</ele>
        <time>2021-03-20T15:51:30Z</time>
      </trkpt>
      <trkpt lat="54.99008" lon="-2.56748">
        <ele>144.12</ele>
        <time>2021-03-20T15:51:34Z</time>
      </trkpt>
      <trkpt lat="54.99034" lon="-2.56864">
        <ele>141.28</ele>
        <time>2021-03-20T15:51:37Z</time>
      </trkpt>
      <trkpt lat="54.9905" lon="-2.56893">
        <ele>139.59</ele>
        <time>2021-03-20T15:51:41Z</time>
      </trkpt>
      <trkpt lat="54.99061" lon="-2.56923">
        <ele>138.82</ele>
        <time>2021-03-20T15:51:45Z</time>
      </trkpt>
      <trkpt lat="54.99068" lon="-2.56951">
        <ele>138.67</ele>
        <time>2021-03-20T15:51:48Z</time>
      </trkpt>
      <trkpt lat="54.99083" lon="-2.56975">
        <ele>138.01</ele>
        <time>2021-03-20T15:51:52Z</time>
      </trkpt>
      <trkpt lat="54.99101" lon="-2.57042">
        <ele>136.37</ele>
        <time>2021-03-20T15:51:55Z</time>
      </trkpt>
      <trkpt lat="54.99104" lon="-2.57083">
        <ele>136.01</ele>
        <time>2021-03-20T15:51:59Z</time>
      </trkpt>
      <trkpt lat="54.99109" lon="-2.5711">
        <ele>135.35</ele>
        <time>2021-03-20T15:52:03Z</time>
      </trkpt>
      <trkpt lat="54.99121" lon="-2.57149">
        <ele>132.96</ele>
        <time>2021-03-20T15:52:06Z</time>
      </trkpt>
      <trkpt lat="54.99128" lon="-2.57188">
        <ele>130.69</ele>
        <time>2021-03-20T15:52:10Z</time>
      </trkpt>
      <trkpt lat="54.9913" lon="-2.57204">
        <ele>129.96</ele>
        <time>2021-03-20T15:52:13Z</time>
      </trkpt>
      <trkpt lat="54.9913" lon="-2.57264">
        <ele>127.12</ele>
        <time>2021-03-20T15:52:17Z</time>
      </trkpt>
      <trkpt lat="54.99128" lon="-2.5732">
        <ele>125.25</ele>
        <time>2021-03-20T15:52:21Z</time>
      </trkpt>
      <trkpt lat="54.99147" lon="-2.57415">
        <ele>121.44</ele>
        <time>2021-03-20T15:52:24Z</time>
      </trkpt>
      <trkpt lat="54.99146" lon="-2.57437">
        <ele>121.52</ele>
        <time>2021-03-20T15:52:28Z</time>
      </trkpt>
      <trkpt lat="54.99142" lon="-2.5745">
        <ele>121.58</ele>
        <time>2021-03-20T15:52:31Z</time>
      </trkpt>
      <trkpt lat="54.99126" lon="-2.57481">
        <ele>122.4</ele>
        <time>2021-03-20T15:52:35Z</time>
      </trkpt>
      <trkpt lat="54.99128" lon="-2.57513">
        <ele>122.42</ele>
        <time>2021-03-20T15:52:38Z</time>
      </trkpt>
      <trkpt lat="54.99127" lon="-2.57582">
        <ele>122.36</ele>
        <time>2021-03-20T15:52:40Z</time>
      </trkpt>
      <trkpt lat="54.99129" lon="-2.57613">
        <ele>121.96</ele>
        <time>2021-03-20T15:52:43Z</time>
      </trkpt>
      <trkpt lat="54.99155" lon="-2.57683">
        <ele>117.93</ele>
        <time>2021-03-20T15:52:45Z</time>
      </trkpt>
      <trkpt lat="54.9918" lon="-2.57711">
        <ele>117.79</ele>
        <time>2021-03-20T15:52:48Z</time>
      </trkpt>
      <trkpt lat="54.99271" lon="-2.5781">
        <ele>127.54</ele>
        <time>2021-03-20T15:52:51Z</time>
      </trkpt>
      <trkpt lat="54.99288" lon="-2.57816">
        <ele>128.97</ele>
        <time>2021-03-20T15:52:53Z</time>
      </trkpt>
      <trkpt lat="54.99286" lon="-2.5785">
        <ele>130.61</ele>
        <time>2021-03-20T15:52:56Z</time>
      </trkpt>
      <trkpt lat="54.99275" lon="-2.57958">
        <ele>131.87</ele>
        <time>2021-03-20T15:52:58Z</time>
      </trkpt>
      <trkpt lat="54.99262" lon="-2.58006">
        <ele>130.92</ele>
        <time>2021-03-20T15:53:01Z</time>
      </trkpt>
      <trkpt lat="54.99252" lon="-2.58089">
        <ele>131.18</ele>
        <time>2021-03-20T15:53:04Z</time>
      </trkpt>
      <trkpt lat="54.99255" lon="-2.58131">
        <ele>131.07</ele>
        <time>2021-03-20T15:53:06Z</time>
      </trkpt>
      <trkpt lat="54.9926" lon="-2.58169">
        <ele>131.08</ele>
        <time>2021-03-20T15:53:09Z</time>
      </trkpt>
      <trkpt lat="54.99279" lon="-2.58241">
        <ele>132.58</ele>
        <time>2021-03-20T15:53:11Z</time>
      </trkpt>
      <trkpt lat="54.99298" lon="-2.58292">
        <ele>135.11</ele>
        <time>2021-03-20T15:53:14Z</time>
      </trkpt>
      <trkpt lat="54.99324" lon="-2.58398">
        <ele>134.74</ele>
        <time>2021-03-20T15:53:17Z</time>
      </trkpt>
      <trkpt lat="54.99333" lon="-2.58428">
        <ele>135.92</ele>
        <time>2021-03-20T15:53:19Z</time>
      </trkpt>
      <trkpt lat="54.99345" lon="-2.58455">
        <ele>136.84</ele>
        <time>2021-03-20T15:53:22Z</time>
      </trkpt>
      <trkpt lat="54.99358" lon="-2.58477">
        <ele>137.48</ele>
        <time>2021-03-20T15:53:24Z</time>
      </trkpt>
      <trkpt lat="54.99385" lon="-2.58517">
        <ele>141.15</ele>
        <time>2021-03-20T15:53:27Z</time>
      </trkpt>
      <trkpt lat="54.99437" lon="-2.58606">
        <ele>147.53</ele>
        <time>2021-03-20T15:53:30Z</time>
      </trkpt>
      <trkpt lat="54.99444" lon="-2.58625">
        <ele>148.37</ele>
        <time>2021-03-20T15:53:32Z</time>
      </trkpt>
      <trkpt lat="54.99455" lon="-2.58694">
        <ele>148.75</ele>
        <time>2021-03-20T15:53:35Z</time>
      </trkpt>
      <trkpt lat="54.99463" lon="-2.58758">
        <ele>152.49</ele>
        <time>2021-03-20T15:53:37Z</time>
      </trkpt>
      <trkpt lat="54.99462" lon="-2.58788">
        <ele>153.83</ele>
        <time>2021-03-20T15:53:40Z</time>
      </trkpt>
      <trkpt lat="54.99445" lon="-2.58944">
        <ele>152.18</ele>
        <time>2021-03-20T15:53:43Z</time>
      </trkpt>
      <trkpt lat="54.99445" lon="-2.58972">
        <ele>155.07</ele>
        <time>2021-03-20T15:53:45Z</time>
      </trkpt>
      <trkpt lat="54.99447" lon="-2.58999">
        <ele>157.11</ele>
        <time>2021-03-20T15:53:48Z</time>
      </trkpt>
      <trkpt lat="54.99452" lon="-2.59027">
        <ele>156.58</ele>
        <time>2021-03-20T15:53:50Z</time>
      </trkpt>
      <trkpt lat="54.99498" lon="-2.59152">
        <ele>152.48</ele>
        <time>2021-03-20T15:53:53Z</time>
      </trkpt>
      <trkpt lat="54.9953" lon="-2.59254">
        <ele>153</ele>
        <time>2021-03-20T15:53:56Z</time>
      </trkpt>
      <trkpt lat="54.99534" lon="-2.59274">
        <ele>153</ele>
        <time>2021-03-20T15:53:58Z</time>
      </trkpt>
      <trkpt lat="54.99537" lon="-2.59371">
        <ele>154</ele>
        <time>2021-03-20T15:54:01Z</time>
      </trkpt>
      <trkpt lat="54.99549" lon="-2.59488">
        <ele>153</ele>
        <time>2021-03-20T15:54:03Z</time>
      </trkpt>
      <trkpt lat="54.99551" lon="-2.59504">
        <ele>153.1</ele>
        <time>2021-03-20T15:54:06Z</time>
      </trkpt>
      <trkpt lat="54.99556" lon="-2.59518">
        <ele>153.67</ele>
        <time>2021-03-20T15:54:09Z</time>
      </trkpt>
      <trkpt lat="54.99569" lon="-2.5955">
        <ele>155.4</ele>
        <time>2021-03-20T15:54:11Z</time>
      </trkpt>
      <trkpt lat="54.99574" lon="-2.59566">
        <ele>156.35</ele>
        <time>2021-03-20T15:54:14Z</time>
      </trkpt>
      <trkpt lat="54.99578" lon="-2.59589">
        <ele>157.41</ele>
        <time>2021-03-20T15:54:16Z</time>
      </trkpt>
      <trkpt lat="54.9963" lon="-2.59998">
        <ele>154.67</ele>
        <time>2021-03-20T15:54:19Z</time>
      </trkpt>
      <trkpt lat="54.99638" lon="-2.60089">
        <ele>153.73</ele>
        <time>2021-03-20T15:54:22Z</time>
      </trkpt>
      <trkpt lat="54.9965" lon="-2.60251">
        <ele>151.02</ele>
        <time>2021-03-20T15:54:24Z</time>
      </trkpt>
      <trkpt lat="54.99651" lon="-2.60283">
        <ele>151.68</ele>
        <time>2021-03-20T15:54:27Z</time>
      </trkpt>
      <trkpt lat="54.99648" lon="-2.60334">
        <ele>153</ele>
        <time>2021-03-20T15:54:29Z</time>
      </trkpt>
      <trkpt lat="54.99572" lon="-2.60993">
        <ele>160.3</ele>
        <time>2021-03-20T15:54:32Z</time>
      </trkpt>
      <trkpt lat="54.9957" lon="-2.61044">
        <ele>160.03</ele>
        <time>2021-03-20T15:54:35Z</time>
      </trkpt>
      <trkpt lat="54.9957" lon="-2.61385">
        <ele>161.53</ele>
        <time>2021-03-20T15:54:37Z</time>
      </trkpt>
      <trkpt lat="54.99569" lon="-2.61547">
        <ele>161.48</ele>
        <time>2021-03-20T15:54:40Z</time>
      </trkpt>
      <trkpt lat="54.99571" lon="-2.61603">
        <ele>159.86</ele>
        <time>2021-03-20T15:54:42Z</time>
      </trkpt>
      <trkpt lat="54.99579" lon="-2.61772">
        <ele>156.65</ele>
        <time>2021-03-20T15:54:45Z</time>
      </trkpt>
      <trkpt lat="54.99582" lon="-2.61806">
        <ele>155.94</ele>
        <time>2021-03-20T15:54:48Z</time>
      </trkpt>
      <trkpt lat="54.99587" lon="-2.61837">
        <ele>156.11</ele>
        <time>2021-03-20T15:54:50Z</time>
      </trkpt>
      <trkpt lat="54.99601" lon="-2.619">
        <ele>156.04</ele>
        <time>2021-03-20T15:54:53Z</time>
      </trkpt>
      <trkpt lat="54.99605" lon="-2.61925">
        <ele>155.53</ele>
        <time>2021-03-20T15:54:55Z</time>
      </trkpt>
      <trkpt lat="54.99621" lon="-2.62346">
        <ele>147</ele>
        <time>2021-03-20T15:54:58Z</time>
      </trkpt>
      <trkpt lat="54.99628" lon="-2.62412">
        <ele>146.16</ele>
        <time>2021-03-20T15:55:01Z</time>
      </trkpt>
      <trkpt lat="54.99629" lon="-2.62444">
        <ele>146</ele>
        <time>2021-03-20T15:55:03Z</time>
      </trkpt>
      <trkpt lat="54.99625" lon="-2.62522">
        <ele>144.2</ele>
        <time>2021-03-20T15:55:06Z</time>
      </trkpt>
      <trkpt lat="54.99604" lon="-2.62682">
        <ele>138.44</ele>
        <time>2021-03-20T15:55:08Z</time>
      </trkpt>
      <trkpt lat="54.99604" lon="-2.627">
        <ele>137.95</ele>
        <time>2021-03-20T15:55:11Z</time>
      </trkpt>
      <trkpt lat="54.99606" lon="-2.62716">
        <ele>137.87</ele>
        <time>2021-03-20T15:55:14Z</time>
      </trkpt>
      <trkpt lat="54.99622" lon="-2.62789">
        <ele>139.91</ele>
        <time>2021-03-20T15:55:16Z</time>
      </trkpt>
      <trkpt lat="54.99624" lon="-2.62808">
        <ele>140.34</ele>
        <time>2021-03-20T15:55:19Z</time>
      </trkpt>
      <trkpt lat="54.99617" lon="-2.6287">
        <ele>140.61</ele>
        <time>2021-03-20T15:55:21Z</time>
      </trkpt>
      <trkpt lat="54.99614" lon="-2.62971">
        <ele>142.14</ele>
        <time>2021-03-20T15:55:24Z</time>
      </trkpt>
      <trkpt lat="54.99615" lon="-2.63">
        <ele>142.29</ele>
        <time>2021-03-20T15:55:27Z</time>
      </trkpt>
      <trkpt lat="54.99615" lon="-2.63025">
        <ele>142.27</ele>
        <time>2021-03-20T15:55:29Z</time>
      </trkpt>
      <trkpt lat="54.99613" lon="-2.63048">
        <ele>142.1</ele>
        <time>2021-03-20T15:55:32Z</time>
      </trkpt>
      <trkpt lat="54.99575" lon="-2.63208">
        <ele>139.71</ele>
        <time>2021-03-20T15:55:34Z</time>
      </trkpt>
      <trkpt lat="54.99572" lon="-2.63232">
        <ele>139.58</ele>
        <time>2021-03-20T15:55:37Z</time>
      </trkpt>
      <trkpt lat="54.9957" lon="-2.63278">
        <ele>139.54</ele>
        <time>2021-03-20T15:55:40Z</time>
      </trkpt>
      <trkpt lat="54.99571" lon="-2.63309">
        <ele>140.56</ele>
        <time>2021-03-20T15:55:42Z</time>
      </trkpt>
      <trkpt lat="54.99579" lon="-2.63415">
        <ele>139.13</ele>
        <time>2021-03-20T15:55:45Z</time>
      </trkpt>
      <trkpt lat="54.99578" lon="-2.63432">
        <ele>138.56</ele>
        <time>2021-03-20T15:55:47Z</time>
      </trkpt>
      <trkpt lat="54.99572" lon="-2.63459">
        <ele>137.87</ele>
        <time>2021-03-20T15:55:50Z</time>
      </trkpt>
      <trkpt lat="54.99546" lon="-2.6351">
        <ele>137</ele>
        <time>2021-03-20T15:55:53Z</time>
      </trkpt>
      <trkpt lat="54.99529" lon="-2.63565">
        <ele>137.35</ele>
        <time>2021-03-20T15:55:55Z</time>
      </trkpt>
      <trkpt lat="54.99514" lon="-2.63601">
        <ele>136.98</ele>
        <time>2021-03-20T15:55:58Z</time>
      </trkpt>
      <trkpt lat="54.99455" lon="-2.63714">
        <ele>136.06</ele>
        <time>2021-03-20T15:56:00Z</time>
      </trkpt>
      <trkpt lat="54.99446" lon="-2.63737">
        <ele>136.59</ele>
        <time>2021-03-20T15:56:03Z</time>
      </trkpt>
      <trkpt lat="54.99436" lon="-2.63768">
        <ele>137.34</ele>
        <time>2021-03-20T15:56:06Z</time>
      </trkpt>
      <trkpt lat="54.99408" lon="-2.63909">
        <ele>136</ele>
        <time>2021-03-20T15:56:08Z</time>
      </trkpt>
      <trkpt lat="54.99406" lon="-2.63929">
        <ele>136</ele>
        <time>2021-03-20T15:56:11Z</time>
      </trkpt>
      <trkpt lat="54.99408" lon="-2.63945">
        <ele>135.99</ele>
        <time>2021-03-20T15:56:13Z</time>
      </trkpt>
      <trkpt lat="54.99414" lon="-2.63964">
        <ele>135.43</ele>
        <time>2021-03-20T15:56:16Z</time>
      </trkpt>
      <trkpt lat="54.99459" lon="-2.64041">
        <ele>133.54</ele>
        <time>2021-03-20T15:56:19Z</time>
      </trkpt>
      <trkpt lat="54.99491" lon="-2.64072">
        <ele>133.1</ele>
        <time>2021-03-20T15:56:21Z</time>
      </trkpt>
      <trkpt lat="54.99512" lon="-2.64102">
        <ele>133.84</ele>
        <time>2021-03-20T15:56:24Z</time>
      </trkpt>
      <trkpt lat="54.99521" lon="-2.64126">
        <ele>133.59</ele>
        <time>2021-03-20T15:56:26Z</time>
      </trkpt>
      <trkpt lat="54.99535" lon="-2.64169">
        <ele>132.66</ele>
        <time>2021-03-20T15:56:29Z</time>
      </trkpt>
      <trkpt lat="54.99543" lon="-2.64186">
        <ele>132.27</ele>
        <time>2021-03-20T15:56:32Z</time>
      </trkpt>
      <trkpt lat="54.99554" lon="-2.64201">
        <ele>132.38</ele>
        <time>2021-03-20T15:56:34Z</time>
      </trkpt>
      <trkpt lat="54.99567" lon="-2.64209">
        <ele>132.79</ele>
        <time>2021-03-20T15:56:37Z</time>
      </trkpt>
      <trkpt lat="54.9959" lon="-2.64217">
        <ele>133.83</ele>
        <time>2021-03-20T15:56:39Z</time>
      </trkpt>
      <trkpt lat="54.99607" lon="-2.64229">
        <ele>134.43</ele>
        <time>2021-03-20T15:56:42Z</time>
      </trkpt>
      <trkpt lat="54.99646" lon="-2.64283">
        <ele>134.55</ele>
        <time>2021-03-20T15:56:44Z</time>
      </trkpt>
      <trkpt lat="54.99653" lon="-2.64302">
        <ele>134.67</ele>
        <time>2021-03-20T15:56:47Z</time>
      </trkpt>
      <trkpt lat="54.99657" lon="-2.64326">
        <ele>134.51</ele>
        <time>2021-03-20T15:56:50Z</time>
      </trkpt>
      <trkpt lat="54.99658" lon="-2.64353">
        <ele>133.69</ele>
        <time>2021-03-20T15:56:52Z</time>
      </trkpt>
      <trkpt lat="54.99655" lon="-2.64429">
        <ele>132.6</ele>
        <time>2021-03-20T15:56:55Z</time>
      </trkpt>
      <trkpt lat="54.99654" lon="-2.64585">
        <ele>129.52</ele>
        <time>2021-03-20T15:56:57Z</time>
      </trkpt>
      <trkpt lat="54.99657" lon="-2.64614">
        <ele>129.13</ele>
        <time>2021-03-20T15:57:00Z</time>
      </trkpt>
      <trkpt lat="54.99664" lon="-2.64642">
        <ele>127.78</ele>
        <time>2021-03-20T15:57:03Z</time>
      </trkpt>
      <trkpt lat="54.99673" lon="-2.64665">
        <ele>127.53</ele>
        <time>2021-03-20T15:57:05Z</time>
      </trkpt>
      <trkpt lat="54.99699" lon="-2.64716">
        <ele>125.88</ele>
        <time>2021-03-20T15:57:08Z</time>
      </trkpt>
      <trkpt lat="54.99708" lon="-2.64743">
        <ele>125.35</ele>
        <time>2021-03-20T15:57:10Z</time>
      </trkpt>
      <trkpt lat="54.99715" lon="-2.64778">
        <ele>124.5</ele>
        <time>2021-03-20T15:57:13Z</time>
      </trkpt>
      <trkpt lat="54.99719" lon="-2.64827">
        <ele>122.97</ele>
        <time>2021-03-20T15:57:16Z</time>
      </trkpt>
      <trkpt lat="54.99717" lon="-2.64965">
        <ele>114.25</ele>
        <time>2021-03-20T15:57:18Z</time>
      </trkpt>
      <trkpt lat="54.99719" lon="-2.65007">
        <ele>112.53</ele>
        <time>2021-03-20T15:57:21Z</time>
      </trkpt>
      <trkpt lat="54.99723" lon="-2.65035">
        <ele>110.49</ele>
        <time>2021-03-20T15:57:23Z</time>
      </trkpt>
      <trkpt lat="54.99747" lon="-2.65092">
        <ele>108.56</ele>
        <time>2021-03-20T15:57:26Z</time>
      </trkpt>
      <trkpt lat="54.99755" lon="-2.65123">
        <ele>108.37</ele>
        <time>2021-03-20T15:57:29Z</time>
      </trkpt>
      <trkpt lat="54.99775" lon="-2.65218">
        <ele>106.93</ele>
        <time>2021-03-20T15:57:31Z</time>
      </trkpt>
      <trkpt lat="54.99791" lon="-2.65261">
        <ele>106.08</ele>
        <time>2021-03-20T15:57:34Z</time>
      </trkpt>
      <trkpt lat="54.99809" lon="-2.65296">
        <ele>104.92</ele>
        <time>2021-03-20T15:57:36Z</time>
      </trkpt>
      <trkpt lat="54.99834" lon="-2.65338">
        <ele>103.92</ele>
        <time>2021-03-20T15:57:39Z</time>
      </trkpt>
      <trkpt lat="54.9984" lon="-2.65352">
        <ele>103.86</ele>
        <time>2021-03-20T15:57:42Z</time>
      </trkpt>
      <trkpt lat="54.99844" lon="-2.65367">
        <ele>103.58</ele>
        <time>2021-03-20T15:57:44Z</time>
      </trkpt>
      <trkpt lat="54.99849" lon="-2.65405">
        <ele>102.82</ele>
        <time>2021-03-20T15:57:47Z</time>
      </trkpt>
      <trkpt lat="54.99855" lon="-2.65426">
        <ele>102.76</ele>
        <time>2021-03-20T15:57:49Z</time>
      </trkpt>
      <trkpt lat="54.99872" lon="-2.6547">
        <ele>102.48</ele>
        <time>2021-03-20T15:57:52Z</time>
      </trkpt>
      <trkpt lat="54.9988" lon="-2.65511">
        <ele>102.31</ele>
        <time>2021-03-20T15:57:55Z</time>
      </trkpt>
      <trkpt lat="54.99887" lon="-2.65569">
        <ele>101.88</ele>
        <time>2021-03-20T15:57:57Z</time>
      </trkpt>
      <trkpt lat="54.99894" lon="-2.65607">
        <ele>102.52</ele>
        <time>2021-03-20T15:58:00Z</time>
      </trkpt>
      <trkpt lat="54.99939" lon="-2.65776">
        <ele>102</ele>
        <time>2021-03-20T15:58:02Z</time>
      </trkpt>
      <trkpt lat="54.99942" lon="-2.65798">
        <ele>101.94</ele>
        <time>2021-03-20T15:58:05Z</time>
      </trkpt>
      <trkpt lat="54.99946" lon="-2.65898">
        <ele>101.73</ele>
        <time>2021-03-20T15:58:08Z</time>
      </trkpt>
      <trkpt lat="54.99952" lon="-2.65931">
        <ele>100.87</ele>
        <time>2021-03-20T15:58:10Z</time>
      </trkpt>
      <trkpt lat="54.99964" lon="-2.65979">
        <ele>99.23</ele>
        <time>2021-03-20T15:58:13Z</time>
      </trkpt>
      <trkpt lat="54.99976" lon="-2.66042">
        <ele>97.61</ele>
        <time>2021-03-20T15:58:15Z</time>
      </trkpt>
      <trkpt lat="54.99994" lon="-2.66113">
        <ele>97.73</ele>
        <time>2021-03-20T15:58:18Z</time>
      </trkpt>
      <trkpt lat="55.00021" lon="-2.66201">
        <ele>96.26</ele>
        <time>2021-03-20T15:58:21Z</time>
      </trkpt>
      <trkpt lat="55.00024" lon="-2.66219">
        <ele>96.13</ele>
        <time>2021-03-20T15:58:23Z</time>
      </trkpt>
      <trkpt lat="55.00017" lon="-2.6628">
        <ele>96</ele>
        <time>2021-03-20T15:58:26Z</time>
      </trkpt>
      <trkpt lat="55.00016" lon="-2.66349">
        <ele>95.44</ele>
        <time>2021-03-20T15:58:28Z</time>
      </trkpt>
      <trkpt lat="55.00009" lon="-2.66392">
        <ele>94.92</ele>
        <time>2021-03-20T15:58:31Z</time>
      </trkpt>
      <trkpt lat="55.00003" lon="-2.66411">
        <ele>94.3</ele>
        <time>2021-03-20T15:58:34Z</time>
      </trkpt>
      <trkpt lat="54.99957" lon="-2.66515">
        <ele>93.26</ele>
        <time>2021-03-20T15:58:36Z</time>
      </trkpt>
      <trkpt lat="54.99951" lon="-2.66534">
        <ele>93</ele>
        <time>2021-03-20T15:58:39Z</time>
      </trkpt>
      <trkpt lat="54.99947" lon="-2.66557">
        <ele>93</ele>
        <time>2021-03-20T15:58:41Z</time>
      </trkpt>
      <trkpt lat="54.99944" lon="-2.6663">
        <ele>92.97</ele>
        <time>2021-03-20T15:58:44Z</time>
      </trkpt>
      <trkpt lat="54.99949" lon="-2.66686">
        <ele>93</ele>
        <time>2021-03-20T15:58:47Z</time>
      </trkpt>
      <trkpt lat="54.99946" lon="-2.66712">
        <ele>93</ele>
        <time>2021-03-20T15:58:49Z</time>
      </trkpt>
      <trkpt lat="54.99914" lon="-2.66873">
        <ele>92</ele>
        <time>2021-03-20T15:58:52Z</time>
      </trkpt>
      <trkpt lat="54.99913" lon="-2.66894">
        <ele>91.83</ele>
        <time>2021-03-20T15:58:54Z</time>
      </trkpt>
      <trkpt lat="54.99918" lon="-2.66931">
        <ele>90.94</ele>
        <time>2021-03-20T15:58:57Z</time>
      </trkpt>
      <trkpt lat="54.99975" lon="-2.67134">
        <ele>88.26</ele>
        <time>2021-03-20T15:59:00Z</time>
      </trkpt>
      <trkpt lat="54.99975" lon="-2.67155">
        <ele>88.11</ele>
        <time>2021-03-20T15:59:02Z</time>
      </trkpt>
      <trkpt lat="54.9997" lon="-2.67173">
        <ele>88.23</ele>
        <time>2021-03-20T15:59:05Z</time>
      </trkpt>
      <trkpt lat="54.99952" lon="-2.67214">
        <ele>89</ele>
        <time>2021-03-20T15:59:07Z</time>
      </trkpt>
      <trkpt lat="54.99944" lon="-2.67242">
        <ele>88.28</ele>
        <time>2021-03-20T15:59:10Z</time>
      </trkpt>
      <trkpt lat="54.99931" lon="-2.67313">
        <ele>86.5</ele>
        <time>2021-03-20T15:59:13Z</time>
      </trkpt>
      <trkpt lat="54.99926" lon="-2.67394">
        <ele>85.35</ele>
        <time>2021-03-20T15:59:15Z</time>
      </trkpt>
      <trkpt lat="54.9993" lon="-2.67429">
        <ele>85.47</ele>
        <time>2021-03-20T15:59:18Z</time>
      </trkpt>
      <trkpt lat="54.99937" lon="-2.67461">
        <ele>85.71</ele>
        <time>2021-03-20T15:59:20Z</time>
      </trkpt>
      <trkpt lat="54.99948" lon="-2.6748">
        <ele>86.24</ele>
        <time>2021-03-20T15:59:23Z</time>
      </trkpt>
      <trkpt lat="54.99977" lon="-2.67521">
        <ele>88.31</ele>
        <time>2021-03-20T15:59:26Z</time>
      </trkpt>
      <trkpt lat="54.99987" lon="-2.67544">
        <ele>89.06</ele>
        <time>2021-03-20T15:59:28Z</time>
      </trkpt>
      <trkpt lat="54.99998" lon="-2.676">
        <ele>89.75</ele>
        <time>2021-03-20T15:59:31Z</time>
      </trkpt>
      <trkpt lat="55.00004" lon="-2.67642">
        <ele>89.52</ele>
        <time>2021-03-20T15:59:33Z</time>
      </trkpt>
      <trkpt lat="55.00004" lon="-2.67682">
        <ele>89.07</ele>
        <time>2021-03-20T15:59:36Z</time>
      </trkpt>
      <trkpt lat="54.99988" lon="-2.6785">
        <ele>89.2</ele>
        <time>2021-03-20T15:59:39Z</time>
      </trkpt>
      <trkpt lat="54.99991" lon="-2.67885">
        <ele>89.65</ele>
        <time>2021-03-20T15:59:41Z</time>
      </trkpt>
      <trkpt lat="54.99998" lon="-2.67898">
        <ele>90.45</ele>
        <time>2021-03-20T15:59:44Z</time>
      </trkpt>
      <trkpt lat="55.00009" lon="-2.67908">
        <ele>91.65</ele>
        <time>2021-03-20T15:59:46Z</time>
      </trkpt>
      <trkpt lat="55.00053" lon="-2.67923">
        <ele>98.58</ele>
        <time>2021-03-20T15:59:49Z</time>
      </trkpt>
      <trkpt lat="55.00061" lon="-2.67933">
        <ele>99.54</ele>
        <time>2021-03-20T15:59:52Z</time>
      </trkpt>
      <trkpt lat="55.00064" lon="-2.67948">
        <ele>99.92</ele>
        <time>2021-03-20T15:59:54Z</time>
      </trkpt>
      <trkpt lat="55.00066" lon="-2.67992">
        <ele>100.39</ele>
        <time>2021-03-20T15:59:57Z</time>
      </trkpt>
      <trkpt lat="55.00086" lon="-2.68082">
        <ele>105.44</ele>
        <time>2021-03-20T15:59:59Z</time>
      </trkpt>
      <trkpt lat="55.0009" lon="-2.68117">
        <ele>104.92</ele>
        <time>2021-03-20T16:00:02Z</time>
      </trkpt>
      <trkpt lat="55.00091" lon="-2.68161">
        <ele>104.31</ele>
        <time>2021-03-20T16:00:05Z</time>
      </trkpt>
      <trkpt lat="55.00089" lon="-2.68407">
        <ele>102.03</ele>
        <time>2021-03-20T16:00:07Z</time>
      </trkpt>
      <trkpt lat="55.00087" lon="-2.68441">
        <ele>99.85</ele>
        <time>2021-03-20T16:00:10Z</time>
      </trkpt>
      <trkpt lat="55.0007" lon="-2.68553">
        <ele>94.09</ele>
        <time>2021-03-20T16:00:12Z</time>
      </trkpt>
      <trkpt lat="55.0003" lon="-2.68698">
        <ele>93.46</ele>
        <time>2021-03-20T16:00:15Z</time>
      </trkpt>
      <trkpt lat="55.00026" lon="-2.68723">
        <ele>93.69</ele>
        <time>2021-03-20T16:00:18Z</time>
      </trkpt>
      <trkpt lat="55.00025" lon="-2.68751">
        <ele>94.71</ele>
        <time>2021-03-20T16:00:20Z</time>
      </trkpt>
      <trkpt lat="55.00029" lon="-2.68811">
        <ele>95.95</ele>
        <time>2021-03-20T16:00:23Z</time>
      </trkpt>
      <trkpt lat="55.00026" lon="-2.68914">
        <ele>95.99</ele>
        <time>2021-03-20T16:00:25Z</time>
      </trkpt>
      <trkpt lat="55.00038" lon="-2.69075">
        <ele>99.04</ele>
        <time>2021-03-20T16:00:28Z</time>
      </trkpt>
      <trkpt lat="55.00043" lon="-2.69097">
        <ele>100.04</ele>
        <time>2021-03-20T16:00:31Z</time>
      </trkpt>
      <trkpt lat="55.00056" lon="-2.69135">
        <ele>101.9</ele>
        <time>2021-03-20T16:00:33Z</time>
      </trkpt>
      <trkpt lat="55.00087" lon="-2.69209">
        <ele>105.42</ele>
        <time>2021-03-20T16:00:36Z</time>
      </trkpt>
      <trkpt lat="55.00111" lon="-2.69286">
        <ele>109.25</ele>
        <time>2021-03-20T16:00:38Z</time>
      </trkpt>
      <trkpt lat="55.0012" lon="-2.69339">
        <ele>110.54</ele>
        <time>2021-03-20T16:00:41Z</time>
      </trkpt>
      <trkpt lat="55.00147" lon="-2.69561">
        <ele>115.39</ele>
        <time>2021-03-20T16:00:44Z</time>
      </trkpt>
      <trkpt lat="55.0016" lon="-2.69614">
        <ele>114.74</ele>
        <time>2021-03-20T16:00:46Z</time>
      </trkpt>
      <trkpt lat="55.00201" lon="-2.69732">
        <ele>114.88</ele>
        <time>2021-03-20T16:00:49Z</time>
      </trkpt>
      <trkpt lat="55.00231" lon="-2.69794">
        <ele>114.73</ele>
        <time>2021-03-20T16:00:51Z</time>
      </trkpt>
      <trkpt lat="55.00234" lon="-2.69806">
        <ele>114.42</ele>
        <time>2021-03-20T16:00:54Z</time>
      </trkpt>
      <trkpt lat="55.00234" lon="-2.69819">
        <ele>114.42</ele>
        <time>2021-03-20T16:00:57Z</time>
      </trkpt>
      <trkpt lat="55.00228" lon="-2.69856">
        <ele>114.19</ele>
        <time>2021-03-20T16:00:59Z</time>
      </trkpt>
      <trkpt lat="55.00206" lon="-2.69962">
        <ele>114</ele>
        <time>2021-03-20T16:01:02Z</time>
      </trkpt>
      <trkpt lat="54.99582" lon="-2.72228">
        <ele>114.1</ele>
        <time>2021-03-20T16:01:04Z</time>
      </trkpt>
      <trkpt lat="54.99582" lon="-2.72237">
        <ele>114.38</ele>
        <time>2021-03-20T16:01:07Z</time>
      </trkpt>
      <trkpt lat="54.99587" lon="-2.72242">
        <ele>115.19</ele>
        <time>2021-03-20T16:01:13Z</time>
      </trkpt>
      <trkpt lat="54.99691" lon="-2.72279">
        <ele>117.21</ele>
        <time>2021-03-20T16:01:20Z</time>
      </trkpt>
      <trkpt lat="54.99704" lon="-2.72291">
        <ele>116.51</ele>
        <time>2021-03-20T16:01:26Z</time>
      </trkpt>
      <trkpt lat="54.99741" lon="-2.72335">
        <ele>116.93</ele>
        <time>2021-03-20T16:01:32Z</time>
      </trkpt>
      <trkpt lat="54.99766" lon="-2.72373">
        <ele>116</ele>
        <time>2021-03-20T16:01:39Z</time>
      </trkpt>
      <trkpt lat="54.99785" lon="-2.72422">
        <ele>115</ele>
        <time>2021-03-20T16:01:45Z</time>
      </trkpt>
      <trkpt lat="54.99807" lon="-2.72445">
        <ele>115.04</ele>
        <time>2021-03-20T16:01:51Z</time>
      </trkpt>
      <trkpt lat="54.99854" lon="-2.72464">
        <ele>116.22</ele>
        <time>2021-03-20T16:01:58Z</time>
      </trkpt>
      <trkpt lat="54.99911" lon="-2.72478">
        <ele>113.39</ele>
        <time>2021-03-20T16:02:04Z</time>
      </trkpt>
      <trkpt lat="55.00092" lon="-2.72504">
        <ele>110.44</ele>
        <time>2021-03-20T16:02:10Z</time>
      </trkpt>
      <trkpt lat="55.00325" lon="-2.72528">
        <ele>110</ele>
        <time>2021-03-20T16:02:17Z</time>
      </trkpt>
      <trkpt lat="55.00714" lon="-2.7255">
        <ele>113.31</ele>
        <time>2021-03-20T16:02:23Z</time>
      </trkpt>
      <trkpt lat="55.0086" lon="-2.72495">
        <ele>113.89</ele>
        <time>2021-03-20T16:02:29Z</time>
      </trkpt>
      <trkpt lat="55.01043" lon="-2.72469">
        <ele>117.06</ele>
        <time>2021-03-20T16:02:36Z</time>
      </trkpt>
      <trkpt lat="55.01055" lon="-2.72471">
        <ele>117.05</ele>
        <time>2021-03-20T16:02:42Z</time>
      </trkpt>
      <trkpt lat="55.01067" lon="-2.72476">
        <ele>117.39</ele>
        <time>2021-03-20T16:02:48Z</time>
      </trkpt>
      <trkpt lat="55.01134" lon="-2.72571">
        <ele>114.81</ele>
        <time>2021-03-20T16:02:55Z</time>
      </trkpt>
      <trkpt lat="55.01181" lon="-2.72643">
        <ele>113.5</ele>
        <time>2021-03-20T16:03:01Z</time>
      </trkpt>
      <trkpt lat="55.01189" lon="-2.72662">
        <ele>113.18</ele>
        <time>2021-03-20T16:03:08Z</time>
      </trkpt>
      <trkpt lat="55.01198" lon="-2.72703">
        <ele>110.06</ele>
        <time>2021-03-20T16:03:14Z</time>
      </trkpt>
      <trkpt lat="55.012" lon="-2.72745">
        <ele>106.13</ele>
        <time>2021-03-20T16:03:20Z</time>
      </trkpt>
      <trkpt lat="55.01204" lon="-2.72772">
        <ele>103.22</ele>
        <time>2021-03-20T16:03:27Z</time>
      </trkpt>
      <trkpt lat="55.01207" lon="-2.72788">
        <ele>101.78</ele>
        <time>2021-03-20T16:03:33Z</time>
      </trkpt>
      <trkpt lat="55.01281" lon="-2.7293">
        <ele>101.84</ele>
        <time>2021-03-20T16:03:39Z</time>
      </trkpt>
      <trkpt lat="55.01282" lon="-2.72942">
        <ele>102.51</ele>
        <time>2021-03-20T16:03:46Z</time>
      </trkpt>
      <trkpt lat="55.01283" lon="-2.72967">
        <ele>105.78</ele>
        <time>2021-03-20T16:03:52Z</time>
      </trkpt>
      <trkpt lat="55.01289" lon="-2.72988">
        <ele>107.47</ele>
        <time>2021-03-20T16:03:58Z</time>
      </trkpt>
      <trkpt lat="55.01318" lon="-2.73058">
        <ele>110.79</ele>
        <time>2021-03-20T16:04:05Z</time>
      </trkpt>
      <trkpt lat="55.01327" lon="-2.73066">
        <ele>110.41</ele>
        <time>2021-03-20T16:04:11Z</time>
      </trkpt>
      <trkpt lat="55.01352" lon="-2.73065">
        <ele>108.8</ele>
        <time>2021-03-20T16:04:17Z</time>
      </trkpt>
      <trkpt lat="55.01365" lon="-2.73069">
        <ele>108.35</ele>
        <time>2021-03-20T16:04:24Z</time>
      </trkpt>
      <trkpt lat="55.01414" lon="-2.73105">
        <ele>107.09</ele>
        <time>2021-03-20T16:04:30Z</time>
      </trkpt>
      <trkpt lat="55.01652" lon="-2.7325">
        <ele>119.45</ele>
        <time>2021-03-20T16:04:36Z</time>
      </trkpt>
      <trkpt lat="55.0168" lon="-2.73254">
        <ele>120.35</ele>
        <time>2021-03-20T16:04:43Z</time>
      </trkpt>
      <trkpt lat="55.01724" lon="-2.73245">
        <ele>122.24</ele>
        <time>2021-03-20T16:04:49Z</time>
      </trkpt>
      <trkpt lat="55.01804" lon="-2.73244">
        <ele>126.65</ele>
        <time>2021-03-20T16:04:55Z</time>
      </trkpt>
      <trkpt lat="55.02025" lon="-2.73448">
        <ele>141.87</ele>
        <time>2021-03-20T16:05:02Z</time>
      </trkpt>
      <trkpt lat="55.02069" lon="-2.73481">
        <ele>141.52</ele>
        <time>2021-03-20T16:05:08Z</time>
      </trkpt>
      <trkpt lat="55.02157" lon="-2.7357">
        <ele>140.19</ele>
        <time>2021-03-20T16:05:14Z</time>
      </trkpt>
      <trkpt lat="55.02262" lon="-2.73701">
        <ele>134.58</ele>
        <time>2021-03-20T16:05:21Z</time>
      </trkpt>
      <trkpt lat="55.03164" lon="-2.7554">
        <ele>126.04</ele>
        <time>2021-03-20T16:05:27Z</time>
      </trkpt>
      <trkpt lat="55.03312" lon="-2.75447">
        <ele>120.17</ele>
        <time>2021-03-20T16:05:33Z</time>
      </trkpt>
      <trkpt lat="55.03563" lon="-2.75304">
        <ele>109.27</ele>
        <time>2021-03-20T16:05:40Z</time>
      </trkpt>
      <trkpt lat="55.0365" lon="-2.75304">
        <ele>116.22</ele>
        <time>2021-03-20T16:05:46Z</time>
      </trkpt>
      <trkpt lat="55.04023" lon="-2.75348">
        <ele>106</ele>
        <time>2021-03-20T16:05:52Z</time>
      </trkpt>
      <trkpt lat="55.04019" lon="-2.76244">
        <ele>126.78</ele>
        <time>2021-03-20T16:06:07Z</time>
      </trkpt>
      <trkpt lat="55.04066" lon="-2.76647">
        <ele>133.63</ele>
        <time>2021-03-20T16:06:22Z</time>
      </trkpt>
      <trkpt lat="55.04125" lon="-2.77188">
        <ele>131.75</ele>
        <time>2021-03-20T16:06:37Z</time>
      </trkpt>
      <trkpt lat="55.04185" lon="-2.77795">
        <ele>130.38</ele>
        <time>2021-03-20T16:06:52Z</time>
      </trkpt>
      <trkpt lat="55.04186" lon="-2.77813">
        <ele>129.91</ele>
        <time>2021-03-20T16:07:07Z</time>
      </trkpt>
      <trkpt lat="55.04181" lon="-2.77833">
        <ele>129.54</ele>
        <time>2021-03-20T16:07:22Z</time>
      </trkpt>
      <trkpt lat="55.04138" lon="-2.77928">
        <ele>123.98</ele>
        <time>2021-03-20T16:07:37Z</time>
      </trkpt>
      <trkpt lat="55.04211" lon="-2.78126">
        <ele>116.86</ele>
        <time>2021-03-20T16:07:50Z</time>
      </trkpt>
      <trkpt lat="55.04302" lon="-2.78381">
        <ele>111</ele>
        <time>2021-03-20T16:08:03Z</time>
      </trkpt>
      <trkpt lat="55.0434" lon="-2.78476">
        <ele>104.32</ele>
        <time>2021-03-20T16:08:16Z</time>
      </trkpt>
      <trkpt lat="55.04398" lon="-2.78597">
        <ele>94.84</ele>
        <time>2021-03-20T16:08:29Z</time>
      </trkpt>
      <trkpt lat="55.04497" lon="-2.78785">
        <ele>85.24</ele>
        <time>2021-03-20T16:08:42Z</time>
      </trkpt>
      <trkpt lat="55.04596" lon="-2.78806">
        <ele>92</ele>
        <time>2021-03-20T16:08:55Z</time>
      </trkpt>
      <trkpt lat="55.04663" lon="-2.78729">
        <ele>93.66</ele>
        <time>2021-03-20T16:09:08Z</time>
      </trkpt>
      <trkpt lat="55.04746" lon="-2.78822">
        <ele>92</ele>
        <time>2021-03-20T16:09:13Z</time>
      </trkpt>
      <trkpt lat="55.04773" lon="-2.78842">
        <ele>89.78</ele>
        <time>2021-03-20T16:09:18Z</time>
      </trkpt>
      <trkpt lat="55.04792" lon="-2.78818">
        <ele>88.62</ele>
        <time>2021-03-20T16:09:22Z</time>
      </trkpt>
      <trkpt lat="55.04811" lon="-2.78786">
        <ele>88.69</ele>
        <time>2021-03-20T16:09:27Z</time>
      </trkpt>
      <trkpt lat="55.04832" lon="-2.78781">
        <ele>84.05</ele>
        <time>2021-03-20T16:09:32Z</time>
      </trkpt>
      <trkpt lat="55.04847" lon="-2.7879">
        <ele>79.96</ele>
        <time>2021-03-20T16:09:36Z</time>
      </trkpt>
      <trkpt lat="55.0489" lon="-2.78862">
        <ele>71.96</ele>
        <time>2021-03-20T16:09:41Z</time>
      </trkpt>
      <trkpt lat="55.04914" lon="-2.78908">
        <ele>70.41</ele>
        <time>2021-03-20T16:09:45Z</time>
      </trkpt>
      <trkpt lat="55.04976" lon="-2.78938">
        <ele>70.31</ele>
        <time>2021-03-20T16:09:50Z</time>
      </trkpt>
      <trkpt lat="55.05011" lon="-2.78942">
        <ele>72.49</ele>
        <time>2021-03-20T16:09:55Z</time>
      </trkpt>
      <trkpt lat="55.05042" lon="-2.78936">
        <ele>75.9</ele>
        <time>2021-03-20T16:09:59Z</time>
      </trkpt>
      <trkpt lat="55.05103" lon="-2.78945">
        <ele>78.93</ele>
        <time>2021-03-20T16:10:10Z</time>
      </trkpt>
      <trkpt lat="55.05165" lon="-2.78962">
        <ele>81.43</ele>
        <time>2021-03-20T16:10:22Z</time>
      </trkpt>
      <trkpt lat="55.05218" lon="-2.78971">
        <ele>81.32</ele>
        <time>2021-03-20T16:10:33Z</time>
      </trkpt>
      <trkpt lat="55.0523" lon="-2.78987">
        <ele>79.11</ele>
        <time>2021-03-20T16:10:44Z</time>
      </trkpt>
      <trkpt lat="55.0523" lon="-2.79033">
        <ele>78.28</ele>
        <time>2021-03-20T16:10:55Z</time>
      </trkpt>
      <trkpt lat="55.05242" lon="-2.7907">
        <ele>79.75</ele>
        <time>2021-03-20T16:11:06Z</time>
      </trkpt>
      <trkpt lat="55.05261" lon="-2.7909">
        <ele>82.55</ele>
        <time>2021-03-20T16:11:17Z</time>
      </trkpt>
      <trkpt lat="55.05415" lon="-2.79229">
        <ele>101.86</ele>
        <time>2021-03-20T16:11:28Z</time>
      </trkpt>
      <trkpt lat="55.05417" lon="-2.79253">
        <ele>102.02</ele>
        <time>2021-03-20T16:11:39Z</time>
      </trkpt>
      <trkpt lat="55.05432" lon="-2.79647">
        <ele>106.07</ele>
        <time>2021-03-20T16:11:51Z</time>
      </trkpt>
      <trkpt lat="55.0544" lon="-2.79847">
        <ele>106.68</ele>
        <time>2021-03-20T16:12:02Z</time>
      </trkpt>
      <trkpt lat="55.05446" lon="-2.80088">
        <ele>111.14</ele>
        <time>2021-03-20T16:12:13Z</time>
      </trkpt>
      <trkpt lat="55.05463" lon="-2.80497">
        <ele>118.98</ele>
        <time>2021-03-20T16:12:24Z</time>
      </trkpt>
      <trkpt lat="55.05473" lon="-2.80819">
        <ele>126.51</ele>
        <time>2021-03-20T16:12:35Z</time>
      </trkpt>
      <trkpt lat="55.05644" lon="-2.80735">
        <ele>138.84</ele>
        <time>2021-03-20T16:12:56Z</time>
      </trkpt>
      <trkpt lat="55.05672" lon="-2.8166">
        <ele>156.9</ele>
        <time>2021-03-20T16:13:11Z</time>
      </trkpt>
      <trkpt lat="55.05685" lon="-2.81804">
        <ele>156.39</ele>
        <time>2021-03-20T16:13:27Z</time>
      </trkpt>
      <trkpt lat="55.05723" lon="-2.82156">
        <ele>150.42</ele>
        <time>2021-03-20T16:13:42Z</time>
      </trkpt>
      <trkpt lat="55.05708" lon="-2.82245">
        <ele>145.64</ele>
        <time>2021-03-20T16:13:58Z</time>
      </trkpt>
      <trkpt lat="55.0567" lon="-2.82409">
        <ele>141.27</ele>
        <time>2021-03-20T16:14:14Z</time>
      </trkpt>
      <trkpt lat="55.05634" lon="-2.82474">
        <ele>137.33</ele>
        <time>2021-03-20T16:14:29Z</time>
      </trkpt>
      <trkpt lat="55.05618" lon="-2.82548">
        <ele>136.21</ele>
        <time>2021-03-20T16:14:45Z</time>
      </trkpt>
      <trkpt lat="55.05606" lon="-2.82661">
        <ele>135.48</ele>
        <time>2021-03-20T16:15:00Z</time>
      </trkpt>
      <trkpt lat="55.05588" lon="-2.82804">
        <ele>137.31</ele>
        <time>2021-03-20T16:15:16Z</time>
      </trkpt>
      <trkpt lat="55.05712" lon="-2.83068">
        <ele>152.9</ele>
        <time>2021-03-20T16:15:23Z</time>
      </trkpt>
      <trkpt lat="55.05832" lon="-2.83255">
        <ele>168.75</ele>
        <time>2021-03-20T16:15:29Z</time>
      </trkpt>
      <trkpt lat="55.06078" lon="-2.83649">
        <ele>174.82</ele>
        <time>2021-03-20T16:15:35Z</time>
      </trkpt>
      <trkpt lat="55.06092" lon="-2.83667">
        <ele>174.99</ele>
        <time>2021-03-20T16:15:42Z</time>
      </trkpt>
      <trkpt lat="55.06101" lon="-2.83669">
        <ele>174.97</ele>
        <time>2021-03-20T16:15:48Z</time>
      </trkpt>
      <trkpt lat="55.06111" lon="-2.83664">
        <ele>175</ele>
        <time>2021-03-20T16:15:55Z</time>
      </trkpt>
      <trkpt lat="55.06208" lon="-2.83443">
        <ele>169.5</ele>
        <time>2021-03-20T16:16:01Z</time>
      </trkpt>
      <trkpt lat="55.06223" lon="-2.83432">
        <ele>168.99</ele>
        <time>2021-03-20T16:16:08Z</time>
      </trkpt>
      <trkpt lat="55.06393" lon="-2.83524">
        <ele>163.54</ele>
        <time>2021-03-20T16:16:14Z</time>
      </trkpt>
      <trkpt lat="55.06513" lon="-2.83575">
        <ele>161.04</ele>
        <time>2021-03-20T16:16:21Z</time>
      </trkpt>
      <trkpt lat="55.06651" lon="-2.83653">
        <ele>163.3</ele>
        <time>2021-03-20T16:16:27Z</time>
      </trkpt>
      <trkpt lat="55.06923" lon="-2.83821">
        <ele>169.77</ele>
        <time>2021-03-20T16:16:34Z</time>
      </trkpt>
      <trkpt lat="55.07007" lon="-2.83903">
        <ele>161.99</ele>
        <time>2021-03-20T16:16:40Z</time>
      </trkpt>
      <trkpt lat="55.07077" lon="-2.83983">
        <ele>151.49</ele>
        <time>2021-03-20T16:16:47Z</time>
      </trkpt>
      <trkpt lat="55.0709" lon="-2.83991">
        <ele>149.19</ele>
        <time>2021-03-20T16:16:53Z</time>
      </trkpt>
      <trkpt lat="55.07099" lon="-2.83986">
        <ele>147.97</ele>
        <time>2021-03-20T16:17:00Z</time>
      </trkpt>
      <trkpt lat="55.07134" lon="-2.83917">
        <ele>149.33</ele>
        <time>2021-03-20T16:17:06Z</time>
      </trkpt>
      <trkpt lat="55.07146" lon="-2.83902">
        <ele>148.98</ele>
        <time>2021-03-20T16:17:12Z</time>
      </trkpt>
      <trkpt lat="55.07153" lon="-2.8391">
        <ele>147.34</ele>
        <time>2021-03-20T16:17:19Z</time>
      </trkpt>
      <trkpt lat="55.07156" lon="-2.83923">
        <ele>146.46</ele>
        <time>2021-03-20T16:17:25Z</time>
      </trkpt>
      <trkpt lat="55.07155" lon="-2.83947">
        <ele>146.15</ele>
        <time>2021-03-20T16:17:32Z</time>
      </trkpt>
      <trkpt lat="55.07157" lon="-2.83966">
        <ele>144.76</ele>
        <time>2021-03-20T16:17:38Z</time>
      </trkpt>
      <trkpt lat="55.07171" lon="-2.83982">
        <ele>144.58</ele>
        <time>2021-03-20T16:17:45Z</time>
      </trkpt>
      <trkpt lat="55.07179" lon="-2.84005">
        <ele>145.83</ele>
        <time>2021-03-20T16:17:51Z</time>
      </trkpt>
      <trkpt lat="55.07178" lon="-2.84034">
        <ele>146.03</ele>
        <time>2021-03-20T16:17:58Z</time>
      </trkpt>
      <trkpt lat="55.07165" lon="-2.84105">
        <ele>144.76</ele>
        <time>2021-03-20T16:18:04Z</time>
      </trkpt>
      <trkpt lat="55.07164" lon="-2.84161">
        <ele>144.62</ele>
        <time>2021-03-20T16:18:11Z</time>
      </trkpt>
      <trkpt lat="55.07169" lon="-2.84185">
        <ele>144.71</ele>
        <time>2021-03-20T16:18:17Z</time>
      </trkpt>
      <trkpt lat="55.07179" lon="-2.84209">
        <ele>145.79</ele>
        <time>2021-03-20T16:18:24Z</time>
      </trkpt>
      <trkpt lat="55.07236" lon="-2.843">
        <ele>153.81</ele>
        <time>2021-03-20T16:18:30Z</time>
      </trkpt>
      <trkpt lat="55.07317" lon="-2.84406">
        <ele>159.79</ele>
        <time>2021-03-20T16:18:37Z</time>
      </trkpt>
      <trkpt lat="55.07532" lon="-2.84677">
        <ele>155.48</ele>
        <time>2021-03-20T16:18:43Z</time>
      </trkpt>
      <trkpt lat="55.07601" lon="-2.84846">
        <ele>146.2</ele>
        <time>2021-03-20T16:18:50Z</time>
      </trkpt>
      <trkpt lat="55.07647" lon="-2.84968">
        <ele>143.16</ele>
        <time>2021-03-20T16:18:56Z</time>
      </trkpt>
      <trkpt lat="55.077" lon="-2.85007">
        <ele>143.02</ele>
        <time>2021-03-20T16:19:02Z</time>
      </trkpt>
      <trkpt lat="55.0776" lon="-2.85069">
        <ele>145.88</ele>
        <time>2021-03-20T16:19:09Z</time>
      </trkpt>
      <trkpt lat="55.07923" lon="-2.8501">
        <ele>151.64</ele>
        <time>2021-03-20T16:19:15Z</time>
      </trkpt>
      <trkpt lat="55.07993" lon="-2.85255">
        <ele>149</ele>
        <time>2021-03-20T16:19:22Z</time>
      </trkpt>
      <trkpt lat="55.07902" lon="-2.85397">
        <ele>141.69</ele>
        <time>2021-03-20T16:19:27Z</time>
      </trkpt>
      <trkpt lat="55.07758" lon="-2.85629">
        <ele>133.66</ele>
        <time>2021-03-20T16:19:32Z</time>
      </trkpt>
      <trkpt lat="55.07633" lon="-2.85836">
        <ele>129.83</ele>
        <time>2021-03-20T16:19:38Z</time>
      </trkpt>
      <trkpt lat="55.07624" lon="-2.8587">
        <ele>128.23</ele>
        <time>2021-03-20T16:19:43Z</time>
      </trkpt>
      <trkpt lat="55.07622" lon="-2.85893">
        <ele>127.45</ele>
        <time>2021-03-20T16:19:48Z</time>
      </trkpt>
      <trkpt lat="55.07623" lon="-2.8592">
        <ele>126.58</ele>
        <time>2021-03-20T16:19:53Z</time>
      </trkpt>
      <trkpt lat="55.07638" lon="-2.86042">
        <ele>124.02</ele>
        <time>2021-03-20T16:19:58Z</time>
      </trkpt>
      <trkpt lat="55.0772" lon="-2.86705">
        <ele>103.52</ele>
        <time>2021-03-20T16:20:04Z</time>
      </trkpt>
      <trkpt lat="55.07756" lon="-2.86976">
        <ele>99.19</ele>
        <time>2021-03-20T16:20:09Z</time>
      </trkpt>
      <trkpt lat="55.07802" lon="-2.87238">
        <ele>96.86</ele>
        <time>2021-03-20T16:20:14Z</time>
      </trkpt>
      <trkpt lat="55.07953" lon="-2.88039">
        <ele>113.32</ele>
        <time>2021-03-20T16:20:19Z</time>
      </trkpt>
      <trkpt lat="55.07985" lon="-2.88117">
        <ele>111.9</ele>
        <time>2021-03-20T16:20:25Z</time>
      </trkpt>
      <trkpt lat="55.08121" lon="-2.88323">
        <ele>102.64</ele>
        <time>2021-03-20T16:20:30Z</time>
      </trkpt>
      <trkpt lat="55.08265" lon="-2.88537">
        <ele>96.45</ele>
        <time>2021-03-20T16:20:35Z</time>
      </trkpt>
      <trkpt lat="55.0838" lon="-2.88698">
        <ele>87.91</ele>
        <time>2021-03-20T16:20:40Z</time>
      </trkpt>
      <trkpt lat="55.08461" lon="-2.88815">
        <ele>84.87</ele>
        <time>2021-03-20T16:20:46Z</time>
      </trkpt>
      <trkpt lat="55.08494" lon="-2.88839">
        <ele>84.81</ele>
        <time>2021-03-20T16:20:51Z</time>
      </trkpt>
      <trkpt lat="55.08584" lon="-2.88885">
        <ele>76.92</ele>
        <time>2021-03-20T16:20:56Z</time>
      </trkpt>
      <trkpt lat="55.086" lon="-2.88899">
        <ele>73.14</ele>
        <time>2021-03-20T16:21:01Z</time>
      </trkpt>
      <trkpt lat="55.08617" lon="-2.88972">
        <ele>67.14</ele>
        <time>2021-03-20T16:21:06Z</time>
      </trkpt>
      <trkpt lat="55.08647" lon="-2.89044">
        <ele>65.26</ele>
        <time>2021-03-20T16:21:12Z</time>
      </trkpt>
      <trkpt lat="55.08677" lon="-2.89073">
        <ele>63.01</ele>
        <time>2021-03-20T16:21:17Z</time>
      </trkpt>
      <trkpt lat="55.08714" lon="-2.89081">
        <ele>58.96</ele>
        <time>2021-03-20T16:21:22Z</time>
      </trkpt>
      <trkpt lat="55.08749" lon="-2.89071">
        <ele>56.26</ele>
        <time>2021-03-20T16:21:27Z</time>
      </trkpt>
      <trkpt lat="55.08797" lon="-2.89043">
        <ele>55.09</ele>
        <time>2021-03-20T16:21:33Z</time>
      </trkpt>
      <trkpt lat="55.08822" lon="-2.89002">
        <ele>56.4</ele>
        <time>2021-03-20T16:21:38Z</time>
      </trkpt>
      <trkpt lat="55.08835" lon="-2.88971">
        <ele>57.06</ele>
        <time>2021-03-20T16:21:43Z</time>
      </trkpt>
      <trkpt lat="55.08859" lon="-2.88899">
        <ele>58.39</ele>
        <time>2021-03-20T16:21:48Z</time>
      </trkpt>
      <trkpt lat="55.08881" lon="-2.88877">
        <ele>61.83</ele>
        <time>2021-03-20T16:21:53Z</time>
      </trkpt>
      <trkpt lat="55.08923" lon="-2.88867">
        <ele>67.86</ele>
        <time>2021-03-20T16:21:59Z</time>
      </trkpt>
      <trkpt lat="55.08942" lon="-2.88879">
        <ele>69.83</ele>
        <time>2021-03-20T16:22:04Z</time>
      </trkpt>
      <trkpt lat="55.09308" lon="-2.89357">
        <ele>87.05</ele>
        <time>2021-03-20T16:22:09Z</time>
      </trkpt>
      <trkpt lat="55.09495" lon="-2.89596">
        <ele>106.46</ele>
        <time>2021-03-20T16:22:14Z</time>
      </trkpt>
      <trkpt lat="55.09513" lon="-2.89606">
        <ele>107.94</ele>
        <time>2021-03-20T16:22:20Z</time>
      </trkpt>
      <trkpt lat="55.09529" lon="-2.89608">
        <ele>109.1</ele>
        <time>2021-03-20T16:22:25Z</time>
      </trkpt>
      <trkpt lat="55.09552" lon="-2.89599">
        <ele>111.59</ele>
        <time>2021-03-20T16:22:30Z</time>
      </trkpt>
      <trkpt lat="55.09578" lon="-2.89578">
        <ele>113.64</ele>
        <time>2021-03-20T16:22:35Z</time>
      </trkpt>
      <trkpt lat="55.09589" lon="-2.89574">
        <ele>114.4</ele>
        <time>2021-03-20T16:22:41Z</time>
      </trkpt>
      <trkpt lat="55.09599" lon="-2.89573">
        <ele>115.1</ele>
        <time>2021-03-20T16:22:46Z</time>
      </trkpt>
      <trkpt lat="55.09616" lon="-2.89585">
        <ele>116.35</ele>
        <time>2021-03-20T16:22:51Z</time>
      </trkpt>
      <trkpt lat="55.09631" lon="-2.89603">
        <ele>117.43</ele>
        <time>2021-03-20T16:22:56Z</time>
      </trkpt>
      <trkpt lat="55.09624" lon="-2.89625">
        <ele>116.39</ele>
        <time>2021-03-20T16:22:58Z</time>
      </trkpt>
      <trkpt lat="55.09634" lon="-2.89636">
        <ele>116.73</ele>
        <time>2021-03-20T16:23:01Z</time>
      </trkpt>
      <trkpt lat="55.09651" lon="-2.89643">
        <ele>117.9</ele>
        <time>2021-03-20T16:23:04Z</time>
      </trkpt>
      <trkpt lat="55.0968" lon="-2.89636">
        <ele>119.88</ele>
        <time>2021-03-20T16:23:07Z</time>
      </trkpt>
      <trkpt lat="55.09776" lon="-2.89652">
        <ele>131.3</ele>
        <time>2021-03-20T16:23:10Z</time>
      </trkpt>
      <trkpt lat="55.09783" lon="-2.89658">
        <ele>132.37</ele>
        <time>2021-03-20T16:23:13Z</time>
      </trkpt>
      <trkpt lat="55.09836" lon="-2.89844">
        <ele>141.2</ele>
        <time>2021-03-20T16:23:16Z</time>
      </trkpt>
      <trkpt lat="55.09841" lon="-2.89858">
        <ele>141.77</ele>
        <time>2021-03-20T16:23:19Z</time>
      </trkpt>
      <trkpt lat="55.09852" lon="-2.89872">
        <ele>143</ele>
        <time>2021-03-20T16:23:23Z</time>
      </trkpt>
      <trkpt lat="55.09901" lon="-2.89902">
        <ele>146.88</ele>
        <time>2021-03-20T16:23:26Z</time>
      </trkpt>
      <trkpt lat="55.09934" lon="-2.89929">
        <ele>148.17</ele>
        <time>2021-03-20T16:23:29Z</time>
      </trkpt>
      <trkpt lat="55.09944" lon="-2.89934">
        <ele>148.01</ele>
        <time>2021-03-20T16:23:32Z</time>
      </trkpt>
      <trkpt lat="55.09962" lon="-2.89935">
        <ele>147.57</ele>
        <time>2021-03-20T16:23:35Z</time>
      </trkpt>
      <trkpt lat="55.10025" lon="-2.89923">
        <ele>149.68</ele>
        <time>2021-03-20T16:23:38Z</time>
      </trkpt>
      <trkpt lat="55.10044" lon="-2.89925">
        <ele>150.9</ele>
        <time>2021-03-20T16:23:41Z</time>
      </trkpt>
      <trkpt lat="55.10074" lon="-2.8994">
        <ele>152.56</ele>
        <time>2021-03-20T16:23:44Z</time>
      </trkpt>
      <trkpt lat="55.10115" lon="-2.89972">
        <ele>155.3</ele>
        <time>2021-03-20T16:23:47Z</time>
      </trkpt>
      <trkpt lat="55.10124" lon="-2.89984">
        <ele>155.46</ele>
        <time>2021-03-20T16:23:51Z</time>
      </trkpt>
      <trkpt lat="55.10132" lon="-2.90003">
        <ele>155.39</ele>
        <time>2021-03-20T16:23:54Z</time>
      </trkpt>
      <trkpt lat="55.10153" lon="-2.90081">
        <ele>155.54</ele>
        <time>2021-03-20T16:23:57Z</time>
      </trkpt>
      <trkpt lat="55.10172" lon="-2.90178">
        <ele>156.2</ele>
        <time>2021-03-20T16:24:00Z</time>
      </trkpt>
      <trkpt lat="55.1022" lon="-2.90516">
        <ele>152.87</ele>
        <time>2021-03-20T16:24:03Z</time>
      </trkpt>
      <trkpt lat="55.10222" lon="-2.9056">
        <ele>153.01</ele>
        <time>2021-03-20T16:24:06Z</time>
      </trkpt>
      <trkpt lat="55.10222" lon="-2.90583">
        <ele>152.99</ele>
        <time>2021-03-20T16:24:09Z</time>
      </trkpt>
      <trkpt lat="55.10217" lon="-2.90623">
        <ele>152.05</ele>
        <time>2021-03-20T16:24:12Z</time>
      </trkpt>
      <trkpt lat="55.10194" lon="-2.90728">
        <ele>145.6</ele>
        <time>2021-03-20T16:24:15Z</time>
      </trkpt>
      <trkpt lat="55.1019" lon="-2.90763">
        <ele>143.29</ele>
        <time>2021-03-20T16:24:19Z</time>
      </trkpt>
      <trkpt lat="55.10187" lon="-2.90806">
        <ele>141.2</ele>
        <time>2021-03-20T16:24:22Z</time>
      </trkpt>
      <trkpt lat="55.10186" lon="-2.90873">
        <ele>139.1</ele>
        <time>2021-03-20T16:24:25Z</time>
      </trkpt>
      <trkpt lat="55.10187" lon="-2.90909">
        <ele>138.49</ele>
        <time>2021-03-20T16:24:28Z</time>
      </trkpt>
      <trkpt lat="55.10189" lon="-2.90936">
        <ele>137.77</ele>
        <time>2021-03-20T16:24:31Z</time>
      </trkpt>
      <trkpt lat="55.10194" lon="-2.90966">
        <ele>136.39</ele>
        <time>2021-03-20T16:24:34Z</time>
      </trkpt>
      <trkpt lat="55.10199" lon="-2.90987">
        <ele>135.81</ele>
        <time>2021-03-20T16:24:37Z</time>
      </trkpt>
      <trkpt lat="55.10212" lon="-2.91022">
        <ele>134.71</ele>
        <time>2021-03-20T16:24:40Z</time>
      </trkpt>
      <trkpt lat="55.10271" lon="-2.9114">
        <ele>128.48</ele>
        <time>2021-03-20T16:24:43Z</time>
      </trkpt>
      <trkpt lat="55.10447" lon="-2.91461">
        <ele>117.31</ele>
        <time>2021-03-20T16:24:46Z</time>
      </trkpt>
      <trkpt lat="55.10461" lon="-2.91481">
        <ele>116.28</ele>
        <time>2021-03-20T16:24:50Z</time>
      </trkpt>
      <trkpt lat="55.10495" lon="-2.91517">
        <ele>115.4</ele>
        <time>2021-03-20T16:24:53Z</time>
      </trkpt>
      <trkpt lat="55.10606" lon="-2.91618">
        <ele>117.96</ele>
        <time>2021-03-20T16:24:56Z</time>
      </trkpt>
      <trkpt lat="55.10631" lon="-2.91647">
        <ele>117.79</ele>
        <time>2021-03-20T16:24:59Z</time>
      </trkpt>
      <trkpt lat="55.10662" lon="-2.9169">
        <ele>115.26</ele>
        <time>2021-03-20T16:25:02Z</time>
      </trkpt>
      <trkpt lat="55.10691" lon="-2.91705">
        <ele>114.77</ele>
        <time>2021-03-20T16:25:05Z</time>
      </trkpt>
      <trkpt lat="55.10749" lon="-2.91717">
        <ele>114.6</ele>
        <time>2021-03-20T16:25:08Z</time>
      </trkpt>
      <trkpt lat="55.10774" lon="-2.91753">
        <ele>118.19</ele>
        <time>2021-03-20T16:25:11Z</time>
      </trkpt>
      <trkpt lat="55.10818" lon="-2.91786">
        <ele>125.26</ele>
        <time>2021-03-20T16:25:14Z</time>
      </trkpt>
      <trkpt lat="55.10857" lon="-2.91777">
        <ele>127.62</ele>
        <time>2021-03-20T16:25:18Z</time>
      </trkpt>
      <trkpt lat="55.1095" lon="-2.91807">
        <ele>134.47</ele>
        <time>2021-03-20T16:25:21Z</time>
      </trkpt>
      <trkpt lat="55.10959" lon="-2.91821">
        <ele>135.56</ele>
        <time>2021-03-20T16:25:24Z</time>
      </trkpt>
      <trkpt lat="55.10961" lon="-2.91849">
        <ele>136.79</ele>
        <time>2021-03-20T16:25:27Z</time>
      </trkpt>
      <trkpt lat="55.10888" lon="-2.92135">
        <ele>146</ele>
        <time>2021-03-20T16:25:30Z</time>
      </trkpt>
      <trkpt lat="55.10837" lon="-2.92364">
        <ele>146.01</ele>
        <time>2021-03-20T16:25:33Z</time>
      </trkpt>
      <trkpt lat="55.10812" lon="-2.92506">
        <ele>147</ele>
        <time>2021-03-20T16:25:36Z</time>
      </trkpt>
      <trkpt lat="55.10772" lon="-2.92761">
        <ele>148.2</ele>
        <time>2021-03-20T16:25:39Z</time>
      </trkpt>
      <trkpt lat="55.10759" lon="-2.92859">
        <ele>146.39</ele>
        <time>2021-03-20T16:25:42Z</time>
      </trkpt>
      <trkpt lat="55.10757" lon="-2.92907">
        <ele>144.61</ele>
        <time>2021-03-20T16:25:46Z</time>
      </trkpt>
      <trkpt lat="55.10779" lon="-2.93242">
        <ele>136.28</ele>
        <time>2021-03-20T16:25:49Z</time>
      </trkpt>
      <trkpt lat="55.10779" lon="-2.93307">
        <ele>133.93</ele>
        <time>2021-03-20T16:25:52Z</time>
      </trkpt>
      <trkpt lat="55.10766" lon="-2.93378">
        <ele>132.16</ele>
        <time>2021-03-20T16:25:55Z</time>
      </trkpt>
      <trkpt lat="55.10713" lon="-2.93535">
        <ele>129</ele>
        <time>2021-03-20T16:25:58Z</time>
      </trkpt>
      <trkpt lat="55.10679" lon="-2.93611">
        <ele>127.1</ele>
        <time>2021-03-20T16:26:01Z</time>
      </trkpt>
      <trkpt lat="55.10654" lon="-2.93728">
        <ele>120.33</ele>
        <time>2021-03-20T16:26:04Z</time>
      </trkpt>
      <trkpt lat="55.10581" lon="-2.9395">
        <ele>110.99</ele>
        <time>2021-03-20T16:26:07Z</time>
      </trkpt>
      <trkpt lat="55.1056" lon="-2.94034">
        <ele>108.77</ele>
        <time>2021-03-20T16:26:10Z</time>
      </trkpt>
      <trkpt lat="55.10519" lon="-2.94163">
        <ele>99.27</ele>
        <time>2021-03-20T16:26:13Z</time>
      </trkpt>
      <trkpt lat="55.10502" lon="-2.94317">
        <ele>88.08</ele>
        <time>2021-03-20T16:26:17Z</time>
      </trkpt>
      <trkpt lat="55.10502" lon="-2.94429">
        <ele>87.08</ele>
        <time>2021-03-20T16:26:20Z</time>
      </trkpt>
      <trkpt lat="55.10497" lon="-2.94456">
        <ele>86.48</ele>
        <time>2021-03-20T16:26:23Z</time>
      </trkpt>
      <trkpt lat="55.10485" lon="-2.94479">
        <ele>85.22</ele>
        <time>2021-03-20T16:26:26Z</time>
      </trkpt>
      <trkpt lat="55.10374" lon="-2.94589">
        <ele>87.67</ele>
        <time>2021-03-20T16:26:29Z</time>
      </trkpt>
      <trkpt lat="55.10352" lon="-2.94619">
        <ele>88.6</ele>
        <time>2021-03-20T16:26:32Z</time>
      </trkpt>
      <trkpt lat="55.10331" lon="-2.94666">
        <ele>91.14</ele>
        <time>2021-03-20T16:26:35Z</time>
      </trkpt>
      <trkpt lat="55.10324" lon="-2.94701">
        <ele>93.38</ele>
        <time>2021-03-20T16:26:38Z</time>
      </trkpt>
      <trkpt lat="55.10318" lon="-2.94776">
        <ele>98.13</ele>
        <time>2021-03-20T16:26:41Z</time>
      </trkpt>
      <trkpt lat="55.10311" lon="-2.94828">
        <ele>99.57</ele>
        <time>2021-03-20T16:26:45Z</time>
      </trkpt>
      <trkpt lat="55.10283" lon="-2.94926">
        <ele>104.39</ele>
        <time>2021-03-20T16:26:48Z</time>
      </trkpt>
      <trkpt lat="55.10224" lon="-2.94891">
        <ele>103</ele>
        <time>2021-03-20T16:26:54Z</time>
      </trkpt>
      <trkpt lat="55.10166" lon="-2.94857">
        <ele>100.96</ele>
        <time>2021-03-20T16:27:00Z</time>
      </trkpt>
      <trkpt lat="55.10054" lon="-2.94779">
        <ele>95</ele>
        <time>2021-03-20T16:27:06Z</time>
      </trkpt>
      <trkpt lat="55.09782" lon="-2.95171">
        <ele>92.01</ele>
        <time>2021-03-20T16:27:09Z</time>
      </trkpt>
      <trkpt lat="55.09645" lon="-2.95353">
        <ele>87.66</ele>
        <time>2021-03-20T16:27:13Z</time>
      </trkpt>
      <trkpt lat="55.09564" lon="-2.95477">
        <ele>85.57</ele>
        <time>2021-03-20T16:27:16Z</time>
      </trkpt>
      <trkpt lat="55.09543" lon="-2.95501">
        <ele>84.48</ele>
        <time>2021-03-20T16:27:20Z</time>
      </trkpt>
      <trkpt lat="55.0951" lon="-2.95528">
        <ele>80.04</ele>
        <time>2021-03-20T16:27:23Z</time>
      </trkpt>
      <trkpt lat="55.09492" lon="-2.95556">
        <ele>78.72</ele>
        <time>2021-03-20T16:27:27Z</time>
      </trkpt>
      <trkpt lat="55.09476" lon="-2.95605">
        <ele>79.66</ele>
        <time>2021-03-20T16:27:30Z</time>
      </trkpt>
      <trkpt lat="55.09469" lon="-2.95661">
        <ele>81.27</ele>
        <time>2021-03-20T16:27:34Z</time>
      </trkpt>
      <trkpt lat="55.09469" lon="-2.95739">
        <ele>80.11</ele>
        <time>2021-03-20T16:27:37Z</time>
      </trkpt>
      <trkpt lat="55.09465" lon="-2.9579">
        <ele>79.14</ele>
        <time>2021-03-20T16:27:41Z</time>
      </trkpt>
      <trkpt lat="55.09446" lon="-2.95903">
        <ele>72.49</ele>
        <time>2021-03-20T16:27:44Z</time>
      </trkpt>
      <trkpt lat="55.0944" lon="-2.95953">
        <ele>66.82</ele>
        <time>2021-03-20T16:27:48Z</time>
      </trkpt>
      <trkpt lat="55.09441" lon="-2.96004">
        <ele>61.63</ele>
        <time>2021-03-20T16:27:51Z</time>
      </trkpt>
      <trkpt lat="55.09445" lon="-2.96098">
        <ele>58.57</ele>
        <time>2021-03-20T16:27:55Z</time>
      </trkpt>
      <trkpt lat="55.09444" lon="-2.96135">
        <ele>57.96</ele>
        <time>2021-03-20T16:27:58Z</time>
      </trkpt>
      <trkpt lat="55.0944" lon="-2.96175">
        <ele>56.65</ele>
        <time>2021-03-20T16:28:02Z</time>
      </trkpt>
      <trkpt lat="55.09444" lon="-2.96275">
        <ele>52.06</ele>
        <time>2021-03-20T16:28:05Z</time>
      </trkpt>
      <trkpt lat="55.09439" lon="-2.96314">
        <ele>49.76</ele>
        <time>2021-03-20T16:28:09Z</time>
      </trkpt>
      <trkpt lat="55.09409" lon="-2.96429">
        <ele>48.56</ele>
        <time>2021-03-20T16:28:12Z</time>
      </trkpt>
      <trkpt lat="55.094" lon="-2.96492">
        <ele>50.88</ele>
        <time>2021-03-20T16:28:16Z</time>
      </trkpt>
      <trkpt lat="55.09392" lon="-2.96516">
        <ele>51.57</ele>
        <time>2021-03-20T16:28:19Z</time>
      </trkpt>
      <trkpt lat="55.09385" lon="-2.96532">
        <ele>52.15</ele>
        <time>2021-03-20T16:28:23Z</time>
      </trkpt>
      <trkpt lat="55.09371" lon="-2.96553">
        <ele>52.65</ele>
        <time>2021-03-20T16:28:26Z</time>
      </trkpt>
      <trkpt lat="55.09339" lon="-2.96588">
        <ele>56.77</ele>
        <time>2021-03-20T16:28:30Z</time>
      </trkpt>
      <trkpt lat="55.09303" lon="-2.9664">
        <ele>61.03</ele>
        <time>2021-03-20T16:28:33Z</time>
      </trkpt>
      <trkpt lat="55.09286" lon="-2.96668">
        <ele>62.06</ele>
        <time>2021-03-20T16:28:37Z</time>
      </trkpt>
      <trkpt lat="55.09268" lon="-2.9671">
        <ele>62.84</ele>
        <time>2021-03-20T16:28:40Z</time>
      </trkpt>
      <trkpt lat="55.09253" lon="-2.96756">
        <ele>65.2</ele>
        <time>2021-03-20T16:28:44Z</time>
      </trkpt>
      <trkpt lat="55.09289" lon="-2.968">
        <ele>66.7</ele>
        <time>2021-03-20T16:28:46Z</time>
      </trkpt>
      <trkpt lat="55.09276" lon="-2.96833">
        <ele>67.99</ele>
        <time>2021-03-20T16:28:51Z</time>
      </trkpt>
      <trkpt lat="55.0924" lon="-2.96867">
        <ele>70.68</ele>
        <time>2021-03-20T16:28:56Z</time>
      </trkpt>
      <trkpt lat="55.09216" lon="-2.96908">
        <ele>71.68</ele>
        <time>2021-03-20T16:29:01Z</time>
      </trkpt>
      <trkpt lat="55.09205" lon="-2.96938">
        <ele>71.89</ele>
        <time>2021-03-20T16:29:05Z</time>
      </trkpt>
      <trkpt lat="55.09169" lon="-2.97161">
        <ele>78.87</ele>
        <time>2021-03-20T16:29:10Z</time>
      </trkpt>
      <trkpt lat="55.09157" lon="-2.97198">
        <ele>78.31</ele>
        <time>2021-03-20T16:29:15Z</time>
      </trkpt>
      <trkpt lat="55.09143" lon="-2.97223">
        <ele>78.2</ele>
        <time>2021-03-20T16:29:20Z</time>
      </trkpt>
      <trkpt lat="55.09119" lon="-2.97241">
        <ele>79.15</ele>
        <time>2021-03-20T16:29:25Z</time>
      </trkpt>
      <trkpt lat="55.09014" lon="-2.97286">
        <ele>81.79</ele>
        <time>2021-03-20T16:29:29Z</time>
      </trkpt>
      <trkpt lat="55.08852" lon="-2.97424">
        <ele>93.94</ele>
        <time>2021-03-20T16:29:34Z</time>
      </trkpt>
      <trkpt lat="55.08732" lon="-2.97521">
        <ele>98.12</ele>
        <time>2021-03-20T16:29:39Z</time>
      </trkpt>
      <trkpt lat="55.08708" lon="-2.97552">
        <ele>98.42</ele>
        <time>2021-03-20T16:29:44Z</time>
      </trkpt>
      <trkpt lat="55.08676" lon="-2.976">
        <ele>98</ele>
        <time>2021-03-20T16:29:49Z</time>
      </trkpt>
      <trkpt lat="55.08458" lon="-2.97979">
        <ele>100</ele>
        <time>2021-03-20T16:29:53Z</time>
      </trkpt>
      <trkpt lat="55.08441" lon="-2.98031">
        <ele>99.88</ele>
        <time>2021-03-20T16:29:58Z</time>
      </trkpt>
      <trkpt lat="55.08353" lon="-2.98451">
        <ele>100.22</ele>
        <time>2021-03-20T16:30:03Z</time>
      </trkpt>
      <trkpt lat="55.08323" lon="-2.98607">
        <ele>100.63</ele>
        <time>2021-03-20T16:30:08Z</time>
      </trkpt>
      <trkpt lat="55.08344" lon="-2.98765">
        <ele>101.56</ele>
        <time>2021-03-20T16:30:22Z</time>
      </trkpt>
      <trkpt lat="55.08363" lon="-2.98876">
        <ele>100</ele>
        <time>2021-03-20T16:30:36Z</time>
      </trkpt>
      <trkpt lat="55.08421" lon="-2.99">
        <ele>97</ele>
        <time>2021-03-20T16:30:50Z</time>
      </trkpt>
      <trkpt lat="55.08484" lon="-2.99114">
        <ele>95.22</ele>
        <time>2021-03-20T16:31:04Z</time>
      </trkpt>
      <trkpt lat="55.08503" lon="-2.99154">
        <ele>94.79</ele>
        <time>2021-03-20T16:31:18Z</time>
      </trkpt>
      <trkpt lat="55.08589" lon="-2.99392">
        <ele>93.31</ele>
        <time>2021-03-20T16:31:32Z</time>
      </trkpt>
      <trkpt lat="55.0872" lon="-2.99656">
        <ele>99.5</ele>
        <time>2021-03-20T16:31:46Z</time>
      </trkpt>
      <trkpt lat="55.08926" lon="-3.00187">
        <ele>120.17</ele>
        <time>2021-03-20T16:32:00Z</time>
      </trkpt>
      <trkpt lat="55.09185" lon="-3.01679">
        <ele>114.65</ele>
        <time>2021-03-20T16:32:14Z</time>
      </trkpt>
      <trkpt lat="55.09169" lon="-3.0191">
        <ele>116</ele>
        <time>2021-03-20T16:32:28Z</time>
      </trkpt>
      <trkpt lat="55.09397" lon="-3.01997">
        <ele>125.29</ele>
        <time>2021-03-20T16:32:35Z</time>
      </trkpt>
      <trkpt lat="55.09462" lon="-3.02044">
        <ele>127.26</ele>
        <time>2021-03-20T16:32:43Z</time>
      </trkpt>
      <trkpt lat="55.09542" lon="-3.02126">
        <ele>124.74</ele>
        <time>2021-03-20T16:32:51Z</time>
      </trkpt>
      <trkpt lat="55.09588" lon="-3.0219">
        <ele>121.84</ele>
        <time>2021-03-20T16:32:59Z</time>
      </trkpt>
      <trkpt lat="55.09661" lon="-3.0236">
        <ele>121.93</ele>
        <time>2021-03-20T16:33:07Z</time>
      </trkpt>
      <trkpt lat="55.09743" lon="-3.02531">
        <ele>132.63</ele>
        <time>2021-03-20T16:33:15Z</time>
      </trkpt>
      <trkpt lat="55.09828" lon="-3.02654">
        <ele>133.06</ele>
        <time>2021-03-20T16:33:22Z</time>
      </trkpt>
      <trkpt lat="55.09951" lon="-3.02793">
        <ele>130.55</ele>
        <time>2021-03-20T16:33:30Z</time>
      </trkpt>
      <trkpt lat="55.10546" lon="-3.03598">
        <ele>155.32</ele>
        <time>2021-03-20T16:33:38Z</time>
      </trkpt>
      <trkpt lat="55.10588" lon="-3.037">
        <ele>157.93</ele>
        <time>2021-03-20T16:33:46Z</time>
      </trkpt>
      <trkpt lat="55.10741" lon="-3.04129">
        <ele>170.09</ele>
        <time>2021-03-20T16:33:54Z</time>
      </trkpt>
      <trkpt lat="55.10788" lon="-3.04239">
        <ele>171.85</ele>
        <time>2021-03-20T16:34:02Z</time>
      </trkpt>
      <trkpt lat="55.10886" lon="-3.04372">
        <ele>172.51</ele>
        <time>2021-03-20T16:34:09Z</time>
      </trkpt>
      <trkpt lat="55.11036" lon="-3.04902">
        <ele>170.44</ele>
        <time>2021-03-20T16:34:17Z</time>
      </trkpt>
      <trkpt lat="55.11056" lon="-3.0495">
        <ele>170.61</ele>
        <time>2021-03-20T16:34:25Z</time>
      </trkpt>
      <trkpt lat="55.11078" lon="-3.04967">
        <ele>169.4</ele>
        <time>2021-03-20T16:34:33Z</time>
      </trkpt>
      <trkpt lat="55.11183" lon="-3.05001">
        <ele>167.34</ele>
        <time>2021-03-20T16:34:41Z</time>
      </trkpt>
      <trkpt lat="55.11206" lon="-3.05011">
        <ele>166.18</ele>
        <time>2021-03-20T16:34:49Z</time>
      </trkpt>
      <trkpt lat="55.11238" lon="-3.04991">
        <ele>166.47</ele>
        <time>2021-03-20T16:34:56Z</time>
      </trkpt>
      <trkpt lat="55.1126" lon="-3.04999">
        <ele>165.42</ele>
        <time>2021-03-20T16:35:04Z</time>
      </trkpt>
      <trkpt lat="55.11274" lon="-3.05033">
        <ele>164.67</ele>
        <time>2021-03-20T16:35:12Z</time>
      </trkpt>
      <trkpt lat="55.11294" lon="-3.05159">
        <ele>166.13</ele>
        <time>2021-03-20T16:35:20Z</time>
      </trkpt>
      <trkpt lat="55.11309" lon="-3.05188">
        <ele>166.3</ele>
        <time>2021-03-20T16:35:28Z</time>
      </trkpt>
      <trkpt lat="55.11431" lon="-3.05252">
        <ele>168.03</ele>
        <time>2021-03-20T16:35:36Z</time>
      </trkpt>
      <trkpt lat="55.11545" lon="-3.05247">
        <ele>168.81</ele>
        <time>2021-03-20T16:35:44Z</time>
      </trkpt>
      <trkpt lat="55.11702" lon="-3.05276">
        <ele>165.41</ele>
        <time>2021-03-20T16:35:51Z</time>
      </trkpt>
      <trkpt lat="55.11771" lon="-3.05316">
        <ele>160.98</ele>
        <time>2021-03-20T16:35:59Z</time>
      </trkpt>
      <trkpt lat="55.11816" lon="-3.05321">
        <ele>159.18</ele>
        <time>2021-03-20T16:36:07Z</time>
      </trkpt>
      <trkpt lat="55.12079" lon="-3.05481">
        <ele>155.9</ele>
        <time>2021-03-20T16:36:15Z</time>
      </trkpt>
      <trkpt lat="55.1214" lon="-3.05587">
        <ele>152.7</ele>
        <time>2021-03-20T16:36:23Z</time>
      </trkpt>
      <trkpt lat="55.12381" lon="-3.05912">
        <ele>143.45</ele>
        <time>2021-03-20T16:36:31Z</time>
      </trkpt>
      <trkpt lat="55.12389" lon="-3.05948">
        <ele>141.76</ele>
        <time>2021-03-20T16:36:38Z</time>
      </trkpt>
      <trkpt lat="55.12389" lon="-3.05986">
        <ele>139.46</ele>
        <time>2021-03-20T16:36:46Z</time>
      </trkpt>
      <trkpt lat="55.12379" lon="-3.06033">
        <ele>137.55</ele>
        <time>2021-03-20T16:36:54Z</time>
      </trkpt>
      <trkpt lat="55.12385" lon="-3.06085">
        <ele>136.29</ele>
        <time>2021-03-20T16:37:02Z</time>
      </trkpt>
      <trkpt lat="55.124" lon="-3.06106">
        <ele>135.21</ele>
        <time>2021-03-20T16:37:10Z</time>
      </trkpt>
      <trkpt lat="55.1234" lon="-3.06319">
        <ele>140.15</ele>
        <time>2021-03-20T16:37:16Z</time>
      </trkpt>
      <trkpt lat="55.123" lon="-3.06418">
        <ele>143.56</ele>
        <time>2021-03-20T16:37:22Z</time>
      </trkpt>
      <trkpt lat="55.11933" lon="-3.07079">
        <ele>155.48</ele>
        <time>2021-03-20T16:37:28Z</time>
      </trkpt>
      <trkpt lat="55.11924" lon="-3.07121">
        <ele>154.47</ele>
        <time>2021-03-20T16:37:34Z</time>
      </trkpt>
      <trkpt lat="55.11931" lon="-3.07299">
        <ele>151.09</ele>
        <time>2021-03-20T16:37:40Z</time>
      </trkpt>
      <trkpt lat="55.1191" lon="-3.07477">
        <ele>151.71</ele>
        <time>2021-03-20T16:37:46Z</time>
      </trkpt>
      <trkpt lat="55.11915" lon="-3.07531">
        <ele>150.09</ele>
        <time>2021-03-20T16:37:52Z</time>
      </trkpt>
      <trkpt lat="55.12053" lon="-3.08204">
        <ele>155.92</ele>
        <time>2021-03-20T16:37:58Z</time>
      </trkpt>
      <trkpt lat="55.12103" lon="-3.08341">
        <ele>158.16</ele>
        <time>2021-03-20T16:38:04Z</time>
      </trkpt>
      <trkpt lat="55.12107" lon="-3.08384">
        <ele>158.82</ele>
        <time>2021-03-20T16:38:10Z</time>
      </trkpt>
      <trkpt lat="55.1211" lon="-3.08522">
        <ele>166.03</ele>
        <time>2021-03-20T16:38:16Z</time>
      </trkpt>
      <trkpt lat="55.12121" lon="-3.08589">
        <ele>167.46</ele>
        <time>2021-03-20T16:38:22Z</time>
      </trkpt>
      <trkpt lat="55.12153" lon="-3.08723">
        <ele>165.53</ele>
        <time>2021-03-20T16:38:28Z</time>
      </trkpt>
      <trkpt lat="55.12183" lon="-3.08794">
        <ele>164.35</ele>
        <time>2021-03-20T16:38:34Z</time>
      </trkpt>
      <trkpt lat="55.1225" lon="-3.08896">
        <ele>160.04</ele>
        <time>2021-03-20T16:38:40Z</time>
      </trkpt>
      <trkpt lat="55.12308" lon="-3.08966">
        <ele>162.1</ele>
        <time>2021-03-20T16:38:46Z</time>
      </trkpt>
      <trkpt lat="55.12326" lon="-3.09006">
        <ele>162.94</ele>
        <time>2021-03-20T16:38:52Z</time>
      </trkpt>
      <trkpt lat="55.12333" lon="-3.09054">
        <ele>164</ele>
        <time>2021-03-20T16:38:58Z</time>
      </trkpt>
      <trkpt lat="55.12326" lon="-3.1006">
        <ele>188.84</ele>
        <time>2021-03-20T16:39:04Z</time>
      </trkpt>
      <trkpt lat="55.12231" lon="-3.10428">
        <ele>198.39</ele>
        <time>2021-03-20T16:39:10Z</time>
      </trkpt>
      <trkpt lat="55.12227" lon="-3.1047">
        <ele>199.45</ele>
        <time>2021-03-20T16:39:16Z</time>
      </trkpt>
      <trkpt lat="55.1223" lon="-3.1053">
        <ele>199.37</ele>
        <time>2021-03-20T16:39:22Z</time>
      </trkpt>
      <trkpt lat="55.12241" lon="-3.10565">
        <ele>201.48</ele>
        <time>2021-03-20T16:39:28Z</time>
      </trkpt>
      <trkpt lat="55.12273" lon="-3.10632">
        <ele>207.78</ele>
        <time>2021-03-20T16:39:34Z</time>
      </trkpt>
      <trkpt lat="55.12285" lon="-3.10687">
        <ele>209.89</ele>
        <time>2021-03-20T16:39:40Z</time>
      </trkpt>
      <trkpt lat="55.12292" lon="-3.10723">
        <ele>209.99</ele>
        <time>2021-03-20T16:39:46Z</time>
      </trkpt>
      <trkpt lat="55.12301" lon="-3.10758">
        <ele>210.66</ele>
        <time>2021-03-20T16:39:52Z</time>
      </trkpt>
      <trkpt lat="55.12334" lon="-3.10842">
        <ele>214.86</ele>
        <time>2021-03-20T16:39:58Z</time>
      </trkpt>
      <trkpt lat="55.1234" lon="-3.10863">
        <ele>215.48</ele>
        <time>2021-03-20T16:40:04Z</time>
      </trkpt>
      <trkpt lat="55.12418" lon="-3.11286">
        <ele>223.34</ele>
        <time>2021-03-20T16:40:11Z</time>
      </trkpt>
      <trkpt lat="55.12415" lon="-3.11338">
        <ele>224.07</ele>
        <time>2021-03-20T16:40:17Z</time>
      </trkpt>
      <trkpt lat="55.12376" lon="-3.11557">
        <ele>227.55</ele>
        <time>2021-03-20T16:40:23Z</time>
      </trkpt>
      <trkpt lat="55.12275" lon="-3.12312">
        <ele>228.54</ele>
        <time>2021-03-20T16:40:29Z</time>
      </trkpt>
      <trkpt lat="55.12259" lon="-3.12392">
        <ele>225.45</ele>
        <time>2021-03-20T16:40:35Z</time>
      </trkpt>
      <trkpt lat="55.12107" lon="-3.12902">
        <ele>218.75</ele>
        <time>2021-03-20T16:40:41Z</time>
      </trkpt>
      <trkpt lat="55.11886" lon="-3.13861">
        <ele>194.92</ele>
        <time>2021-03-20T16:40:47Z</time>
      </trkpt>
      <trkpt lat="55.11872" lon="-3.1399">
        <ele>192</ele>
        <time>2021-03-20T16:40:53Z</time>
      </trkpt>
      <trkpt lat="55.11877" lon="-3.14307">
        <ele>177.48</ele>
        <time>2021-03-20T16:40:59Z</time>
      </trkpt>
      <trkpt lat="55.11866" lon="-3.1436">
        <ele>173.44</ele>
        <time>2021-03-20T16:41:05Z</time>
      </trkpt>
      <trkpt lat="55.1173" lon="-3.14638">
        <ele>161.51</ele>
        <time>2021-03-20T16:41:11Z</time>
      </trkpt>
      <trkpt lat="55.11706" lon="-3.1466">
        <ele>160.49</ele>
        <time>2021-03-20T16:41:17Z</time>
      </trkpt>
      <trkpt lat="55.1167" lon="-3.1467">
        <ele>159.88</ele>
        <time>2021-03-20T16:41:23Z</time>
      </trkpt>
      <trkpt lat="55.11568" lon="-3.14707">
        <ele>152.98</ele>
        <time>2021-03-20T16:41:29Z</time>
      </trkpt>
      <trkpt lat="55.11531" lon="-3.14736">
        <ele>149.09</ele>
        <time>2021-03-20T16:41:35Z</time>
      </trkpt>
      <trkpt lat="55.11481" lon="-3.14791">
        <ele>146.36</ele>
        <time>2021-03-20T16:41:41Z</time>
      </trkpt>
      <trkpt lat="55.11454" lon="-3.14826">
        <ele>145.26</ele>
        <time>2021-03-20T16:41:47Z</time>
      </trkpt>
      <trkpt lat="55.11434" lon="-3.14865">
        <ele>143.53</ele>
        <time>2021-03-20T16:41:53Z</time>
      </trkpt>
      <trkpt lat="55.11429" lon="-3.14893">
        <ele>143</ele>
        <time>2021-03-20T16:41:59Z</time>
      </trkpt>
      <trkpt lat="55.11424" lon="-3.1493">
        <ele>143</ele>
        <time>2021-03-20T16:42:05Z</time>
      </trkpt>
      <trkpt lat="55.11398" lon="-3.15074">
        <ele>149.74</ele>
        <time>2021-03-20T16:42:11Z</time>
      </trkpt>
      <trkpt lat="55.11391" lon="-3.15157">
        <ele>152.15</ele>
        <time>2021-03-20T16:42:17Z</time>
      </trkpt>
      <trkpt lat="55.11381" lon="-3.15296">
        <ele>157.43</ele>
        <time>2021-03-20T16:42:23Z</time>
      </trkpt>
      <trkpt lat="55.11372" lon="-3.15463">
        <ele>161.37</ele>
        <time>2021-03-20T16:42:29Z</time>
      </trkpt>
      <trkpt lat="55.11368" lon="-3.15573">
        <ele>162.1</ele>
        <time>2021-03-20T16:42:35Z</time>
      </trkpt>
      <trkpt lat="55.1137" lon="-3.1567">
        <ele>164.72</ele>
        <time>2021-03-20T16:42:41Z</time>
      </trkpt>
      <trkpt lat="55.11375" lon="-3.15784">
        <ele>167.62</ele>
        <time>2021-03-20T16:42:47Z</time>
      </trkpt>
      <trkpt lat="55.11385" lon="-3.15876">
        <ele>168.73</ele>
        <time>2021-03-20T16:42:53Z</time>
      </trkpt>
      <trkpt lat="55.11405" lon="-3.15949">
        <ele>168.3</ele>
        <time>2021-03-20T16:42:59Z</time>
      </trkpt>
      <trkpt lat="55.11428" lon="-3.16008">
        <ele>167.34</ele>
        <time>2021-03-20T16:43:05Z</time>
      </trkpt>
      <trkpt lat="55.1149" lon="-3.16135">
        <ele>165.77</ele>
        <time>2021-03-20T16:43:11Z</time>
      </trkpt>
      <trkpt lat="55.11625" lon="-3.16393">
        <ele>166.28</ele>
        <time>2021-03-20T16:43:17Z</time>
      </trkpt>
      <trkpt lat="55.11703" lon="-3.16551">
        <ele>166.91</ele>
        <time>2021-03-20T16:43:23Z</time>
      </trkpt>
      <trkpt lat="55.11803" lon="-3.16812">
        <ele>178.59</ele>
        <time>2021-03-20T16:43:29Z</time>
      </trkpt>
      <trkpt lat="55.11957" lon="-3.16842">
        <ele>175.63</ele>
        <time>2021-03-20T16:43:33Z</time>
      </trkpt>
      <trkpt lat="55.11997" lon="-3.16867">
        <ele>172.91</ele>
        <time>2021-03-20T16:43:37Z</time>
      </trkpt>
      <trkpt lat="55.1204" lon="-3.16887">
        <ele>173.53</ele>
        <time>2021-03-20T16:43:42Z</time>
      </trkpt>
      <trkpt lat="55.1207" lon="-3.16908">
        <ele>172.59</ele>
        <time>2021-03-20T16:43:46Z</time>
      </trkpt>
      <trkpt lat="55.12142" lon="-3.17005">
        <ele>166.93</ele>
        <time>2021-03-20T16:43:50Z</time>
      </trkpt>
      <trkpt lat="55.1224" lon="-3.17198">
        <ele>160.56</ele>
        <time>2021-03-20T16:43:54Z</time>
      </trkpt>
      <trkpt lat="55.12293" lon="-3.17273">
        <ele>157.49</ele>
        <time>2021-03-20T16:43:58Z</time>
      </trkpt>
      <trkpt lat="55.12309" lon="-3.17287">
        <ele>155.64</ele>
        <time>2021-03-20T16:44:02Z</time>
      </trkpt>
      <trkpt lat="55.12381" lon="-3.17301">
        <ele>157.04</ele>
        <time>2021-03-20T16:44:06Z</time>
      </trkpt>
      <trkpt lat="55.12409" lon="-3.17311">
        <ele>157.5</ele>
        <time>2021-03-20T16:44:10Z</time>
      </trkpt>
      <trkpt lat="55.12456" lon="-3.17314">
        <ele>157.4</ele>
        <time>2021-03-20T16:44:14Z</time>
      </trkpt>
      <trkpt lat="55.12532" lon="-3.17302">
        <ele>156.23</ele>
        <time>2021-03-20T16:44:18Z</time>
      </trkpt>
      <trkpt lat="55.12576" lon="-3.17305">
        <ele>157.52</ele>
        <time>2021-03-20T16:44:23Z</time>
      </trkpt>
      <trkpt lat="55.12628" lon="-3.17313">
        <ele>158.95</ele>
        <time>2021-03-20T16:44:27Z</time>
      </trkpt>
      <trkpt lat="55.12791" lon="-3.173">
        <ele>165.18</ele>
        <time>2021-03-20T16:44:31Z</time>
      </trkpt>
      <trkpt lat="55.12837" lon="-3.17293">
        <ele>165.96</ele>
        <time>2021-03-20T16:44:35Z</time>
      </trkpt>
      <trkpt lat="55.1288" lon="-3.17302">
        <ele>167.09</ele>
        <time>2021-03-20T16:44:39Z</time>
      </trkpt>
      <trkpt lat="55.12922" lon="-3.17332">
        <ele>165.97</ele>
        <time>2021-03-20T16:44:43Z</time>
      </trkpt>
      <trkpt lat="55.13006" lon="-3.17423">
        <ele>166.38</ele>
        <time>2021-03-20T16:44:47Z</time>
      </trkpt>
      <trkpt lat="55.13018" lon="-3.17444">
        <ele>165.72</ele>
        <time>2021-03-20T16:44:51Z</time>
      </trkpt>
      <trkpt lat="55.1303" lon="-3.1748">
        <ele>166.1</ele>
        <time>2021-03-20T16:44:55Z</time>
      </trkpt>
      <trkpt lat="55.13068" lon="-3.17764">
        <ele>168.07</ele>
        <time>2021-03-20T16:44:59Z</time>
      </trkpt>
      <trkpt lat="55.13087" lon="-3.17832">
        <ele>168.84</ele>
        <time>2021-03-20T16:45:03Z</time>
      </trkpt>
      <trkpt lat="55.1311" lon="-3.17886">
        <ele>166.24</ele>
        <time>2021-03-20T16:45:08Z</time>
      </trkpt>
      <trkpt lat="55.13128" lon="-3.1794">
        <ele>164.86</ele>
        <time>2021-03-20T16:45:12Z</time>
      </trkpt>
      <trkpt lat="55.1313" lon="-3.17964">
        <ele>164.02</ele>
        <time>2021-03-20T16:45:16Z</time>
      </trkpt>
      <trkpt lat="55.13126" lon="-3.18004">
        <ele>162.62</ele>
        <time>2021-03-20T16:45:20Z</time>
      </trkpt>
      <trkpt lat="55.13128" lon="-3.18093">
        <ele>162.6</ele>
        <time>2021-03-20T16:45:24Z</time>
      </trkpt>
      <trkpt lat="55.13141" lon="-3.18286">
        <ele>166.42</ele>
        <time>2021-03-20T16:45:28Z</time>
      </trkpt>
      <trkpt lat="55.13162" lon="-3.18368">
        <ele>168.73</ele>
        <time>2021-03-20T16:45:32Z</time>
      </trkpt>
      <trkpt lat="55.13237" lon="-3.18604">
        <ele>163.18</ele>
        <time>2021-03-20T16:45:36Z</time>
      </trkpt>
      <trkpt lat="55.13284" lon="-3.18729">
        <ele>163.38</ele>
        <time>2021-03-20T16:45:40Z</time>
      </trkpt>
      <trkpt lat="55.13376" lon="-3.19059">
        <ele>164.18</ele>
        <time>2021-03-20T16:45:44Z</time>
      </trkpt>
      <trkpt lat="55.13426" lon="-3.19223">
        <ele>165.36</ele>
        <time>2021-03-20T16:45:48Z</time>
      </trkpt>
      <trkpt lat="55.13462" lon="-3.19323">
        <ele>166.12</ele>
        <time>2021-03-20T16:45:53Z</time>
      </trkpt>
      <trkpt lat="55.13541" lon="-3.19578">
        <ele>169.32</ele>
        <time>2021-03-20T16:45:57Z</time>
      </trkpt>
      <trkpt lat="55.13581" lon="-3.19727">
        <ele>169.98</ele>
        <time>2021-03-20T16:46:01Z</time>
      </trkpt>
      <trkpt lat="55.13656" lon="-3.20036">
        <ele>168.93</ele>
        <time>2021-03-20T16:46:05Z</time>
      </trkpt>
      <trkpt lat="55.13694" lon="-3.20223">
        <ele>160.98</ele>
        <time>2021-03-20T16:46:09Z</time>
      </trkpt>
      <trkpt lat="55.137" lon="-3.20297">
        <ele>157.93</ele>
        <time>2021-03-20T16:46:13Z</time>
      </trkpt>
      <trkpt lat="55.13708" lon="-3.20329">
        <ele>156.58</ele>
        <time>2021-03-20T16:46:17Z</time>
      </trkpt>
      <trkpt lat="55.1377" lon="-3.20497">
        <ele>153.28</ele>
        <time>2021-03-20T16:46:21Z</time>
      </trkpt>
      <trkpt lat="55.13798" lon="-3.2058">
        <ele>151.28</ele>
        <time>2021-03-20T16:46:25Z</time>
      </trkpt>
      <trkpt lat="55.13809" lon="-3.20642">
        <ele>151.73</ele>
        <time>2021-03-20T16:46:29Z</time>
      </trkpt>
      <trkpt lat="55.13819" lon="-3.20682">
        <ele>151.56</ele>
        <time>2021-03-20T16:46:33Z</time>
      </trkpt>
      <trkpt lat="55.1388" lon="-3.20906">
        <ele>158.85</ele>
        <time>2021-03-20T16:46:38Z</time>
      </trkpt>
      <trkpt lat="55.1388" lon="-3.20965">
        <ele>160.03</ele>
        <time>2021-03-20T16:46:42Z</time>
      </trkpt>
      <trkpt lat="55.13926" lon="-3.20989">
        <ele>156.35</ele>
        <time>2021-03-20T16:46:47Z</time>
      </trkpt>
      <trkpt lat="55.13936" lon="-3.21014">
        <ele>157.19</ele>
        <time>2021-03-20T16:46:52Z</time>
      </trkpt>
      <trkpt lat="55.13927" lon="-3.21263">
        <ele>167.59</ele>
        <time>2021-03-20T16:46:56Z</time>
      </trkpt>
      <trkpt lat="55.13937" lon="-3.21447">
        <ele>169.99</ele>
        <time>2021-03-20T16:47:01Z</time>
      </trkpt>
      <trkpt lat="55.13966" lon="-3.21647">
        <ele>174.88</ele>
        <time>2021-03-20T16:47:06Z</time>
      </trkpt>
      <trkpt lat="55.14049" lon="-3.22018">
        <ele>174.19</ele>
        <time>2021-03-20T16:47:11Z</time>
      </trkpt>
      <trkpt lat="55.14145" lon="-3.22348">
        <ele>159.54</ele>
        <time>2021-03-20T16:47:16Z</time>
      </trkpt>
      <trkpt lat="55.14153" lon="-3.22369">
        <ele>157.48</ele>
        <time>2021-03-20T16:47:21Z</time>
      </trkpt>
      <trkpt lat="55.14166" lon="-3.22392">
        <ele>155.67</ele>
        <time>2021-03-20T16:47:26Z</time>
      </trkpt>
      <trkpt lat="55.14194" lon="-3.22416">
        <ele>154.03</ele>
        <time>2021-03-20T16:47:31Z</time>
      </trkpt>
      <trkpt lat="55.14206" lon="-3.22431">
        <ele>152.82</ele>
        <time>2021-03-20T16:47:36Z</time>
      </trkpt>
      <trkpt lat="55.14223" lon="-3.22467">
        <ele>150.41</ele>
        <time>2021-03-20T16:47:41Z</time>
      </trkpt>
      <trkpt lat="55.14235" lon="-3.22511">
        <ele>149.79</ele>
        <time>2021-03-20T16:47:45Z</time>
      </trkpt>
      <trkpt lat="55.14246" lon="-3.22541">
        <ele>151.55</ele>
        <time>2021-03-20T16:47:50Z</time>
      </trkpt>
      <trkpt lat="55.14257" lon="-3.22563">
        <ele>152.28</ele>
        <time>2021-03-20T16:47:55Z</time>
      </trkpt>
      <trkpt lat="55.14282" lon="-3.22595">
        <ele>154.24</ele>
        <time>2021-03-20T16:48:00Z</time>
      </trkpt>
      <trkpt lat="55.14297" lon="-3.22607">
        <ele>154.99</ele>
        <time>2021-03-20T16:48:05Z</time>
      </trkpt>
      <trkpt lat="55.14327" lon="-3.22624">
        <ele>155.62</ele>
        <time>2021-03-20T16:48:10Z</time>
      </trkpt>
      <trkpt lat="55.14356" lon="-3.22637">
        <ele>156.83</ele>
        <time>2021-03-20T16:48:15Z</time>
      </trkpt>
      <trkpt lat="55.14388" lon="-3.22647">
        <ele>158.59</ele>
        <time>2021-03-20T16:48:20Z</time>
      </trkpt>
      <trkpt lat="55.14407" lon="-3.22647">
        <ele>158.82</ele>
        <time>2021-03-20T16:48:25Z</time>
      </trkpt>
      <trkpt lat="55.14484" lon="-3.22688">
        <ele>164.04</ele>
        <time>2021-03-20T16:48:30Z</time>
      </trkpt>
      <trkpt lat="55.1453" lon="-3.22697">
        <ele>163.57</ele>
        <time>2021-03-20T16:48:34Z</time>
      </trkpt>
      <trkpt lat="55.14594" lon="-3.22697">
        <ele>167.82</ele>
        <time>2021-03-20T16:48:39Z</time>
      </trkpt>
      <trkpt lat="55.14649" lon="-3.2271">
        <ele>169.94</ele>
        <time>2021-03-20T16:48:44Z</time>
      </trkpt>
      <trkpt lat="55.14708" lon="-3.22709">
        <ele>174.07</ele>
        <time>2021-03-20T16:48:49Z</time>
      </trkpt>
      <trkpt lat="55.14785" lon="-3.22701">
        <ele>176.43</ele>
        <time>2021-03-20T16:48:54Z</time>
      </trkpt>
      <trkpt lat="55.14809" lon="-3.22702">
        <ele>177.7</ele>
        <time>2021-03-20T16:48:59Z</time>
      </trkpt>
      <trkpt lat="55.14828" lon="-3.22706">
        <ele>180.14</ele>
        <time>2021-03-20T16:49:04Z</time>
      </trkpt>
      <trkpt lat="55.14874" lon="-3.22728">
        <ele>183.49</ele>
        <time>2021-03-20T16:49:09Z</time>
      </trkpt>
      <trkpt lat="55.14924" lon="-3.22731">
        <ele>183.49</ele>
        <time>2021-03-20T16:49:14Z</time>
      </trkpt>
      <trkpt lat="55.14945" lon="-3.22735">
        <ele>184.3</ele>
        <time>2021-03-20T16:49:19Z</time>
      </trkpt>
      <trkpt lat="55.14977" lon="-3.22748">
        <ele>185.43</ele>
        <time>2021-03-20T16:49:23Z</time>
      </trkpt>
      <trkpt lat="55.14999" lon="-3.2276">
        <ele>186.46</ele>
        <time>2021-03-20T16:49:28Z</time>
      </trkpt>
      <trkpt lat="55.15041" lon="-3.22803">
        <ele>191.61</ele>
        <time>2021-03-20T16:49:33Z</time>
      </trkpt>
      <trkpt lat="55.15082" lon="-3.22834">
        <ele>192.17</ele>
        <time>2021-03-20T16:49:38Z</time>
      </trkpt>
      <trkpt lat="55.15131" lon="-3.22883">
        <ele>199.39</ele>
        <time>2021-03-20T16:49:43Z</time>
      </trkpt>
      <trkpt lat="55.15172" lon="-3.2291">
        <ele>200.65</ele>
        <time>2021-03-20T16:49:48Z</time>
      </trkpt>
      <trkpt lat="55.15208" lon="-3.22929">
        <ele>203.07</ele>
        <time>2021-03-20T16:49:53Z</time>
      </trkpt>
      <trkpt lat="55.15267" lon="-3.22943">
        <ele>204.84</ele>
        <time>2021-03-20T16:49:58Z</time>
      </trkpt>
      <trkpt lat="55.15279" lon="-3.2295">
        <ele>205.64</ele>
        <time>2021-03-20T16:50:03Z</time>
      </trkpt>
      <trkpt lat="55.15367" lon="-3.23047">
        <ele>212.45</ele>
        <time>2021-03-20T16:50:08Z</time>
      </trkpt>
      <trkpt lat="55.15423" lon="-3.23089">
        <ele>217.2</ele>
        <time>2021-03-20T16:50:12Z</time>
      </trkpt>
      <trkpt lat="55.15657" lon="-3.23248">
        <ele>228.58</ele>
        <time>2021-03-20T16:50:17Z</time>
      </trkpt>
      <trkpt lat="55.15785" lon="-3.23342">
        <ele>233.32</ele>
        <time>2021-03-20T16:50:22Z</time>
      </trkpt>
      <trkpt lat="55.15835" lon="-3.23402">
        <ele>234.54</ele>
        <time>2021-03-20T16:50:27Z</time>
      </trkpt>
      <trkpt lat="55.1592" lon="-3.23533">
        <ele>248.4</ele>
        <time>2021-03-20T16:50:32Z</time>
      </trkpt>
      <trkpt lat="55.15985" lon="-3.23688">
        <ele>238.01</ele>
        <time>2021-03-20T16:50:37Z</time>
      </trkpt>
      <trkpt lat="55.16019" lon="-3.23784">
        <ele>232.32</ele>
        <time>2021-03-20T16:50:42Z</time>
      </trkpt>
      <trkpt lat="55.1604" lon="-3.23915">
        <ele>231.06</ele>
        <time>2021-03-20T16:50:47Z</time>
      </trkpt>
      <trkpt lat="55.16068" lon="-3.24254">
        <ele>225</ele>
        <time>2021-03-20T16:50:52Z</time>
      </trkpt>
      <trkpt lat="55.16077" lon="-3.24313">
        <ele>226</ele>
        <time>2021-03-20T16:50:57Z</time>
      </trkpt>
      <trkpt lat="55.16046" lon="-3.24382">
        <ele>227.49</ele>
        <time>2021-03-20T16:51:03Z</time>
      </trkpt>
      <trkpt lat="55.15935" lon="-3.2464">
        <ele>219.66</ele>
        <time>2021-03-20T16:51:08Z</time>
      </trkpt>
      <trkpt lat="55.15933" lon="-3.24677">
        <ele>220.1</ele>
        <time>2021-03-20T16:51:14Z</time>
      </trkpt>
      <trkpt lat="55.15944" lon="-3.24975">
        <ele>227.01</ele>
        <time>2021-03-20T16:51:20Z</time>
      </trkpt>
      <trkpt lat="55.15983" lon="-3.25309">
        <ele>223.19</ele>
        <time>2021-03-20T16:51:26Z</time>
      </trkpt>
      <trkpt lat="55.15868" lon="-3.25819">
        <ele>212.17</ele>
        <time>2021-03-20T16:51:32Z</time>
      </trkpt>
      <trkpt lat="55.15831" lon="-3.26062">
        <ele>208.15</ele>
        <time>2021-03-20T16:51:38Z</time>
      </trkpt>
      <trkpt lat="55.15822" lon="-3.2609">
        <ele>208.35</ele>
        <time>2021-03-20T16:51:44Z</time>
      </trkpt>
      <trkpt lat="55.15808" lon="-3.2612">
        <ele>209.45</ele>
        <time>2021-03-20T16:51:50Z</time>
      </trkpt>
      <trkpt lat="55.15541" lon="-3.26561">
        <ele>206.27</ele>
        <time>2021-03-20T16:51:56Z</time>
      </trkpt>
      <trkpt lat="55.15518" lon="-3.26584">
        <ele>204.29</ele>
        <time>2021-03-20T16:52:02Z</time>
      </trkpt>
      <trkpt lat="55.15494" lon="-3.266">
        <ele>201.95</ele>
        <time>2021-03-20T16:52:08Z</time>
      </trkpt>
      <trkpt lat="55.15426" lon="-3.2661">
        <ele>199.7</ele>
        <time>2021-03-20T16:52:14Z</time>
      </trkpt>
      <trkpt lat="55.15373" lon="-3.26642">
        <ele>195.64</ele>
        <time>2021-03-20T16:52:20Z</time>
      </trkpt>
      <trkpt lat="55.15346" lon="-3.2667">
        <ele>192.19</ele>
        <time>2021-03-20T16:52:26Z</time>
      </trkpt>
      <trkpt lat="55.1533" lon="-3.26695">
        <ele>189.82</ele>
        <time>2021-03-20T16:52:32Z</time>
      </trkpt>
      <trkpt lat="55.15314" lon="-3.26741">
        <ele>187.32</ele>
        <time>2021-03-20T16:52:38Z</time>
      </trkpt>
      <trkpt lat="55.15289" lon="-3.26895">
        <ele>182.77</ele>
        <time>2021-03-20T16:52:44Z</time>
      </trkpt>
      <trkpt lat="55.15272" lon="-3.27018">
        <ele>179</ele>
        <time>2021-03-20T16:52:50Z</time>
      </trkpt>
      <trkpt lat="55.15271" lon="-3.27053">
        <ele>179</ele>
        <time>2021-03-20T16:52:56Z</time>
      </trkpt>
      <trkpt lat="55.15278" lon="-3.27106">
        <ele>178.99</ele>
        <time>2021-03-20T16:53:01Z</time>
      </trkpt>
      <trkpt lat="55.15283" lon="-3.27168">
        <ele>178.1</ele>
        <time>2021-03-20T16:53:07Z</time>
      </trkpt>
      <trkpt lat="55.15288" lon="-3.27297">
        <ele>177.62</ele>
        <time>2021-03-20T16:53:13Z</time>
      </trkpt>
      <trkpt lat="55.15281" lon="-3.27351">
        <ele>177.37</ele>
        <time>2021-03-20T16:53:19Z</time>
      </trkpt>
      <trkpt lat="55.15277" lon="-3.27413">
        <ele>174.29</ele>
        <time>2021-03-20T16:53:25Z</time>
      </trkpt>
      <trkpt lat="55.15291" lon="-3.27586">
        <ele>166.25</ele>
        <time>2021-03-20T16:53:31Z</time>
      </trkpt>
      <trkpt lat="55.15299" lon="-3.27645">
        <ele>159.96</ele>
        <time>2021-03-20T16:53:37Z</time>
      </trkpt>
      <trkpt lat="55.15314" lon="-3.27711">
        <ele>151.84</ele>
        <time>2021-03-20T16:53:43Z</time>
      </trkpt>
      <trkpt lat="55.15313" lon="-3.27782">
        <ele>146.96</ele>
        <time>2021-03-20T16:53:49Z</time>
      </trkpt>
      <trkpt lat="55.15318" lon="-3.2785">
        <ele>141.62</ele>
        <time>2021-03-20T16:53:55Z</time>
      </trkpt>
      <trkpt lat="55.15313" lon="-3.27908">
        <ele>136.88</ele>
        <time>2021-03-20T16:54:01Z</time>
      </trkpt>
      <trkpt lat="55.15317" lon="-3.27961">
        <ele>133.82</ele>
        <time>2021-03-20T16:54:07Z</time>
      </trkpt>
      <trkpt lat="55.15314" lon="-3.28003">
        <ele>131.87</ele>
        <time>2021-03-20T16:54:13Z</time>
      </trkpt>
      <trkpt lat="55.15282" lon="-3.28211">
        <ele>127</ele>
        <time>2021-03-20T16:54:19Z</time>
      </trkpt>
      <trkpt lat="55.15276" lon="-3.28266">
        <ele>126.07</ele>
        <time>2021-03-20T16:54:25Z</time>
      </trkpt>
      <trkpt lat="55.1524" lon="-3.28494">
        <ele>132.83</ele>
        <time>2021-03-20T16:54:31Z</time>
      </trkpt>
      <trkpt lat="55.1522" lon="-3.28572">
        <ele>139.34</ele>
        <time>2021-03-20T16:54:37Z</time>
      </trkpt>
      <trkpt lat="55.15107" lon="-3.28713">
        <ele>151.37</ele>
        <time>2021-03-20T16:54:43Z</time>
      </trkpt>
      <trkpt lat="55.15133" lon="-3.28806">
        <ele>156</ele>
        <time>2021-03-20T16:54:51Z</time>
      </trkpt>
      <trkpt lat="55.15147" lon="-3.28832">
        <ele>156</ele>
        <time>2021-03-20T16:55:00Z</time>
      </trkpt>
      <trkpt lat="55.15166" lon="-3.2884">
        <ele>155.76</ele>
        <time>2021-03-20T16:55:08Z</time>
      </trkpt>
      <trkpt lat="55.15409" lon="-3.28868">
        <ele>164.2</ele>
        <time>2021-03-20T16:55:17Z</time>
      </trkpt>
      <trkpt lat="55.15441" lon="-3.28877">
        <ele>165.33</ele>
        <time>2021-03-20T16:55:26Z</time>
      </trkpt>
      <trkpt lat="55.15461" lon="-3.28902">
        <ele>165.61</ele>
        <time>2021-03-20T16:55:29Z</time>
      </trkpt>
      <trkpt lat="55.15467" lon="-3.28924">
        <ele>164.05</ele>
        <time>2021-03-20T16:55:34Z</time>
      </trkpt>
      <trkpt lat="55.15464" lon="-3.2908">
        <ele>155.96</ele>
        <time>2021-03-20T16:55:39Z</time>
      </trkpt>
      <trkpt lat="55.15466" lon="-3.29387">
        <ele>153.03</ele>
        <time>2021-03-20T16:55:44Z</time>
      </trkpt>
      <trkpt lat="55.15469" lon="-3.29447">
        <ele>152.42</ele>
        <time>2021-03-20T16:55:50Z</time>
      </trkpt>
      <trkpt lat="55.1548" lon="-3.29497">
        <ele>151.91</ele>
        <time>2021-03-20T16:55:55Z</time>
      </trkpt>
      <trkpt lat="55.15502" lon="-3.29541">
        <ele>152.84</ele>
        <time>2021-03-20T16:56:00Z</time>
      </trkpt>
      <trkpt lat="55.15613" lon="-3.29661">
        <ele>159.47</ele>
        <time>2021-03-20T16:56:05Z</time>
      </trkpt>
      <trkpt lat="55.15665" lon="-3.29779">
        <ele>158.88</ele>
        <time>2021-03-20T16:56:11Z</time>
      </trkpt>
      <trkpt lat="55.15681" lon="-3.298">
        <ele>160.5</ele>
        <time>2021-03-20T16:56:16Z</time>
      </trkpt>
      <trkpt lat="55.15721" lon="-3.29826">
        <ele>163.11</ele>
        <time>2021-03-20T16:56:21Z</time>
      </trkpt>
      <trkpt lat="55.15787" lon="-3.29935">
        <ele>165.76</ele>
        <time>2021-03-20T16:56:26Z</time>
      </trkpt>
      <trkpt lat="55.15806" lon="-3.30011">
        <ele>171.05</ele>
        <time>2021-03-20T16:56:32Z</time>
      </trkpt>
      <trkpt lat="55.15864" lon="-3.3019">
        <ele>174.5</ele>
        <time>2021-03-20T16:56:37Z</time>
      </trkpt>
      <trkpt lat="55.15883" lon="-3.30221">
        <ele>174.38</ele>
        <time>2021-03-20T16:56:42Z</time>
      </trkpt>
      <trkpt lat="55.15905" lon="-3.30248">
        <ele>175.86</ele>
        <time>2021-03-20T16:56:47Z</time>
      </trkpt>
      <trkpt lat="55.15961" lon="-3.3028">
        <ele>178.21</ele>
        <time>2021-03-20T16:56:53Z</time>
      </trkpt>
      <trkpt lat="55.15983" lon="-3.30281">
        <ele>179.21</ele>
        <time>2021-03-20T16:56:58Z</time>
      </trkpt>
      <trkpt lat="55.16022" lon="-3.30273">
        <ele>181.06</ele>
        <time>2021-03-20T16:57:03Z</time>
      </trkpt>
      <trkpt lat="55.16094" lon="-3.30266">
        <ele>181.74</ele>
        <time>2021-03-20T16:57:08Z</time>
      </trkpt>
      <trkpt lat="55.16115" lon="-3.30268">
        <ele>181.88</ele>
        <time>2021-03-20T16:57:14Z</time>
      </trkpt>
      <trkpt lat="55.16133" lon="-3.3028">
        <ele>182.37</ele>
        <time>2021-03-20T16:57:19Z</time>
      </trkpt>
      <trkpt lat="55.16145" lon="-3.30299">
        <ele>183.11</ele>
        <time>2021-03-20T16:57:24Z</time>
      </trkpt>
      <trkpt lat="55.16176" lon="-3.30426">
        <ele>184.7</ele>
        <time>2021-03-20T16:57:29Z</time>
      </trkpt>
      <trkpt lat="55.16193" lon="-3.30508">
        <ele>184.73</ele>
        <time>2021-03-20T16:57:35Z</time>
      </trkpt>
      <trkpt lat="55.16204" lon="-3.30591">
        <ele>186.24</ele>
        <time>2021-03-20T16:57:40Z</time>
      </trkpt>
      <trkpt lat="55.16207" lon="-3.3065">
        <ele>183.67</ele>
        <time>2021-03-20T16:57:45Z</time>
      </trkpt>
      <trkpt lat="55.16215" lon="-3.30695">
        <ele>183.92</ele>
        <time>2021-03-20T16:57:50Z</time>
      </trkpt>
      <trkpt lat="55.16227" lon="-3.30727">
        <ele>183.41</ele>
        <time>2021-03-20T16:57:56Z</time>
      </trkpt>
      <trkpt lat="55.16253" lon="-3.30766">
        <ele>180.74</ele>
        <time>2021-03-20T16:58:01Z</time>
      </trkpt>
      <trkpt lat="55.16265" lon="-3.30807">
        <ele>179.85</ele>
        <time>2021-03-20T16:58:06Z</time>
      </trkpt>
      <trkpt lat="55.16274" lon="-3.30869">
        <ele>179.78</ele>
        <time>2021-03-20T16:58:11Z</time>
      </trkpt>
      <trkpt lat="55.16281" lon="-3.30901">
        <ele>180.23</ele>
        <time>2021-03-20T16:58:17Z</time>
      </trkpt>
      <trkpt lat="55.16295" lon="-3.3093">
        <ele>180.88</ele>
        <time>2021-03-20T16:58:22Z</time>
      </trkpt>
      <trkpt lat="55.16394" lon="-3.31012">
        <ele>179.6</ele>
        <time>2021-03-20T16:58:27Z</time>
      </trkpt>
      <trkpt lat="55.16502" lon="-3.31121">
        <ele>179.6</ele>
        <time>2021-03-20T16:58:32Z</time>
      </trkpt>
      <trkpt lat="55.16556" lon="-3.31181">
        <ele>181.02</ele>
        <time>2021-03-20T16:58:38Z</time>
      </trkpt>
      <trkpt lat="55.16621" lon="-3.31316">
        <ele>191.26</ele>
        <time>2021-03-20T16:58:43Z</time>
      </trkpt>
      <trkpt lat="55.16625" lon="-3.31352">
        <ele>193.35</ele>
        <time>2021-03-20T16:58:48Z</time>
      </trkpt>
      <trkpt lat="55.16627" lon="-3.314">
        <ele>195.76</ele>
        <time>2021-03-20T16:58:53Z</time>
      </trkpt>
      <trkpt lat="55.16634" lon="-3.31485">
        <ele>197.09</ele>
        <time>2021-03-20T16:58:59Z</time>
      </trkpt>
      <trkpt lat="55.16643" lon="-3.3156">
        <ele>194.9</ele>
        <time>2021-03-20T16:59:04Z</time>
      </trkpt>
      <trkpt lat="55.16646" lon="-3.31617">
        <ele>195.63</ele>
        <time>2021-03-20T16:59:09Z</time>
      </trkpt>
      <trkpt lat="55.16658" lon="-3.31681">
        <ele>194.31</ele>
        <time>2021-03-20T16:59:14Z</time>
      </trkpt>
      <trkpt lat="55.16666" lon="-3.31755">
        <ele>196.09</ele>
        <time>2021-03-20T16:59:20Z</time>
      </trkpt>
      <trkpt lat="55.16664" lon="-3.31809">
        <ele>196.41</ele>
        <time>2021-03-20T16:59:25Z</time>
      </trkpt>
      <trkpt lat="55.16658" lon="-3.31858">
        <ele>196.69</ele>
        <time>2021-03-20T16:59:30Z</time>
      </trkpt>
      <trkpt lat="55.1665" lon="-3.31897">
        <ele>197.51</ele>
        <time>2021-03-20T16:59:35Z</time>
      </trkpt>
      <trkpt lat="55.16623" lon="-3.31953">
        <ele>200.26</ele>
        <time>2021-03-20T16:59:41Z</time>
      </trkpt>
      <trkpt lat="55.16621" lon="-3.31977">
        <ele>200.66</ele>
        <time>2021-03-20T16:59:46Z</time>
      </trkpt>
      <trkpt lat="55.16624" lon="-3.32004">
        <ele>200.93</ele>
        <time>2021-03-20T16:59:51Z</time>
      </trkpt>
      <trkpt lat="55.1665" lon="-3.32072">
        <ele>203.97</ele>
        <time>2021-03-20T16:59:56Z</time>
      </trkpt>
      <trkpt lat="55.16658" lon="-3.32108">
        <ele>205.04</ele>
        <time>2021-03-20T17:00:02Z</time>
      </trkpt>
      <trkpt lat="55.16658" lon="-3.32133">
        <ele>206.84</ele>
        <time>2021-03-20T17:00:07Z</time>
      </trkpt>
      <trkpt lat="55.16612" lon="-3.32358">
        <ele>218.97</ele>
        <time>2021-03-20T17:00:12Z</time>
      </trkpt>
      <trkpt lat="55.16601" lon="-3.32394">
        <ele>220.23</ele>
        <time>2021-03-20T17:00:17Z</time>
      </trkpt>
      <trkpt lat="55.16586" lon="-3.32423">
        <ele>220.55</ele>
        <time>2021-03-20T17:00:23Z</time>
      </trkpt>
      <trkpt lat="55.16558" lon="-3.32454">
        <ele>223.01</ele>
        <time>2021-03-20T17:00:28Z</time>
      </trkpt>
      <trkpt lat="55.16392" lon="-3.32575">
        <ele>223.95</ele>
        <time>2021-03-20T17:00:33Z</time>
      </trkpt>
      <trkpt lat="55.16388" lon="-3.32593">
        <ele>222.04</ele>
        <time>2021-03-20T17:00:38Z</time>
      </trkpt>
      <trkpt lat="55.16385" lon="-3.32686">
        <ele>215.46</ele>
        <time>2021-03-20T17:00:44Z</time>
      </trkpt>
      <trkpt lat="55.16367" lon="-3.3289">
        <ele>208.61</ele>
        <time>2021-03-20T17:00:49Z</time>
      </trkpt>
      <trkpt lat="55.16368" lon="-3.32966">
        <ele>207.66</ele>
        <time>2021-03-20T17:00:54Z</time>
      </trkpt>
      <trkpt lat="55.16368" lon="-3.33016">
        <ele>206.93</ele>
        <time>2021-03-20T17:00:59Z</time>
      </trkpt>
      <trkpt lat="55.16365" lon="-3.33061">
        <ele>205.3</ele>
        <time>2021-03-20T17:01:05Z</time>
      </trkpt>
      <trkpt lat="55.16346" lon="-3.33196">
        <ele>201.59</ele>
        <time>2021-03-20T17:01:10Z</time>
      </trkpt>
      <trkpt lat="55.16344" lon="-3.33236">
        <ele>201.32</ele>
        <time>2021-03-20T17:01:15Z</time>
      </trkpt>
      <trkpt lat="55.16348" lon="-3.33271">
        <ele>200.42</ele>
        <time>2021-03-20T17:01:20Z</time>
      </trkpt>
      <trkpt lat="55.1636" lon="-3.33321">
        <ele>199.08</ele>
        <time>2021-03-20T17:01:26Z</time>
      </trkpt>
      <trkpt lat="55.16374" lon="-3.33394">
        <ele>198.17</ele>
        <time>2021-03-20T17:01:31Z</time>
      </trkpt>
      <trkpt lat="55.16377" lon="-3.33436">
        <ele>198.61</ele>
        <time>2021-03-20T17:01:36Z</time>
      </trkpt>
      <trkpt lat="55.16362" lon="-3.33725">
        <ele>185.86</ele>
        <time>2021-03-20T17:01:41Z</time>
      </trkpt>
      <trkpt lat="55.16307" lon="-3.33932">
        <ele>175.04</ele>
        <time>2021-03-20T17:01:47Z</time>
      </trkpt>
      <trkpt lat="55.16297" lon="-3.33954">
        <ele>175.33</ele>
        <time>2021-03-20T17:01:52Z</time>
      </trkpt>
      <trkpt lat="55.16283" lon="-3.33969">
        <ele>175.87</ele>
        <time>2021-03-20T17:01:57Z</time>
      </trkpt>
      <trkpt lat="55.16201" lon="-3.34008">
        <ele>169.25</ele>
        <time>2021-03-20T17:02:02Z</time>
      </trkpt>
      <trkpt lat="55.16176" lon="-3.34024">
        <ele>166.17</ele>
        <time>2021-03-20T17:02:08Z</time>
      </trkpt>
      <trkpt lat="55.16158" lon="-3.34044">
        <ele>164.4</ele>
        <time>2021-03-20T17:02:13Z</time>
      </trkpt>
      <trkpt lat="55.16132" lon="-3.34095">
        <ele>162.48</ele>
        <time>2021-03-20T17:02:18Z</time>
      </trkpt>
      <trkpt lat="55.16107" lon="-3.34149">
        <ele>159.33</ele>
        <time>2021-03-20T17:02:23Z</time>
      </trkpt>
      <trkpt lat="55.16093" lon="-3.34199">
        <ele>156.53</ele>
        <time>2021-03-20T17:02:29Z</time>
      </trkpt>
      <trkpt lat="55.1608" lon="-3.34336">
        <ele>149.84</ele>
        <time>2021-03-20T17:02:34Z</time>
      </trkpt>
      <trkpt lat="55.1604" lon="-3.3457">
        <ele>137.38</ele>
        <time>2021-03-20T17:02:39Z</time>
      </trkpt>
      <trkpt lat="55.16042" lon="-3.34593">
        <ele>134.45</ele>
        <time>2021-03-20T17:02:44Z</time>
      </trkpt>
      <trkpt lat="55.16058" lon="-3.34624">
        <ele>129.52</ele>
        <time>2021-03-20T17:02:50Z</time>
      </trkpt>
      <trkpt lat="55.16075" lon="-3.34666">
        <ele>126.04</ele>
        <time>2021-03-20T17:02:55Z</time>
      </trkpt>
      <trkpt lat="55.1608" lon="-3.34706">
        <ele>123.17</ele>
        <time>2021-03-20T17:03:00Z</time>
      </trkpt>
      <trkpt lat="55.1608" lon="-3.34741">
        <ele>119.34</ele>
        <time>2021-03-20T17:03:05Z</time>
      </trkpt>
      <trkpt lat="55.16047" lon="-3.34898">
        <ele>110.51</ele>
        <time>2021-03-20T17:03:11Z</time>
      </trkpt>
      <trkpt lat="55.16045" lon="-3.34923">
        <ele>109.6</ele>
        <time>2021-03-20T17:03:16Z</time>
      </trkpt>
      <trkpt lat="55.16048" lon="-3.3494">
        <ele>109.1</ele>
        <time>2021-03-20T17:03:21Z</time>
      </trkpt>
      <trkpt lat="55.16059" lon="-3.34958">
        <ele>108.25</ele>
        <time>2021-03-20T17:03:26Z</time>
      </trkpt>
      <trkpt lat="55.16108" lon="-3.35012">
        <ele>101.6</ele>
        <time>2021-03-20T17:03:32Z</time>
      </trkpt>
      <trkpt lat="55.16142" lon="-3.35043">
        <ele>97.97</ele>
        <time>2021-03-20T17:03:37Z</time>
      </trkpt>
      <trkpt lat="55.16148" lon="-3.35055">
        <ele>97.01</ele>
        <time>2021-03-20T17:03:42Z</time>
      </trkpt>
      <trkpt lat="55.16152" lon="-3.35082">
        <ele>94.63</ele>
        <time>2021-03-20T17:03:47Z</time>
      </trkpt>
      <trkpt lat="55.16173" lon="-3.35149">
        <ele>90.73</ele>
        <time>2021-03-20T17:03:52Z</time>
      </trkpt>
      <trkpt lat="55.16203" lon="-3.35224">
        <ele>86.17</ele>
        <time>2021-03-20T17:03:58Z</time>
      </trkpt>
      <trkpt lat="55.16212" lon="-3.35254">
        <ele>84.36</ele>
        <time>2021-03-20T17:04:03Z</time>
      </trkpt>
      <trkpt lat="55.16213" lon="-3.3529">
        <ele>81.9</ele>
        <time>2021-03-20T17:04:08Z</time>
      </trkpt>
      <trkpt lat="55.16189" lon="-3.35436">
        <ele>81.69</ele>
        <time>2021-03-20T17:04:13Z</time>
      </trkpt>
      <trkpt lat="55.16196" lon="-3.35473">
        <ele>84.05</ele>
        <time>2021-03-20T17:04:19Z</time>
      </trkpt>
      <trkpt lat="55.1621" lon="-3.35497">
        <ele>85.79</ele>
        <time>2021-03-20T17:04:24Z</time>
      </trkpt>
      <trkpt lat="55.16227" lon="-3.35558">
        <ele>89.19</ele>
        <time>2021-03-20T17:04:29Z</time>
      </trkpt>
      <trkpt lat="55.16252" lon="-3.35789">
        <ele>99.41</ele>
        <time>2021-03-20T17:04:34Z</time>
      </trkpt>
      <trkpt lat="55.16278" lon="-3.35837">
        <ele>101.23</ele>
        <time>2021-03-20T17:04:40Z</time>
      </trkpt>
      <trkpt lat="55.16255" lon="-3.35982">
        <ele>101.18</ele>
        <time>2021-03-20T17:04:46Z</time>
      </trkpt>
      <trkpt lat="55.16227" lon="-3.3656">
        <ele>101.04</ele>
        <time>2021-03-20T17:04:53Z</time>
      </trkpt>
      <trkpt lat="55.16213" lon="-3.36632">
        <ele>99.67</ele>
        <time>2021-03-20T17:05:00Z</time>
      </trkpt>
      <trkpt lat="55.16195" lon="-3.3667">
        <ele>99.16</ele>
        <time>2021-03-20T17:05:06Z</time>
      </trkpt>
      <trkpt lat="55.16211" lon="-3.36693">
        <ele>100.52</ele>
        <time>2021-03-20T17:05:09Z</time>
      </trkpt>
      <trkpt lat="55.16212" lon="-3.36714">
        <ele>101.34</ele>
        <time>2021-03-20T17:05:12Z</time>
      </trkpt>
      <trkpt lat="55.16206" lon="-3.36753">
        <ele>102.47</ele>
        <time>2021-03-20T17:05:15Z</time>
      </trkpt>
      <trkpt lat="55.16173" lon="-3.3683">
        <ele>104</ele>
        <time>2021-03-20T17:05:17Z</time>
      </trkpt>
      <trkpt lat="55.16156" lon="-3.36884">
        <ele>102.22</ele>
        <time>2021-03-20T17:05:20Z</time>
      </trkpt>
      <trkpt lat="55.16107" lon="-3.37153">
        <ele>96.8</ele>
        <time>2021-03-20T17:05:23Z</time>
      </trkpt>
      <trkpt lat="55.16102" lon="-3.37227">
        <ele>93.83</ele>
        <time>2021-03-20T17:05:26Z</time>
      </trkpt>
      <trkpt lat="55.16102" lon="-3.37274">
        <ele>93</ele>
        <time>2021-03-20T17:05:29Z</time>
      </trkpt>
      <trkpt lat="55.16112" lon="-3.37313">
        <ele>91.74</ele>
        <time>2021-03-20T17:05:31Z</time>
      </trkpt>
      <trkpt lat="55.16123" lon="-3.37345">
        <ele>90.58</ele>
        <time>2021-03-20T17:05:34Z</time>
      </trkpt>
      <trkpt lat="55.16244" lon="-3.3757">
        <ele>87.25</ele>
        <time>2021-03-20T17:05:37Z</time>
      </trkpt>
      <trkpt lat="55.16262" lon="-3.37637">
        <ele>86.03</ele>
        <time>2021-03-20T17:05:40Z</time>
      </trkpt>
      <trkpt lat="55.16263" lon="-3.37682">
        <ele>86</ele>
        <time>2021-03-20T17:05:43Z</time>
      </trkpt>
      <trkpt lat="55.16258" lon="-3.37721">
        <ele>86</ele>
        <time>2021-03-20T17:05:45Z</time>
      </trkpt>
      <trkpt lat="55.16254" lon="-3.37732">
        <ele>85.65</ele>
        <time>2021-03-20T17:05:48Z</time>
      </trkpt>
      <trkpt lat="55.16162" lon="-3.37836">
        <ele>75.73</ele>
        <time>2021-03-20T17:05:51Z</time>
      </trkpt>
      <trkpt lat="55.16132" lon="-3.37897">
        <ele>74.53</ele>
        <time>2021-03-20T17:05:54Z</time>
      </trkpt>
      <trkpt lat="55.16078" lon="-3.3807">
        <ele>70.65</ele>
        <time>2021-03-20T17:05:56Z</time>
      </trkpt>
      <trkpt lat="55.16082" lon="-3.3809">
        <ele>70.91</ele>
        <time>2021-03-20T17:05:59Z</time>
      </trkpt>
      <trkpt lat="55.16423" lon="-3.38461">
        <ele>67.05</ele>
        <time>2021-03-20T17:06:07Z</time>
      </trkpt>
      <trkpt lat="55.16436" lon="-3.38486">
        <ele>66.19</ele>
        <time>2021-03-20T17:06:15Z</time>
      </trkpt>
      <trkpt lat="55.16435" lon="-3.38505">
        <ele>65.49</ele>
        <time>2021-03-20T17:06:23Z</time>
      </trkpt>
      <trkpt lat="55.16422" lon="-3.38495">
        <ele>65.39</ele>
        <time>2021-03-20T17:06:24Z</time>
      </trkpt>
      <trkpt lat="55.1641" lon="-3.38493">
        <ele>65.26</ele>
        <time>2021-03-20T17:06:25Z</time>
      </trkpt>
      <trkpt lat="55.16388" lon="-3.38499">
        <ele>65.04</ele>
        <time>2021-03-20T17:06:26Z</time>
      </trkpt>
      <trkpt lat="55.1637" lon="-3.38508">
        <ele>64.79</ele>
        <time>2021-03-20T17:06:27Z</time>
      </trkpt>
      <trkpt lat="55.16355" lon="-3.38526">
        <ele>64.07</ele>
        <time>2021-03-20T17:06:28Z</time>
      </trkpt>
      <trkpt lat="55.16339" lon="-3.3854">
        <ele>63.54</ele>
        <time>2021-03-20T17:06:30Z</time>
      </trkpt>
      <trkpt lat="55.16316" lon="-3.38598">
        <ele>60.46</ele>
        <time>2021-03-20T17:06:31Z</time>
      </trkpt>
      <trkpt lat="55.16313" lon="-3.38646">
        <ele>59.26</ele>
        <time>2021-03-20T17:06:32Z</time>
      </trkpt>
      <trkpt lat="55.16412" lon="-3.38684">
        <ele>63.37</ele>
        <time>2021-03-20T17:06:42Z</time>
      </trkpt>
      <trkpt lat="55.16538" lon="-3.38747">
        <ele>66</ele>
        <time>2021-03-20T17:06:52Z</time>
      </trkpt>
      <trkpt lat="55.16662" lon="-3.38849">
        <ele>66.55</ele>
        <time>2021-03-20T17:07:02Z</time>
      </trkpt>
      <trkpt lat="55.1715" lon="-3.39323">
        <ele>73.62</ele>
        <time>2021-03-20T17:07:12Z</time>
      </trkpt>
      <trkpt lat="55.1731" lon="-3.39504">
        <ele>75.97</ele>
        <time>2021-03-20T17:07:21Z</time>
      </trkpt>
      <trkpt lat="55.17662" lon="-3.40127">
        <ele>71.53</ele>
        <time>2021-03-20T17:07:31Z</time>
      </trkpt>
      <trkpt lat="55.17792" lon="-3.40281">
        <ele>70</ele>
        <time>2021-03-20T17:07:41Z</time>
      </trkpt>
      <trkpt lat="55.17953" lon="-3.40403">
        <ele>68.49</ele>
        <time>2021-03-20T17:07:51Z</time>
      </trkpt>
      <trkpt lat="55.18024" lon="-3.40435">
        <ele>69.28</ele>
        <time>2021-03-20T17:08:01Z</time>
      </trkpt>
      <trkpt lat="55.18131" lon="-3.40472">
        <ele>69.73</ele>
        <time>2021-03-20T17:08:11Z</time>
      </trkpt>
      <trkpt lat="55.18646" lon="-3.40632">
        <ele>64.2</ele>
        <time>2021-03-20T17:08:21Z</time>
      </trkpt>
      <trkpt lat="55.18816" lon="-3.40692">
        <ele>64</ele>
        <time>2021-03-20T17:08:31Z</time>
      </trkpt>
      <trkpt lat="55.18835" lon="-3.40696">
        <ele>64</ele>
        <time>2021-03-20T17:08:41Z</time>
      </trkpt>
      <trkpt lat="55.18851" lon="-3.40695">
        <ele>64</ele>
        <time>2021-03-20T17:08:50Z</time>
      </trkpt>
      <trkpt lat="55.18872" lon="-3.40686">
        <ele>64</ele>
        <time>2021-03-20T17:09:00Z</time>
      </trkpt>
      <trkpt lat="55.1889" lon="-3.40695">
        <ele>64</ele>
        <time>2021-03-20T17:09:10Z</time>
      </trkpt>
      <trkpt lat="55.18895" lon="-3.40704">
        <ele>64</ele>
        <time>2021-03-20T17:09:18Z</time>
      </trkpt>
      <trkpt lat="55.18917" lon="-3.4071">
        <ele>64</ele>
        <time>2021-03-20T17:09:26Z</time>
      </trkpt>
      <trkpt lat="55.18951" lon="-3.40733">
        <ele>63.44</ele>
        <time>2021-03-20T17:09:33Z</time>
      </trkpt>
      <trkpt lat="55.1924" lon="-3.40816">
        <ele>64</ele>
        <time>2021-03-20T17:09:41Z</time>
      </trkpt>
      <trkpt lat="55.2007" lon="-3.41078">
        <ele>68.8</ele>
        <time>2021-03-20T17:09:49Z</time>
      </trkpt>
      <trkpt lat="55.20167" lon="-3.41103">
        <ele>69.01</ele>
        <time>2021-03-20T17:09:57Z</time>
      </trkpt>
      <trkpt lat="55.20259" lon="-3.41114">
        <ele>70.36</ele>
        <time>2021-03-20T17:10:04Z</time>
      </trkpt>
      <trkpt lat="55.20326" lon="-3.41117">
        <ele>68</ele>
        <time>2021-03-20T17:10:12Z</time>
      </trkpt>
      <trkpt lat="55.20435" lon="-3.41109">
        <ele>69.17</ele>
        <time>2021-03-20T17:10:20Z</time>
      </trkpt>
      <trkpt lat="55.20582" lon="-3.41083">
        <ele>65.03</ele>
        <time>2021-03-20T17:10:27Z</time>
      </trkpt>
      <trkpt lat="55.20625" lon="-3.41081">
        <ele>65.95</ele>
        <time>2021-03-20T17:10:35Z</time>
      </trkpt>
      <trkpt lat="55.20655" lon="-3.41083">
        <ele>66</ele>
        <time>2021-03-20T17:10:43Z</time>
      </trkpt>
      <trkpt lat="55.20701" lon="-3.41094">
        <ele>67.78</ele>
        <time>2021-03-20T17:10:51Z</time>
      </trkpt>
      <trkpt lat="55.20756" lon="-3.41117">
        <ele>69.78</ele>
        <time>2021-03-20T17:10:58Z</time>
      </trkpt>
      <trkpt lat="55.208" lon="-3.41145">
        <ele>69.79</ele>
        <time>2021-03-20T17:11:06Z</time>
      </trkpt>
      <trkpt lat="55.2083" lon="-3.4117">
        <ele>70.76</ele>
        <time>2021-03-20T17:11:14Z</time>
      </trkpt>
      <trkpt lat="55.20859" lon="-3.41197">
        <ele>70.92</ele>
        <time>2021-03-20T17:11:22Z</time>
      </trkpt>
      <trkpt lat="55.20872" lon="-3.41214">
        <ele>71.12</ele>
        <time>2021-03-20T17:11:29Z</time>
      </trkpt>
      <trkpt lat="55.20972" lon="-3.41321">
        <ele>68.45</ele>
        <time>2021-03-20T17:11:37Z</time>
      </trkpt>
      <trkpt lat="55.21047" lon="-3.4139">
        <ele>67.65</ele>
        <time>2021-03-20T17:11:45Z</time>
      </trkpt>
      <trkpt lat="55.21087" lon="-3.41415">
        <ele>67.08</ele>
        <time>2021-03-20T17:11:53Z</time>
      </trkpt>
      <trkpt lat="55.21169" lon="-3.41452">
        <ele>67.53</ele>
        <time>2021-03-20T17:12:00Z</time>
      </trkpt>
      <trkpt lat="55.21246" lon="-3.41474">
        <ele>72.92</ele>
        <time>2021-03-20T17:12:08Z</time>
      </trkpt>
      <trkpt lat="55.21337" lon="-3.41497">
        <ele>78.76</ele>
        <time>2021-03-20T17:12:16Z</time>
      </trkpt>
      <trkpt lat="55.2149" lon="-3.41523">
        <ele>79.88</ele>
        <time>2021-03-20T17:12:23Z</time>
      </trkpt>
      <trkpt lat="55.21745" lon="-3.41588">
        <ele>86.98</ele>
        <time>2021-03-20T17:12:31Z</time>
      </trkpt>
      <trkpt lat="55.21808" lon="-3.41599">
        <ele>87.16</ele>
        <time>2021-03-20T17:12:39Z</time>
      </trkpt>
      <trkpt lat="55.21867" lon="-3.41601">
        <ele>87.83</ele>
        <time>2021-03-20T17:12:47Z</time>
      </trkpt>
      <trkpt lat="55.21931" lon="-3.41599">
        <ele>88.57</ele>
        <time>2021-03-20T17:12:54Z</time>
      </trkpt>
      <trkpt lat="55.22268" lon="-3.41558">
        <ele>93.32</ele>
        <time>2021-03-20T17:13:02Z</time>
      </trkpt>
      <trkpt lat="55.22437" lon="-3.41544">
        <ele>90</ele>
        <time>2021-03-20T17:13:10Z</time>
      </trkpt>
      <trkpt lat="55.22542" lon="-3.41529">
        <ele>91.08</ele>
        <time>2021-03-20T17:13:18Z</time>
      </trkpt>
      <trkpt lat="55.22676" lon="-3.41498">
        <ele>87.21</ele>
        <time>2021-03-20T17:13:25Z</time>
      </trkpt>
      <trkpt lat="55.22707" lon="-3.41485">
        <ele>86.92</ele>
        <time>2021-03-20T17:13:33Z</time>
      </trkpt>
      <trkpt lat="55.2291" lon="-3.41416">
        <ele>88.66</ele>
        <time>2021-03-20T17:13:41Z</time>
      </trkpt>
      <trkpt lat="55.23018" lon="-3.41391">
        <ele>90.18</ele>
        <time>2021-03-20T17:13:48Z</time>
      </trkpt>
      <trkpt lat="55.23345" lon="-3.41322">
        <ele>88.17</ele>
        <time>2021-03-20T17:13:56Z</time>
      </trkpt>
      <trkpt lat="55.23414" lon="-3.41303">
        <ele>87.91</ele>
        <time>2021-03-20T17:14:04Z</time>
      </trkpt>
      <trkpt lat="55.23518" lon="-3.41259">
        <ele>86.33</ele>
        <time>2021-03-20T17:14:12Z</time>
      </trkpt>
      <trkpt lat="55.23618" lon="-3.4121">
        <ele>86</ele>
        <time>2021-03-20T17:14:19Z</time>
      </trkpt>
      <trkpt lat="55.2367" lon="-3.41179">
        <ele>88.44</ele>
        <time>2021-03-20T17:14:27Z</time>
      </trkpt>
      <trkpt lat="55.23829" lon="-3.41107">
        <ele>88.69</ele>
        <time>2021-03-20T17:14:35Z</time>
      </trkpt>
      <trkpt lat="55.23901" lon="-3.4108">
        <ele>90.77</ele>
        <time>2021-03-20T17:14:43Z</time>
      </trkpt>
      <trkpt lat="55.24093" lon="-3.41038">
        <ele>90.75</ele>
        <time>2021-03-20T17:14:50Z</time>
      </trkpt>
      <trkpt lat="55.24293" lon="-3.41014">
        <ele>93.27</ele>
        <time>2021-03-20T17:14:58Z</time>
      </trkpt>
      <trkpt lat="55.24473" lon="-3.41004">
        <ele>93.45</ele>
        <time>2021-03-20T17:15:06Z</time>
      </trkpt>
      <trkpt lat="55.24654" lon="-3.41006">
        <ele>92.14</ele>
        <time>2021-03-20T17:15:14Z</time>
      </trkpt>
      <trkpt lat="55.24877" lon="-3.41038">
        <ele>94.13</ele>
        <time>2021-03-20T17:15:21Z</time>
      </trkpt>
      <trkpt lat="55.25155" lon="-3.41104">
        <ele>93.5</ele>
        <time>2021-03-20T17:15:29Z</time>
      </trkpt>
      <trkpt lat="55.25256" lon="-3.4114">
        <ele>93.85</ele>
        <time>2021-03-20T17:15:37Z</time>
      </trkpt>
      <trkpt lat="55.25365" lon="-3.41189">
        <ele>94.3</ele>
        <time>2021-03-20T17:15:44Z</time>
      </trkpt>
      <trkpt lat="55.25462" lon="-3.4125">
        <ele>96.33</ele>
        <time>2021-03-20T17:15:52Z</time>
      </trkpt>
      <trkpt lat="55.25555" lon="-3.41325">
        <ele>94.74</ele>
        <time>2021-03-20T17:16:00Z</time>
      </trkpt>
      <trkpt lat="55.25735" lon="-3.41494">
        <ele>97.77</ele>
        <time>2021-03-20T17:16:08Z</time>
      </trkpt>
      <trkpt lat="55.25809" lon="-3.41572">
        <ele>96.33</ele>
        <time>2021-03-20T17:16:15Z</time>
      </trkpt>
      <trkpt lat="55.25983" lon="-3.41792">
        <ele>97.02</ele>
        <time>2021-03-20T17:16:23Z</time>
      </trkpt>
      <trkpt lat="55.26069" lon="-3.41854">
        <ele>95.5</ele>
        <time>2021-03-20T17:16:31Z</time>
      </trkpt>
      <trkpt lat="55.2613" lon="-3.41883">
        <ele>96.77</ele>
        <time>2021-03-20T17:16:39Z</time>
      </trkpt>
      <trkpt lat="55.26226" lon="-3.41895">
        <ele>101.03</ele>
        <time>2021-03-20T17:16:46Z</time>
      </trkpt>
      <trkpt lat="55.26491" lon="-3.41872">
        <ele>110.39</ele>
        <time>2021-03-20T17:16:54Z</time>
      </trkpt>
      <trkpt lat="55.26659" lon="-3.41886">
        <ele>115.64</ele>
        <time>2021-03-20T17:17:02Z</time>
      </trkpt>
      <trkpt lat="55.26774" lon="-3.41908">
        <ele>112.52</ele>
        <time>2021-03-20T17:17:09Z</time>
      </trkpt>
      <trkpt lat="55.26939" lon="-3.41979">
        <ele>109.88</ele>
        <time>2021-03-20T17:17:17Z</time>
      </trkpt>
      <trkpt lat="55.27114" lon="-3.42083">
        <ele>107.8</ele>
        <time>2021-03-20T17:17:25Z</time>
      </trkpt>
      <trkpt lat="55.27202" lon="-3.4215">
        <ele>104.84</ele>
        <time>2021-03-20T17:17:33Z</time>
      </trkpt>
      <trkpt lat="55.27389" lon="-3.42312">
        <ele>103</ele>
        <time>2021-03-20T17:17:40Z</time>
      </trkpt>
      <trkpt lat="55.27633" lon="-3.42468">
        <ele>106.86</ele>
        <time>2021-03-20T17:17:48Z</time>
      </trkpt>
      <trkpt lat="55.27753" lon="-3.42555">
        <ele>106.88</ele>
        <time>2021-03-20T17:17:56Z</time>
      </trkpt>
      <trkpt lat="55.28024" lon="-3.42821">
        <ele>108.72</ele>
        <time>2021-03-20T17:18:04Z</time>
      </trkpt>
      <trkpt lat="55.28251" lon="-3.43034">
        <ele>115.2</ele>
        <time>2021-03-20T17:18:11Z</time>
      </trkpt>
      <trkpt lat="55.28428" lon="-3.43214">
        <ele>119.35</ele>
        <time>2021-03-20T17:18:19Z</time>
      </trkpt>
      <trkpt lat="55.28631" lon="-3.43488">
        <ele>112.29</ele>
        <time>2021-03-20T17:18:27Z</time>
      </trkpt>
      <trkpt lat="55.28732" lon="-3.436">
        <ele>111.65</ele>
        <time>2021-03-20T17:18:35Z</time>
      </trkpt>
      <trkpt lat="55.28791" lon="-3.43672">
        <ele>111.17</ele>
        <time>2021-03-20T17:18:42Z</time>
      </trkpt>
      <trkpt lat="55.28906" lon="-3.43819">
        <ele>111</ele>
        <time>2021-03-20T17:18:50Z</time>
      </trkpt>
      <trkpt lat="55.29027" lon="-3.44028">
        <ele>116.11</ele>
        <time>2021-03-20T17:18:58Z</time>
      </trkpt>
      <trkpt lat="55.2913" lon="-3.44197">
        <ele>114.33</ele>
        <time>2021-03-20T17:19:05Z</time>
      </trkpt>
      <trkpt lat="55.29279" lon="-3.44397">
        <ele>110.98</ele>
        <time>2021-03-20T17:19:13Z</time>
      </trkpt>
      <trkpt lat="55.29303" lon="-3.44445">
        <ele>111</ele>
        <time>2021-03-20T17:19:21Z</time>
      </trkpt>
      <trkpt lat="55.29302" lon="-3.44494">
        <ele>110.87</ele>
        <time>2021-03-20T17:19:29Z</time>
      </trkpt>
      <trkpt lat="55.2927" lon="-3.44518">
        <ele>110</ele>
        <time>2021-03-20T17:19:31Z</time>
      </trkpt>
      <trkpt lat="55.29236" lon="-3.44553">
        <ele>110.49</ele>
        <time>2021-03-20T17:19:33Z</time>
      </trkpt>
      <trkpt lat="55.29172" lon="-3.44631">
        <ele>110.28</ele>
        <time>2021-03-20T17:19:36Z</time>
      </trkpt>
      <trkpt lat="55.29139" lon="-3.44665">
        <ele>111</ele>
        <time>2021-03-20T17:19:38Z</time>
      </trkpt>
      <trkpt lat="55.29089" lon="-3.44706">
        <ele>112</ele>
        <time>2021-03-20T17:19:41Z</time>
      </trkpt>
      <trkpt lat="55.29055" lon="-3.44723">
        <ele>113.05</ele>
        <time>2021-03-20T17:19:43Z</time>
      </trkpt>
      <trkpt lat="55.29019" lon="-3.44734">
        <ele>115.61</ele>
        <time>2021-03-20T17:19:45Z</time>
      </trkpt>
      <trkpt lat="55.28983" lon="-3.44738">
        <ele>119.23</ele>
        <time>2021-03-20T17:19:48Z</time>
      </trkpt>
      <trkpt lat="55.28987" lon="-3.44777">
        <ele>123.34</ele>
        <time>2021-03-20T17:19:53Z</time>
      </trkpt>
      <trkpt lat="55.29001" lon="-3.4479">
        <ele>123.11</ele>
        <time>2021-03-20T17:19:58Z</time>
      </trkpt>
      <trkpt lat="55.29054" lon="-3.44819">
        <ele>118.19</ele>
        <time>2021-03-20T17:20:03Z</time>
      </trkpt>
      <trkpt lat="55.29155" lon="-3.44868">
        <ele>115.33</ele>
        <time>2021-03-20T17:20:08Z</time>
      </trkpt>
      <trkpt lat="55.29254" lon="-3.44922">
        <ele>111.22</ele>
        <time>2021-03-20T17:20:13Z</time>
      </trkpt>
      <trkpt lat="55.2928" lon="-3.44932">
        <ele>112.13</ele>
        <time>2021-03-20T17:20:18Z</time>
      </trkpt>
      <trkpt lat="55.29436" lon="-3.44957">
        <ele>105.74</ele>
        <time>2021-03-20T17:20:23Z</time>
      </trkpt>
      <trkpt lat="55.29529" lon="-3.44979">
        <ele>103.96</ele>
        <time>2021-03-20T17:20:28Z</time>
      </trkpt>
      <trkpt lat="55.29676" lon="-3.45024">
        <ele>103.79</ele>
        <time>2021-03-20T17:20:33Z</time>
      </trkpt>
      <trkpt lat="55.29812" lon="-3.45053">
        <ele>109.86</ele>
        <time>2021-03-20T17:20:38Z</time>
      </trkpt>
      <trkpt lat="55.30004" lon="-3.45104">
        <ele>105.38</ele>
        <time>2021-03-20T17:20:43Z</time>
      </trkpt>
      <trkpt lat="55.30194" lon="-3.45163">
        <ele>107.03</ele>
        <time>2021-03-20T17:20:48Z</time>
      </trkpt>
      <trkpt lat="55.30255" lon="-3.45207">
        <ele>106.36</ele>
        <time>2021-03-20T17:20:53Z</time>
      </trkpt>
      <trkpt lat="55.30291" lon="-3.45232">
        <ele>106.35</ele>
        <time>2021-03-20T17:20:58Z</time>
      </trkpt>
      <trkpt lat="55.30308" lon="-3.45247">
        <ele>106.89</ele>
        <time>2021-03-20T17:21:04Z</time>
      </trkpt>
      <trkpt lat="55.30326" lon="-3.45245">
        <ele>106.96</ele>
        <time>2021-03-20T17:21:09Z</time>
      </trkpt>
      <trkpt lat="55.30347" lon="-3.45231">
        <ele>107</ele>
        <time>2021-03-20T17:21:14Z</time>
      </trkpt>
      <trkpt lat="55.30362" lon="-3.45204">
        <ele>107.03</ele>
        <time>2021-03-20T17:21:19Z</time>
      </trkpt>
      <trkpt lat="55.30381" lon="-3.45154">
        <ele>107</ele>
        <time>2021-03-20T17:21:24Z</time>
      </trkpt>
      <trkpt lat="55.30414" lon="-3.45112">
        <ele>106.03</ele>
        <time>2021-03-20T17:21:29Z</time>
      </trkpt>
      <trkpt lat="55.3045" lon="-3.45084">
        <ele>106.19</ele>
        <time>2021-03-20T17:21:34Z</time>
      </trkpt>
      <trkpt lat="55.30492" lon="-3.45076">
        <ele>106.74</ele>
        <time>2021-03-20T17:21:39Z</time>
      </trkpt>
      <trkpt lat="55.30543" lon="-3.45102">
        <ele>108.29</ele>
        <time>2021-03-20T17:21:44Z</time>
      </trkpt>
      <trkpt lat="55.30903" lon="-3.45351">
        <ele>115.83</ele>
        <time>2021-03-20T17:21:49Z</time>
      </trkpt>
      <trkpt lat="55.30977" lon="-3.454">
        <ele>114.44</ele>
        <time>2021-03-20T17:21:54Z</time>
      </trkpt>
      <trkpt lat="55.31048" lon="-3.45422">
        <ele>107.87</ele>
        <time>2021-03-20T17:21:59Z</time>
      </trkpt>
      <trkpt lat="55.31076" lon="-3.45426">
        <ele>107</ele>
        <time>2021-03-20T17:22:04Z</time>
      </trkpt>
      <trkpt lat="55.31092" lon="-3.45421">
        <ele>107.32</ele>
        <time>2021-03-20T17:22:09Z</time>
      </trkpt>
      <trkpt lat="55.31109" lon="-3.45409">
        <ele>107.66</ele>
        <time>2021-03-20T17:22:14Z</time>
      </trkpt>
      <trkpt lat="55.31127" lon="-3.45387">
        <ele>108.11</ele>
        <time>2021-03-20T17:22:19Z</time>
      </trkpt>
      <trkpt lat="55.31135" lon="-3.45381">
        <ele>108.69</ele>
        <time>2021-03-20T17:22:24Z</time>
      </trkpt>
      <trkpt lat="55.31145" lon="-3.45378">
        <ele>109</ele>
        <time>2021-03-20T17:22:29Z</time>
      </trkpt>
      <trkpt lat="55.31157" lon="-3.45386">
        <ele>109</ele>
        <time>2021-03-20T17:22:34Z</time>
      </trkpt>
      <trkpt lat="55.31165" lon="-3.45402">
        <ele>109.44</ele>
        <time>2021-03-20T17:22:39Z</time>
      </trkpt>
      <trkpt lat="55.31167" lon="-3.45411">
        <ele>109.8</ele>
        <time>2021-03-20T17:22:44Z</time>
      </trkpt>
      <trkpt lat="55.31167" lon="-3.45417">
        <ele>110</ele>
        <time>2021-03-20T17:22:50Z</time>
      </trkpt>
      <trkpt lat="55.31161" lon="-3.45442">
        <ele>109.78</ele>
        <time>2021-03-20T17:22:55Z</time>
      </trkpt>
      <trkpt lat="55.31148" lon="-3.45476">
        <ele>108.64</ele>
        <time>2021-03-20T17:23:00Z</time>
      </trkpt>
      <trkpt lat="55.31147" lon="-3.45502">
        <ele>108.56</ele>
        <time>2021-03-20T17:23:05Z</time>
      </trkpt>
      <trkpt lat="55.31176" lon="-3.45558">
        <ele>110.25</ele>
        <time>2021-03-20T17:23:10Z</time>
      </trkpt>
      <trkpt lat="55.31232" lon="-3.4563">
        <ele>110.11</ele>
        <time>2021-03-20T17:23:15Z</time>
      </trkpt>
      <trkpt lat="55.31297" lon="-3.45707">
        <ele>112.7</ele>
        <time>2021-03-20T17:23:20Z</time>
      </trkpt>
      <trkpt lat="55.3137" lon="-3.45799">
        <ele>114.79</ele>
        <time>2021-03-20T17:23:26Z</time>
      </trkpt>
      <trkpt lat="55.31414" lon="-3.45862">
        <ele>117.83</ele>
        <time>2021-03-20T17:23:31Z</time>
      </trkpt>
      <trkpt lat="55.31493" lon="-3.45982">
        <ele>121.49</ele>
        <time>2021-03-20T17:23:36Z</time>
      </trkpt>
      <trkpt lat="55.31591" lon="-3.46149">
        <ele>124.52</ele>
        <time>2021-03-20T17:23:41Z</time>
      </trkpt>
      <trkpt lat="55.31624" lon="-3.46219">
        <ele>124.58</ele>
        <time>2021-03-20T17:23:46Z</time>
      </trkpt>
      <trkpt lat="55.31693" lon="-3.46339">
        <ele>126.08</ele>
        <time>2021-03-20T17:23:51Z</time>
      </trkpt>
      <trkpt lat="55.31766" lon="-3.46451">
        <ele>129.79</ele>
        <time>2021-03-20T17:23:56Z</time>
      </trkpt>
      <trkpt lat="55.31846" lon="-3.46553">
        <ele>128.88</ele>
        <time>2021-03-20T17:24:01Z</time>
      </trkpt>
      <trkpt lat="55.31926" lon="-3.4664">
        <ele>133</ele>
        <time>2021-03-20T17:24:07Z</time>
      </trkpt>
      <trkpt lat="55.31991" lon="-3.467">
        <ele>134.52</ele>
        <time>2021-03-20T17:24:12Z</time>
      </trkpt>
      <trkpt lat="55.32058" lon="-3.46753">
        <ele>136.92</ele>
        <time>2021-03-20T17:24:17Z</time>
      </trkpt>
      <trkpt lat="55.32256" lon="-3.46873">
        <ele>133.84</ele>
        <time>2021-03-20T17:24:22Z</time>
      </trkpt>
      <trkpt lat="55.3234" lon="-3.46929">
        <ele>135.82</ele>
        <time>2021-03-20T17:24:27Z</time>
      </trkpt>
      <trkpt lat="55.32435" lon="-3.47009">
        <ele>136.34</ele>
        <time>2021-03-20T17:24:32Z</time>
      </trkpt>
      <trkpt lat="55.32616" lon="-3.4718">
        <ele>138.6</ele>
        <time>2021-03-20T17:24:37Z</time>
      </trkpt>
      <trkpt lat="55.32699" lon="-3.47284">
        <ele>139.49</ele>
        <time>2021-03-20T17:24:42Z</time>
      </trkpt>
      <trkpt lat="55.32787" lon="-3.47391">
        <ele>144.28</ele>
        <time>2021-03-20T17:24:48Z</time>
      </trkpt>
      <trkpt lat="55.32864" lon="-3.47488">
        <ele>144</ele>
        <time>2021-03-20T17:24:53Z</time>
      </trkpt>
      <trkpt lat="55.33073" lon="-3.47685">
        <ele>141.15</ele>
        <time>2021-03-20T17:24:58Z</time>
      </trkpt>
      <trkpt lat="55.33119" lon="-3.47745">
        <ele>142.28</ele>
        <time>2021-03-20T17:25:03Z</time>
      </trkpt>
      <trkpt lat="55.33155" lon="-3.47799">
        <ele>144.99</ele>
        <time>2021-03-20T17:25:08Z</time>
      </trkpt>
      <trkpt lat="55.33232" lon="-3.47942">
        <ele>142.37</ele>
        <time>2021-03-20T17:25:13Z</time>
      </trkpt>
      <trkpt lat="55.33267" lon="-3.48004">
        <ele>144.16</ele>
        <time>2021-03-20T17:25:18Z</time>
      </trkpt>
      <trkpt lat="55.33371" lon="-3.48145">
        <ele>145.64</ele>
        <time>2021-03-20T17:25:24Z</time>
      </trkpt>
      <trkpt lat="55.33546" lon="-3.4834">
        <ele>150.23</ele>
        <time>2021-03-20T17:25:29Z</time>
      </trkpt>
      <trkpt lat="55.33623" lon="-3.48429">
        <ele>151.73</ele>
        <time>2021-03-20T17:25:34Z</time>
      </trkpt>
      <trkpt lat="55.33723" lon="-3.48564">
        <ele>152.26</ele>
        <time>2021-03-20T17:25:39Z</time>
      </trkpt>
      <trkpt lat="55.33808" lon="-3.48691">
        <ele>151.78</ele>
        <time>2021-03-20T17:25:44Z</time>
      </trkpt>
      <trkpt lat="55.33897" lon="-3.48869">
        <ele>153.9</ele>
        <time>2021-03-20T17:25:49Z</time>
      </trkpt>
      <trkpt lat="55.34002" lon="-3.49133">
        <ele>158.71</ele>
        <time>2021-03-20T17:25:54Z</time>
      </trkpt>
      <trkpt lat="55.34101" lon="-3.49426">
        <ele>159.99</ele>
        <time>2021-03-20T17:25:59Z</time>
      </trkpt>
      <trkpt lat="55.34236" lon="-3.4984">
        <ele>163.44</ele>
        <time>2021-03-20T17:26:05Z</time>
      </trkpt>
      <trkpt lat="55.34277" lon="-3.49931">
        <ele>163.15</ele>
        <time>2021-03-20T17:26:10Z</time>
      </trkpt>
      <trkpt lat="55.34397" lon="-3.50136">
        <ele>163.89</ele>
        <time>2021-03-20T17:26:15Z</time>
      </trkpt>
      <trkpt lat="55.34523" lon="-3.50323">
        <ele>166.89</ele>
        <time>2021-03-20T17:26:20Z</time>
      </trkpt>
      <trkpt lat="55.34639" lon="-3.50465">
        <ele>170.45</ele>
        <time>2021-03-20T17:26:25Z</time>
      </trkpt>
      <trkpt lat="55.34734" lon="-3.50561">
        <ele>172.21</ele>
        <time>2021-03-20T17:26:30Z</time>
      </trkpt>
      <trkpt lat="55.3491" lon="-3.50688">
        <ele>174.56</ele>
        <time>2021-03-20T17:26:35Z</time>
      </trkpt>
      <trkpt lat="55.3519" lon="-3.50911">
        <ele>181.57</ele>
        <time>2021-03-20T17:26:41Z</time>
      </trkpt>
      <trkpt lat="55.35289" lon="-3.51007">
        <ele>184.46</ele>
        <time>2021-03-20T17:26:46Z</time>
      </trkpt>
      <trkpt lat="55.35421" lon="-3.5115">
        <ele>184.44</ele>
        <time>2021-03-20T17:26:51Z</time>
      </trkpt>
      <trkpt lat="55.35644" lon="-3.51416">
        <ele>186.59</ele>
        <time>2021-03-20T17:26:56Z</time>
      </trkpt>
      <trkpt lat="55.35706" lon="-3.51477">
        <ele>188.34</ele>
        <time>2021-03-20T17:27:01Z</time>
      </trkpt>
      <trkpt lat="55.35758" lon="-3.51523">
        <ele>191.33</ele>
        <time>2021-03-20T17:27:06Z</time>
      </trkpt>
      <trkpt lat="55.3582" lon="-3.5157">
        <ele>191.76</ele>
        <time>2021-03-20T17:27:11Z</time>
      </trkpt>
      <trkpt lat="55.35875" lon="-3.516">
        <ele>190.58</ele>
        <time>2021-03-20T17:27:16Z</time>
      </trkpt>
      <trkpt lat="55.35979" lon="-3.51643">
        <ele>191.16</ele>
        <time>2021-03-20T17:27:22Z</time>
      </trkpt>
      <trkpt lat="55.36035" lon="-3.51655">
        <ele>191.35</ele>
        <time>2021-03-20T17:27:27Z</time>
      </trkpt>
      <trkpt lat="55.36134" lon="-3.51671">
        <ele>190.12</ele>
        <time>2021-03-20T17:27:32Z</time>
      </trkpt>
      <trkpt lat="55.36189" lon="-3.51675">
        <ele>190.29</ele>
        <time>2021-03-20T17:27:37Z</time>
      </trkpt>
      <trkpt lat="55.36352" lon="-3.51664">
        <ele>191.9</ele>
        <time>2021-03-20T17:27:42Z</time>
      </trkpt>
      <trkpt lat="55.3656" lon="-3.51603">
        <ele>196.6</ele>
        <time>2021-03-20T17:27:47Z</time>
      </trkpt>
      <trkpt lat="55.36691" lon="-3.51553">
        <ele>196.78</ele>
        <time>2021-03-20T17:27:52Z</time>
      </trkpt>
      <trkpt lat="55.36886" lon="-3.51495">
        <ele>207.41</ele>
        <time>2021-03-20T17:27:58Z</time>
      </trkpt>
      <trkpt lat="55.37023" lon="-3.51473">
        <ele>209.86</ele>
        <time>2021-03-20T17:28:03Z</time>
      </trkpt>
      <trkpt lat="55.37079" lon="-3.5147">
        <ele>209.65</ele>
        <time>2021-03-20T17:28:08Z</time>
      </trkpt>
      <trkpt lat="55.37136" lon="-3.51478">
        <ele>210.41</ele>
        <time>2021-03-20T17:28:13Z</time>
      </trkpt>
      <trkpt lat="55.37269" lon="-3.51533">
        <ele>208.8</ele>
        <time>2021-03-20T17:28:18Z</time>
      </trkpt>
      <trkpt lat="55.37373" lon="-3.51607">
        <ele>208.86</ele>
        <time>2021-03-20T17:28:23Z</time>
      </trkpt>
      <trkpt lat="55.37543" lon="-3.51771">
        <ele>207.44</ele>
        <time>2021-03-20T17:28:28Z</time>
      </trkpt>
      <trkpt lat="55.37585" lon="-3.51821">
        <ele>208.54</ele>
        <time>2021-03-20T17:28:33Z</time>
      </trkpt>
      <trkpt lat="55.37935" lon="-3.52173">
        <ele>214.97</ele>
        <time>2021-03-20T17:28:39Z</time>
      </trkpt>
      <trkpt lat="55.38022" lon="-3.52241">
        <ele>218.69</ele>
        <time>2021-03-20T17:28:44Z</time>
      </trkpt>
      <trkpt lat="55.38103" lon="-3.52291">
        <ele>221.2</ele>
        <time>2021-03-20T17:28:49Z</time>
      </trkpt>
      <trkpt lat="55.38184" lon="-3.5233">
        <ele>221.87</ele>
        <time>2021-03-20T17:28:54Z</time>
      </trkpt>
      <trkpt lat="55.38439" lon="-3.52377">
        <ele>219.32</ele>
        <time>2021-03-20T17:28:59Z</time>
      </trkpt>
      <trkpt lat="55.38643" lon="-3.52406">
        <ele>224.31</ele>
        <time>2021-03-20T17:29:04Z</time>
      </trkpt>
      <trkpt lat="55.38704" lon="-3.52405">
        <ele>224.07</ele>
        <time>2021-03-20T17:29:09Z</time>
      </trkpt>
      <trkpt lat="55.38766" lon="-3.52394">
        <ele>222.79</ele>
        <time>2021-03-20T17:29:14Z</time>
      </trkpt>
      <trkpt lat="55.38847" lon="-3.52369">
        <ele>223.25</ele>
        <time>2021-03-20T17:29:20Z</time>
      </trkpt>
      <trkpt lat="55.38893" lon="-3.52357">
        <ele>224.57</ele>
        <time>2021-03-20T17:29:25Z</time>
      </trkpt>
      <trkpt lat="55.38938" lon="-3.52352">
        <ele>224.98</ele>
        <time>2021-03-20T17:29:30Z</time>
      </trkpt>
      <trkpt lat="55.38991" lon="-3.52356">
        <ele>225.63</ele>
        <time>2021-03-20T17:29:35Z</time>
      </trkpt>
      <trkpt lat="55.39047" lon="-3.52373">
        <ele>226.44</ele>
        <time>2021-03-20T17:29:40Z</time>
      </trkpt>
      <trkpt lat="55.39072" lon="-3.52385">
        <ele>226.35</ele>
        <time>2021-03-20T17:29:45Z</time>
      </trkpt>
      <trkpt lat="55.39114" lon="-3.5241">
        <ele>225.79</ele>
        <time>2021-03-20T17:29:50Z</time>
      </trkpt>
      <trkpt lat="55.39145" lon="-3.52432">
        <ele>226.44</ele>
        <time>2021-03-20T17:29:56Z</time>
      </trkpt>
      <trkpt lat="55.39207" lon="-3.52481">
        <ele>227.82</ele>
        <time>2021-03-20T17:30:01Z</time>
      </trkpt>
      <trkpt lat="55.39319" lon="-3.52582">
        <ele>231.54</ele>
        <time>2021-03-20T17:30:06Z</time>
      </trkpt>
      <trkpt lat="55.39421" lon="-3.52684">
        <ele>234.58</ele>
        <time>2021-03-20T17:30:11Z</time>
      </trkpt>
      <trkpt lat="55.39462" lon="-3.52731">
        <ele>235.15</ele>
        <time>2021-03-20T17:30:16Z</time>
      </trkpt>
      <trkpt lat="55.39494" lon="-3.52773">
        <ele>235.26</ele>
        <time>2021-03-20T17:30:21Z</time>
      </trkpt>
      <trkpt lat="55.39537" lon="-3.52841">
        <ele>234.39</ele>
        <time>2021-03-20T17:30:26Z</time>
      </trkpt>
      <trkpt lat="55.39568" lon="-3.52899">
        <ele>235.75</ele>
        <time>2021-03-20T17:30:31Z</time>
      </trkpt>
      <trkpt lat="55.39593" lon="-3.52951">
        <ele>236.6</ele>
        <time>2021-03-20T17:30:37Z</time>
      </trkpt>
      <trkpt lat="55.3962" lon="-3.53016">
        <ele>238.51</ele>
        <time>2021-03-20T17:30:42Z</time>
      </trkpt>
      <trkpt lat="55.39654" lon="-3.53121">
        <ele>238.71</ele>
        <time>2021-03-20T17:30:47Z</time>
      </trkpt>
      <trkpt lat="55.3967" lon="-3.53181">
        <ele>239.13</ele>
        <time>2021-03-20T17:30:52Z</time>
      </trkpt>
      <trkpt lat="55.39689" lon="-3.53267">
        <ele>240.61</ele>
        <time>2021-03-20T17:30:57Z</time>
      </trkpt>
      <trkpt lat="55.39699" lon="-3.53321">
        <ele>242.75</ele>
        <time>2021-03-20T17:31:02Z</time>
      </trkpt>
      <trkpt lat="55.39706" lon="-3.5338">
        <ele>245.14</ele>
        <time>2021-03-20T17:31:07Z</time>
      </trkpt>
      <trkpt lat="55.39711" lon="-3.53435">
        <ele>246.42</ele>
        <time>2021-03-20T17:31:13Z</time>
      </trkpt>
      <trkpt lat="55.39713" lon="-3.53477">
        <ele>247.85</ele>
        <time>2021-03-20T17:31:18Z</time>
      </trkpt>
      <trkpt lat="55.39713" lon="-3.53521">
        <ele>248.39</ele>
        <time>2021-03-20T17:31:23Z</time>
      </trkpt>
      <trkpt lat="55.39711" lon="-3.53567">
        <ele>248.39</ele>
        <time>2021-03-20T17:31:28Z</time>
      </trkpt>
      <trkpt lat="55.39704" lon="-3.5363">
        <ele>249.24</ele>
        <time>2021-03-20T17:31:33Z</time>
      </trkpt>
      <trkpt lat="55.39699" lon="-3.53665">
        <ele>248.72</ele>
        <time>2021-03-20T17:31:38Z</time>
      </trkpt>
      <trkpt lat="55.39664" lon="-3.53845">
        <ele>248.77</ele>
        <time>2021-03-20T17:31:43Z</time>
      </trkpt>
      <trkpt lat="55.39653" lon="-3.53913">
        <ele>249.74</ele>
        <time>2021-03-20T17:31:48Z</time>
      </trkpt>
      <trkpt lat="55.39643" lon="-3.53998">
        <ele>252.36</ele>
        <time>2021-03-20T17:31:54Z</time>
      </trkpt>
      <trkpt lat="55.3964" lon="-3.54106">
        <ele>252.85</ele>
        <time>2021-03-20T17:31:59Z</time>
      </trkpt>
      <trkpt lat="55.39643" lon="-3.54182">
        <ele>255.06</ele>
        <time>2021-03-20T17:32:04Z</time>
      </trkpt>
      <trkpt lat="55.3965" lon="-3.54255">
        <ele>256.36</ele>
        <time>2021-03-20T17:32:09Z</time>
      </trkpt>
      <trkpt lat="55.39664" lon="-3.54352">
        <ele>255.31</ele>
        <time>2021-03-20T17:32:14Z</time>
      </trkpt>
      <trkpt lat="55.397" lon="-3.54533">
        <ele>257.74</ele>
        <time>2021-03-20T17:32:19Z</time>
      </trkpt>
      <trkpt lat="55.39758" lon="-3.54761">
        <ele>260.55</ele>
        <time>2021-03-20T17:32:24Z</time>
      </trkpt>
      <trkpt lat="55.39818" lon="-3.5494">
        <ele>262.93</ele>
        <time>2021-03-20T17:32:29Z</time>
      </trkpt>
      <trkpt lat="55.39892" lon="-3.55095">
        <ele>258.03</ele>
        <time>2021-03-20T17:32:35Z</time>
      </trkpt>
      <trkpt lat="55.3998" lon="-3.5526">
        <ele>260</ele>
        <time>2021-03-20T17:32:40Z</time>
      </trkpt>
      <trkpt lat="55.40079" lon="-3.55414">
        <ele>262.8</ele>
        <time>2021-03-20T17:32:45Z</time>
      </trkpt>
      <trkpt lat="55.40162" lon="-3.5552">
        <ele>263.44</ele>
        <time>2021-03-20T17:32:50Z</time>
      </trkpt>
      <trkpt lat="55.40314" lon="-3.55693">
        <ele>270.23</ele>
        <time>2021-03-20T17:32:55Z</time>
      </trkpt>
      <trkpt lat="55.40504" lon="-3.55914">
        <ele>281.51</ele>
        <time>2021-03-20T17:33:00Z</time>
      </trkpt>
      <trkpt lat="55.40584" lon="-3.56056">
        <ele>286.8</ele>
        <time>2021-03-20T17:33:05Z</time>
      </trkpt>
      <trkpt lat="55.40624" lon="-3.56129">
        <ele>289.31</ele>
        <time>2021-03-20T17:33:11Z</time>
      </trkpt>
      <trkpt lat="55.40682" lon="-3.5626">
        <ele>295.22</ele>
        <time>2021-03-20T17:33:16Z</time>
      </trkpt>
      <trkpt lat="55.40733" lon="-3.56386">
        <ele>295.45</ele>
        <time>2021-03-20T17:33:21Z</time>
      </trkpt>
      <trkpt lat="55.40786" lon="-3.56534">
        <ele>297.19</ele>
        <time>2021-03-20T17:33:26Z</time>
      </trkpt>
      <trkpt lat="55.40858" lon="-3.56771">
        <ele>295.68</ele>
        <time>2021-03-20T17:33:31Z</time>
      </trkpt>
      <trkpt lat="55.40886" lon="-3.56887">
        <ele>293.5</ele>
        <time>2021-03-20T17:33:36Z</time>
      </trkpt>
      <trkpt lat="55.40901" lon="-3.56958">
        <ele>294.92</ele>
        <time>2021-03-20T17:33:41Z</time>
      </trkpt>
      <trkpt lat="55.40912" lon="-3.57024">
        <ele>295.48</ele>
        <time>2021-03-20T17:33:46Z</time>
      </trkpt>
      <trkpt lat="55.40919" lon="-3.57073">
        <ele>295.09</ele>
        <time>2021-03-20T17:33:52Z</time>
      </trkpt>
      <trkpt lat="55.40938" lon="-3.57269">
        <ele>297.77</ele>
        <time>2021-03-20T17:33:57Z</time>
      </trkpt>
      <trkpt lat="55.40955" lon="-3.575">
        <ele>300.78</ele>
        <time>2021-03-20T17:34:02Z</time>
      </trkpt>
      <trkpt lat="55.40966" lon="-3.57579">
        <ele>300.92</ele>
        <time>2021-03-20T17:34:07Z</time>
      </trkpt>
      <trkpt lat="55.40982" lon="-3.57655">
        <ele>301.5</ele>
        <time>2021-03-20T17:34:12Z</time>
      </trkpt>
      <trkpt lat="55.41004" lon="-3.57737">
        <ele>302.14</ele>
        <time>2021-03-20T17:34:17Z</time>
      </trkpt>
      <trkpt lat="55.41033" lon="-3.57824">
        <ele>302.19</ele>
        <time>2021-03-20T17:34:22Z</time>
      </trkpt>
      <trkpt lat="55.4107" lon="-3.57912">
        <ele>302</ele>
        <time>2021-03-20T17:34:28Z</time>
      </trkpt>
      <trkpt lat="55.41108" lon="-3.57986">
        <ele>303</ele>
        <time>2021-03-20T17:34:33Z</time>
      </trkpt>
      <trkpt lat="55.41144" lon="-3.58039">
        <ele>304.18</ele>
        <time>2021-03-20T17:34:38Z</time>
      </trkpt>
      <trkpt lat="55.4118" lon="-3.58087">
        <ele>305</ele>
        <time>2021-03-20T17:34:43Z</time>
      </trkpt>
      <trkpt lat="55.4122" lon="-3.58133">
        <ele>305.98</ele>
        <time>2021-03-20T17:34:48Z</time>
      </trkpt>
      <trkpt lat="55.41283" lon="-3.58197">
        <ele>305.19</ele>
        <time>2021-03-20T17:34:53Z</time>
      </trkpt>
      <trkpt lat="55.41479" lon="-3.58386">
        <ele>308.89</ele>
        <time>2021-03-20T17:34:58Z</time>
      </trkpt>
      <trkpt lat="55.41622" lon="-3.58515">
        <ele>310.83</ele>
        <time>2021-03-20T17:35:03Z</time>
      </trkpt>
      <trkpt lat="55.41715" lon="-3.58609">
        <ele>311.51</ele>
        <time>2021-03-20T17:35:09Z</time>
      </trkpt>
      <trkpt lat="55.41835" lon="-3.58721">
        <ele>313.78</ele>
        <time>2021-03-20T17:35:14Z</time>
      </trkpt>
      <trkpt lat="55.41948" lon="-3.58839">
        <ele>313.37</ele>
        <time>2021-03-20T17:35:19Z</time>
      </trkpt>
      <trkpt lat="55.42044" lon="-3.58948">
        <ele>317.35</ele>
        <time>2021-03-20T17:35:24Z</time>
      </trkpt>
      <trkpt lat="55.42123" lon="-3.59059">
        <ele>315.22</ele>
        <time>2021-03-20T17:35:29Z</time>
      </trkpt>
      <trkpt lat="55.42174" lon="-3.59147">
        <ele>316.55</ele>
        <time>2021-03-20T17:35:34Z</time>
      </trkpt>
      <trkpt lat="55.42217" lon="-3.59228">
        <ele>316.03</ele>
        <time>2021-03-20T17:35:39Z</time>
      </trkpt>
      <trkpt lat="55.42252" lon="-3.59306">
        <ele>315</ele>
        <time>2021-03-20T17:35:45Z</time>
      </trkpt>
      <trkpt lat="55.42292" lon="-3.59405">
        <ele>314.31</ele>
        <time>2021-03-20T17:35:50Z</time>
      </trkpt>
      <trkpt lat="55.42345" lon="-3.59569">
        <ele>312.33</ele>
        <time>2021-03-20T17:35:55Z</time>
      </trkpt>
      <trkpt lat="55.42382" lon="-3.59727">
        <ele>311.03</ele>
        <time>2021-03-20T17:36:00Z</time>
      </trkpt>
      <trkpt lat="55.42414" lon="-3.59871">
        <ele>307.4</ele>
        <time>2021-03-20T17:36:05Z</time>
      </trkpt>
      <trkpt lat="55.42559" lon="-3.60581">
        <ele>301</ele>
        <time>2021-03-20T17:36:10Z</time>
      </trkpt>
      <trkpt lat="55.42579" lon="-3.6069">
        <ele>301.14</ele>
        <time>2021-03-20T17:36:15Z</time>
      </trkpt>
      <trkpt lat="55.42616" lon="-3.60836">
        <ele>301.02</ele>
        <time>2021-03-20T17:36:20Z</time>
      </trkpt>
      <trkpt lat="55.4265" lon="-3.60948">
        <ele>302.68</ele>
        <time>2021-03-20T17:36:26Z</time>
      </trkpt>
      <trkpt lat="55.42663" lon="-3.60979">
        <ele>302.51</ele>
        <time>2021-03-20T17:36:31Z</time>
      </trkpt>
      <trkpt lat="55.42712" lon="-3.61143">
        <ele>301.85</ele>
        <time>2021-03-20T17:36:36Z</time>
      </trkpt>
      <trkpt lat="55.42734" lon="-3.61243">
        <ele>300.41</ele>
        <time>2021-03-20T17:36:41Z</time>
      </trkpt>
      <trkpt lat="55.42742" lon="-3.61351">
        <ele>297.08</ele>
        <time>2021-03-20T17:36:46Z</time>
      </trkpt>
      <trkpt lat="55.42744" lon="-3.61481">
        <ele>295</ele>
        <time>2021-03-20T17:36:51Z</time>
      </trkpt>
      <trkpt lat="55.42752" lon="-3.61586">
        <ele>295</ele>
        <time>2021-03-20T17:36:56Z</time>
      </trkpt>
      <trkpt lat="55.4277" lon="-3.61678">
        <ele>295.29</ele>
        <time>2021-03-20T17:37:01Z</time>
      </trkpt>
      <trkpt lat="55.42808" lon="-3.61786">
        <ele>294.82</ele>
        <time>2021-03-20T17:37:07Z</time>
      </trkpt>
      <trkpt lat="55.42838" lon="-3.61836">
        <ele>294.93</ele>
        <time>2021-03-20T17:37:12Z</time>
      </trkpt>
      <trkpt lat="55.42904" lon="-3.61927">
        <ele>295.55</ele>
        <time>2021-03-20T17:37:17Z</time>
      </trkpt>
      <trkpt lat="55.42941" lon="-3.61986">
        <ele>296.73</ele>
        <time>2021-03-20T17:37:22Z</time>
      </trkpt>
      <trkpt lat="55.42975" lon="-3.62071">
        <ele>298.58</ele>
        <time>2021-03-20T17:37:27Z</time>
      </trkpt>
      <trkpt lat="55.42986" lon="-3.6212">
        <ele>298.68</ele>
        <time>2021-03-20T17:37:32Z</time>
      </trkpt>
      <trkpt lat="55.4299" lon="-3.6216">
        <ele>298.28</ele>
        <time>2021-03-20T17:37:37Z</time>
      </trkpt>
      <trkpt lat="55.42993" lon="-3.62278">
        <ele>296.73</ele>
        <time>2021-03-20T17:37:43Z</time>
      </trkpt>
      <trkpt lat="55.42965" lon="-3.62523">
        <ele>292.12</ele>
        <time>2021-03-20T17:37:48Z</time>
      </trkpt>
      <trkpt lat="55.4296" lon="-3.62615">
        <ele>290.35</ele>
        <time>2021-03-20T17:37:53Z</time>
      </trkpt>
      <trkpt lat="55.42961" lon="-3.62793">
        <ele>286.86</ele>
        <time>2021-03-20T17:37:58Z</time>
      </trkpt>
      <trkpt lat="55.42967" lon="-3.62902">
        <ele>287.98</ele>
        <time>2021-03-20T17:38:03Z</time>
      </trkpt>
      <trkpt lat="55.42985" lon="-3.63051">
        <ele>287.06</ele>
        <time>2021-03-20T17:38:08Z</time>
      </trkpt>
      <trkpt lat="55.43003" lon="-3.63183">
        <ele>285.92</ele>
        <time>2021-03-20T17:38:13Z</time>
      </trkpt>
      <trkpt lat="55.43099" lon="-3.63671">
        <ele>281.51</ele>
        <time>2021-03-20T17:38:18Z</time>
      </trkpt>
      <trkpt lat="55.43124" lon="-3.63786">
        <ele>280.6</ele>
        <time>2021-03-20T17:38:24Z</time>
      </trkpt>
      <trkpt lat="55.43154" lon="-3.639">
        <ele>280</ele>
        <time>2021-03-20T17:38:29Z</time>
      </trkpt>
      <trkpt lat="55.43192" lon="-3.64014">
        <ele>282.01</ele>
        <time>2021-03-20T17:38:34Z</time>
      </trkpt>
      <trkpt lat="55.43224" lon="-3.64097">
        <ele>286.56</ele>
        <time>2021-03-20T17:38:39Z</time>
      </trkpt>
      <trkpt lat="55.43273" lon="-3.6419">
        <ele>284.99</ele>
        <time>2021-03-20T17:38:44Z</time>
      </trkpt>
      <trkpt lat="55.43325" lon="-3.6427">
        <ele>279.44</ele>
        <time>2021-03-20T17:38:49Z</time>
      </trkpt>
      <trkpt lat="55.43362" lon="-3.64314">
        <ele>281.77</ele>
        <time>2021-03-20T17:38:54Z</time>
      </trkpt>
      <trkpt lat="55.43407" lon="-3.64355">
        <ele>280.55</ele>
        <time>2021-03-20T17:39:00Z</time>
      </trkpt>
      <trkpt lat="55.43536" lon="-3.64445">
        <ele>278.46</ele>
        <time>2021-03-20T17:39:05Z</time>
      </trkpt>
      <trkpt lat="55.4367" lon="-3.64558">
        <ele>278.92</ele>
        <time>2021-03-20T17:39:10Z</time>
      </trkpt>
      <trkpt lat="55.4376" lon="-3.64647">
        <ele>276.81</ele>
        <time>2021-03-20T17:39:15Z</time>
      </trkpt>
      <trkpt lat="55.43853" lon="-3.64757">
        <ele>275.83</ele>
        <time>2021-03-20T17:39:20Z</time>
      </trkpt>
      <trkpt lat="55.43947" lon="-3.64881">
        <ele>278</ele>
        <time>2021-03-20T17:39:25Z</time>
      </trkpt>
      <trkpt lat="55.44042" lon="-3.64996">
        <ele>279.2</ele>
        <time>2021-03-20T17:39:30Z</time>
      </trkpt>
      <trkpt lat="55.44115" lon="-3.65061">
        <ele>282.97</ele>
        <time>2021-03-20T17:39:35Z</time>
      </trkpt>
      <trkpt lat="55.44185" lon="-3.65096">
        <ele>286.58</ele>
        <time>2021-03-20T17:39:41Z</time>
      </trkpt>
      <trkpt lat="55.44241" lon="-3.65113">
        <ele>284.85</ele>
        <time>2021-03-20T17:39:46Z</time>
      </trkpt>
      <trkpt lat="55.44307" lon="-3.65114">
        <ele>286.83</ele>
        <time>2021-03-20T17:39:51Z</time>
      </trkpt>
      <trkpt lat="55.44401" lon="-3.65095">
        <ele>286.03</ele>
        <time>2021-03-20T17:39:56Z</time>
      </trkpt>
      <trkpt lat="55.44412" lon="-3.65097">
        <ele>284.9</ele>
        <time>2021-03-20T17:40:01Z</time>
      </trkpt>
      <trkpt lat="55.44418" lon="-3.65104">
        <ele>283.18</ele>
        <time>2021-03-20T17:40:06Z</time>
      </trkpt>
      <trkpt lat="55.44422" lon="-3.65119">
        <ele>281.52</ele>
        <time>2021-03-20T17:40:09Z</time>
      </trkpt>
      <trkpt lat="55.44426" lon="-3.65126">
        <ele>281.11</ele>
        <time>2021-03-20T17:40:12Z</time>
      </trkpt>
      <trkpt lat="55.44432" lon="-3.6513">
        <ele>280.78</ele>
        <time>2021-03-20T17:40:15Z</time>
      </trkpt>
      <trkpt lat="55.44437" lon="-3.65131">
        <ele>280.55</ele>
        <time>2021-03-20T17:40:18Z</time>
      </trkpt>
      <trkpt lat="55.44443" lon="-3.65128">
        <ele>280.45</ele>
        <time>2021-03-20T17:40:22Z</time>
      </trkpt>
      <trkpt lat="55.44448" lon="-3.65122">
        <ele>280.23</ele>
        <time>2021-03-20T17:40:25Z</time>
      </trkpt>
      <trkpt lat="55.44452" lon="-3.65113">
        <ele>280.17</ele>
        <time>2021-03-20T17:40:28Z</time>
      </trkpt>
      <trkpt lat="55.44453" lon="-3.65103">
        <ele>281.48</ele>
        <time>2021-03-20T17:40:31Z</time>
      </trkpt>
      <trkpt lat="55.44453" lon="-3.65092">
        <ele>283.34</ele>
        <time>2021-03-20T17:40:34Z</time>
      </trkpt>
      <trkpt lat="55.44458" lon="-3.65076">
        <ele>285.16</ele>
        <time>2021-03-20T17:40:37Z</time>
      </trkpt>
      <trkpt lat="55.44466" lon="-3.65063">
        <ele>285.89</ele>
        <time>2021-03-20T17:40:40Z</time>
      </trkpt>
      <trkpt lat="55.44513" lon="-3.65042">
        <ele>283.27</ele>
        <time>2021-03-20T17:40:43Z</time>
      </trkpt>
      <trkpt lat="55.44594" lon="-3.65023">
        <ele>279.85</ele>
        <time>2021-03-20T17:40:46Z</time>
      </trkpt>
      <trkpt lat="55.44654" lon="-3.65023">
        <ele>272.52</ele>
        <time>2021-03-20T17:40:49Z</time>
      </trkpt>
      <trkpt lat="55.44737" lon="-3.65036">
        <ele>267.78</ele>
        <time>2021-03-20T17:40:52Z</time>
      </trkpt>
      <trkpt lat="55.44765" lon="-3.65047">
        <ele>266.06</ele>
        <time>2021-03-20T17:40:55Z</time>
      </trkpt>
      <trkpt lat="55.44802" lon="-3.6505">
        <ele>267.7</ele>
        <time>2021-03-20T17:40:58Z</time>
      </trkpt>
      <trkpt lat="55.44843" lon="-3.65038">
        <ele>267.57</ele>
        <time>2021-03-20T17:41:01Z</time>
      </trkpt>
      <trkpt lat="55.44878" lon="-3.65018">
        <ele>268.27</ele>
        <time>2021-03-20T17:41:04Z</time>
      </trkpt>
      <trkpt lat="55.44923" lon="-3.64978">
        <ele>268.21</ele>
        <time>2021-03-20T17:41:07Z</time>
      </trkpt>
      <trkpt lat="55.44971" lon="-3.64916">
        <ele>265.97</ele>
        <time>2021-03-20T17:41:10Z</time>
      </trkpt>
      <trkpt lat="55.45008" lon="-3.64878">
        <ele>266.59</ele>
        <time>2021-03-20T17:41:13Z</time>
      </trkpt>
      <trkpt lat="55.45051" lon="-3.65029">
        <ele>271</ele>
        <time>2021-03-20T17:41:15Z</time>
      </trkpt>
      <trkpt lat="55.45062" lon="-3.6507">
        <ele>271.21</ele>
        <time>2021-03-20T17:41:18Z</time>
      </trkpt>
      <trkpt lat="55.45068" lon="-3.65114">
        <ele>271.52</ele>
        <time>2021-03-20T17:41:20Z</time>
      </trkpt>
      <trkpt lat="55.45065" lon="-3.65146">
        <ele>272.33</ele>
        <time>2021-03-20T17:41:23Z</time>
      </trkpt>
      <trkpt lat="55.45057" lon="-3.65172">
        <ele>272.24</ele>
        <time>2021-03-20T17:41:26Z</time>
      </trkpt>
      <trkpt lat="55.45045" lon="-3.65193">
        <ele>272.57</ele>
        <time>2021-03-20T17:41:28Z</time>
      </trkpt>
      <trkpt lat="55.45036" lon="-3.65198">
        <ele>272.29</ele>
        <time>2021-03-20T17:41:31Z</time>
      </trkpt>
      <trkpt lat="55.45029" lon="-3.65199">
        <ele>272.03</ele>
        <time>2021-03-20T17:41:33Z</time>
      </trkpt>
      <trkpt lat="55.45022" lon="-3.65196">
        <ele>272</ele>
        <time>2021-03-20T17:41:36Z</time>
      </trkpt>
      <trkpt lat="55.45015" lon="-3.65192">
        <ele>271.91</ele>
        <time>2021-03-20T17:41:40Z</time>
      </trkpt>
      <trkpt lat="55.45008" lon="-3.65195">
        <ele>272</ele>
        <time>2021-03-20T17:41:43Z</time>
      </trkpt>
      <trkpt lat="55.45002" lon="-3.65205">
        <ele>272</ele>
        <time>2021-03-20T17:41:47Z</time>
      </trkpt>
      <trkpt lat="55.44995" lon="-3.65227">
        <ele>272.32</ele>
        <time>2021-03-20T17:41:51Z</time>
      </trkpt>
      <trkpt lat="55.44977" lon="-3.65255">
        <ele>273.35</ele>
        <time>2021-03-20T17:41:55Z</time>
      </trkpt>
      <trkpt lat="55.4494" lon="-3.65278">
        <ele>272.99</ele>
        <time>2021-03-20T17:41:59Z</time>
      </trkpt>
      <trkpt lat="55.44855" lon="-3.65289">
        <ele>272.63</ele>
        <time>2021-03-20T17:42:03Z</time>
      </trkpt>
      <trkpt lat="55.44822" lon="-3.65298">
        <ele>274.15</ele>
        <time>2021-03-20T17:42:07Z</time>
      </trkpt>
      <trkpt lat="55.44791" lon="-3.65319">
        <ele>275.22</ele>
        <time>2021-03-20T17:42:10Z</time>
      </trkpt>
      <trkpt lat="55.4475" lon="-3.65368">
        <ele>274.24</ele>
        <time>2021-03-20T17:42:14Z</time>
      </trkpt>
      <trkpt lat="55.4458" lon="-3.65684">
        <ele>276.49</ele>
        <time>2021-03-20T17:42:18Z</time>
      </trkpt>
      <trkpt lat="55.44562" lon="-3.65723">
        <ele>277.02</ele>
        <time>2021-03-20T17:42:22Z</time>
      </trkpt>
      <trkpt lat="55.44545" lon="-3.65766">
        <ele>278.19</ele>
        <time>2021-03-20T17:42:26Z</time>
      </trkpt>
      <trkpt lat="55.44528" lon="-3.65803">
        <ele>279.81</ele>
        <time>2021-03-20T17:42:30Z</time>
      </trkpt>
      <trkpt lat="55.44504" lon="-3.65836">
        <ele>281.1</ele>
        <time>2021-03-20T17:42:34Z</time>
      </trkpt>
      <trkpt lat="55.44401" lon="-3.65869">
        <ele>279.28</ele>
        <time>2021-03-20T17:42:38Z</time>
      </trkpt>
      <trkpt lat="55.44308" lon="-3.65894">
        <ele>280.27</ele>
        <time>2021-03-20T17:42:41Z</time>
      </trkpt>
      <trkpt lat="55.44046" lon="-3.65949">
        <ele>278.88</ele>
        <time>2021-03-20T17:42:45Z</time>
      </trkpt>
      <trkpt lat="55.43971" lon="-3.6598">
        <ele>279.01</ele>
        <time>2021-03-20T17:42:49Z</time>
      </trkpt>
      <trkpt lat="55.43908" lon="-3.6602">
        <ele>279.05</ele>
        <time>2021-03-20T17:42:53Z</time>
      </trkpt>
      <trkpt lat="55.43901" lon="-3.66069">
        <ele>280.14</ele>
        <time>2021-03-20T17:42:56Z</time>
      </trkpt>
      <trkpt lat="55.43896" lon="-3.6613">
        <ele>281.69</ele>
        <time>2021-03-20T17:43:00Z</time>
      </trkpt>
      <trkpt lat="55.43878" lon="-3.66548">
        <ele>289.62</ele>
        <time>2021-03-20T17:43:03Z</time>
      </trkpt>
      <trkpt lat="55.43872" lon="-3.66774">
        <ele>293.38</ele>
        <time>2021-03-20T17:43:07Z</time>
      </trkpt>
      <trkpt lat="55.43869" lon="-3.67093">
        <ele>298.39</ele>
        <time>2021-03-20T17:43:10Z</time>
      </trkpt>
      <trkpt lat="55.43842" lon="-3.67284">
        <ele>303.4</ele>
        <time>2021-03-20T17:43:14Z</time>
      </trkpt>
      <trkpt lat="55.4383" lon="-3.67392">
        <ele>305.46</ele>
        <time>2021-03-20T17:43:17Z</time>
      </trkpt>
      <trkpt lat="55.43829" lon="-3.67475">
        <ele>305.31</ele>
        <time>2021-03-20T17:43:20Z</time>
      </trkpt>
      <trkpt lat="55.4383" lon="-3.67571">
        <ele>306.27</ele>
        <time>2021-03-20T17:43:24Z</time>
      </trkpt>
      <trkpt lat="55.43837" lon="-3.6764">
        <ele>307.92</ele>
        <time>2021-03-20T17:43:27Z</time>
      </trkpt>
      <trkpt lat="55.4385" lon="-3.67741">
        <ele>309.01</ele>
        <time>2021-03-20T17:43:31Z</time>
      </trkpt>
      <trkpt lat="55.43877" lon="-3.6789">
        <ele>308.36</ele>
        <time>2021-03-20T17:43:34Z</time>
      </trkpt>
      <trkpt lat="55.43902" lon="-3.68005">
        <ele>311.13</ele>
        <time>2021-03-20T17:43:38Z</time>
      </trkpt>
      <trkpt lat="55.43927" lon="-3.68096">
        <ele>310.64</ele>
        <time>2021-03-20T17:43:41Z</time>
      </trkpt>
      <trkpt lat="55.43994" lon="-3.68312">
        <ele>312.11</ele>
        <time>2021-03-20T17:43:44Z</time>
      </trkpt>
      <trkpt lat="55.44007" lon="-3.68387">
        <ele>311.52</ele>
        <time>2021-03-20T17:43:48Z</time>
      </trkpt>
      <trkpt lat="55.44026" lon="-3.68526">
        <ele>312.53</ele>
        <time>2021-03-20T17:43:51Z</time>
      </trkpt>
      <trkpt lat="55.44038" lon="-3.6864">
        <ele>318.04</ele>
        <time>2021-03-20T17:43:55Z</time>
      </trkpt>
      <trkpt lat="55.43999" lon="-3.68815">
        <ele>311.08</ele>
        <time>2021-03-20T17:43:58Z</time>
      </trkpt>
      <trkpt lat="55.43938" lon="-3.6903">
        <ele>310.22</ele>
        <time>2021-03-20T17:44:02Z</time>
      </trkpt>
      <trkpt lat="55.43923" lon="-3.69089">
        <ele>312.67</ele>
        <time>2021-03-20T17:44:05Z</time>
      </trkpt>
      <trkpt lat="55.43896" lon="-3.69204">
        <ele>312.96</ele>
        <time>2021-03-20T17:44:08Z</time>
      </trkpt>
      <trkpt lat="55.43845" lon="-3.69438">
        <ele>313.27</ele>
        <time>2021-03-20T17:44:12Z</time>
      </trkpt>
      <trkpt lat="55.4376" lon="-3.69739">
        <ele>322.65</ele>
        <time>2021-03-20T17:44:15Z</time>
      </trkpt>
      <trkpt lat="55.4373" lon="-3.69826">
        <ele>323.61</ele>
        <time>2021-03-20T17:44:19Z</time>
      </trkpt>
      <trkpt lat="55.43678" lon="-3.69939">
        <ele>327.3</ele>
        <time>2021-03-20T17:44:22Z</time>
      </trkpt>
      <trkpt lat="55.43623" lon="-3.70053">
        <ele>326.43</ele>
        <time>2021-03-20T17:44:26Z</time>
      </trkpt>
      <trkpt lat="55.43603" lon="-3.70123">
        <ele>324.88</ele>
        <time>2021-03-20T17:44:29Z</time>
      </trkpt>
      <trkpt lat="55.43569" lon="-3.7035">
        <ele>324.55</ele>
        <time>2021-03-20T17:44:32Z</time>
      </trkpt>
      <trkpt lat="55.43556" lon="-3.70407">
        <ele>323.64</ele>
        <time>2021-03-20T17:44:36Z</time>
      </trkpt>
      <trkpt lat="55.43537" lon="-3.7044">
        <ele>322.14</ele>
        <time>2021-03-20T17:44:39Z</time>
      </trkpt>
      <trkpt lat="55.43484" lon="-3.70509">
        <ele>319.72</ele>
        <time>2021-03-20T17:44:43Z</time>
      </trkpt>
      <trkpt lat="55.43425" lon="-3.70624">
        <ele>320.61</ele>
        <time>2021-03-20T17:44:46Z</time>
      </trkpt>
      <trkpt lat="55.43381" lon="-3.7072">
        <ele>322.73</ele>
        <time>2021-03-20T17:44:50Z</time>
      </trkpt>
      <trkpt lat="55.43342" lon="-3.70798">
        <ele>322.96</ele>
        <time>2021-03-20T17:44:53Z</time>
      </trkpt>
      <trkpt lat="55.43297" lon="-3.70865">
        <ele>324.13</ele>
        <time>2021-03-20T17:44:56Z</time>
      </trkpt>
      <trkpt lat="55.43246" lon="-3.70912">
        <ele>326.42</ele>
        <time>2021-03-20T17:45:00Z</time>
      </trkpt>
      <trkpt lat="55.43201" lon="-3.7094">
        <ele>326.31</ele>
        <time>2021-03-20T17:45:03Z</time>
      </trkpt>
      <trkpt lat="55.43178" lon="-3.7095">
        <ele>326.11</ele>
        <time>2021-03-20T17:45:07Z</time>
      </trkpt>
      <trkpt lat="55.43137" lon="-3.7096">
        <ele>326.65</ele>
        <time>2021-03-20T17:45:10Z</time>
      </trkpt>
      <trkpt lat="55.43109" lon="-3.70975">
        <ele>328.2</ele>
        <time>2021-03-20T17:45:14Z</time>
      </trkpt>
      <trkpt lat="55.43059" lon="-3.71008">
        <ele>329.03</ele>
        <time>2021-03-20T17:45:17Z</time>
      </trkpt>
      <trkpt lat="55.43029" lon="-3.71052">
        <ele>329.96</ele>
        <time>2021-03-20T17:45:20Z</time>
      </trkpt>
      <trkpt lat="55.42981" lon="-3.7115">
        <ele>336.18</ele>
        <time>2021-03-20T17:45:24Z</time>
      </trkpt>
      <trkpt lat="55.42945" lon="-3.71201">
        <ele>335.75</ele>
        <time>2021-03-20T17:45:27Z</time>
      </trkpt>
      <trkpt lat="55.42891" lon="-3.71283">
        <ele>335.85</ele>
        <time>2021-03-20T17:45:31Z</time>
      </trkpt>
      <trkpt lat="55.42855" lon="-3.71373">
        <ele>338.03</ele>
        <time>2021-03-20T17:45:34Z</time>
      </trkpt>
      <trkpt lat="55.42829" lon="-3.71468">
        <ele>343.46</ele>
        <time>2021-03-20T17:45:38Z</time>
      </trkpt>
      <trkpt lat="55.42795" lon="-3.7157">
        <ele>344.93</ele>
        <time>2021-03-20T17:45:41Z</time>
      </trkpt>
      <trkpt lat="55.42763" lon="-3.71636">
        <ele>344.07</ele>
        <time>2021-03-20T17:45:44Z</time>
      </trkpt>
      <trkpt lat="55.42753" lon="-3.71678">
        <ele>345.46</ele>
        <time>2021-03-20T17:45:48Z</time>
      </trkpt>
      <trkpt lat="55.42742" lon="-3.7185">
        <ele>350.39</ele>
        <time>2021-03-20T17:45:51Z</time>
      </trkpt>
      <trkpt lat="55.42773" lon="-3.72577">
        <ele>350.29</ele>
        <time>2021-03-20T17:45:55Z</time>
      </trkpt>
      <trkpt lat="55.42768" lon="-3.72635">
        <ele>349.87</ele>
        <time>2021-03-20T17:45:58Z</time>
      </trkpt>
      <trkpt lat="55.42759" lon="-3.72686">
        <ele>349.7</ele>
        <time>2021-03-20T17:46:02Z</time>
      </trkpt>
      <trkpt lat="55.42738" lon="-3.72754">
        <ele>349.78</ele>
        <time>2021-03-20T17:46:05Z</time>
      </trkpt>
      <trkpt lat="55.42692" lon="-3.72876">
        <ele>350.3</ele>
        <time>2021-03-20T17:46:08Z</time>
      </trkpt>
      <trkpt lat="55.42593" lon="-3.73129">
        <ele>353.01</ele>
        <time>2021-03-20T17:46:12Z</time>
      </trkpt>
      <trkpt lat="55.42574" lon="-3.73182">
        <ele>353.96</ele>
        <time>2021-03-20T17:46:15Z</time>
      </trkpt>
      <trkpt lat="55.42555" lon="-3.73244">
        <ele>354.58</ele>
        <time>2021-03-20T17:46:19Z</time>
      </trkpt>
      <trkpt lat="55.42538" lon="-3.73317">
        <ele>358.64</ele>
        <time>2021-03-20T17:46:22Z</time>
      </trkpt>
      <trkpt lat="55.42482" lon="-3.73405">
        <ele>359.2</ele>
        <time>2021-03-20T17:46:26Z</time>
      </trkpt>
      <trkpt lat="55.42462" lon="-3.73422">
        <ele>358.91</ele>
        <time>2021-03-20T17:46:29Z</time>
      </trkpt>
      <trkpt lat="55.42437" lon="-3.73433">
        <ele>357.45</ele>
        <time>2021-03-20T17:46:32Z</time>
      </trkpt>
      <trkpt lat="55.42389" lon="-3.73479">
        <ele>355.04</ele>
        <time>2021-03-20T17:46:36Z</time>
      </trkpt>
      <trkpt lat="55.4236" lon="-3.7352">
        <ele>356.54</ele>
        <time>2021-03-20T17:46:39Z</time>
      </trkpt>
      <trkpt lat="55.42347" lon="-3.73551">
        <ele>359.28</ele>
        <time>2021-03-20T17:46:43Z</time>
      </trkpt>
      <trkpt lat="55.42333" lon="-3.73571">
        <ele>361.14</ele>
        <time>2021-03-20T17:46:46Z</time>
      </trkpt>
      <trkpt lat="55.42269" lon="-3.73643">
        <ele>366.13</ele>
        <time>2021-03-20T17:46:50Z</time>
      </trkpt>
      <trkpt lat="55.42237" lon="-3.73691">
        <ele>370.05</ele>
        <time>2021-03-20T17:46:53Z</time>
      </trkpt>
      <trkpt lat="55.42217" lon="-3.73718">
        <ele>372.5</ele>
        <time>2021-03-20T17:46:57Z</time>
      </trkpt>
      <trkpt lat="55.42161" lon="-3.73752">
        <ele>375.67</ele>
        <time>2021-03-20T17:47:00Z</time>
      </trkpt>
      <trkpt lat="55.42123" lon="-3.73782">
        <ele>377.99</ele>
        <time>2021-03-20T17:47:03Z</time>
      </trkpt>
      <trkpt lat="55.42083" lon="-3.73821">
        <ele>384.23</ele>
        <time>2021-03-20T17:47:07Z</time>
      </trkpt>
      <trkpt lat="55.42012" lon="-3.73858">
        <ele>387.33</ele>
        <time>2021-03-20T17:47:10Z</time>
      </trkpt>
      <trkpt lat="55.4198" lon="-3.73893">
        <ele>389.61</ele>
        <time>2021-03-20T17:47:14Z</time>
      </trkpt>
      <trkpt lat="55.41954" lon="-3.73929">
        <ele>392.77</ele>
        <time>2021-03-20T17:47:17Z</time>
      </trkpt>
      <trkpt lat="55.41881" lon="-3.74072">
        <ele>399.64</ele>
        <time>2021-03-20T17:47:21Z</time>
      </trkpt>
      <trkpt lat="55.41843" lon="-3.74123">
        <ele>402.76</ele>
        <time>2021-03-20T17:47:24Z</time>
      </trkpt>
      <trkpt lat="55.4183" lon="-3.74157">
        <ele>405.37</ele>
        <time>2021-03-20T17:47:27Z</time>
      </trkpt>
      <trkpt lat="55.41824" lon="-3.74191">
        <ele>408.58</ele>
        <time>2021-03-20T17:47:31Z</time>
      </trkpt>
      <trkpt lat="55.41823" lon="-3.74277">
        <ele>416.57</ele>
        <time>2021-03-20T17:47:34Z</time>
      </trkpt>
      <trkpt lat="55.4181" lon="-3.74343">
        <ele>419.23</ele>
        <time>2021-03-20T17:47:38Z</time>
      </trkpt>
      <trkpt lat="55.41794" lon="-3.74387">
        <ele>419.41</ele>
        <time>2021-03-20T17:47:41Z</time>
      </trkpt>
      <trkpt lat="55.41756" lon="-3.74443">
        <ele>419.43</ele>
        <time>2021-03-20T17:47:45Z</time>
      </trkpt>
      <trkpt lat="55.41718" lon="-3.74467">
        <ele>419.72</ele>
        <time>2021-03-20T17:47:48Z</time>
      </trkpt>
      <trkpt lat="55.41693" lon="-3.74489">
        <ele>418.52</ele>
        <time>2021-03-20T17:47:51Z</time>
      </trkpt>
      <trkpt lat="55.4164" lon="-3.74616">
        <ele>422.96</ele>
        <time>2021-03-20T17:47:55Z</time>
      </trkpt>
      <trkpt lat="55.41637" lon="-3.74644">
        <ele>423.29</ele>
        <time>2021-03-20T17:47:58Z</time>
      </trkpt>
      <trkpt lat="55.41639" lon="-3.74699">
        <ele>422</ele>
        <time>2021-03-20T17:48:02Z</time>
      </trkpt>
      <trkpt lat="55.41634" lon="-3.74723">
        <ele>421.8</ele>
        <time>2021-03-20T17:48:05Z</time>
      </trkpt>
      <trkpt lat="55.41617" lon="-3.74774">
        <ele>419.5</ele>
        <time>2021-03-20T17:48:09Z</time>
      </trkpt>
      <trkpt lat="55.41606" lon="-3.74822">
        <ele>418.32</ele>
        <time>2021-03-20T17:48:12Z</time>
      </trkpt>
      <trkpt lat="55.41607" lon="-3.7489">
        <ele>415.8</ele>
        <time>2021-03-20T17:48:15Z</time>
      </trkpt>
      <trkpt lat="55.41605" lon="-3.74927">
        <ele>412.78</ele>
        <time>2021-03-20T17:48:19Z</time>
      </trkpt>
      <trkpt lat="55.41592" lon="-3.74995">
        <ele>405.99</ele>
        <time>2021-03-20T17:48:22Z</time>
      </trkpt>
      <trkpt lat="55.41596" lon="-3.75034">
        <ele>402.47</ele>
        <time>2021-03-20T17:48:26Z</time>
      </trkpt>
      <trkpt lat="55.41609" lon="-3.75077">
        <ele>400.39</ele>
        <time>2021-03-20T17:48:29Z</time>
      </trkpt>
      <trkpt lat="55.41645" lon="-3.75128">
        <ele>398.3</ele>
        <time>2021-03-20T17:48:33Z</time>
      </trkpt>
      <trkpt lat="55.41654" lon="-3.7515">
        <ele>397.43</ele>
        <time>2021-03-20T17:48:36Z</time>
      </trkpt>
      <trkpt lat="55.41663" lon="-3.75181">
        <ele>395.89</ele>
        <time>2021-03-20T17:48:39Z</time>
      </trkpt>
      <trkpt lat="55.41669" lon="-3.75211">
        <ele>394.76</ele>
        <time>2021-03-20T17:48:43Z</time>
      </trkpt>
      <trkpt lat="55.41679" lon="-3.75246">
        <ele>394.5</ele>
        <time>2021-03-20T17:48:46Z</time>
      </trkpt>
      <trkpt lat="55.41696" lon="-3.75289">
        <ele>393.36</ele>
        <time>2021-03-20T17:48:50Z</time>
      </trkpt>
      <trkpt lat="55.41764" lon="-3.75401">
        <ele>390.38</ele>
        <time>2021-03-20T17:48:53Z</time>
      </trkpt>
      <trkpt lat="55.41798" lon="-3.75521">
        <ele>387.27</ele>
        <time>2021-03-20T17:48:57Z</time>
      </trkpt>
      <trkpt lat="55.41858" lon="-3.75722">
        <ele>383.48</ele>
        <time>2021-03-20T17:49:00Z</time>
      </trkpt>
      <trkpt lat="55.41862" lon="-3.75744">
        <ele>382.9</ele>
        <time>2021-03-20T17:49:03Z</time>
      </trkpt>
      <trkpt lat="55.4186" lon="-3.75773">
        <ele>383.28</ele>
        <time>2021-03-20T17:49:07Z</time>
      </trkpt>
      <trkpt lat="55.41852" lon="-3.75794">
        <ele>384.42</ele>
        <time>2021-03-20T17:49:10Z</time>
      </trkpt>
      <trkpt lat="55.41843" lon="-3.75814">
        <ele>385.63</ele>
        <time>2021-03-20T17:49:14Z</time>
      </trkpt>
      <trkpt lat="55.41841" lon="-3.7584">
        <ele>386.24</ele>
        <time>2021-03-20T17:49:17Z</time>
      </trkpt>
      <trkpt lat="55.41847" lon="-3.75939">
        <ele>386.97</ele>
        <time>2021-03-20T17:49:21Z</time>
      </trkpt>
      <trkpt lat="55.41846" lon="-3.75952">
        <ele>386.83</ele>
        <time>2021-03-20T17:49:24Z</time>
      </trkpt>
      <trkpt lat="55.41836" lon="-3.75988">
        <ele>386.99</ele>
        <time>2021-03-20T17:49:27Z</time>
      </trkpt>
      <trkpt lat="55.41879" lon="-3.7598">
        <ele>380.74</ele>
        <time>2021-03-20T17:49:30Z</time>
      </trkpt>
      <trkpt lat="55.41976" lon="-3.75969">
        <ele>375.76</ele>
        <time>2021-03-20T17:49:33Z</time>
      </trkpt>
      <trkpt lat="55.41995" lon="-3.75971">
        <ele>375.18</ele>
        <time>2021-03-20T17:49:36Z</time>
      </trkpt>
      <trkpt lat="55.42015" lon="-3.75984">
        <ele>374.47</ele>
        <time>2021-03-20T17:49:39Z</time>
      </trkpt>
      <trkpt lat="55.42054" lon="-3.76028">
        <ele>375</ele>
        <time>2021-03-20T17:49:42Z</time>
      </trkpt>
      <trkpt lat="55.42128" lon="-3.76126">
        <ele>372.92</ele>
        <time>2021-03-20T17:49:45Z</time>
      </trkpt>
      <trkpt lat="55.42145" lon="-3.76141">
        <ele>372.78</ele>
        <time>2021-03-20T17:49:48Z</time>
      </trkpt>
      <trkpt lat="55.4217" lon="-3.76152">
        <ele>371.81</ele>
        <time>2021-03-20T17:49:51Z</time>
      </trkpt>
      <trkpt lat="55.42252" lon="-3.76179">
        <ele>368.6</ele>
        <time>2021-03-20T17:49:54Z</time>
      </trkpt>
      <trkpt lat="55.42294" lon="-3.76199">
        <ele>367.05</ele>
        <time>2021-03-20T17:49:57Z</time>
      </trkpt>
      <trkpt lat="55.42338" lon="-3.76225">
        <ele>364.39</ele>
        <time>2021-03-20T17:50:00Z</time>
      </trkpt>
      <trkpt lat="55.42395" lon="-3.76265">
        <ele>368.27</ele>
        <time>2021-03-20T17:50:03Z</time>
      </trkpt>
      <trkpt lat="55.42442" lon="-3.76286">
        <ele>366.77</ele>
        <time>2021-03-20T17:50:06Z</time>
      </trkpt>
      <trkpt lat="55.42468" lon="-3.76295">
        <ele>365.89</ele>
        <time>2021-03-20T17:50:08Z</time>
      </trkpt>
      <trkpt lat="55.42553" lon="-3.76307">
        <ele>364.73</ele>
        <time>2021-03-20T17:50:11Z</time>
      </trkpt>
      <trkpt lat="55.42579" lon="-3.7632">
        <ele>364.15</ele>
        <time>2021-03-20T17:50:14Z</time>
      </trkpt>
      <trkpt lat="55.42621" lon="-3.76351">
        <ele>362.42</ele>
        <time>2021-03-20T17:50:17Z</time>
      </trkpt>
      <trkpt lat="55.42647" lon="-3.76364">
        <ele>361.71</ele>
        <time>2021-03-20T17:50:20Z</time>
      </trkpt>
      <trkpt lat="55.42685" lon="-3.76375">
        <ele>359.83</ele>
        <time>2021-03-20T17:50:23Z</time>
      </trkpt>
      <trkpt lat="55.42751" lon="-3.76399">
        <ele>357.67</ele>
        <time>2021-03-20T17:50:26Z</time>
      </trkpt>
      <trkpt lat="55.42859" lon="-3.76397">
        <ele>355.5</ele>
        <time>2021-03-20T17:50:29Z</time>
      </trkpt>
      <trkpt lat="55.42889" lon="-3.76384">
        <ele>354.33</ele>
        <time>2021-03-20T17:50:32Z</time>
      </trkpt>
      <trkpt lat="55.42939" lon="-3.76351">
        <ele>353.18</ele>
        <time>2021-03-20T17:50:35Z</time>
      </trkpt>
      <trkpt lat="55.42965" lon="-3.76339">
        <ele>351.32</ele>
        <time>2021-03-20T17:50:38Z</time>
      </trkpt>
      <trkpt lat="55.4299" lon="-3.76331">
        <ele>349.94</ele>
        <time>2021-03-20T17:50:41Z</time>
      </trkpt>
      <trkpt lat="55.43013" lon="-3.76329">
        <ele>348.75</ele>
        <time>2021-03-20T17:50:44Z</time>
      </trkpt>
      <trkpt lat="55.43031" lon="-3.76322">
        <ele>348.4</ele>
        <time>2021-03-20T17:50:46Z</time>
      </trkpt>
      <trkpt lat="55.43057" lon="-3.7632">
        <ele>348.45</ele>
        <time>2021-03-20T17:50:49Z</time>
      </trkpt>
      <trkpt lat="55.43077" lon="-3.76313">
        <ele>348.54</ele>
        <time>2021-03-20T17:50:52Z</time>
      </trkpt>
      <trkpt lat="55.43089" lon="-3.76312">
        <ele>348.39</ele>
        <time>2021-03-20T17:50:55Z</time>
      </trkpt>
      <trkpt lat="55.43223" lon="-3.76262">
        <ele>345.64</ele>
        <time>2021-03-20T17:50:58Z</time>
      </trkpt>
      <trkpt lat="55.43259" lon="-3.76261">
        <ele>345.1</ele>
        <time>2021-03-20T17:51:01Z</time>
      </trkpt>
      <trkpt lat="55.43295" lon="-3.76253">
        <ele>345.64</ele>
        <time>2021-03-20T17:51:04Z</time>
      </trkpt>
      <trkpt lat="55.43511" lon="-3.76252">
        <ele>348.42</ele>
        <time>2021-03-20T17:51:07Z</time>
      </trkpt>
      <trkpt lat="55.43537" lon="-3.76242">
        <ele>347.63</ele>
        <time>2021-03-20T17:51:10Z</time>
      </trkpt>
      <trkpt lat="55.43562" lon="-3.76229">
        <ele>347.83</ele>
        <time>2021-03-20T17:51:13Z</time>
      </trkpt>
      <trkpt lat="55.43622" lon="-3.76189">
        <ele>352.67</ele>
        <time>2021-03-20T17:51:16Z</time>
      </trkpt>
      <trkpt lat="55.43635" lon="-3.76184">
        <ele>352.17</ele>
        <time>2021-03-20T17:51:19Z</time>
      </trkpt>
      <trkpt lat="55.43651" lon="-3.76182">
        <ele>350.12</ele>
        <time>2021-03-20T17:51:22Z</time>
      </trkpt>
      <trkpt lat="55.43664" lon="-3.76177">
        <ele>349.6</ele>
        <time>2021-03-20T17:51:24Z</time>
      </trkpt>
      <trkpt lat="55.43679" lon="-3.76174">
        <ele>347.16</ele>
        <time>2021-03-20T17:51:27Z</time>
      </trkpt>
      <trkpt lat="55.4376" lon="-3.76133">
        <ele>343.14</ele>
        <time>2021-03-20T17:51:30Z</time>
      </trkpt>
      <trkpt lat="55.43835" lon="-3.761">
        <ele>342.13</ele>
        <time>2021-03-20T17:51:33Z</time>
      </trkpt>
      <trkpt lat="55.43876" lon="-3.76074">
        <ele>340.19</ele>
        <time>2021-03-20T17:51:36Z</time>
      </trkpt>
      <trkpt lat="55.43923" lon="-3.76035">
        <ele>336.82</ele>
        <time>2021-03-20T17:51:39Z</time>
      </trkpt>
      <trkpt lat="55.43969" lon="-3.76013">
        <ele>333.32</ele>
        <time>2021-03-20T17:51:42Z</time>
      </trkpt>
      <trkpt lat="55.44069" lon="-3.75984">
        <ele>326.07</ele>
        <time>2021-03-20T17:51:45Z</time>
      </trkpt>
      <trkpt lat="55.44165" lon="-3.7595">
        <ele>326.38</ele>
        <time>2021-03-20T17:51:48Z</time>
      </trkpt>
      <trkpt lat="55.44212" lon="-3.75932">
        <ele>327.99</ele>
        <time>2021-03-20T17:51:51Z</time>
      </trkpt>
      <trkpt lat="55.4429" lon="-3.75894">
        <ele>326.85</ele>
        <time>2021-03-20T17:51:54Z</time>
      </trkpt>
      <trkpt lat="55.44302" lon="-3.75891">
        <ele>327.11</ele>
        <time>2021-03-20T17:51:57Z</time>
      </trkpt>
      <trkpt lat="55.44334" lon="-3.75891">
        <ele>327.18</ele>
        <time>2021-03-20T17:52:00Z</time>
      </trkpt>
      <trkpt lat="55.44369" lon="-3.75883">
        <ele>327.29</ele>
        <time>2021-03-20T17:52:02Z</time>
      </trkpt>
      <trkpt lat="55.444" lon="-3.75884">
        <ele>327.54</ele>
        <time>2021-03-20T17:52:05Z</time>
      </trkpt>
      <trkpt lat="55.44422" lon="-3.75892">
        <ele>326.3</ele>
        <time>2021-03-20T17:52:08Z</time>
      </trkpt>
      <trkpt lat="55.44474" lon="-3.7589">
        <ele>321.07</ele>
        <time>2021-03-20T17:52:11Z</time>
      </trkpt>
      <trkpt lat="55.44545" lon="-3.75858">
        <ele>320.98</ele>
        <time>2021-03-20T17:52:14Z</time>
      </trkpt>
      <trkpt lat="55.44563" lon="-3.75857">
        <ele>321.55</ele>
        <time>2021-03-20T17:52:17Z</time>
      </trkpt>
      <trkpt lat="55.44582" lon="-3.7585">
        <ele>321.16</ele>
        <time>2021-03-20T17:52:20Z</time>
      </trkpt>
      <trkpt lat="55.44602" lon="-3.75848">
        <ele>322.36</ele>
        <time>2021-03-20T17:52:23Z</time>
      </trkpt>
      <trkpt lat="55.4463" lon="-3.75836">
        <ele>322.16</ele>
        <time>2021-03-20T17:52:26Z</time>
      </trkpt>
      <trkpt lat="55.44647" lon="-3.75824">
        <ele>322.28</ele>
        <time>2021-03-20T17:52:29Z</time>
      </trkpt>
      <trkpt lat="55.44717" lon="-3.75759">
        <ele>321.15</ele>
        <time>2021-03-20T17:52:32Z</time>
      </trkpt>
      <trkpt lat="55.44818" lon="-3.757">
        <ele>320.55</ele>
        <time>2021-03-20T17:52:35Z</time>
      </trkpt>
      <trkpt lat="55.44853" lon="-3.75686">
        <ele>320.7</ele>
        <time>2021-03-20T17:52:38Z</time>
      </trkpt>
      <trkpt lat="55.44925" lon="-3.75667">
        <ele>323</ele>
        <time>2021-03-20T17:52:40Z</time>
      </trkpt>
      <trkpt lat="55.44952" lon="-3.75657">
        <ele>323</ele>
        <time>2021-03-20T17:52:43Z</time>
      </trkpt>
      <trkpt lat="55.45014" lon="-3.75628">
        <ele>321.51</ele>
        <time>2021-03-20T17:52:46Z</time>
      </trkpt>
      <trkpt lat="55.4511" lon="-3.75577">
        <ele>317.07</ele>
        <time>2021-03-20T17:52:49Z</time>
      </trkpt>
      <trkpt lat="55.45124" lon="-3.75567">
        <ele>317</ele>
        <time>2021-03-20T17:52:52Z</time>
      </trkpt>
      <trkpt lat="55.45135" lon="-3.75555">
        <ele>316.96</ele>
        <time>2021-03-20T17:52:55Z</time>
      </trkpt>
      <trkpt lat="55.45197" lon="-3.75471">
        <ele>316.14</ele>
        <time>2021-03-20T17:52:58Z</time>
      </trkpt>
      <trkpt lat="55.45207" lon="-3.7546">
        <ele>316.27</ele>
        <time>2021-03-20T17:53:01Z</time>
      </trkpt>
      <trkpt lat="55.45243" lon="-3.75432">
        <ele>315.08</ele>
        <time>2021-03-20T17:53:04Z</time>
      </trkpt>
      <trkpt lat="55.45318" lon="-3.75388">
        <ele>314.32</ele>
        <time>2021-03-20T17:53:07Z</time>
      </trkpt>
      <trkpt lat="55.4537" lon="-3.75369">
        <ele>316.51</ele>
        <time>2021-03-20T17:53:10Z</time>
      </trkpt>
      <trkpt lat="55.45436" lon="-3.75348">
        <ele>318.21</ele>
        <time>2021-03-20T17:53:13Z</time>
      </trkpt>
      <trkpt lat="55.45459" lon="-3.75335">
        <ele>318.05</ele>
        <time>2021-03-20T17:53:16Z</time>
      </trkpt>
      <trkpt lat="55.45554" lon="-3.75267">
        <ele>313.27</ele>
        <time>2021-03-20T17:53:18Z</time>
      </trkpt>
      <trkpt lat="55.45611" lon="-3.75242">
        <ele>313.38</ele>
        <time>2021-03-20T17:53:21Z</time>
      </trkpt>
      <trkpt lat="55.45631" lon="-3.75229">
        <ele>312.67</ele>
        <time>2021-03-20T17:53:24Z</time>
      </trkpt>
      <trkpt lat="55.45652" lon="-3.75207">
        <ele>312.68</ele>
        <time>2021-03-20T17:53:27Z</time>
      </trkpt>
      <trkpt lat="55.45664" lon="-3.75204">
        <ele>313.21</ele>
        <time>2021-03-20T17:53:30Z</time>
      </trkpt>
      <trkpt lat="55.45698" lon="-3.75178">
        <ele>312.75</ele>
        <time>2021-03-20T17:53:32Z</time>
      </trkpt>
      <trkpt lat="55.45792" lon="-3.75122">
        <ele>310.36</ele>
        <time>2021-03-20T17:53:35Z</time>
      </trkpt>
      <trkpt lat="55.45848" lon="-3.75103">
        <ele>312.46</ele>
        <time>2021-03-20T17:53:37Z</time>
      </trkpt>
      <trkpt lat="55.45867" lon="-3.75077">
        <ele>313.16</ele>
        <time>2021-03-20T17:53:40Z</time>
      </trkpt>
      <trkpt lat="55.45891" lon="-3.75037">
        <ele>316.16</ele>
        <time>2021-03-20T17:53:42Z</time>
      </trkpt>
      <trkpt lat="55.45946" lon="-3.74964">
        <ele>322.17</ele>
        <time>2021-03-20T17:53:44Z</time>
      </trkpt>
      <trkpt lat="55.45975" lon="-3.74921">
        <ele>324.1</ele>
        <time>2021-03-20T17:53:47Z</time>
      </trkpt>
      <trkpt lat="55.45989" lon="-3.74903">
        <ele>325.36</ele>
        <time>2021-03-20T17:53:49Z</time>
      </trkpt>
      <trkpt lat="55.46042" lon="-3.74858">
        <ele>333.6</ele>
        <time>2021-03-20T17:53:52Z</time>
      </trkpt>
      <trkpt lat="55.46062" lon="-3.74843">
        <ele>335.5</ele>
        <time>2021-03-20T17:53:54Z</time>
      </trkpt>
      <trkpt lat="55.461" lon="-3.74822">
        <ele>337.89</ele>
        <time>2021-03-20T17:53:57Z</time>
      </trkpt>
      <trkpt lat="55.46262" lon="-3.7475">
        <ele>351.39</ele>
        <time>2021-03-20T17:53:59Z</time>
      </trkpt>
      <trkpt lat="55.46343" lon="-3.74748">
        <ele>357.09</ele>
        <time>2021-03-20T17:54:01Z</time>
      </trkpt>
      <trkpt lat="55.46353" lon="-3.74751">
        <ele>357.84</ele>
        <time>2021-03-20T17:54:04Z</time>
      </trkpt>
      <trkpt lat="55.46374" lon="-3.74763">
        <ele>359.39</ele>
        <time>2021-03-20T17:54:06Z</time>
      </trkpt>
      <trkpt lat="55.46446" lon="-3.74834">
        <ele>360.9</ele>
        <time>2021-03-20T17:54:09Z</time>
      </trkpt>
      <trkpt lat="55.4646" lon="-3.74852">
        <ele>360.05</ele>
        <time>2021-03-20T17:54:11Z</time>
      </trkpt>
      <trkpt lat="55.46484" lon="-3.74888">
        <ele>358.43</ele>
        <time>2021-03-20T17:54:14Z</time>
      </trkpt>
      <trkpt lat="55.46499" lon="-3.74921">
        <ele>357.61</ele>
        <time>2021-03-20T17:54:16Z</time>
      </trkpt>
      <trkpt lat="55.46506" lon="-3.74941">
        <ele>357.81</ele>
        <time>2021-03-20T17:54:18Z</time>
      </trkpt>
      <trkpt lat="55.46542" lon="-3.75095">
        <ele>361.47</ele>
        <time>2021-03-20T17:54:21Z</time>
      </trkpt>
      <trkpt lat="55.46553" lon="-3.75128">
        <ele>361.33</ele>
        <time>2021-03-20T17:54:23Z</time>
      </trkpt>
      <trkpt lat="55.46568" lon="-3.75153">
        <ele>361.68</ele>
        <time>2021-03-20T17:54:26Z</time>
      </trkpt>
      <trkpt lat="55.46592" lon="-3.75177">
        <ele>361.3</ele>
        <time>2021-03-20T17:54:28Z</time>
      </trkpt>
      <trkpt lat="55.46615" lon="-3.75205">
        <ele>362.61</ele>
        <time>2021-03-20T17:54:31Z</time>
      </trkpt>
      <trkpt lat="55.46626" lon="-3.75227">
        <ele>363.29</ele>
        <time>2021-03-20T17:54:33Z</time>
      </trkpt>
      <trkpt lat="55.46669" lon="-3.75373">
        <ele>367.06</ele>
        <time>2021-03-20T17:54:35Z</time>
      </trkpt>
      <trkpt lat="55.46686" lon="-3.75414">
        <ele>367.09</ele>
        <time>2021-03-20T17:54:38Z</time>
      </trkpt>
      <trkpt lat="55.46722" lon="-3.75477">
        <ele>367.19</ele>
        <time>2021-03-20T17:54:40Z</time>
      </trkpt>
      <trkpt lat="55.46805" lon="-3.75606">
        <ele>376.36</ele>
        <time>2021-03-20T17:54:43Z</time>
      </trkpt>
      <trkpt lat="55.46829" lon="-3.75633">
        <ele>377.18</ele>
        <time>2021-03-20T17:54:45Z</time>
      </trkpt>
      <trkpt lat="55.46872" lon="-3.75668">
        <ele>376.85</ele>
        <time>2021-03-20T17:54:48Z</time>
      </trkpt>
      <trkpt lat="55.46994" lon="-3.7575">
        <ele>375.22</ele>
        <time>2021-03-20T17:54:50Z</time>
      </trkpt>
      <trkpt lat="55.47037" lon="-3.75784">
        <ele>373.38</ele>
        <time>2021-03-20T17:54:52Z</time>
      </trkpt>
      <trkpt lat="55.47049" lon="-3.75797">
        <ele>372.44</ele>
        <time>2021-03-20T17:54:55Z</time>
      </trkpt>
      <trkpt lat="55.47139" lon="-3.75932">
        <ele>356.91</ele>
        <time>2021-03-20T17:54:57Z</time>
      </trkpt>
      <trkpt lat="55.47196" lon="-3.76008">
        <ele>351.78</ele>
        <time>2021-03-20T17:55:00Z</time>
      </trkpt>
      <trkpt lat="55.47232" lon="-3.76052">
        <ele>347.85</ele>
        <time>2021-03-20T17:55:02Z</time>
      </trkpt>
      <trkpt lat="55.47276" lon="-3.76095">
        <ele>345.77</ele>
        <time>2021-03-20T17:55:05Z</time>
      </trkpt>
      <trkpt lat="55.47305" lon="-3.7613">
        <ele>344.25</ele>
        <time>2021-03-20T17:55:07Z</time>
      </trkpt>
      <trkpt lat="55.4732" lon="-3.76142">
        <ele>344.11</ele>
        <time>2021-03-20T17:55:10Z</time>
      </trkpt>
      <trkpt lat="55.47351" lon="-3.76156">
        <ele>342.61</ele>
        <time>2021-03-20T17:55:12Z</time>
      </trkpt>
      <trkpt lat="55.47405" lon="-3.76168">
        <ele>342.07</ele>
        <time>2021-03-20T17:55:14Z</time>
      </trkpt>
      <trkpt lat="55.47414" lon="-3.76172">
        <ele>342.2</ele>
        <time>2021-03-20T17:55:17Z</time>
      </trkpt>
      <trkpt lat="55.47422" lon="-3.76183">
        <ele>341.98</ele>
        <time>2021-03-20T17:55:19Z</time>
      </trkpt>
      <trkpt lat="55.4745" lon="-3.76241">
        <ele>340.85</ele>
        <time>2021-03-20T17:55:22Z</time>
      </trkpt>
      <trkpt lat="55.47507" lon="-3.76333">
        <ele>340.48</ele>
        <time>2021-03-20T17:55:24Z</time>
      </trkpt>
      <trkpt lat="55.4753" lon="-3.7638">
        <ele>335.95</ele>
        <time>2021-03-20T17:55:27Z</time>
      </trkpt>
      <trkpt lat="55.47563" lon="-3.76465">
        <ele>327.37</ele>
        <time>2021-03-20T17:55:29Z</time>
      </trkpt>
      <trkpt lat="55.47577" lon="-3.76486">
        <ele>327.33</ele>
        <time>2021-03-20T17:55:31Z</time>
      </trkpt>
      <trkpt lat="55.47607" lon="-3.76525">
        <ele>326.76</ele>
        <time>2021-03-20T17:55:34Z</time>
      </trkpt>
      <trkpt lat="55.47629" lon="-3.76561">
        <ele>325.91</ele>
        <time>2021-03-20T17:55:36Z</time>
      </trkpt>
      <trkpt lat="55.47637" lon="-3.76579">
        <ele>325.14</ele>
        <time>2021-03-20T17:55:39Z</time>
      </trkpt>
      <trkpt lat="55.47675" lon="-3.76685">
        <ele>319.9</ele>
        <time>2021-03-20T17:55:41Z</time>
      </trkpt>
      <trkpt lat="55.47703" lon="-3.7674">
        <ele>317.25</ele>
        <time>2021-03-20T17:55:44Z</time>
      </trkpt>
      <trkpt lat="55.47721" lon="-3.76784">
        <ele>316.22</ele>
        <time>2021-03-20T17:55:46Z</time>
      </trkpt>
      <trkpt lat="55.4775" lon="-3.76866">
        <ele>313.7</ele>
        <time>2021-03-20T17:55:48Z</time>
      </trkpt>
      <trkpt lat="55.47759" lon="-3.76886">
        <ele>313.76</ele>
        <time>2021-03-20T17:55:51Z</time>
      </trkpt>
      <trkpt lat="55.47788" lon="-3.76937">
        <ele>312.85</ele>
        <time>2021-03-20T17:55:53Z</time>
      </trkpt>
      <trkpt lat="55.47823" lon="-3.76982">
        <ele>308.45</ele>
        <time>2021-03-20T17:55:56Z</time>
      </trkpt>
      <trkpt lat="55.47834" lon="-3.77004">
        <ele>306.78</ele>
        <time>2021-03-20T17:55:58Z</time>
      </trkpt>
      <trkpt lat="55.47858" lon="-3.77079">
        <ele>304.8</ele>
        <time>2021-03-20T17:56:01Z</time>
      </trkpt>
      <trkpt lat="55.47884" lon="-3.7713">
        <ele>305.21</ele>
        <time>2021-03-20T17:56:03Z</time>
      </trkpt>
      <trkpt lat="55.47936" lon="-3.77273">
        <ele>298.69</ele>
        <time>2021-03-20T17:56:05Z</time>
      </trkpt>
      <trkpt lat="55.47959" lon="-3.77326">
        <ele>296.2</ele>
        <time>2021-03-20T17:56:08Z</time>
      </trkpt>
      <trkpt lat="55.4799" lon="-3.77381">
        <ele>294.68</ele>
        <time>2021-03-20T17:56:10Z</time>
      </trkpt>
      <trkpt lat="55.48017" lon="-3.77414">
        <ele>293.76</ele>
        <time>2021-03-20T17:56:13Z</time>
      </trkpt>
      <trkpt lat="55.48028" lon="-3.77426">
        <ele>294.05</ele>
        <time>2021-03-20T17:56:15Z</time>
      </trkpt>
      <trkpt lat="55.48048" lon="-3.77441">
        <ele>295.28</ele>
        <time>2021-03-20T17:56:18Z</time>
      </trkpt>
      <trkpt lat="55.48075" lon="-3.77453">
        <ele>295.39</ele>
        <time>2021-03-20T17:56:20Z</time>
      </trkpt>
      <trkpt lat="55.48089" lon="-3.77455">
        <ele>295.48</ele>
        <time>2021-03-20T17:56:23Z</time>
      </trkpt>
      <trkpt lat="55.48148" lon="-3.77455">
        <ele>296.66</ele>
        <time>2021-03-20T17:56:25Z</time>
      </trkpt>
      <trkpt lat="55.48188" lon="-3.77468">
        <ele>293.31</ele>
        <time>2021-03-20T17:56:28Z</time>
      </trkpt>
      <trkpt lat="55.48258" lon="-3.77474">
        <ele>288.99</ele>
        <time>2021-03-20T17:56:30Z</time>
      </trkpt>
      <trkpt lat="55.4831" lon="-3.77489">
        <ele>281.55</ele>
        <time>2021-03-20T17:56:32Z</time>
      </trkpt>
      <trkpt lat="55.48321" lon="-3.77488">
        <ele>281.3</ele>
        <time>2021-03-20T17:56:35Z</time>
      </trkpt>
      <trkpt lat="55.4839" lon="-3.77458">
        <ele>277.96</ele>
        <time>2021-03-20T17:56:37Z</time>
      </trkpt>
      <trkpt lat="55.48519" lon="-3.7739">
        <ele>270.17</ele>
        <time>2021-03-20T17:56:40Z</time>
      </trkpt>
      <trkpt lat="55.48597" lon="-3.77378">
        <ele>262.69</ele>
        <time>2021-03-20T17:56:42Z</time>
      </trkpt>
      <trkpt lat="55.48641" lon="-3.77377">
        <ele>258.51</ele>
        <time>2021-03-20T17:56:45Z</time>
      </trkpt>
      <trkpt lat="55.48665" lon="-3.7737">
        <ele>257.15</ele>
        <time>2021-03-20T17:56:47Z</time>
      </trkpt>
      <trkpt lat="55.48691" lon="-3.77369">
        <ele>254.75</ele>
        <time>2021-03-20T17:56:50Z</time>
      </trkpt>
      <trkpt lat="55.48722" lon="-3.77358">
        <ele>254.21</ele>
        <time>2021-03-20T17:56:52Z</time>
      </trkpt>
      <trkpt lat="55.48746" lon="-3.77347">
        <ele>254.58</ele>
        <time>2021-03-20T17:56:55Z</time>
      </trkpt>
      <trkpt lat="55.48785" lon="-3.77321">
        <ele>254.74</ele>
        <time>2021-03-20T17:56:57Z</time>
      </trkpt>
      <trkpt lat="55.4889" lon="-3.77242">
        <ele>253.26</ele>
        <time>2021-03-20T17:57:00Z</time>
      </trkpt>
      <trkpt lat="55.48928" lon="-3.77207">
        <ele>253</ele>
        <time>2021-03-20T17:57:02Z</time>
      </trkpt>
      <trkpt lat="55.48941" lon="-3.77186">
        <ele>253.29</ele>
        <time>2021-03-20T17:57:04Z</time>
      </trkpt>
      <trkpt lat="55.49077" lon="-3.7696">
        <ele>252.68</ele>
        <time>2021-03-20T17:57:07Z</time>
      </trkpt>
      <trkpt lat="55.49097" lon="-3.76937">
        <ele>253</ele>
        <time>2021-03-20T17:57:09Z</time>
      </trkpt>
      <trkpt lat="55.49115" lon="-3.7693">
        <ele>252.87</ele>
        <time>2021-03-20T17:57:12Z</time>
      </trkpt>
      <trkpt lat="55.49127" lon="-3.76928">
        <ele>252.42</ele>
        <time>2021-03-20T17:57:14Z</time>
      </trkpt>
      <trkpt lat="55.49142" lon="-3.7693">
        <ele>252.09</ele>
        <time>2021-03-20T17:57:17Z</time>
      </trkpt>
      <trkpt lat="55.49152" lon="-3.76936">
        <ele>252.49</ele>
        <time>2021-03-20T17:57:19Z</time>
      </trkpt>
      <trkpt lat="55.49171" lon="-3.76955">
        <ele>252.61</ele>
        <time>2021-03-20T17:57:22Z</time>
      </trkpt>
      <trkpt lat="55.49218" lon="-3.77021">
        <ele>251.23</ele>
        <time>2021-03-20T17:57:24Z</time>
      </trkpt>
      <trkpt lat="55.49309" lon="-3.77186">
        <ele>253.69</ele>
        <time>2021-03-20T17:57:27Z</time>
      </trkpt>
      <trkpt lat="55.49325" lon="-3.77204">
        <ele>254</ele>
        <time>2021-03-20T17:57:29Z</time>
      </trkpt>
      <trkpt lat="55.49351" lon="-3.77222">
        <ele>254.63</ele>
        <time>2021-03-20T17:57:32Z</time>
      </trkpt>
      <trkpt lat="55.49377" lon="-3.77247">
        <ele>256.08</ele>
        <time>2021-03-20T17:57:34Z</time>
      </trkpt>
      <trkpt lat="55.49405" lon="-3.77267">
        <ele>257.92</ele>
        <time>2021-03-20T17:57:36Z</time>
      </trkpt>
      <trkpt lat="55.49444" lon="-3.77327">
        <ele>263.75</ele>
        <time>2021-03-20T17:57:39Z</time>
      </trkpt>
      <trkpt lat="55.49454" lon="-3.7737">
        <ele>265.67</ele>
        <time>2021-03-20T17:57:41Z</time>
      </trkpt>
      <trkpt lat="55.49469" lon="-3.77401">
        <ele>266.67</ele>
        <time>2021-03-20T17:57:44Z</time>
      </trkpt>
      <trkpt lat="55.49498" lon="-3.77476">
        <ele>269.61</ele>
        <time>2021-03-20T17:57:46Z</time>
      </trkpt>
      <trkpt lat="55.49526" lon="-3.77521">
        <ele>271.29</ele>
        <time>2021-03-20T17:57:49Z</time>
      </trkpt>
      <trkpt lat="55.49505" lon="-3.7762">
        <ele>268.58</ele>
        <time>2021-03-20T17:57:52Z</time>
      </trkpt>
      <trkpt lat="55.49478" lon="-3.7766">
        <ele>269.6</ele>
        <time>2021-03-20T17:57:54Z</time>
      </trkpt>
      <trkpt lat="55.4945" lon="-3.77702">
        <ele>270.81</ele>
        <time>2021-03-20T17:57:57Z</time>
      </trkpt>
      <trkpt lat="55.49396" lon="-3.7781">
        <ele>273.78</ele>
        <time>2021-03-20T17:58:00Z</time>
      </trkpt>
      <trkpt lat="55.49325" lon="-3.77966">
        <ele>279.51</ele>
        <time>2021-03-20T17:58:03Z</time>
      </trkpt>
      <trkpt lat="55.49295" lon="-3.78018">
        <ele>281.34</ele>
        <time>2021-03-20T17:58:05Z</time>
      </trkpt>
      <trkpt lat="55.49281" lon="-3.78036">
        <ele>281.87</ele>
        <time>2021-03-20T17:58:08Z</time>
      </trkpt>
      <trkpt lat="55.49233" lon="-3.78081">
        <ele>286.41</ele>
        <time>2021-03-20T17:58:11Z</time>
      </trkpt>
      <trkpt lat="55.49213" lon="-3.78097">
        <ele>287.64</ele>
        <time>2021-03-20T17:58:14Z</time>
      </trkpt>
      <trkpt lat="55.49145" lon="-3.78132">
        <ele>287.92</ele>
        <time>2021-03-20T17:58:16Z</time>
      </trkpt>
      <trkpt lat="55.49093" lon="-3.78154">
        <ele>285.63</ele>
        <time>2021-03-20T17:58:19Z</time>
      </trkpt>
      <trkpt lat="55.49078" lon="-3.78164">
        <ele>284.49</ele>
        <time>2021-03-20T17:58:22Z</time>
      </trkpt>
      <trkpt lat="55.49046" lon="-3.78194">
        <ele>284.27</ele>
        <time>2021-03-20T17:58:24Z</time>
      </trkpt>
      <trkpt lat="55.48982" lon="-3.78267">
        <ele>284.95</ele>
        <time>2021-03-20T17:58:27Z</time>
      </trkpt>
      <trkpt lat="55.48876" lon="-3.78346">
        <ele>291.19</ele>
        <time>2021-03-20T17:58:30Z</time>
      </trkpt>
      <trkpt lat="55.48821" lon="-3.78401">
        <ele>296.27</ele>
        <time>2021-03-20T17:58:33Z</time>
      </trkpt>
      <trkpt lat="55.48729" lon="-3.78484">
        <ele>289.33</ele>
        <time>2021-03-20T17:58:35Z</time>
      </trkpt>
      <trkpt lat="55.48689" lon="-3.78527">
        <ele>289.24</ele>
        <time>2021-03-20T17:58:38Z</time>
      </trkpt>
      <trkpt lat="55.48618" lon="-3.78608">
        <ele>289.46</ele>
        <time>2021-03-20T17:58:41Z</time>
      </trkpt>
      <trkpt lat="55.48564" lon="-3.78658">
        <ele>288.71</ele>
        <time>2021-03-20T17:58:44Z</time>
      </trkpt>
      <trkpt lat="55.48544" lon="-3.78683">
        <ele>290.96</ele>
        <time>2021-03-20T17:58:46Z</time>
      </trkpt>
      <trkpt lat="55.48526" lon="-3.7871">
        <ele>294.54</ele>
        <time>2021-03-20T17:58:49Z</time>
      </trkpt>
      <trkpt lat="55.48498" lon="-3.78765">
        <ele>295.04</ele>
        <time>2021-03-20T17:58:52Z</time>
      </trkpt>
      <trkpt lat="55.48448" lon="-3.78825">
        <ele>288.16</ele>
        <time>2021-03-20T17:58:55Z</time>
      </trkpt>
      <trkpt lat="55.48419" lon="-3.78868">
        <ele>287.48</ele>
        <time>2021-03-20T17:58:57Z</time>
      </trkpt>
      <trkpt lat="55.48395" lon="-3.78894">
        <ele>286.05</ele>
        <time>2021-03-20T17:59:00Z</time>
      </trkpt>
      <trkpt lat="55.48315" lon="-3.79011">
        <ele>285.02</ele>
        <time>2021-03-20T17:59:03Z</time>
      </trkpt>
      <trkpt lat="55.48296" lon="-3.79044">
        <ele>285.93</ele>
        <time>2021-03-20T17:59:06Z</time>
      </trkpt>
      <trkpt lat="55.48261" lon="-3.79139">
        <ele>286.51</ele>
        <time>2021-03-20T17:59:08Z</time>
      </trkpt>
      <trkpt lat="55.48229" lon="-3.79203">
        <ele>286.83</ele>
        <time>2021-03-20T17:59:11Z</time>
      </trkpt>
      <trkpt lat="55.48216" lon="-3.79234">
        <ele>287</ele>
        <time>2021-03-20T17:59:14Z</time>
      </trkpt>
      <trkpt lat="55.48211" lon="-3.79252">
        <ele>287.49</ele>
        <time>2021-03-20T17:59:17Z</time>
      </trkpt>
      <trkpt lat="55.48201" lon="-3.79314">
        <ele>288.21</ele>
        <time>2021-03-20T17:59:19Z</time>
      </trkpt>
      <trkpt lat="55.48192" lon="-3.79344">
        <ele>288.14</ele>
        <time>2021-03-20T17:59:22Z</time>
      </trkpt>
      <trkpt lat="55.48162" lon="-3.79417">
        <ele>287.53</ele>
        <time>2021-03-20T17:59:25Z</time>
      </trkpt>
      <trkpt lat="55.48154" lon="-3.79443">
        <ele>286.65</ele>
        <time>2021-03-20T17:59:28Z</time>
      </trkpt>
      <trkpt lat="55.48144" lon="-3.79489">
        <ele>287.13</ele>
        <time>2021-03-20T17:59:30Z</time>
      </trkpt>
      <trkpt lat="55.48134" lon="-3.79577">
        <ele>286.11</ele>
        <time>2021-03-20T17:59:33Z</time>
      </trkpt>
      <trkpt lat="55.48128" lon="-3.79603">
        <ele>285.08</ele>
        <time>2021-03-20T17:59:36Z</time>
      </trkpt>
      <trkpt lat="55.481" lon="-3.79689">
        <ele>279.96</ele>
        <time>2021-03-20T17:59:39Z</time>
      </trkpt>
      <trkpt lat="55.48095" lon="-3.79712">
        <ele>279.05</ele>
        <time>2021-03-20T17:59:41Z</time>
      </trkpt>
      <trkpt lat="55.48101" lon="-3.79718">
        <ele>280.15</ele>
        <time>2021-03-20T17:59:44Z</time>
      </trkpt>
      <trkpt lat="55.48107" lon="-3.7975">
        <ele>281.99</ele>
        <time>2021-03-20T17:59:47Z</time>
      </trkpt>
      <trkpt lat="55.48128" lon="-3.79804">
        <ele>286.03</ele>
        <time>2021-03-20T17:59:50Z</time>
      </trkpt>
      <trkpt lat="55.48181" lon="-3.79898">
        <ele>291.41</ele>
        <time>2021-03-20T17:59:53Z</time>
      </trkpt>
      <trkpt lat="55.48198" lon="-3.79941">
        <ele>293.14</ele>
        <time>2021-03-20T17:59:56Z</time>
      </trkpt>
      <trkpt lat="55.48236" lon="-3.80063">
        <ele>294.63</ele>
        <time>2021-03-20T17:59:58Z</time>
      </trkpt>
      <trkpt lat="55.48267" lon="-3.80151">
        <ele>297.27</ele>
        <time>2021-03-20T18:00:01Z</time>
      </trkpt>
      <trkpt lat="55.48284" lon="-3.80233">
        <ele>299.1</ele>
        <time>2021-03-20T18:00:04Z</time>
      </trkpt>
      <trkpt lat="55.48296" lon="-3.80269">
        <ele>301.1</ele>
        <time>2021-03-20T18:00:07Z</time>
      </trkpt>
      <trkpt lat="55.4833" lon="-3.80326">
        <ele>303.26</ele>
        <time>2021-03-20T18:00:10Z</time>
      </trkpt>
      <trkpt lat="55.48356" lon="-3.80362">
        <ele>305.77</ele>
        <time>2021-03-20T18:00:13Z</time>
      </trkpt>
      <trkpt lat="55.48368" lon="-3.80383">
        <ele>307.47</ele>
        <time>2021-03-20T18:00:16Z</time>
      </trkpt>
      <trkpt lat="55.48375" lon="-3.804">
        <ele>308.27</ele>
        <time>2021-03-20T18:00:18Z</time>
      </trkpt>
      <trkpt lat="55.48383" lon="-3.80438">
        <ele>309.68</ele>
        <time>2021-03-20T18:00:21Z</time>
      </trkpt>
      <trkpt lat="55.48383" lon="-3.8047">
        <ele>309.85</ele>
        <time>2021-03-20T18:00:24Z</time>
      </trkpt>
      <trkpt lat="55.48374" lon="-3.80514">
        <ele>308.34</ele>
        <time>2021-03-20T18:00:27Z</time>
      </trkpt>
      <trkpt lat="55.48371" lon="-3.8054">
        <ele>307.85</ele>
        <time>2021-03-20T18:00:30Z</time>
      </trkpt>
      <trkpt lat="55.4837" lon="-3.80696">
        <ele>305.55</ele>
        <time>2021-03-20T18:00:33Z</time>
      </trkpt>
      <trkpt lat="55.48372" lon="-3.80766">
        <ele>303.98</ele>
        <time>2021-03-20T18:00:35Z</time>
      </trkpt>
      <trkpt lat="55.48386" lon="-3.80856">
        <ele>299.95</ele>
        <time>2021-03-20T18:00:38Z</time>
      </trkpt>
      <trkpt lat="55.48393" lon="-3.80892">
        <ele>297.98</ele>
        <time>2021-03-20T18:00:41Z</time>
      </trkpt>
      <trkpt lat="55.48401" lon="-3.80919">
        <ele>295.5</ele>
        <time>2021-03-20T18:00:44Z</time>
      </trkpt>
      <trkpt lat="55.48429" lon="-3.80976">
        <ele>293.5</ele>
        <time>2021-03-20T18:00:47Z</time>
      </trkpt>
      <trkpt lat="55.48432" lon="-3.80995">
        <ele>293.06</ele>
        <time>2021-03-20T18:00:50Z</time>
      </trkpt>
      <trkpt lat="55.48429" lon="-3.81084">
        <ele>291.14</ele>
        <time>2021-03-20T18:00:53Z</time>
      </trkpt>
      <trkpt lat="55.48429" lon="-3.81112">
        <ele>291.14</ele>
        <time>2021-03-20T18:00:55Z</time>
      </trkpt>
      <trkpt lat="55.48432" lon="-3.81133">
        <ele>291.08</ele>
        <time>2021-03-20T18:00:58Z</time>
      </trkpt>
      <trkpt lat="55.48459" lon="-3.812">
        <ele>292.22</ele>
        <time>2021-03-20T18:01:01Z</time>
      </trkpt>
      <trkpt lat="55.48478" lon="-3.81237">
        <ele>292.24</ele>
        <time>2021-03-20T18:01:04Z</time>
      </trkpt>
      <trkpt lat="55.48502" lon="-3.81271">
        <ele>294.5</ele>
        <time>2021-03-20T18:01:07Z</time>
      </trkpt>
      <trkpt lat="55.48541" lon="-3.81316">
        <ele>294.48</ele>
        <time>2021-03-20T18:01:10Z</time>
      </trkpt>
      <trkpt lat="55.4864" lon="-3.81393">
        <ele>291.32</ele>
        <time>2021-03-20T18:01:12Z</time>
      </trkpt>
      <trkpt lat="55.4868" lon="-3.8142">
        <ele>291.41</ele>
        <time>2021-03-20T18:01:15Z</time>
      </trkpt>
      <trkpt lat="55.48712" lon="-3.81434">
        <ele>292.75</ele>
        <time>2021-03-20T18:01:18Z</time>
      </trkpt>
      <trkpt lat="55.4872" lon="-3.81435">
        <ele>293.21</ele>
        <time>2021-03-20T18:01:21Z</time>
      </trkpt>
      <trkpt lat="55.48801" lon="-3.81435">
        <ele>294.83</ele>
        <time>2021-03-20T18:01:24Z</time>
      </trkpt>
      <trkpt lat="55.48834" lon="-3.81426">
        <ele>298.52</ele>
        <time>2021-03-20T18:01:27Z</time>
      </trkpt>
      <trkpt lat="55.48903" lon="-3.81427">
        <ele>294.52</ele>
        <time>2021-03-20T18:01:29Z</time>
      </trkpt>
      <trkpt lat="55.48925" lon="-3.81435">
        <ele>293.2</ele>
        <time>2021-03-20T18:01:32Z</time>
      </trkpt>
      <trkpt lat="55.48948" lon="-3.81448">
        <ele>292.56</ele>
        <time>2021-03-20T18:01:35Z</time>
      </trkpt>
      <trkpt lat="55.4898" lon="-3.81479">
        <ele>289.75</ele>
        <time>2021-03-20T18:01:38Z</time>
      </trkpt>
      <trkpt lat="55.49018" lon="-3.81509">
        <ele>289.02</ele>
        <time>2021-03-20T18:01:41Z</time>
      </trkpt>
      <trkpt lat="55.4905" lon="-3.81538">
        <ele>288.35</ele>
        <time>2021-03-20T18:01:44Z</time>
      </trkpt>
      <trkpt lat="55.49075" lon="-3.81572">
        <ele>289.79</ele>
        <time>2021-03-20T18:01:47Z</time>
      </trkpt>
      <trkpt lat="55.49154" lon="-3.81689">
        <ele>292.27</ele>
        <time>2021-03-20T18:01:49Z</time>
      </trkpt>
      <trkpt lat="55.49194" lon="-3.81741">
        <ele>293.3</ele>
        <time>2021-03-20T18:01:52Z</time>
      </trkpt>
      <trkpt lat="55.49213" lon="-3.81762">
        <ele>294.58</ele>
        <time>2021-03-20T18:01:55Z</time>
      </trkpt>
      <trkpt lat="55.49269" lon="-3.81814">
        <ele>298.5</ele>
        <time>2021-03-20T18:01:58Z</time>
      </trkpt>
      <trkpt lat="55.49333" lon="-3.81861">
        <ele>299.96</ele>
        <time>2021-03-20T18:02:01Z</time>
      </trkpt>
      <trkpt lat="55.49354" lon="-3.8188">
        <ele>301.04</ele>
        <time>2021-03-20T18:02:04Z</time>
      </trkpt>
      <trkpt lat="55.49402" lon="-3.81933">
        <ele>302.28</ele>
        <time>2021-03-20T18:02:06Z</time>
      </trkpt>
      <trkpt lat="55.49423" lon="-3.81959">
        <ele>302.67</ele>
        <time>2021-03-20T18:02:09Z</time>
      </trkpt>
      <trkpt lat="55.49432" lon="-3.81976">
        <ele>302.55</ele>
        <time>2021-03-20T18:02:12Z</time>
      </trkpt>
      <trkpt lat="55.49447" lon="-3.82009">
        <ele>303.42</ele>
        <time>2021-03-20T18:02:15Z</time>
      </trkpt>
      <trkpt lat="55.49495" lon="-3.82153">
        <ele>311.14</ele>
        <time>2021-03-20T18:02:18Z</time>
      </trkpt>
      <trkpt lat="55.49502" lon="-3.822">
        <ele>313.35</ele>
        <time>2021-03-20T18:02:21Z</time>
      </trkpt>
      <trkpt lat="55.49508" lon="-3.82291">
        <ele>317.83</ele>
        <time>2021-03-20T18:02:23Z</time>
      </trkpt>
      <trkpt lat="55.4952" lon="-3.82381">
        <ele>324.51</ele>
        <time>2021-03-20T18:02:26Z</time>
      </trkpt>
      <trkpt lat="55.49525" lon="-3.82402">
        <ele>326.48</ele>
        <time>2021-03-20T18:02:29Z</time>
      </trkpt>
      <trkpt lat="55.49547" lon="-3.82465">
        <ele>332.83</ele>
        <time>2021-03-20T18:02:32Z</time>
      </trkpt>
      <trkpt lat="55.49553" lon="-3.82486">
        <ele>334.14</ele>
        <time>2021-03-20T18:02:35Z</time>
      </trkpt>
      <trkpt lat="55.49568" lon="-3.82588">
        <ele>338.89</ele>
        <time>2021-03-20T18:02:38Z</time>
      </trkpt>
      <trkpt lat="55.49605" lon="-3.82695">
        <ele>347.79</ele>
        <time>2021-03-20T18:02:41Z</time>
      </trkpt>
      <trkpt lat="55.49627" lon="-3.82788">
        <ele>352.54</ele>
        <time>2021-03-20T18:02:43Z</time>
      </trkpt>
      <trkpt lat="55.49647" lon="-3.82863">
        <ele>353.61</ele>
        <time>2021-03-20T18:02:46Z</time>
      </trkpt>
      <trkpt lat="55.49698" lon="-3.82986">
        <ele>352.76</ele>
        <time>2021-03-20T18:02:49Z</time>
      </trkpt>
      <trkpt lat="55.49722" lon="-3.83032">
        <ele>351.63</ele>
        <time>2021-03-20T18:02:52Z</time>
      </trkpt>
      <trkpt lat="55.49743" lon="-3.83063">
        <ele>350.17</ele>
        <time>2021-03-20T18:02:55Z</time>
      </trkpt>
      <trkpt lat="55.49764" lon="-3.8309">
        <ele>349.16</ele>
        <time>2021-03-20T18:02:58Z</time>
      </trkpt>
      <trkpt lat="55.49865" lon="-3.83205">
        <ele>343.62</ele>
        <time>2021-03-20T18:03:00Z</time>
      </trkpt>
      <trkpt lat="55.49884" lon="-3.83232">
        <ele>342.66</ele>
        <time>2021-03-20T18:03:03Z</time>
      </trkpt>
      <trkpt lat="55.49925" lon="-3.83304">
        <ele>337.08</ele>
        <time>2021-03-20T18:03:06Z</time>
      </trkpt>
      <trkpt lat="55.49992" lon="-3.8343">
        <ele>332.55</ele>
        <time>2021-03-20T18:03:09Z</time>
      </trkpt>
      <trkpt lat="55.50046" lon="-3.83541">
        <ele>327.68</ele>
        <time>2021-03-20T18:03:12Z</time>
      </trkpt>
      <trkpt lat="55.50099" lon="-3.83671">
        <ele>326.95</ele>
        <time>2021-03-20T18:03:15Z</time>
      </trkpt>
      <trkpt lat="55.5016" lon="-3.83824">
        <ele>326.88</ele>
        <time>2021-03-20T18:03:17Z</time>
      </trkpt>
      <trkpt lat="55.5019" lon="-3.83919">
        <ele>324.55</ele>
        <time>2021-03-20T18:03:20Z</time>
      </trkpt>
      <trkpt lat="55.50204" lon="-3.83976">
        <ele>322.45</ele>
        <time>2021-03-20T18:03:23Z</time>
      </trkpt>
      <trkpt lat="55.50221" lon="-3.84065">
        <ele>316.33</ele>
        <time>2021-03-20T18:03:26Z</time>
      </trkpt>
      <trkpt lat="55.50235" lon="-3.84127">
        <ele>312.98</ele>
        <time>2021-03-20T18:03:29Z</time>
      </trkpt>
      <trkpt lat="55.50245" lon="-3.84164">
        <ele>311.02</ele>
        <time>2021-03-20T18:03:32Z</time>
      </trkpt>
      <trkpt lat="55.50297" lon="-3.84332">
        <ele>304.73</ele>
        <time>2021-03-20T18:03:35Z</time>
      </trkpt>
      <trkpt lat="55.50329" lon="-3.84462">
        <ele>299.24</ele>
        <time>2021-03-20T18:03:37Z</time>
      </trkpt>
      <trkpt lat="55.50338" lon="-3.84512">
        <ele>297.92</ele>
        <time>2021-03-20T18:03:40Z</time>
      </trkpt>
      <trkpt lat="55.50347" lon="-3.84574">
        <ele>296.81</ele>
        <time>2021-03-20T18:03:43Z</time>
      </trkpt>
      <trkpt lat="55.50352" lon="-3.84598">
        <ele>296.14</ele>
        <time>2021-03-20T18:03:46Z</time>
      </trkpt>
      <trkpt lat="55.50394" lon="-3.84719">
        <ele>291.45</ele>
        <time>2021-03-20T18:03:49Z</time>
      </trkpt>
      <trkpt lat="55.5041" lon="-3.8477">
        <ele>288.65</ele>
        <time>2021-03-20T18:03:52Z</time>
      </trkpt>
      <trkpt lat="55.50452" lon="-3.84876">
        <ele>281.08</ele>
        <time>2021-03-20T18:03:54Z</time>
      </trkpt>
      <trkpt lat="55.50516" lon="-3.85006">
        <ele>275.7</ele>
        <time>2021-03-20T18:03:57Z</time>
      </trkpt>
      <trkpt lat="55.50539" lon="-3.85049">
        <ele>273.85</ele>
        <time>2021-03-20T18:04:00Z</time>
      </trkpt>
      <trkpt lat="55.50563" lon="-3.85084">
        <ele>270.67</ele>
        <time>2021-03-20T18:04:03Z</time>
      </trkpt>
      <trkpt lat="55.50582" lon="-3.85104">
        <ele>268.49</ele>
        <time>2021-03-20T18:04:06Z</time>
      </trkpt>
      <trkpt lat="55.5065" lon="-3.85165">
        <ele>266.11</ele>
        <time>2021-03-20T18:04:09Z</time>
      </trkpt>
      <trkpt lat="55.50676" lon="-3.85184">
        <ele>265.07</ele>
        <time>2021-03-20T18:04:12Z</time>
      </trkpt>
      <trkpt lat="55.5069" lon="-3.85189">
        <ele>265.2</ele>
        <time>2021-03-20T18:04:14Z</time>
      </trkpt>
      <trkpt lat="55.50794" lon="-3.85193">
        <ele>262.55</ele>
        <time>2021-03-20T18:04:17Z</time>
      </trkpt>
      <trkpt lat="55.50993" lon="-3.85234">
        <ele>255.69</ele>
        <time>2021-03-20T18:04:20Z</time>
      </trkpt>
      <trkpt lat="55.51025" lon="-3.85239">
        <ele>254.25</ele>
        <time>2021-03-20T18:04:23Z</time>
      </trkpt>
      <trkpt lat="55.51098" lon="-3.85243">
        <ele>253.86</ele>
        <time>2021-03-20T18:04:26Z</time>
      </trkpt>
      <trkpt lat="55.5116" lon="-3.85255">
        <ele>253.45</ele>
        <time>2021-03-20T18:04:29Z</time>
      </trkpt>
      <trkpt lat="55.51212" lon="-3.85271">
        <ele>251.46</ele>
        <time>2021-03-20T18:04:31Z</time>
      </trkpt>
      <trkpt lat="55.51265" lon="-3.85299">
        <ele>249.75</ele>
        <time>2021-03-20T18:04:34Z</time>
      </trkpt>
      <trkpt lat="55.51286" lon="-3.85317">
        <ele>247.94</ele>
        <time>2021-03-20T18:04:37Z</time>
      </trkpt>
      <trkpt lat="55.51298" lon="-3.85335">
        <ele>245.84</ele>
        <time>2021-03-20T18:04:40Z</time>
      </trkpt>
      <trkpt lat="55.51307" lon="-3.85356">
        <ele>243.61</ele>
        <time>2021-03-20T18:04:43Z</time>
      </trkpt>
      <trkpt lat="55.51313" lon="-3.85374">
        <ele>242.32</ele>
        <time>2021-03-20T18:04:46Z</time>
      </trkpt>
      <trkpt lat="55.51335" lon="-3.85515">
        <ele>232.44</ele>
        <time>2021-03-20T18:04:48Z</time>
      </trkpt>
      <trkpt lat="55.51339" lon="-3.85532">
        <ele>231.65</ele>
        <time>2021-03-20T18:04:51Z</time>
      </trkpt>
      <trkpt lat="55.51344" lon="-3.85546">
        <ele>230.94</ele>
        <time>2021-03-20T18:04:54Z</time>
      </trkpt>
      <trkpt lat="55.51354" lon="-3.85563">
        <ele>229.94</ele>
        <time>2021-03-20T18:04:57Z</time>
      </trkpt>
      <trkpt lat="55.51391" lon="-3.85605">
        <ele>228.09</ele>
        <time>2021-03-20T18:05:00Z</time>
      </trkpt>
      <trkpt lat="55.51404" lon="-3.85624">
        <ele>228.09</ele>
        <time>2021-03-20T18:05:03Z</time>
      </trkpt>
      <trkpt lat="55.51421" lon="-3.85657">
        <ele>227.63</ele>
        <time>2021-03-20T18:05:06Z</time>
      </trkpt>
      <trkpt lat="55.51434" lon="-3.85698">
        <ele>227.18</ele>
        <time>2021-03-20T18:05:08Z</time>
      </trkpt>
      <trkpt lat="55.51449" lon="-3.85773">
        <ele>225.48</ele>
        <time>2021-03-20T18:05:11Z</time>
      </trkpt>
      <trkpt lat="55.51463" lon="-3.85866">
        <ele>222.66</ele>
        <time>2021-03-20T18:05:14Z</time>
      </trkpt>
      <trkpt lat="55.51465" lon="-3.85889">
        <ele>222.73</ele>
        <time>2021-03-20T18:05:17Z</time>
      </trkpt>
      <trkpt lat="55.51464" lon="-3.85931">
        <ele>221.7</ele>
        <time>2021-03-20T18:05:20Z</time>
      </trkpt>
      <trkpt lat="55.51449" lon="-3.86006">
        <ele>219.96</ele>
        <time>2021-03-20T18:05:23Z</time>
      </trkpt>
      <trkpt lat="55.51448" lon="-3.86032">
        <ele>219.89</ele>
        <time>2021-03-20T18:05:25Z</time>
      </trkpt>
      <trkpt lat="55.51454" lon="-3.86092">
        <ele>220</ele>
        <time>2021-03-20T18:05:28Z</time>
      </trkpt>
      <trkpt lat="55.51458" lon="-3.86115">
        <ele>220.15</ele>
        <time>2021-03-20T18:05:31Z</time>
      </trkpt>
      <trkpt lat="55.51467" lon="-3.86145">
        <ele>221.22</ele>
        <time>2021-03-20T18:05:34Z</time>
      </trkpt>
      <trkpt lat="55.51503" lon="-3.86216">
        <ele>222.7</ele>
        <time>2021-03-20T18:05:37Z</time>
      </trkpt>
      <trkpt lat="55.51544" lon="-3.86308">
        <ele>224.67</ele>
        <time>2021-03-20T18:05:40Z</time>
      </trkpt>
      <trkpt lat="55.51565" lon="-3.86342">
        <ele>226</ele>
        <time>2021-03-20T18:05:42Z</time>
      </trkpt>
      <trkpt lat="55.51586" lon="-3.86366">
        <ele>225.9</ele>
        <time>2021-03-20T18:05:45Z</time>
      </trkpt>
      <trkpt lat="55.516" lon="-3.86377">
        <ele>225.41</ele>
        <time>2021-03-20T18:05:48Z</time>
      </trkpt>
      <trkpt lat="55.51658" lon="-3.86402">
        <ele>224.48</ele>
        <time>2021-03-20T18:05:51Z</time>
      </trkpt>
      <trkpt lat="55.51716" lon="-3.86434">
        <ele>224.61</ele>
        <time>2021-03-20T18:05:54Z</time>
      </trkpt>
      <trkpt lat="55.51846" lon="-3.86511">
        <ele>220.47</ele>
        <time>2021-03-20T18:05:57Z</time>
      </trkpt>
      <trkpt lat="55.51873" lon="-3.8653">
        <ele>220.07</ele>
        <time>2021-03-20T18:06:00Z</time>
      </trkpt>
      <trkpt lat="55.51886" lon="-3.86545">
        <ele>220.62</ele>
        <time>2021-03-20T18:06:02Z</time>
      </trkpt>
      <trkpt lat="55.51899" lon="-3.86565">
        <ele>220.61</ele>
        <time>2021-03-20T18:06:05Z</time>
      </trkpt>
      <trkpt lat="55.51965" lon="-3.86682">
        <ele>219.74</ele>
        <time>2021-03-20T18:06:08Z</time>
      </trkpt>
      <trkpt lat="55.52004" lon="-3.86741">
        <ele>220.4</ele>
        <time>2021-03-20T18:06:11Z</time>
      </trkpt>
      <trkpt lat="55.52034" lon="-3.86777">
        <ele>219.32</ele>
        <time>2021-03-20T18:06:14Z</time>
      </trkpt>
      <trkpt lat="55.52075" lon="-3.86821">
        <ele>216.43</ele>
        <time>2021-03-20T18:06:17Z</time>
      </trkpt>
      <trkpt lat="55.52087" lon="-3.8684">
        <ele>216.3</ele>
        <time>2021-03-20T18:06:19Z</time>
      </trkpt>
      <trkpt lat="55.52125" lon="-3.86934">
        <ele>217.07</ele>
        <time>2021-03-20T18:06:22Z</time>
      </trkpt>
      <trkpt lat="55.52139" lon="-3.86958">
        <ele>216.48</ele>
        <time>2021-03-20T18:06:25Z</time>
      </trkpt>
      <trkpt lat="55.52155" lon="-3.86979">
        <ele>216.62</ele>
        <time>2021-03-20T18:06:28Z</time>
      </trkpt>
      <trkpt lat="55.52182" lon="-3.87009">
        <ele>216.47</ele>
        <time>2021-03-20T18:06:31Z</time>
      </trkpt>
      <trkpt lat="55.52193" lon="-3.87026">
        <ele>216.99</ele>
        <time>2021-03-20T18:06:34Z</time>
      </trkpt>
      <trkpt lat="55.52204" lon="-3.87038">
        <ele>217.59</ele>
        <time>2021-03-20T18:06:37Z</time>
      </trkpt>
      <trkpt lat="55.52211" lon="-3.87048">
        <ele>217.89</ele>
        <time>2021-03-20T18:06:39Z</time>
      </trkpt>
      <trkpt lat="55.5225" lon="-3.87124">
        <ele>218.98</ele>
        <time>2021-03-20T18:06:42Z</time>
      </trkpt>
      <trkpt lat="55.52267" lon="-3.87163">
        <ele>218.38</ele>
        <time>2021-03-20T18:06:45Z</time>
      </trkpt>
      <trkpt lat="55.52278" lon="-3.87194">
        <ele>216.06</ele>
        <time>2021-03-20T18:06:48Z</time>
      </trkpt>
      <trkpt lat="55.52292" lon="-3.87252">
        <ele>212.43</ele>
        <time>2021-03-20T18:06:51Z</time>
      </trkpt>
      <trkpt lat="55.52308" lon="-3.87432">
        <ele>211.86</ele>
        <time>2021-03-20T18:06:54Z</time>
      </trkpt>
      <trkpt lat="55.52311" lon="-3.87516">
        <ele>214.49</ele>
        <time>2021-03-20T18:06:56Z</time>
      </trkpt>
      <trkpt lat="55.52316" lon="-3.87538">
        <ele>215.27</ele>
        <time>2021-03-20T18:06:59Z</time>
      </trkpt>
      <trkpt lat="55.52321" lon="-3.87552">
        <ele>215.17</ele>
        <time>2021-03-20T18:07:02Z</time>
      </trkpt>
      <trkpt lat="55.52328" lon="-3.8756">
        <ele>215.05</ele>
        <time>2021-03-20T18:07:05Z</time>
      </trkpt>
      <trkpt lat="55.52337" lon="-3.87589">
        <ele>216.98</ele>
        <time>2021-03-20T18:07:07Z</time>
      </trkpt>
      <trkpt lat="55.52343" lon="-3.87599">
        <ele>217.12</ele>
        <time>2021-03-20T18:07:10Z</time>
      </trkpt>
      <trkpt lat="55.524" lon="-3.87661">
        <ele>219.19</ele>
        <time>2021-03-20T18:07:12Z</time>
      </trkpt>
      <trkpt lat="55.52422" lon="-3.87687">
        <ele>219.71</ele>
        <time>2021-03-20T18:07:15Z</time>
      </trkpt>
      <trkpt lat="55.52471" lon="-3.87755">
        <ele>222.47</ele>
        <time>2021-03-20T18:07:17Z</time>
      </trkpt>
      <trkpt lat="55.52545" lon="-3.87891">
        <ele>225.82</ele>
        <time>2021-03-20T18:07:20Z</time>
      </trkpt>
      <trkpt lat="55.52606" lon="-3.88013">
        <ele>225.9</ele>
        <time>2021-03-20T18:07:22Z</time>
      </trkpt>
      <trkpt lat="55.52631" lon="-3.88059">
        <ele>226.81</ele>
        <time>2021-03-20T18:07:24Z</time>
      </trkpt>
      <trkpt lat="55.52642" lon="-3.88074">
        <ele>227.87</ele>
        <time>2021-03-20T18:07:27Z</time>
      </trkpt>
      <trkpt lat="55.52683" lon="-3.88119">
        <ele>230.41</ele>
        <time>2021-03-20T18:07:29Z</time>
      </trkpt>
      <trkpt lat="55.52834" lon="-3.88284">
        <ele>221.76</ele>
        <time>2021-03-20T18:07:32Z</time>
      </trkpt>
      <trkpt lat="55.52897" lon="-3.88345">
        <ele>220.46</ele>
        <time>2021-03-20T18:07:34Z</time>
      </trkpt>
      <trkpt lat="55.52904" lon="-3.88355">
        <ele>220.48</ele>
        <time>2021-03-20T18:07:37Z</time>
      </trkpt>
      <trkpt lat="55.52913" lon="-3.88372">
        <ele>220.15</ele>
        <time>2021-03-20T18:07:39Z</time>
      </trkpt>
      <trkpt lat="55.52926" lon="-3.88411">
        <ele>219.89</ele>
        <time>2021-03-20T18:07:41Z</time>
      </trkpt>
      <trkpt lat="55.52952" lon="-3.88508">
        <ele>217.93</ele>
        <time>2021-03-20T18:07:44Z</time>
      </trkpt>
      <trkpt lat="55.52963" lon="-3.88535">
        <ele>216.68</ele>
        <time>2021-03-20T18:07:46Z</time>
      </trkpt>
      <trkpt lat="55.52973" lon="-3.88548">
        <ele>215.96</ele>
        <time>2021-03-20T18:07:49Z</time>
      </trkpt>
      <trkpt lat="55.5298" lon="-3.88552">
        <ele>215.43</ele>
        <time>2021-03-20T18:07:51Z</time>
      </trkpt>
      <trkpt lat="55.53002" lon="-3.88558">
        <ele>214</ele>
        <time>2021-03-20T18:07:54Z</time>
      </trkpt>
      <trkpt lat="55.53032" lon="-3.88551">
        <ele>215.16</ele>
        <time>2021-03-20T18:07:56Z</time>
      </trkpt>
      <trkpt lat="55.53065" lon="-3.8853">
        <ele>216.68</ele>
        <time>2021-03-20T18:07:58Z</time>
      </trkpt>
      <trkpt lat="55.53077" lon="-3.88528">
        <ele>217.53</ele>
        <time>2021-03-20T18:08:01Z</time>
      </trkpt>
      <trkpt lat="55.53091" lon="-3.88532">
        <ele>217.9</ele>
        <time>2021-03-20T18:08:03Z</time>
      </trkpt>
      <trkpt lat="55.53098" lon="-3.88541">
        <ele>217.77</ele>
        <time>2021-03-20T18:08:06Z</time>
      </trkpt>
      <trkpt lat="55.53103" lon="-3.88558">
        <ele>217.62</ele>
        <time>2021-03-20T18:08:08Z</time>
      </trkpt>
      <trkpt lat="55.53108" lon="-3.88587">
        <ele>216.77</ele>
        <time>2021-03-20T18:08:10Z</time>
      </trkpt>
      <trkpt lat="55.53113" lon="-3.88602">
        <ele>216.41</ele>
        <time>2021-03-20T18:08:13Z</time>
      </trkpt>
      <trkpt lat="55.53192" lon="-3.8877">
        <ele>214.92</ele>
        <time>2021-03-20T18:08:15Z</time>
      </trkpt>
      <trkpt lat="55.53203" lon="-3.88784">
        <ele>214.54</ele>
        <time>2021-03-20T18:08:18Z</time>
      </trkpt>
      <trkpt lat="55.5321" lon="-3.88789">
        <ele>214.22</ele>
        <time>2021-03-20T18:08:20Z</time>
      </trkpt>
      <trkpt lat="55.53257" lon="-3.88795">
        <ele>211.55</ele>
        <time>2021-03-20T18:08:23Z</time>
      </trkpt>
      <trkpt lat="55.53276" lon="-3.88804">
        <ele>209.25</ele>
        <time>2021-03-20T18:08:25Z</time>
      </trkpt>
      <trkpt lat="55.53315" lon="-3.88845">
        <ele>206.87</ele>
        <time>2021-03-20T18:08:27Z</time>
      </trkpt>
      <trkpt lat="55.53353" lon="-3.88906">
        <ele>210.77</ele>
        <time>2021-03-20T18:08:30Z</time>
      </trkpt>
      <trkpt lat="55.53367" lon="-3.88918">
        <ele>213.19</ele>
        <time>2021-03-20T18:08:32Z</time>
      </trkpt>
      <trkpt lat="55.53383" lon="-3.88921">
        <ele>216.17</ele>
        <time>2021-03-20T18:08:35Z</time>
      </trkpt>
      <trkpt lat="55.53404" lon="-3.88915">
        <ele>218.56</ele>
        <time>2021-03-20T18:08:37Z</time>
      </trkpt>
      <trkpt lat="55.53309" lon="-3.89238">
        <ele>220.82</ele>
        <time>2021-03-20T18:08:42Z</time>
      </trkpt>
      <trkpt lat="55.53156" lon="-3.89685">
        <ele>221.1</ele>
        <time>2021-03-20T18:08:46Z</time>
      </trkpt>
      <trkpt lat="55.53119" lon="-3.89789">
        <ele>219.84</ele>
        <time>2021-03-20T18:08:51Z</time>
      </trkpt>
      <trkpt lat="55.53096" lon="-3.89844">
        <ele>218.71</ele>
        <time>2021-03-20T18:08:56Z</time>
      </trkpt>
      <trkpt lat="55.53083" lon="-3.89866">
        <ele>218.13</ele>
        <time>2021-03-20T18:09:00Z</time>
      </trkpt>
      <trkpt lat="55.53057" lon="-3.89901">
        <ele>217.49</ele>
        <time>2021-03-20T18:09:05Z</time>
      </trkpt>
      <trkpt lat="55.5303" lon="-3.89944">
        <ele>219.18</ele>
        <time>2021-03-20T18:09:09Z</time>
      </trkpt>
      <trkpt lat="55.53009" lon="-3.8997">
        <ele>217.91</ele>
        <time>2021-03-20T18:09:14Z</time>
      </trkpt>
      <trkpt lat="55.52949" lon="-3.9002">
        <ele>216.26</ele>
        <time>2021-03-20T18:09:19Z</time>
      </trkpt>
      <trkpt lat="55.52941" lon="-3.9003">
        <ele>215.87</ele>
        <time>2021-03-20T18:09:23Z</time>
      </trkpt>
      <trkpt lat="55.5293" lon="-3.90052">
        <ele>215.46</ele>
        <time>2021-03-20T18:09:28Z</time>
      </trkpt>
      <trkpt lat="55.52924" lon="-3.90069">
        <ele>215.74</ele>
        <time>2021-03-20T18:09:32Z</time>
      </trkpt>
      <trkpt lat="55.52915" lon="-3.90106">
        <ele>216</ele>
        <time>2021-03-20T18:09:37Z</time>
      </trkpt>
      <trkpt lat="55.52902" lon="-3.90188">
        <ele>216.6</ele>
        <time>2021-03-20T18:09:42Z</time>
      </trkpt>
      <trkpt lat="55.52897" lon="-3.9023">
        <ele>216.56</ele>
        <time>2021-03-20T18:09:46Z</time>
      </trkpt>
      <trkpt lat="55.52893" lon="-3.9028">
        <ele>217.09</ele>
        <time>2021-03-20T18:09:51Z</time>
      </trkpt>
      <trkpt lat="55.52894" lon="-3.90354">
        <ele>216.2</ele>
        <time>2021-03-20T18:09:55Z</time>
      </trkpt>
      <trkpt lat="55.52939" lon="-3.90549">
        <ele>223.26</ele>
        <time>2021-03-20T18:10:00Z</time>
      </trkpt>
      <trkpt lat="55.52953" lon="-3.90614">
        <ele>225.84</ele>
        <time>2021-03-20T18:10:05Z</time>
      </trkpt>
      <trkpt lat="55.52963" lon="-3.90641">
        <ele>228.68</ele>
        <time>2021-03-20T18:10:09Z</time>
      </trkpt>
      <trkpt lat="55.52975" lon="-3.90661">
        <ele>231.55</ele>
        <time>2021-03-20T18:10:14Z</time>
      </trkpt>
      <trkpt lat="55.52983" lon="-3.90679">
        <ele>232.77</ele>
        <time>2021-03-20T18:10:19Z</time>
      </trkpt>
      <trkpt lat="55.52985" lon="-3.90694">
        <ele>232.83</ele>
        <time>2021-03-20T18:10:23Z</time>
      </trkpt>
      <trkpt lat="55.52985" lon="-3.90746">
        <ele>231.3</ele>
        <time>2021-03-20T18:10:28Z</time>
      </trkpt>
      <trkpt lat="55.52978" lon="-3.9084">
        <ele>229.22</ele>
        <time>2021-03-20T18:10:32Z</time>
      </trkpt>
      <trkpt lat="55.52978" lon="-3.90971">
        <ele>231.78</ele>
        <time>2021-03-20T18:10:37Z</time>
      </trkpt>
      <trkpt lat="55.52976" lon="-3.91003">
        <ele>231.13</ele>
        <time>2021-03-20T18:10:42Z</time>
      </trkpt>
      <trkpt lat="55.52976" lon="-3.91194">
        <ele>229.02</ele>
        <time>2021-03-20T18:10:46Z</time>
      </trkpt>
      <trkpt lat="55.5298" lon="-3.91257">
        <ele>229.03</ele>
        <time>2021-03-20T18:10:51Z</time>
      </trkpt>
      <trkpt lat="55.52994" lon="-3.91344">
        <ele>229.01</ele>
        <time>2021-03-20T18:10:55Z</time>
      </trkpt>
      <trkpt lat="55.53" lon="-3.91368">
        <ele>228.96</ele>
        <time>2021-03-20T18:11:00Z</time>
      </trkpt>
      <trkpt lat="55.53008" lon="-3.9139">
        <ele>230.07</ele>
        <time>2021-03-20T18:11:05Z</time>
      </trkpt>
      <trkpt lat="55.53026" lon="-3.91424">
        <ele>230.24</ele>
        <time>2021-03-20T18:11:09Z</time>
      </trkpt>
      <trkpt lat="55.53083" lon="-3.91519">
        <ele>231.55</ele>
        <time>2021-03-20T18:11:14Z</time>
      </trkpt>
      <trkpt lat="55.5314" lon="-3.91609">
        <ele>234.28</ele>
        <time>2021-03-20T18:11:18Z</time>
      </trkpt>
      <trkpt lat="55.53153" lon="-3.91633">
        <ele>235.49</ele>
        <time>2021-03-20T18:11:23Z</time>
      </trkpt>
      <trkpt lat="55.53162" lon="-3.91655">
        <ele>235.42</ele>
        <time>2021-03-20T18:11:28Z</time>
      </trkpt>
      <trkpt lat="55.53198" lon="-3.91758">
        <ele>235.05</ele>
        <time>2021-03-20T18:11:32Z</time>
      </trkpt>
      <trkpt lat="55.53208" lon="-3.91777">
        <ele>235.04</ele>
        <time>2021-03-20T18:11:37Z</time>
      </trkpt>
      <trkpt lat="55.53217" lon="-3.91788">
        <ele>235.18</ele>
        <time>2021-03-20T18:11:42Z</time>
      </trkpt>
      <trkpt lat="55.53231" lon="-3.91799">
        <ele>235.15</ele>
        <time>2021-03-20T18:11:46Z</time>
      </trkpt>
      <trkpt lat="55.53269" lon="-3.91807">
        <ele>235.43</ele>
        <time>2021-03-20T18:11:51Z</time>
      </trkpt>
      <trkpt lat="55.53297" lon="-3.91807">
        <ele>235.79</ele>
        <time>2021-03-20T18:11:55Z</time>
      </trkpt>
      <trkpt lat="55.53337" lon="-3.91798">
        <ele>237.22</ele>
        <time>2021-03-20T18:12:00Z</time>
      </trkpt>
      <trkpt lat="55.53358" lon="-3.91799">
        <ele>236.35</ele>
        <time>2021-03-20T18:12:05Z</time>
      </trkpt>
      <trkpt lat="55.53385" lon="-3.91805">
        <ele>235.08</ele>
        <time>2021-03-20T18:12:09Z</time>
      </trkpt>
      <trkpt lat="55.53401" lon="-3.91813">
        <ele>234.47</ele>
        <time>2021-03-20T18:12:14Z</time>
      </trkpt>
      <trkpt lat="55.53422" lon="-3.91828">
        <ele>234.05</ele>
        <time>2021-03-20T18:12:18Z</time>
      </trkpt>
      <trkpt lat="55.53444" lon="-3.91857">
        <ele>232.14</ele>
        <time>2021-03-20T18:12:23Z</time>
      </trkpt>
      <trkpt lat="55.53459" lon="-3.91885">
        <ele>234.11</ele>
        <time>2021-03-20T18:12:28Z</time>
      </trkpt>
      <trkpt lat="55.53466" lon="-3.91901">
        <ele>234.72</ele>
        <time>2021-03-20T18:12:32Z</time>
      </trkpt>
      <trkpt lat="55.53473" lon="-3.91937">
        <ele>235.14</ele>
        <time>2021-03-20T18:12:37Z</time>
      </trkpt>
      <trkpt lat="55.53474" lon="-3.91964">
        <ele>235.28</ele>
        <time>2021-03-20T18:12:41Z</time>
      </trkpt>
      <trkpt lat="55.53463" lon="-3.92047">
        <ele>234.96</ele>
        <time>2021-03-20T18:12:46Z</time>
      </trkpt>
      <trkpt lat="55.53454" lon="-3.92093">
        <ele>234.69</ele>
        <time>2021-03-20T18:12:51Z</time>
      </trkpt>
      <trkpt lat="55.53437" lon="-3.92158">
        <ele>234.64</ele>
        <time>2021-03-20T18:12:55Z</time>
      </trkpt>
      <trkpt lat="55.53422" lon="-3.92234">
        <ele>234.75</ele>
        <time>2021-03-20T18:13:00Z</time>
      </trkpt>
      <trkpt lat="55.53417" lon="-3.92302">
        <ele>234.89</ele>
        <time>2021-03-20T18:13:04Z</time>
      </trkpt>
      <trkpt lat="55.53414" lon="-3.9248">
        <ele>236</ele>
        <time>2021-03-20T18:13:09Z</time>
      </trkpt>
      <trkpt lat="55.5341" lon="-3.92559">
        <ele>236.76</ele>
        <time>2021-03-20T18:13:14Z</time>
      </trkpt>
      <trkpt lat="55.53401" lon="-3.92626">
        <ele>238.52</ele>
        <time>2021-03-20T18:13:18Z</time>
      </trkpt>
      <trkpt lat="55.53383" lon="-3.92697">
        <ele>240.68</ele>
        <time>2021-03-20T18:13:23Z</time>
      </trkpt>
      <trkpt lat="55.53363" lon="-3.92751">
        <ele>241.27</ele>
        <time>2021-03-20T18:13:28Z</time>
      </trkpt>
      <trkpt lat="55.53344" lon="-3.92796">
        <ele>240.84</ele>
        <time>2021-03-20T18:13:32Z</time>
      </trkpt>
      <trkpt lat="55.53273" lon="-3.92911">
        <ele>240.48</ele>
        <time>2021-03-20T18:13:37Z</time>
      </trkpt>
      <trkpt lat="55.53265" lon="-3.92927">
        <ele>240.46</ele>
        <time>2021-03-20T18:13:41Z</time>
      </trkpt>
      <trkpt lat="55.53232" lon="-3.93006">
        <ele>241.47</ele>
        <time>2021-03-20T18:13:46Z</time>
      </trkpt>
      <trkpt lat="55.53209" lon="-3.93051">
        <ele>241.92</ele>
        <time>2021-03-20T18:13:51Z</time>
      </trkpt>
      <trkpt lat="55.53199" lon="-3.93085">
        <ele>243.42</ele>
        <time>2021-03-20T18:13:55Z</time>
      </trkpt>
      <trkpt lat="55.53184" lon="-3.93173">
        <ele>243.62</ele>
        <time>2021-03-20T18:14:00Z</time>
      </trkpt>
      <trkpt lat="55.53176" lon="-3.93207">
        <ele>242.7</ele>
        <time>2021-03-20T18:14:04Z</time>
      </trkpt>
      <trkpt lat="55.53166" lon="-3.93247">
        <ele>242.67</ele>
        <time>2021-03-20T18:14:09Z</time>
      </trkpt>
      <trkpt lat="55.53154" lon="-3.93286">
        <ele>242.4</ele>
        <time>2021-03-20T18:14:14Z</time>
      </trkpt>
      <trkpt lat="55.53135" lon="-3.93332">
        <ele>242.52</ele>
        <time>2021-03-20T18:14:18Z</time>
      </trkpt>
      <trkpt lat="55.53099" lon="-3.93413">
        <ele>243.01</ele>
        <time>2021-03-20T18:14:23Z</time>
      </trkpt>
      <trkpt lat="55.53051" lon="-3.93509">
        <ele>240.4</ele>
        <time>2021-03-20T18:14:27Z</time>
      </trkpt>
      <trkpt lat="55.53042" lon="-3.93535">
        <ele>241.14</ele>
        <time>2021-03-20T18:14:32Z</time>
      </trkpt>
      <trkpt lat="55.53037" lon="-3.93558">
        <ele>241.06</ele>
        <time>2021-03-20T18:14:37Z</time>
      </trkpt>
      <trkpt lat="55.53028" lon="-3.93618">
        <ele>241.54</ele>
        <time>2021-03-20T18:14:41Z</time>
      </trkpt>
      <trkpt lat="55.53015" lon="-3.93743">
        <ele>242.41</ele>
        <time>2021-03-20T18:14:46Z</time>
      </trkpt>
      <trkpt lat="55.52994" lon="-3.9392">
        <ele>244.34</ele>
        <time>2021-03-20T18:14:51Z</time>
      </trkpt>
      <trkpt lat="55.52962" lon="-3.94245">
        <ele>248.19</ele>
        <time>2021-03-20T18:14:55Z</time>
      </trkpt>
      <trkpt lat="55.52959" lon="-3.94293">
        <ele>248.04</ele>
        <time>2021-03-20T18:15:00Z</time>
      </trkpt>
      <trkpt lat="55.52964" lon="-3.94388">
        <ele>247.29</ele>
        <time>2021-03-20T18:15:04Z</time>
      </trkpt>
      <trkpt lat="55.52971" lon="-3.9446">
        <ele>247.21</ele>
        <time>2021-03-20T18:15:09Z</time>
      </trkpt>
      <trkpt lat="55.52979" lon="-3.9451">
        <ele>247.07</ele>
        <time>2021-03-20T18:15:14Z</time>
      </trkpt>
      <trkpt lat="55.52994" lon="-3.94586">
        <ele>247.79</ele>
        <time>2021-03-20T18:15:18Z</time>
      </trkpt>
      <trkpt lat="55.53007" lon="-3.9472">
        <ele>248.62</ele>
        <time>2021-03-20T18:15:23Z</time>
      </trkpt>
      <trkpt lat="55.53007" lon="-3.94766">
        <ele>249.64</ele>
        <time>2021-03-20T18:15:27Z</time>
      </trkpt>
      <trkpt lat="55.53003" lon="-3.94817">
        <ele>249.39</ele>
        <time>2021-03-20T18:15:32Z</time>
      </trkpt>
      <trkpt lat="55.53002" lon="-3.94896">
        <ele>248.96</ele>
        <time>2021-03-20T18:15:37Z</time>
      </trkpt>
      <trkpt lat="55.53027" lon="-3.9514">
        <ele>246.9</ele>
        <time>2021-03-20T18:15:41Z</time>
      </trkpt>
      <trkpt lat="55.5309" lon="-3.95603">
        <ele>250</ele>
        <time>2021-03-20T18:15:46Z</time>
      </trkpt>
      <trkpt lat="55.5315" lon="-3.96034">
        <ele>252</ele>
        <time>2021-03-20T18:15:50Z</time>
      </trkpt>
      <trkpt lat="55.53168" lon="-3.96149">
        <ele>252.94</ele>
        <time>2021-03-20T18:15:55Z</time>
      </trkpt>
      <trkpt lat="55.5317" lon="-3.96173">
        <ele>252.87</ele>
        <time>2021-03-20T18:16:00Z</time>
      </trkpt>
      <trkpt lat="55.5317" lon="-3.96189">
        <ele>252.88</ele>
        <time>2021-03-20T18:16:04Z</time>
      </trkpt>
      <trkpt lat="55.53168" lon="-3.96209">
        <ele>252.97</ele>
        <time>2021-03-20T18:16:09Z</time>
      </trkpt>
      <trkpt lat="55.5316" lon="-3.96234">
        <ele>253.93</ele>
        <time>2021-03-20T18:16:14Z</time>
      </trkpt>
      <trkpt lat="55.53113" lon="-3.96342">
        <ele>253.92</ele>
        <time>2021-03-20T18:16:18Z</time>
      </trkpt>
      <trkpt lat="55.53091" lon="-3.96399">
        <ele>258.94</ele>
        <time>2021-03-20T18:16:23Z</time>
      </trkpt>
      <trkpt lat="55.53088" lon="-3.96414">
        <ele>260.58</ele>
        <time>2021-03-20T18:16:27Z</time>
      </trkpt>
      <trkpt lat="55.53088" lon="-3.9644">
        <ele>261.8</ele>
        <time>2021-03-20T18:16:32Z</time>
      </trkpt>
      <trkpt lat="55.5309" lon="-3.96466">
        <ele>262.79</ele>
        <time>2021-03-20T18:16:37Z</time>
      </trkpt>
      <trkpt lat="55.53095" lon="-3.96489">
        <ele>262.91</ele>
        <time>2021-03-20T18:16:41Z</time>
      </trkpt>
      <trkpt lat="55.53112" lon="-3.96536">
        <ele>262.63</ele>
        <time>2021-03-20T18:16:46Z</time>
      </trkpt>
      <trkpt lat="55.53135" lon="-3.96576">
        <ele>262.7</ele>
        <time>2021-03-20T18:16:50Z</time>
      </trkpt>
      <trkpt lat="55.5316" lon="-3.96613">
        <ele>262.95</ele>
        <time>2021-03-20T18:16:55Z</time>
      </trkpt>
      <trkpt lat="55.53184" lon="-3.96637">
        <ele>263.55</ele>
        <time>2021-03-20T18:17:00Z</time>
      </trkpt>
      <trkpt lat="55.53243" lon="-3.96677">
        <ele>260.91</ele>
        <time>2021-03-20T18:17:04Z</time>
      </trkpt>
      <trkpt lat="55.53258" lon="-3.9669">
        <ele>260.16</ele>
        <time>2021-03-20T18:17:09Z</time>
      </trkpt>
      <trkpt lat="55.53277" lon="-3.96717">
        <ele>259.89</ele>
        <time>2021-03-20T18:17:13Z</time>
      </trkpt>
      <trkpt lat="55.53285" lon="-3.96736">
        <ele>259.82</ele>
        <time>2021-03-20T18:17:18Z</time>
      </trkpt>
      <trkpt lat="55.53317" lon="-3.96819">
        <ele>260.28</ele>
        <time>2021-03-20T18:17:23Z</time>
      </trkpt>
      <trkpt lat="55.53329" lon="-3.96862">
        <ele>260.53</ele>
        <time>2021-03-20T18:17:27Z</time>
      </trkpt>
      <trkpt lat="55.53339" lon="-3.96922">
        <ele>261.73</ele>
        <time>2021-03-20T18:17:32Z</time>
      </trkpt>
      <trkpt lat="55.5336" lon="-3.97091">
        <ele>264.08</ele>
        <time>2021-03-20T18:17:36Z</time>
      </trkpt>
      <trkpt lat="55.53365" lon="-3.97112">
        <ele>263.71</ele>
        <time>2021-03-20T18:17:41Z</time>
      </trkpt>
      <trkpt lat="55.5339" lon="-3.97221">
        <ele>263.89</ele>
        <time>2021-03-20T18:17:46Z</time>
      </trkpt>
      <trkpt lat="55.53421" lon="-3.97312">
        <ele>267</ele>
        <time>2021-03-20T18:17:50Z</time>
      </trkpt>
      <trkpt lat="55.53477" lon="-3.97446">
        <ele>264.48</ele>
        <time>2021-03-20T18:17:55Z</time>
      </trkpt>
      <trkpt lat="55.53519" lon="-3.97524">
        <ele>256.8</ele>
        <time>2021-03-20T18:18:00Z</time>
      </trkpt>
      <trkpt lat="55.53541" lon="-3.97557">
        <ele>255.46</ele>
        <time>2021-03-20T18:18:04Z</time>
      </trkpt>
      <trkpt lat="55.53621" lon="-3.97645">
        <ele>254.19</ele>
        <time>2021-03-20T18:18:09Z</time>
      </trkpt>
      <trkpt lat="55.5364" lon="-3.97683">
        <ele>255.11</ele>
        <time>2021-03-20T18:18:13Z</time>
      </trkpt>
      <trkpt lat="55.53646" lon="-3.97701">
        <ele>255.52</ele>
        <time>2021-03-20T18:18:18Z</time>
      </trkpt>
      <trkpt lat="55.53651" lon="-3.97732">
        <ele>255.51</ele>
        <time>2021-03-20T18:18:23Z</time>
      </trkpt>
      <trkpt lat="55.53653" lon="-3.97765">
        <ele>255.05</ele>
        <time>2021-03-20T18:18:27Z</time>
      </trkpt>
      <trkpt lat="55.53651" lon="-3.97801">
        <ele>254.42</ele>
        <time>2021-03-20T18:18:32Z</time>
      </trkpt>
      <trkpt lat="55.53628" lon="-3.97992">
        <ele>250.8</ele>
        <time>2021-03-20T18:18:36Z</time>
      </trkpt>
      <trkpt lat="55.536" lon="-3.98103">
        <ele>250.22</ele>
        <time>2021-03-20T18:18:41Z</time>
      </trkpt>
      <trkpt lat="55.53561" lon="-3.98234">
        <ele>250.85</ele>
        <time>2021-03-20T18:18:46Z</time>
      </trkpt>
      <trkpt lat="55.53543" lon="-3.98475">
        <ele>250.59</ele>
        <time>2021-03-20T18:18:50Z</time>
      </trkpt>
      <trkpt lat="55.53544" lon="-3.98641">
        <ele>250.17</ele>
        <time>2021-03-20T18:18:55Z</time>
      </trkpt>
      <trkpt lat="55.53539" lon="-3.98798">
        <ele>250.08</ele>
        <time>2021-03-20T18:18:59Z</time>
      </trkpt>
      <trkpt lat="55.53553" lon="-3.98927">
        <ele>250.45</ele>
        <time>2021-03-20T18:19:04Z</time>
      </trkpt>
      <trkpt lat="55.53555" lon="-3.9898">
        <ele>249.99</ele>
        <time>2021-03-20T18:19:09Z</time>
      </trkpt>
      <trkpt lat="55.53555" lon="-3.99036">
        <ele>249.99</ele>
        <time>2021-03-20T18:19:13Z</time>
      </trkpt>
      <trkpt lat="55.53552" lon="-3.9908">
        <ele>249.86</ele>
        <time>2021-03-20T18:19:18Z</time>
      </trkpt>
      <trkpt lat="55.53543" lon="-3.99134">
        <ele>249.54</ele>
        <time>2021-03-20T18:19:23Z</time>
      </trkpt>
      <trkpt lat="55.53526" lon="-3.99211">
        <ele>250.04</ele>
        <time>2021-03-20T18:19:27Z</time>
      </trkpt>
      <trkpt lat="55.53515" lon="-3.99299">
        <ele>252.3</ele>
        <time>2021-03-20T18:19:32Z</time>
      </trkpt>
      <trkpt lat="55.53512" lon="-3.99759">
        <ele>251.43</ele>
        <time>2021-03-20T18:19:36Z</time>
      </trkpt>
      <trkpt lat="55.53506" lon="-3.99804">
        <ele>251.01</ele>
        <time>2021-03-20T18:19:41Z</time>
      </trkpt>
      <trkpt lat="55.53487" lon="-3.99891">
        <ele>248.55</ele>
        <time>2021-03-20T18:19:46Z</time>
      </trkpt>
      <trkpt lat="55.53483" lon="-3.99924">
        <ele>248.38</ele>
        <time>2021-03-20T18:19:50Z</time>
      </trkpt>
      <trkpt lat="55.53482" lon="-3.99955">
        <ele>248.73</ele>
        <time>2021-03-20T18:19:55Z</time>
      </trkpt>
      <trkpt lat="55.53484" lon="-3.99986">
        <ele>249.42</ele>
        <time>2021-03-20T18:19:59Z</time>
      </trkpt>
      <trkpt lat="55.53497" lon="-4.00086">
        <ele>249.76</ele>
        <time>2021-03-20T18:20:04Z</time>
      </trkpt>
      <trkpt lat="55.535" lon="-4.00123">
        <ele>249.98</ele>
        <time>2021-03-20T18:20:09Z</time>
      </trkpt>
      <trkpt lat="55.535" lon="-4.00169">
        <ele>249.98</ele>
        <time>2021-03-20T18:20:13Z</time>
      </trkpt>
      <trkpt lat="55.53495" lon="-4.00252">
        <ele>249.8</ele>
        <time>2021-03-20T18:20:18Z</time>
      </trkpt>
      <trkpt lat="55.53461" lon="-4.00533">
        <ele>244.83</ele>
        <time>2021-03-20T18:20:22Z</time>
      </trkpt>
      <trkpt lat="55.53383" lon="-4.01128">
        <ele>242.65</ele>
        <time>2021-03-20T18:20:27Z</time>
      </trkpt>
      <trkpt lat="55.53374" lon="-4.01179">
        <ele>242.1</ele>
        <time>2021-03-20T18:20:32Z</time>
      </trkpt>
      <trkpt lat="55.5334" lon="-4.01325">
        <ele>241.46</ele>
        <time>2021-03-20T18:20:36Z</time>
      </trkpt>
      <trkpt lat="55.53326" lon="-4.01398">
        <ele>241.17</ele>
        <time>2021-03-20T18:20:41Z</time>
      </trkpt>
      <trkpt lat="55.53263" lon="-4.01864">
        <ele>239.45</ele>
        <time>2021-03-20T18:20:45Z</time>
      </trkpt>
      <trkpt lat="55.5316" lon="-4.02763">
        <ele>238.11</ele>
        <time>2021-03-20T18:20:50Z</time>
      </trkpt>
      <trkpt lat="55.53136" lon="-4.02909">
        <ele>238.15</ele>
        <time>2021-03-20T18:20:55Z</time>
      </trkpt>
      <trkpt lat="55.531" lon="-4.03056">
        <ele>236.34</ele>
        <time>2021-03-20T18:20:59Z</time>
      </trkpt>
      <trkpt lat="55.53019" lon="-4.03551">
        <ele>235.66</ele>
        <time>2021-03-20T18:21:04Z</time>
      </trkpt>
      <trkpt lat="55.53009" lon="-4.03644">
        <ele>232.43</ele>
        <time>2021-03-20T18:21:09Z</time>
      </trkpt>
      <trkpt lat="55.52996" lon="-4.03842">
        <ele>230</ele>
        <time>2021-03-20T18:21:13Z</time>
      </trkpt>
      <trkpt lat="55.52983" lon="-4.04108">
        <ele>231.45</ele>
        <time>2021-03-20T18:21:18Z</time>
      </trkpt>
      <trkpt lat="55.52964" lon="-4.04204">
        <ele>229.83</ele>
        <time>2021-03-20T18:21:22Z</time>
      </trkpt>
      <trkpt lat="55.52763" lon="-4.05093">
        <ele>233.11</ele>
        <time>2021-03-20T18:21:27Z</time>
      </trkpt>
      <trkpt lat="55.52752" lon="-4.05149">
        <ele>233.16</ele>
        <time>2021-03-20T18:21:32Z</time>
      </trkpt>
      <trkpt lat="55.52741" lon="-4.05189">
        <ele>232.25</ele>
        <time>2021-03-20T18:21:36Z</time>
      </trkpt>
      <trkpt lat="55.52727" lon="-4.05229">
        <ele>231.63</ele>
        <time>2021-03-20T18:21:41Z</time>
      </trkpt>
      <trkpt lat="55.52688" lon="-4.0533">
        <ele>229.95</ele>
        <time>2021-03-20T18:21:45Z</time>
      </trkpt>
      <trkpt lat="55.52679" lon="-4.05359">
        <ele>229.26</ele>
        <time>2021-03-20T18:21:50Z</time>
      </trkpt>
      <trkpt lat="55.52666" lon="-4.05409">
        <ele>227.94</ele>
        <time>2021-03-20T18:21:55Z</time>
      </trkpt>
      <trkpt lat="55.52648" lon="-4.0549">
        <ele>227.02</ele>
        <time>2021-03-20T18:21:59Z</time>
      </trkpt>
      <trkpt lat="55.52628" lon="-4.05558">
        <ele>227.62</ele>
        <time>2021-03-20T18:22:04Z</time>
      </trkpt>
      <trkpt lat="55.5262" lon="-4.05595">
        <ele>227.32</ele>
        <time>2021-03-20T18:22:08Z</time>
      </trkpt>
      <trkpt lat="55.52614" lon="-4.05644">
        <ele>226.09</ele>
        <time>2021-03-20T18:22:13Z</time>
      </trkpt>
      <trkpt lat="55.5261" lon="-4.05743">
        <ele>224.97</ele>
        <time>2021-03-20T18:22:18Z</time>
      </trkpt>
      <trkpt lat="55.52589" lon="-4.05851">
        <ele>226.62</ele>
        <time>2021-03-20T18:22:22Z</time>
      </trkpt>
      <trkpt lat="55.52582" lon="-4.05874">
        <ele>227.08</ele>
        <time>2021-03-20T18:22:27Z</time>
      </trkpt>
      <trkpt lat="55.52531" lon="-4.05971">
        <ele>230.9</ele>
        <time>2021-03-20T18:22:32Z</time>
      </trkpt>
      <trkpt lat="55.52507" lon="-4.06006">
        <ele>231</ele>
        <time>2021-03-20T18:22:36Z</time>
      </trkpt>
      <trkpt lat="55.52469" lon="-4.06054">
        <ele>231.23</ele>
        <time>2021-03-20T18:22:41Z</time>
      </trkpt>
      <trkpt lat="55.52443" lon="-4.06094">
        <ele>231.57</ele>
        <time>2021-03-20T18:22:45Z</time>
      </trkpt>
      <trkpt lat="55.52435" lon="-4.06113">
        <ele>230.6</ele>
        <time>2021-03-20T18:22:50Z</time>
      </trkpt>
      <trkpt lat="55.52401" lon="-4.06228">
        <ele>226.79</ele>
        <time>2021-03-20T18:22:55Z</time>
      </trkpt>
      <trkpt lat="55.52357" lon="-4.06361">
        <ele>224</ele>
        <time>2021-03-20T18:22:59Z</time>
      </trkpt>
      <trkpt lat="55.52341" lon="-4.06401">
        <ele>224.12</ele>
        <time>2021-03-20T18:23:04Z</time>
      </trkpt>
      <trkpt lat="55.52182" lon="-4.06664">
        <ele>226.55</ele>
        <time>2021-03-20T18:23:08Z</time>
      </trkpt>
      <trkpt lat="55.52139" lon="-4.06749">
        <ele>224</ele>
        <time>2021-03-20T18:23:13Z</time>
      </trkpt>
      <trkpt lat="55.52124" lon="-4.06786">
        <ele>221.99</ele>
        <time>2021-03-20T18:23:18Z</time>
      </trkpt>
      <trkpt lat="55.52085" lon="-4.0692">
        <ele>222.1</ele>
        <time>2021-03-20T18:23:22Z</time>
      </trkpt>
      <trkpt lat="55.52071" lon="-4.0696">
        <ele>221.18</ele>
        <time>2021-03-20T18:23:27Z</time>
      </trkpt>
      <trkpt lat="55.52029" lon="-4.07045">
        <ele>217.76</ele>
        <time>2021-03-20T18:23:31Z</time>
      </trkpt>
      <trkpt lat="55.51983" lon="-4.07182">
        <ele>215.7</ele>
        <time>2021-03-20T18:23:36Z</time>
      </trkpt>
      <trkpt lat="55.51894" lon="-4.07436">
        <ele>213.17</ele>
        <time>2021-03-20T18:23:41Z</time>
      </trkpt>
      <trkpt lat="55.51766" lon="-4.07755">
        <ele>214.37</ele>
        <time>2021-03-20T18:23:45Z</time>
      </trkpt>
      <trkpt lat="55.51628" lon="-4.08073">
        <ele>209.81</ele>
        <time>2021-03-20T18:23:50Z</time>
      </trkpt>
      <trkpt lat="55.51573" lon="-4.08213">
        <ele>209.23</ele>
        <time>2021-03-20T18:23:55Z</time>
      </trkpt>
      <trkpt lat="55.51534" lon="-4.08324">
        <ele>209.39</ele>
        <time>2021-03-20T18:23:59Z</time>
      </trkpt>
      <trkpt lat="55.5148" lon="-4.08564">
        <ele>207.98</ele>
        <time>2021-03-20T18:24:04Z</time>
      </trkpt>
      <trkpt lat="55.51454" lon="-4.0871">
        <ele>206</ele>
        <time>2021-03-20T18:24:08Z</time>
      </trkpt>
      <trkpt lat="55.51446" lon="-4.08787">
        <ele>205</ele>
        <time>2021-03-20T18:24:13Z</time>
      </trkpt>
      <trkpt lat="55.51395" lon="-4.0928">
        <ele>204.74</ele>
        <time>2021-03-20T18:24:18Z</time>
      </trkpt>
      <trkpt lat="55.51327" lon="-4.09829">
        <ele>211.43</ele>
        <time>2021-03-20T18:24:22Z</time>
      </trkpt>
      <trkpt lat="55.51318" lon="-4.09911">
        <ele>212.8</ele>
        <time>2021-03-20T18:24:27Z</time>
      </trkpt>
      <trkpt lat="55.51313" lon="-4.10025">
        <ele>215.89</ele>
        <time>2021-03-20T18:24:31Z</time>
      </trkpt>
      <trkpt lat="55.51314" lon="-4.10132">
        <ele>217.04</ele>
        <time>2021-03-20T18:24:36Z</time>
      </trkpt>
      <trkpt lat="55.51323" lon="-4.10314">
        <ele>218.23</ele>
        <time>2021-03-20T18:24:41Z</time>
      </trkpt>
      <trkpt lat="55.51334" lon="-4.10497">
        <ele>223.01</ele>
        <time>2021-03-20T18:24:45Z</time>
      </trkpt>
      <trkpt lat="55.51334" lon="-4.10541">
        <ele>222.03</ele>
        <time>2021-03-20T18:24:50Z</time>
      </trkpt>
      <trkpt lat="55.51341" lon="-4.10704">
        <ele>221.57</ele>
        <time>2021-03-20T18:24:54Z</time>
      </trkpt>
      <trkpt lat="55.51352" lon="-4.10865">
        <ele>220.19</ele>
        <time>2021-03-20T18:24:59Z</time>
      </trkpt>
      <trkpt lat="55.51355" lon="-4.10903">
        <ele>219.46</ele>
        <time>2021-03-20T18:25:04Z</time>
      </trkpt>
      <trkpt lat="55.51415" lon="-4.11287">
        <ele>222.64</ele>
        <time>2021-03-20T18:25:08Z</time>
      </trkpt>
      <trkpt lat="55.5142" lon="-4.11333">
        <ele>222</ele>
        <time>2021-03-20T18:25:13Z</time>
      </trkpt>
      <trkpt lat="55.51428" lon="-4.11446">
        <ele>218.61</ele>
        <time>2021-03-20T18:25:17Z</time>
      </trkpt>
      <trkpt lat="55.51426" lon="-4.11493">
        <ele>218.67</ele>
        <time>2021-03-20T18:25:22Z</time>
      </trkpt>
      <trkpt lat="55.51422" lon="-4.11536">
        <ele>217.82</ele>
        <time>2021-03-20T18:25:27Z</time>
      </trkpt>
      <trkpt lat="55.51403" lon="-4.11639">
        <ele>215.49</ele>
        <time>2021-03-20T18:25:31Z</time>
      </trkpt>
      <trkpt lat="55.51432" lon="-4.11668">
        <ele>214.94</ele>
        <time>2021-03-20T18:25:36Z</time>
      </trkpt>
      <trkpt lat="55.51449" lon="-4.11695">
        <ele>214.17</ele>
        <time>2021-03-20T18:25:40Z</time>
      </trkpt>
      <trkpt lat="55.51458" lon="-4.11713">
        <ele>214.47</ele>
        <time>2021-03-20T18:25:45Z</time>
      </trkpt>
      <trkpt lat="55.51463" lon="-4.11731">
        <ele>214.46</ele>
        <time>2021-03-20T18:25:49Z</time>
      </trkpt>
      <trkpt lat="55.51472" lon="-4.11774">
        <ele>214</ele>
        <time>2021-03-20T18:25:54Z</time>
      </trkpt>
      <trkpt lat="55.51477" lon="-4.11809">
        <ele>213.17</ele>
        <time>2021-03-20T18:25:58Z</time>
      </trkpt>
      <trkpt lat="55.51506" lon="-4.12079">
        <ele>215.6</ele>
        <time>2021-03-20T18:26:03Z</time>
      </trkpt>
      <trkpt lat="55.51506" lon="-4.12103">
        <ele>215.66</ele>
        <time>2021-03-20T18:26:07Z</time>
      </trkpt>
      <trkpt lat="55.51497" lon="-4.12219">
        <ele>218.64</ele>
        <time>2021-03-20T18:26:12Z</time>
      </trkpt>
      <trkpt lat="55.51497" lon="-4.12244">
        <ele>219.59</ele>
        <time>2021-03-20T18:26:16Z</time>
      </trkpt>
      <trkpt lat="55.51508" lon="-4.12341">
        <ele>220.29</ele>
        <time>2021-03-20T18:26:21Z</time>
      </trkpt>
      <trkpt lat="55.51571" lon="-4.1286">
        <ele>221.15</ele>
        <time>2021-03-20T18:26:25Z</time>
      </trkpt>
      <trkpt lat="55.51594" lon="-4.13018">
        <ele>218</ele>
        <time>2021-03-20T18:26:29Z</time>
      </trkpt>
      <trkpt lat="55.51619" lon="-4.13174">
        <ele>217.01</ele>
        <time>2021-03-20T18:26:34Z</time>
      </trkpt>
      <trkpt lat="55.51623" lon="-4.13188">
        <ele>216.66</ele>
        <time>2021-03-20T18:26:38Z</time>
      </trkpt>
      <trkpt lat="55.51643" lon="-4.13227">
        <ele>216.97</ele>
        <time>2021-03-20T18:26:43Z</time>
      </trkpt>
      <trkpt lat="55.51786" lon="-4.13443">
        <ele>214.3</ele>
        <time>2021-03-20T18:26:47Z</time>
      </trkpt>
      <trkpt lat="55.51802" lon="-4.13478">
        <ele>214.13</ele>
        <time>2021-03-20T18:26:52Z</time>
      </trkpt>
      <trkpt lat="55.51809" lon="-4.13507">
        <ele>213.97</ele>
        <time>2021-03-20T18:26:56Z</time>
      </trkpt>
      <trkpt lat="55.51816" lon="-4.13555">
        <ele>213.64</ele>
        <time>2021-03-20T18:27:01Z</time>
      </trkpt>
      <trkpt lat="55.51816" lon="-4.13601">
        <ele>212.23</ele>
        <time>2021-03-20T18:27:05Z</time>
      </trkpt>
      <trkpt lat="55.5182" lon="-4.13657">
        <ele>211</ele>
        <time>2021-03-20T18:27:10Z</time>
      </trkpt>
      <trkpt lat="55.5182" lon="-4.13705">
        <ele>209.83</ele>
        <time>2021-03-20T18:27:14Z</time>
      </trkpt>
      <trkpt lat="55.51825" lon="-4.1375">
        <ele>208.71</ele>
        <time>2021-03-20T18:27:19Z</time>
      </trkpt>
      <trkpt lat="55.51826" lon="-4.13816">
        <ele>207.73</ele>
        <time>2021-03-20T18:27:23Z</time>
      </trkpt>
      <trkpt lat="55.5183" lon="-4.13852">
        <ele>207.3</ele>
        <time>2021-03-20T18:27:27Z</time>
      </trkpt>
      <trkpt lat="55.5183" lon="-4.13899">
        <ele>206.96</ele>
        <time>2021-03-20T18:27:32Z</time>
      </trkpt>
      <trkpt lat="55.51835" lon="-4.13946">
        <ele>206.96</ele>
        <time>2021-03-20T18:27:36Z</time>
      </trkpt>
      <trkpt lat="55.51835" lon="-4.14006">
        <ele>204.86</ele>
        <time>2021-03-20T18:27:41Z</time>
      </trkpt>
      <trkpt lat="55.5184" lon="-4.14046">
        <ele>204.23</ele>
        <time>2021-03-20T18:27:45Z</time>
      </trkpt>
      <trkpt lat="55.51841" lon="-4.14114">
        <ele>203.19</ele>
        <time>2021-03-20T18:27:50Z</time>
      </trkpt>
      <trkpt lat="55.51845" lon="-4.14143">
        <ele>202.8</ele>
        <time>2021-03-20T18:27:54Z</time>
      </trkpt>
      <trkpt lat="55.51845" lon="-4.14202">
        <ele>202.64</ele>
        <time>2021-03-20T18:27:59Z</time>
      </trkpt>
      <trkpt lat="55.51849" lon="-4.14241">
        <ele>203.16</ele>
        <time>2021-03-20T18:28:03Z</time>
      </trkpt>
      <trkpt lat="55.5185" lon="-4.14305">
        <ele>202.61</ele>
        <time>2021-03-20T18:28:08Z</time>
      </trkpt>
      <trkpt lat="55.51854" lon="-4.14333">
        <ele>202.73</ele>
        <time>2021-03-20T18:28:12Z</time>
      </trkpt>
      <trkpt lat="55.51855" lon="-4.14354">
        <ele>202.76</ele>
        <time>2021-03-20T18:28:16Z</time>
      </trkpt>
      <trkpt lat="55.51855" lon="-4.14555">
        <ele>204.31</ele>
        <time>2021-03-20T18:28:21Z</time>
      </trkpt>
      <trkpt lat="55.51883" lon="-4.14739">
        <ele>204.77</ele>
        <time>2021-03-20T18:28:25Z</time>
      </trkpt>
      <trkpt lat="55.51931" lon="-4.14964">
        <ele>203.79</ele>
        <time>2021-03-20T18:28:30Z</time>
      </trkpt>
      <trkpt lat="55.51937" lon="-4.1502">
        <ele>203.01</ele>
        <time>2021-03-20T18:28:34Z</time>
      </trkpt>
      <trkpt lat="55.51938" lon="-4.15099">
        <ele>202.26</ele>
        <time>2021-03-20T18:28:39Z</time>
      </trkpt>
      <trkpt lat="55.51943" lon="-4.15141">
        <ele>201.9</ele>
        <time>2021-03-20T18:28:43Z</time>
      </trkpt>
      <trkpt lat="55.5195" lon="-4.15182">
        <ele>201.66</ele>
        <time>2021-03-20T18:28:48Z</time>
      </trkpt>
      <trkpt lat="55.51972" lon="-4.1526">
        <ele>200.96</ele>
        <time>2021-03-20T18:28:52Z</time>
      </trkpt>
      <trkpt lat="55.52041" lon="-4.15469">
        <ele>201.53</ele>
        <time>2021-03-20T18:28:57Z</time>
      </trkpt>
      <trkpt lat="55.52052" lon="-4.15505">
        <ele>201.67</ele>
        <time>2021-03-20T18:29:01Z</time>
      </trkpt>
      <trkpt lat="55.52059" lon="-4.1554">
        <ele>200.57</ele>
        <time>2021-03-20T18:29:06Z</time>
      </trkpt>
      <trkpt lat="55.52064" lon="-4.15578">
        <ele>199.21</ele>
        <time>2021-03-20T18:29:10Z</time>
      </trkpt>
      <trkpt lat="55.52064" lon="-4.15627">
        <ele>197.76</ele>
        <time>2021-03-20T18:29:14Z</time>
      </trkpt>
      <trkpt lat="55.52069" lon="-4.15668">
        <ele>196.41</ele>
        <time>2021-03-20T18:29:19Z</time>
      </trkpt>
      <trkpt lat="55.52069" lon="-4.15724">
        <ele>195.5</ele>
        <time>2021-03-20T18:29:23Z</time>
      </trkpt>
      <trkpt lat="55.52073" lon="-4.15757">
        <ele>196.1</ele>
        <time>2021-03-20T18:29:28Z</time>
      </trkpt>
      <trkpt lat="55.52074" lon="-4.15806">
        <ele>197.64</ele>
        <time>2021-03-20T18:29:32Z</time>
      </trkpt>
      <trkpt lat="55.52078" lon="-4.15832">
        <ele>198.37</ele>
        <time>2021-03-20T18:29:37Z</time>
      </trkpt>
      <trkpt lat="55.52079" lon="-4.15889">
        <ele>197.5</ele>
        <time>2021-03-20T18:29:41Z</time>
      </trkpt>
      <trkpt lat="55.52083" lon="-4.15929">
        <ele>197.99</ele>
        <time>2021-03-20T18:29:46Z</time>
      </trkpt>
      <trkpt lat="55.52084" lon="-4.15976">
        <ele>197.01</ele>
        <time>2021-03-20T18:29:50Z</time>
      </trkpt>
      <trkpt lat="55.52088" lon="-4.16007">
        <ele>196.95</ele>
        <time>2021-03-20T18:29:55Z</time>
      </trkpt>
      <trkpt lat="55.52088" lon="-4.16058">
        <ele>196.29</ele>
        <time>2021-03-20T18:29:59Z</time>
      </trkpt>
      <trkpt lat="55.52093" lon="-4.16099">
        <ele>196.02</ele>
        <time>2021-03-20T18:30:04Z</time>
      </trkpt>
      <trkpt lat="55.52093" lon="-4.16134">
        <ele>196.02</ele>
        <time>2021-03-20T18:30:08Z</time>
      </trkpt>
      <trkpt lat="55.52097" lon="-4.16166">
        <ele>196.48</ele>
        <time>2021-03-20T18:30:12Z</time>
      </trkpt>
      <trkpt lat="55.52098" lon="-4.1621">
        <ele>197.04</ele>
        <time>2021-03-20T18:30:17Z</time>
      </trkpt>
      <trkpt lat="55.52103" lon="-4.16248">
        <ele>197.38</ele>
        <time>2021-03-20T18:30:21Z</time>
      </trkpt>
      <trkpt lat="55.52103" lon="-4.16286">
        <ele>197.1</ele>
        <time>2021-03-20T18:30:26Z</time>
      </trkpt>
      <trkpt lat="55.52108" lon="-4.16328">
        <ele>196.64</ele>
        <time>2021-03-20T18:30:30Z</time>
      </trkpt>
      <trkpt lat="55.52107" lon="-4.1644">
        <ele>197.58</ele>
        <time>2021-03-20T18:30:35Z</time>
      </trkpt>
      <trkpt lat="55.52104" lon="-4.16464">
        <ele>196.51</ele>
        <time>2021-03-20T18:30:39Z</time>
      </trkpt>
      <trkpt lat="55.52094" lon="-4.16499">
        <ele>194.75</ele>
        <time>2021-03-20T18:30:44Z</time>
      </trkpt>
      <trkpt lat="55.51997" lon="-4.16791">
        <ele>185.92</ele>
        <time>2021-03-20T18:30:48Z</time>
      </trkpt>
      <trkpt lat="55.51964" lon="-4.16904">
        <ele>181.16</ele>
        <time>2021-03-20T18:30:53Z</time>
      </trkpt>
      <trkpt lat="55.51915" lon="-4.17099">
        <ele>179</ele>
        <time>2021-03-20T18:30:57Z</time>
      </trkpt>
      <trkpt lat="55.51882" lon="-4.17249">
        <ele>178.74</ele>
        <time>2021-03-20T18:31:02Z</time>
      </trkpt>
      <trkpt lat="55.51826" lon="-4.17556">
        <ele>178.46</ele>
        <time>2021-03-20T18:31:06Z</time>
      </trkpt>
      <trkpt lat="55.51825" lon="-4.17572">
        <ele>178.22</ele>
        <time>2021-03-20T18:31:10Z</time>
      </trkpt>
      <trkpt lat="55.51826" lon="-4.17606">
        <ele>178.18</ele>
        <time>2021-03-20T18:31:15Z</time>
      </trkpt>
      <trkpt lat="55.51864" lon="-4.17856">
        <ele>177.41</ele>
        <time>2021-03-20T18:31:19Z</time>
      </trkpt>
      <trkpt lat="55.51893" lon="-4.18293">
        <ele>178.11</ele>
        <time>2021-03-20T18:31:24Z</time>
      </trkpt>
      <trkpt lat="55.51893" lon="-4.18394">
        <ele>180.9</ele>
        <time>2021-03-20T18:31:28Z</time>
      </trkpt>
      <trkpt lat="55.5188" lon="-4.18487">
        <ele>180.31</ele>
        <time>2021-03-20T18:31:33Z</time>
      </trkpt>
      <trkpt lat="55.51865" lon="-4.18556">
        <ele>177.84</ele>
        <time>2021-03-20T18:31:37Z</time>
      </trkpt>
      <trkpt lat="55.51848" lon="-4.18601">
        <ele>176.49</ele>
        <time>2021-03-20T18:31:42Z</time>
      </trkpt>
      <trkpt lat="55.51653" lon="-4.19042">
        <ele>175</ele>
        <time>2021-03-20T18:31:46Z</time>
      </trkpt>
      <trkpt lat="55.51595" lon="-4.19177">
        <ele>180.21</ele>
        <time>2021-03-20T18:31:51Z</time>
      </trkpt>
      <trkpt lat="55.51584" lon="-4.19218">
        <ele>181.83</ele>
        <time>2021-03-20T18:31:55Z</time>
      </trkpt>
      <trkpt lat="55.51579" lon="-4.19271">
        <ele>181.98</ele>
        <time>2021-03-20T18:31:59Z</time>
      </trkpt>
      <trkpt lat="55.51574" lon="-4.19507">
        <ele>188.39</ele>
        <time>2021-03-20T18:32:04Z</time>
      </trkpt>
      <trkpt lat="55.51568" lon="-4.19762">
        <ele>196.16</ele>
        <time>2021-03-20T18:32:08Z</time>
      </trkpt>
      <trkpt lat="55.51563" lon="-4.19802">
        <ele>197.27</ele>
        <time>2021-03-20T18:32:13Z</time>
      </trkpt>
      <trkpt lat="55.51549" lon="-4.19905">
        <ele>196.92</ele>
        <time>2021-03-20T18:32:17Z</time>
      </trkpt>
      <trkpt lat="55.51552" lon="-4.19969">
        <ele>197.27</ele>
        <time>2021-03-20T18:32:22Z</time>
      </trkpt>
      <trkpt lat="55.51562" lon="-4.2005">
        <ele>197.06</ele>
        <time>2021-03-20T18:32:26Z</time>
      </trkpt>
      <trkpt lat="55.5157" lon="-4.20099">
        <ele>197.52</ele>
        <time>2021-03-20T18:32:31Z</time>
      </trkpt>
      <trkpt lat="55.51641" lon="-4.20386">
        <ele>203</ele>
        <time>2021-03-20T18:32:35Z</time>
      </trkpt>
      <trkpt lat="55.51887" lon="-4.21365">
        <ele>209.12</ele>
        <time>2021-03-20T18:32:40Z</time>
      </trkpt>
      <trkpt lat="55.51899" lon="-4.21392">
        <ele>207.84</ele>
        <time>2021-03-20T18:32:44Z</time>
      </trkpt>
      <trkpt lat="55.51944" lon="-4.2145">
        <ele>206.2</ele>
        <time>2021-03-20T18:32:49Z</time>
      </trkpt>
      <trkpt lat="55.51956" lon="-4.21477">
        <ele>208.67</ele>
        <time>2021-03-20T18:32:53Z</time>
      </trkpt>
      <trkpt lat="55.51965" lon="-4.21513">
        <ele>211.1</ele>
        <time>2021-03-20T18:32:57Z</time>
      </trkpt>
      <trkpt lat="55.51968" lon="-4.21538">
        <ele>212.61</ele>
        <time>2021-03-20T18:33:02Z</time>
      </trkpt>
      <trkpt lat="55.51968" lon="-4.2157">
        <ele>213.74</ele>
        <time>2021-03-20T18:33:06Z</time>
      </trkpt>
      <trkpt lat="55.51963" lon="-4.21606">
        <ele>213.61</ele>
        <time>2021-03-20T18:33:11Z</time>
      </trkpt>
      <trkpt lat="55.51847" lon="-4.22361">
        <ele>224</ele>
        <time>2021-03-20T18:33:15Z</time>
      </trkpt>
      <trkpt lat="55.51844" lon="-4.22398">
        <ele>224</ele>
        <time>2021-03-20T18:33:20Z</time>
      </trkpt>
      <trkpt lat="55.51845" lon="-4.22433">
        <ele>224</ele>
        <time>2021-03-20T18:33:24Z</time>
      </trkpt>
      <trkpt lat="55.51877" lon="-4.22848">
        <ele>219</ele>
        <time>2021-03-20T18:33:29Z</time>
      </trkpt>
      <trkpt lat="55.51876" lon="-4.2288">
        <ele>219</ele>
        <time>2021-03-20T18:33:33Z</time>
      </trkpt>
      <trkpt lat="55.51871" lon="-4.22911">
        <ele>218.22</ele>
        <time>2021-03-20T18:33:38Z</time>
      </trkpt>
      <trkpt lat="55.51852" lon="-4.22992">
        <ele>215.19</ele>
        <time>2021-03-20T18:33:42Z</time>
      </trkpt>
      <trkpt lat="55.5178" lon="-4.23301">
        <ele>215.01</ele>
        <time>2021-03-20T18:33:47Z</time>
      </trkpt>
      <trkpt lat="55.51763" lon="-4.23369">
        <ele>214.54</ele>
        <time>2021-03-20T18:33:51Z</time>
      </trkpt>
      <trkpt lat="55.51582" lon="-4.23904">
        <ele>220.41</ele>
        <time>2021-03-20T18:33:55Z</time>
      </trkpt>
      <trkpt lat="55.51575" lon="-4.23936">
        <ele>220.6</ele>
        <time>2021-03-20T18:34:00Z</time>
      </trkpt>
      <trkpt lat="55.51571" lon="-4.23972">
        <ele>220.54</ele>
        <time>2021-03-20T18:34:04Z</time>
      </trkpt>
      <trkpt lat="55.51479" lon="-4.24974">
        <ele>209.26</ele>
        <time>2021-03-20T18:34:09Z</time>
      </trkpt>
      <trkpt lat="55.51478" lon="-4.25018">
        <ele>210.04</ele>
        <time>2021-03-20T18:34:13Z</time>
      </trkpt>
      <trkpt lat="55.5148" lon="-4.25093">
        <ele>209.77</ele>
        <time>2021-03-20T18:34:18Z</time>
      </trkpt>
      <trkpt lat="55.51535" lon="-4.26238">
        <ele>199.1</ele>
        <time>2021-03-20T18:34:22Z</time>
      </trkpt>
      <trkpt lat="55.51533" lon="-4.26301">
        <ele>198.47</ele>
        <time>2021-03-20T18:34:27Z</time>
      </trkpt>
      <trkpt lat="55.51402" lon="-4.27253">
        <ele>189.02</ele>
        <time>2021-03-20T18:34:31Z</time>
      </trkpt>
      <trkpt lat="55.51296" lon="-4.27729">
        <ele>165.56</ele>
        <time>2021-03-20T18:34:36Z</time>
      </trkpt>
      <trkpt lat="55.51282" lon="-4.27778">
        <ele>161.74</ele>
        <time>2021-03-20T18:34:40Z</time>
      </trkpt>
      <trkpt lat="55.5126" lon="-4.27814">
        <ele>157.96</ele>
        <time>2021-03-20T18:34:45Z</time>
      </trkpt>
      <trkpt lat="55.51106" lon="-4.28044">
        <ele>135.53</ele>
        <time>2021-03-20T18:34:49Z</time>
      </trkpt>
      <trkpt lat="55.51071" lon="-4.28113">
        <ele>131.45</ele>
        <time>2021-03-20T18:34:53Z</time>
      </trkpt>
      <trkpt lat="55.51059" lon="-4.2815">
        <ele>128.82</ele>
        <time>2021-03-20T18:34:58Z</time>
      </trkpt>
      <trkpt lat="55.5104" lon="-4.2822">
        <ele>127.85</ele>
        <time>2021-03-20T18:35:02Z</time>
      </trkpt>
      <trkpt lat="55.51038" lon="-4.28245">
        <ele>127.19</ele>
        <time>2021-03-20T18:35:07Z</time>
      </trkpt>
      <trkpt lat="55.51039" lon="-4.28553">
        <ele>118.4</ele>
        <time>2021-03-20T18:35:11Z</time>
      </trkpt>
      <trkpt lat="55.51037" lon="-4.28703">
        <ele>119.35</ele>
        <time>2021-03-20T18:35:16Z</time>
      </trkpt>
      <trkpt lat="55.51036" lon="-4.28733">
        <ele>119.18</ele>
        <time>2021-03-20T18:35:20Z</time>
      </trkpt>
      <trkpt lat="55.5104" lon="-4.28801">
        <ele>118.54</ele>
        <time>2021-03-20T18:35:25Z</time>
      </trkpt>
      <trkpt lat="55.50978" lon="-4.28808">
        <ele>119.61</ele>
        <time>2021-03-20T18:35:28Z</time>
      </trkpt>
      <trkpt lat="55.50956" lon="-4.28822">
        <ele>122.95</ele>
        <time>2021-03-20T18:35:32Z</time>
      </trkpt>
      <trkpt lat="55.50945" lon="-4.28854">
        <ele>124.18</ele>
        <time>2021-03-20T18:35:36Z</time>
      </trkpt>
      <trkpt lat="55.5093" lon="-4.28939">
        <ele>125.62</ele>
        <time>2021-03-20T18:35:40Z</time>
      </trkpt>
      <trkpt lat="55.50909" lon="-4.29021">
        <ele>128.47</ele>
        <time>2021-03-20T18:35:43Z</time>
      </trkpt>
      <trkpt lat="55.50891" lon="-4.29058">
        <ele>131.82</ele>
        <time>2021-03-20T18:35:47Z</time>
      </trkpt>
      <trkpt lat="55.50841" lon="-4.29117">
        <ele>135.7</ele>
        <time>2021-03-20T18:35:51Z</time>
      </trkpt>
      <trkpt lat="55.50833" lon="-4.29132">
        <ele>136.81</ele>
        <time>2021-03-20T18:35:55Z</time>
      </trkpt>
      <trkpt lat="55.50827" lon="-4.29155">
        <ele>137.45</ele>
        <time>2021-03-20T18:35:58Z</time>
      </trkpt>
      <trkpt lat="55.5083" lon="-4.2919">
        <ele>138.79</ele>
        <time>2021-03-20T18:36:02Z</time>
      </trkpt>
      <trkpt lat="55.50837" lon="-4.29215">
        <ele>139.52</ele>
        <time>2021-03-20T18:36:06Z</time>
      </trkpt>
      <trkpt lat="55.50886" lon="-4.29349">
        <ele>142.66</ele>
        <time>2021-03-20T18:36:09Z</time>
      </trkpt>
      <trkpt lat="55.50912" lon="-4.29407">
        <ele>143.54</ele>
        <time>2021-03-20T18:36:13Z</time>
      </trkpt>
      <trkpt lat="55.50935" lon="-4.29468">
        <ele>146.86</ele>
        <time>2021-03-20T18:36:17Z</time>
      </trkpt>
      <trkpt lat="55.50945" lon="-4.29516">
        <ele>148</ele>
        <time>2021-03-20T18:36:21Z</time>
      </trkpt>
      <trkpt lat="55.50934" lon="-4.29568">
        <ele>147.34</ele>
        <time>2021-03-20T18:36:24Z</time>
      </trkpt>
      <trkpt lat="55.50807" lon="-4.29813">
        <ele>149.05</ele>
        <time>2021-03-20T18:36:28Z</time>
      </trkpt>
      <trkpt lat="55.50784" lon="-4.29883">
        <ele>149.23</ele>
        <time>2021-03-20T18:36:32Z</time>
      </trkpt>
      <trkpt lat="55.51024" lon="-4.30075">
        <ele>149.04</ele>
        <time>2021-03-20T18:36:37Z</time>
      </trkpt>
      <trkpt lat="55.51097" lon="-4.30124">
        <ele>149.29</ele>
        <time>2021-03-20T18:36:41Z</time>
      </trkpt>
      <trkpt lat="55.51106" lon="-4.30123">
        <ele>147.96</ele>
        <time>2021-03-20T18:36:46Z</time>
      </trkpt>
      <trkpt lat="55.51121" lon="-4.30115">
        <ele>145.95</ele>
        <time>2021-03-20T18:36:51Z</time>
      </trkpt>
      <trkpt lat="55.51166" lon="-4.30067">
        <ele>139.87</ele>
        <time>2021-03-20T18:36:55Z</time>
      </trkpt>
      <trkpt lat="55.51189" lon="-4.30057">
        <ele>137.61</ele>
        <time>2021-03-20T18:37:00Z</time>
      </trkpt>
      <trkpt lat="55.51215" lon="-4.30058">
        <ele>130.88</ele>
        <time>2021-03-20T18:37:05Z</time>
      </trkpt>
      <trkpt lat="55.51252" lon="-4.30051">
        <ele>123.67</ele>
        <time>2021-03-20T18:37:10Z</time>
      </trkpt>
      <trkpt lat="55.51264" lon="-4.30037">
        <ele>122.65</ele>
        <time>2021-03-20T18:37:14Z</time>
      </trkpt>
      <trkpt lat="55.5128" lon="-4.3">
        <ele>121.07</ele>
        <time>2021-03-20T18:37:19Z</time>
      </trkpt>
      <trkpt lat="55.51294" lon="-4.2996">
        <ele>121.39</ele>
        <time>2021-03-20T18:37:24Z</time>
      </trkpt>
      <trkpt lat="55.51296" lon="-4.29935">
        <ele>120.74</ele>
        <time>2021-03-20T18:37:28Z</time>
      </trkpt>
      <trkpt lat="55.51289" lon="-4.29916">
        <ele>119.38</ele>
        <time>2021-03-20T18:37:33Z</time>
      </trkpt>
      <trkpt lat="55.51276" lon="-4.29898">
        <ele>117.62</ele>
        <time>2021-03-20T18:37:38Z</time>
      </trkpt>
      <trkpt lat="55.51258" lon="-4.29867">
        <ele>116.42</ele>
        <time>2021-03-20T18:37:42Z</time>
      </trkpt>
      <trkpt lat="55.51263" lon="-4.29852">
        <ele>116.16</ele>
        <time>2021-03-20T18:37:47Z</time>
      </trkpt>
      <trkpt lat="55.51295" lon="-4.29805">
        <ele>116.62</ele>
        <time>2021-03-20T18:37:52Z</time>
      </trkpt>
      <trkpt lat="55.51304" lon="-4.29808">
        <ele>116.93</ele>
        <time>2021-03-20T18:37:56Z</time>
      </trkpt>
      <trkpt lat="55.51355" lon="-4.29788">
        <ele>121.2</ele>
        <time>2021-03-20T18:38:00Z</time>
      </trkpt>
      <trkpt lat="55.51385" lon="-4.29785">
        <ele>124.67</ele>
        <time>2021-03-20T18:38:05Z</time>
      </trkpt>
      <trkpt lat="55.51415" lon="-4.29798">
        <ele>126.01</ele>
        <time>2021-03-20T18:38:09Z</time>
      </trkpt>
      <trkpt lat="55.51444" lon="-4.29841">
        <ele>124.09</ele>
        <time>2021-03-20T18:38:13Z</time>
      </trkpt>
      <trkpt lat="55.5145" lon="-4.29869">
        <ele>121.75</ele>
        <time>2021-03-20T18:38:17Z</time>
      </trkpt>
      <trkpt lat="55.51474" lon="-4.29948">
        <ele>122.44</ele>
        <time>2021-03-20T18:38:22Z</time>
      </trkpt>
      <trkpt lat="55.5149" lon="-4.29983">
        <ele>127.78</ele>
        <time>2021-03-20T18:38:26Z</time>
      </trkpt>
      <trkpt lat="55.51515" lon="-4.30001">
        <ele>132.01</ele>
        <time>2021-03-20T18:38:30Z</time>
      </trkpt>
      <trkpt lat="55.51556" lon="-4.30006">
        <ele>132.59</ele>
        <time>2021-03-20T18:38:34Z</time>
      </trkpt>
      <trkpt lat="55.51596" lon="-4.30026">
        <ele>133.98</ele>
        <time>2021-03-20T18:38:39Z</time>
      </trkpt>
      <trkpt lat="55.51635" lon="-4.30074">
        <ele>135.85</ele>
        <time>2021-03-20T18:38:43Z</time>
      </trkpt>
      <trkpt lat="55.51658" lon="-4.30119">
        <ele>137.05</ele>
        <time>2021-03-20T18:38:47Z</time>
      </trkpt>
      <trkpt lat="55.51671" lon="-4.30172">
        <ele>139.32</ele>
        <time>2021-03-20T18:38:51Z</time>
      </trkpt>
      <trkpt lat="55.51674" lon="-4.30234">
        <ele>140.55</ele>
        <time>2021-03-20T18:38:56Z</time>
      </trkpt>
      <trkpt lat="55.51664" lon="-4.3053">
        <ele>149.78</ele>
        <time>2021-03-20T18:39:00Z</time>
      </trkpt>
      <trkpt lat="55.51645" lon="-4.3073">
        <ele>149</ele>
        <time>2021-03-20T18:39:04Z</time>
      </trkpt>
      <trkpt lat="55.51642" lon="-4.30803">
        <ele>148.1</ele>
        <time>2021-03-20T18:39:08Z</time>
      </trkpt>
      <trkpt lat="55.51651" lon="-4.30857">
        <ele>147.91</ele>
        <time>2021-03-20T18:39:13Z</time>
      </trkpt>
      <trkpt lat="55.51706" lon="-4.31019">
        <ele>146.16</ele>
        <time>2021-03-20T18:39:17Z</time>
      </trkpt>
      <trkpt lat="55.51729" lon="-4.31098">
        <ele>146.24</ele>
        <time>2021-03-20T18:39:21Z</time>
      </trkpt>
      <trkpt lat="55.51745" lon="-4.3119">
        <ele>148.48</ele>
        <time>2021-03-20T18:39:25Z</time>
      </trkpt>
      <trkpt lat="55.51814" lon="-4.31921">
        <ele>149.21</ele>
        <time>2021-03-20T18:39:30Z</time>
      </trkpt>
      <trkpt lat="55.51877" lon="-4.32607">
        <ele>129</ele>
        <time>2021-03-20T18:39:34Z</time>
      </trkpt>
      <trkpt lat="55.51885" lon="-4.32642">
        <ele>128.87</ele>
        <time>2021-03-20T18:39:38Z</time>
      </trkpt>
      <trkpt lat="55.51898" lon="-4.32661">
        <ele>129.91</ele>
        <time>2021-03-20T18:39:42Z</time>
      </trkpt>
      <trkpt lat="55.51912" lon="-4.32669">
        <ele>131.58</ele>
        <time>2021-03-20T18:39:47Z</time>
      </trkpt>
      <trkpt lat="55.51924" lon="-4.32673">
        <ele>132.57</ele>
        <time>2021-03-20T18:39:51Z</time>
      </trkpt>
      <trkpt lat="55.51973" lon="-4.32674">
        <ele>134.54</ele>
        <time>2021-03-20T18:39:55Z</time>
      </trkpt>
      <trkpt lat="55.51984" lon="-4.32678">
        <ele>135.25</ele>
        <time>2021-03-20T18:39:59Z</time>
      </trkpt>
      <trkpt lat="55.51999" lon="-4.3269">
        <ele>136.64</ele>
        <time>2021-03-20T18:40:04Z</time>
      </trkpt>
      <trkpt lat="55.52013" lon="-4.3271">
        <ele>138.59</ele>
        <time>2021-03-20T18:40:08Z</time>
      </trkpt>
      <trkpt lat="55.52049" lon="-4.32775">
        <ele>146.44</ele>
        <time>2021-03-20T18:40:12Z</time>
      </trkpt>
      <trkpt lat="55.52078" lon="-4.32832">
        <ele>151.13</ele>
        <time>2021-03-20T18:40:16Z</time>
      </trkpt>
      <trkpt lat="55.5209" lon="-4.32861">
        <ele>151.99</ele>
        <time>2021-03-20T18:40:21Z</time>
      </trkpt>
      <trkpt lat="55.52096" lon="-4.32882">
        <ele>152</ele>
        <time>2021-03-20T18:40:25Z</time>
      </trkpt>
      <trkpt lat="55.52101" lon="-4.32905">
        <ele>152.6</ele>
        <time>2021-03-20T18:40:29Z</time>
      </trkpt>
      <trkpt lat="55.52104" lon="-4.32942">
        <ele>153</ele>
        <time>2021-03-20T18:40:33Z</time>
      </trkpt>
      <trkpt lat="55.52115" lon="-4.33354">
        <ele>159.87</ele>
        <time>2021-03-20T18:40:37Z</time>
      </trkpt>
      <trkpt lat="55.52118" lon="-4.33567">
        <ele>162.65</ele>
        <time>2021-03-20T18:40:42Z</time>
      </trkpt>
      <trkpt lat="55.52124" lon="-4.33738">
        <ele>163.47</ele>
        <time>2021-03-20T18:40:46Z</time>
      </trkpt>
      <trkpt lat="55.52123" lon="-4.33809">
        <ele>163.43</ele>
        <time>2021-03-20T18:40:50Z</time>
      </trkpt>
      <trkpt lat="55.52054" lon="-4.34327">
        <ele>169</ele>
        <time>2021-03-20T18:40:54Z</time>
      </trkpt>
      <trkpt lat="55.51892" lon="-4.35505">
        <ele>158.91</ele>
        <time>2021-03-20T18:40:59Z</time>
      </trkpt>
      <trkpt lat="55.51892" lon="-4.35547">
        <ele>159.74</ele>
        <time>2021-03-20T18:41:03Z</time>
      </trkpt>
      <trkpt lat="55.51898" lon="-4.35582">
        <ele>160.31</ele>
        <time>2021-03-20T18:41:07Z</time>
      </trkpt>
      <trkpt lat="55.51922" lon="-4.35659">
        <ele>161.18</ele>
        <time>2021-03-20T18:41:11Z</time>
      </trkpt>
      <trkpt lat="55.51935" lon="-4.35715">
        <ele>161.71</ele>
        <time>2021-03-20T18:41:16Z</time>
      </trkpt>
      <trkpt lat="55.51937" lon="-4.3576">
        <ele>162.23</ele>
        <time>2021-03-20T18:41:20Z</time>
      </trkpt>
      <trkpt lat="55.51928" lon="-4.35868">
        <ele>171.52</ele>
        <time>2021-03-20T18:41:24Z</time>
      </trkpt>
      <trkpt lat="55.51931" lon="-4.35902">
        <ele>174.35</ele>
        <time>2021-03-20T18:41:28Z</time>
      </trkpt>
      <trkpt lat="55.5196" lon="-4.36006">
        <ele>176.48</ele>
        <time>2021-03-20T18:41:33Z</time>
      </trkpt>
      <trkpt lat="55.51999" lon="-4.3616">
        <ele>187.17</ele>
        <time>2021-03-20T18:41:37Z</time>
      </trkpt>
      <trkpt lat="55.52082" lon="-4.36403">
        <ele>184.1</ele>
        <time>2021-03-20T18:41:41Z</time>
      </trkpt>
      <trkpt lat="55.52092" lon="-4.36478">
        <ele>188.09</ele>
        <time>2021-03-20T18:41:45Z</time>
      </trkpt>
      <trkpt lat="55.52094" lon="-4.36536">
        <ele>190.3</ele>
        <time>2021-03-20T18:41:50Z</time>
      </trkpt>
      <trkpt lat="55.52092" lon="-4.36577">
        <ele>191.18</ele>
        <time>2021-03-20T18:41:54Z</time>
      </trkpt>
      <trkpt lat="55.52087" lon="-4.36617">
        <ele>191.22</ele>
        <time>2021-03-20T18:41:58Z</time>
      </trkpt>
      <trkpt lat="55.52072" lon="-4.36655">
        <ele>190.82</ele>
        <time>2021-03-20T18:42:02Z</time>
      </trkpt>
      <trkpt lat="55.52051" lon="-4.36678">
        <ele>190.75</ele>
        <time>2021-03-20T18:42:07Z</time>
      </trkpt>
      <trkpt lat="55.52002" lon="-4.36713">
        <ele>190.35</ele>
        <time>2021-03-20T18:42:11Z</time>
      </trkpt>
      <trkpt lat="55.52072" lon="-4.36864">
        <ele>187.59</ele>
        <time>2021-03-20T18:42:20Z</time>
      </trkpt>
      <trkpt lat="55.52151" lon="-4.36818">
        <ele>185</ele>
        <time>2021-03-20T18:42:28Z</time>
      </trkpt>
      <trkpt lat="55.52207" lon="-4.36794">
        <ele>181.06</ele>
        <time>2021-03-20T18:42:37Z</time>
      </trkpt>
      <trkpt lat="55.52256" lon="-4.36824">
        <ele>175.02</ele>
        <time>2021-03-20T18:42:46Z</time>
      </trkpt>
      <trkpt lat="55.5229" lon="-4.3685">
        <ele>173.36</ele>
        <time>2021-03-20T18:42:54Z</time>
      </trkpt>
      <trkpt lat="55.52344" lon="-4.36908">
        <ele>170.5</ele>
        <time>2021-03-20T18:43:03Z</time>
      </trkpt>
      <trkpt lat="55.52365" lon="-4.36942">
        <ele>169.2</ele>
        <time>2021-03-20T18:43:11Z</time>
      </trkpt>
      <trkpt lat="55.52464" lon="-4.37181">
        <ele>160.67</ele>
        <time>2021-03-20T18:43:20Z</time>
      </trkpt>
      <trkpt lat="55.52432" lon="-4.37506">
        <ele>173.24</ele>
        <time>2021-03-20T18:43:29Z</time>
      </trkpt>
      <trkpt lat="55.52429" lon="-4.3756">
        <ele>172.4</ele>
        <time>2021-03-20T18:43:38Z</time>
      </trkpt>
      <trkpt lat="55.52429" lon="-4.37613">
        <ele>171.57</ele>
        <time>2021-03-20T18:43:47Z</time>
      </trkpt>
      <trkpt lat="55.52435" lon="-4.37649">
        <ele>172</ele>
        <time>2021-03-20T18:43:56Z</time>
      </trkpt>
      <trkpt lat="55.52554" lon="-4.37998">
        <ele>174.87</ele>
        <time>2021-03-20T18:44:05Z</time>
      </trkpt>
      <trkpt lat="55.52581" lon="-4.38081">
        <ele>176.91</ele>
        <time>2021-03-20T18:44:15Z</time>
      </trkpt>
      <trkpt lat="55.52591" lon="-4.38106">
        <ele>176.72</ele>
        <time>2021-03-20T18:44:24Z</time>
      </trkpt>
      <trkpt lat="55.52575" lon="-4.38146">
        <ele>177.71</ele>
        <time>2021-03-20T18:44:33Z</time>
      </trkpt>
      <trkpt lat="55.52476" lon="-4.38418">
        <ele>176.12</ele>
        <time>2021-03-20T18:44:42Z</time>
      </trkpt>
      <trkpt lat="55.52477" lon="-4.38437">
        <ele>176.18</ele>
        <time>2021-03-20T18:44:51Z</time>
      </trkpt>
      <trkpt lat="55.52499" lon="-4.38477">
        <ele>175.79</ele>
        <time>2021-03-20T18:45:00Z</time>
      </trkpt>
      <trkpt lat="55.52502" lon="-4.38495">
        <ele>175.18</ele>
        <time>2021-03-20T18:45:09Z</time>
      </trkpt>
      <trkpt lat="55.52473" lon="-4.38824">
        <ele>170.01</ele>
        <time>2021-03-20T18:45:18Z</time>
      </trkpt>
      <trkpt lat="55.52376" lon="-4.38812">
        <ele>166</ele>
        <time>2021-03-20T18:45:31Z</time>
      </trkpt>
      <trkpt lat="55.52215" lon="-4.38791">
        <ele>166</ele>
        <time>2021-03-20T18:45:44Z</time>
      </trkpt>
      <trkpt lat="55.52194" lon="-4.38851">
        <ele>165.37</ele>
        <time>2021-03-20T18:45:52Z</time>
      </trkpt>
      <trkpt lat="55.52208" lon="-4.38868">
        <ele>165</ele>
        <time>2021-03-20T18:45:58Z</time>
      </trkpt>
      <trkpt lat="55.52332" lon="-4.39058">
        <ele>164.86</ele>
        <time>2021-03-20T18:46:04Z</time>
      </trkpt>
      <trkpt lat="55.52416" lon="-4.39206">
        <ele>162.04</ele>
        <time>2021-03-20T18:46:11Z</time>
      </trkpt>
      <trkpt lat="55.5244" lon="-4.3924">
        <ele>161.35</ele>
        <time>2021-03-20T18:46:17Z</time>
      </trkpt>
      <trkpt lat="55.52466" lon="-4.39323">
        <ele>162.57</ele>
        <time>2021-03-20T18:46:23Z</time>
      </trkpt>
      <trkpt lat="55.52511" lon="-4.3948">
        <ele>164.41</ele>
        <time>2021-03-20T18:46:30Z</time>
      </trkpt>
      <trkpt lat="55.52647" lon="-4.39898">
        <ele>162.15</ele>
        <time>2021-03-20T18:46:36Z</time>
      </trkpt>
      <trkpt lat="55.52658" lon="-4.39942">
        <ele>163.02</ele>
        <time>2021-03-20T18:46:42Z</time>
      </trkpt>
      <trkpt lat="55.52666" lon="-4.39989">
        <ele>163.9</ele>
        <time>2021-03-20T18:46:48Z</time>
      </trkpt>
      <trkpt lat="55.52675" lon="-4.40078">
        <ele>161.62</ele>
        <time>2021-03-20T18:46:55Z</time>
      </trkpt>
      <trkpt lat="55.52684" lon="-4.40142">
        <ele>161.26</ele>
        <time>2021-03-20T18:47:01Z</time>
      </trkpt>
      <trkpt lat="55.52694" lon="-4.40199">
        <ele>160.83</ele>
        <time>2021-03-20T18:47:07Z</time>
      </trkpt>
      <trkpt lat="55.52787" lon="-4.40569">
        <ele>155.51</ele>
        <time>2021-03-20T18:47:14Z</time>
      </trkpt>
      <trkpt lat="55.52811" lon="-4.40645">
        <ele>157.38</ele>
        <time>2021-03-20T18:47:20Z</time>
      </trkpt>
      <trkpt lat="55.52849" lon="-4.4075">
        <ele>161.87</ele>
        <time>2021-03-20T18:47:26Z</time>
      </trkpt>
      <trkpt lat="55.52862" lon="-4.40797">
        <ele>163.33</ele>
        <time>2021-03-20T18:47:33Z</time>
      </trkpt>
      <trkpt lat="55.52882" lon="-4.40911">
        <ele>165.78</ele>
        <time>2021-03-20T18:47:39Z</time>
      </trkpt>
      <trkpt lat="55.529" lon="-4.40979">
        <ele>165.85</ele>
        <time>2021-03-20T18:47:45Z</time>
      </trkpt>
      <trkpt lat="55.52918" lon="-4.41042">
        <ele>164.88</ele>
        <time>2021-03-20T18:47:52Z</time>
      </trkpt>
      <trkpt lat="55.5294" lon="-4.41103">
        <ele>164.17</ele>
        <time>2021-03-20T18:47:58Z</time>
      </trkpt>
      <trkpt lat="55.53026" lon="-4.41305">
        <ele>166.12</ele>
        <time>2021-03-20T18:48:04Z</time>
      </trkpt>
      <trkpt lat="55.53071" lon="-4.41461">
        <ele>170.03</ele>
        <time>2021-03-20T18:48:11Z</time>
      </trkpt>
      <trkpt lat="55.53101" lon="-4.41553">
        <ele>171.29</ele>
        <time>2021-03-20T18:48:17Z</time>
      </trkpt>
      <trkpt lat="55.53107" lon="-4.41595">
        <ele>172.51</ele>
        <time>2021-03-20T18:48:23Z</time>
      </trkpt>
      <trkpt lat="55.53135" lon="-4.41971">
        <ele>174</ele>
        <time>2021-03-20T18:48:29Z</time>
      </trkpt>
      <trkpt lat="55.53139" lon="-4.42031">
        <ele>172.97</ele>
        <time>2021-03-20T18:48:36Z</time>
      </trkpt>
      <trkpt lat="55.53142" lon="-4.42133">
        <ele>170.29</ele>
        <time>2021-03-20T18:48:42Z</time>
      </trkpt>
      <trkpt lat="55.53145" lon="-4.42221">
        <ele>170</ele>
        <time>2021-03-20T18:48:48Z</time>
      </trkpt>
      <trkpt lat="55.53166" lon="-4.42491">
        <ele>165.04</ele>
        <time>2021-03-20T18:48:55Z</time>
      </trkpt>
      <trkpt lat="55.53171" lon="-4.426">
        <ele>161.93</ele>
        <time>2021-03-20T18:49:01Z</time>
      </trkpt>
      <trkpt lat="55.53171" lon="-4.42682">
        <ele>159.29</ele>
        <time>2021-03-20T18:49:07Z</time>
      </trkpt>
      <trkpt lat="55.53167" lon="-4.42758">
        <ele>156.7</ele>
        <time>2021-03-20T18:49:14Z</time>
      </trkpt>
      <trkpt lat="55.53137" lon="-4.43045">
        <ele>149.42</ele>
        <time>2021-03-20T18:49:20Z</time>
      </trkpt>
      <trkpt lat="55.53141" lon="-4.43102">
        <ele>148</ele>
        <time>2021-03-20T18:49:26Z</time>
      </trkpt>
      <trkpt lat="55.53173" lon="-4.43275">
        <ele>144.09</ele>
        <time>2021-03-20T18:49:33Z</time>
      </trkpt>
      <trkpt lat="55.53218" lon="-4.43528">
        <ele>141</ele>
        <time>2021-03-20T18:49:37Z</time>
      </trkpt>
      <trkpt lat="55.53224" lon="-4.43589">
        <ele>141.06</ele>
        <time>2021-03-20T18:49:41Z</time>
      </trkpt>
      <trkpt lat="55.53449" lon="-4.43812">
        <ele>134.91</ele>
        <time>2021-03-20T18:49:48Z</time>
      </trkpt>
      <trkpt lat="55.53822" lon="-4.44243">
        <ele>128.03</ele>
        <time>2021-03-20T18:49:54Z</time>
      </trkpt>
      <trkpt lat="55.53996" lon="-4.44439">
        <ele>121.5</ele>
        <time>2021-03-20T18:50:01Z</time>
      </trkpt>
      <trkpt lat="55.54029" lon="-4.44481">
        <ele>116.95</ele>
        <time>2021-03-20T18:50:08Z</time>
      </trkpt>
      <trkpt lat="55.54043" lon="-4.44504">
        <ele>116.44</ele>
        <time>2021-03-20T18:50:15Z</time>
      </trkpt>
      <trkpt lat="55.54052" lon="-4.44524">
        <ele>116.11</ele>
        <time>2021-03-20T18:50:21Z</time>
      </trkpt>
      <trkpt lat="55.5406" lon="-4.44547">
        <ele>115.86</ele>
        <time>2021-03-20T18:50:28Z</time>
      </trkpt>
      <trkpt lat="55.54063" lon="-4.44565">
        <ele>115.72</ele>
        <time>2021-03-20T18:50:35Z</time>
      </trkpt>
      <trkpt lat="55.54061" lon="-4.44585">
        <ele>115.81</ele>
        <time>2021-03-20T18:50:41Z</time>
      </trkpt>
      <trkpt lat="55.5402" lon="-4.4474">
        <ele>116</ele>
        <time>2021-03-20T18:50:48Z</time>
      </trkpt>
      <trkpt lat="55.54012" lon="-4.44777">
        <ele>116</ele>
        <time>2021-03-20T18:50:55Z</time>
      </trkpt>
      <trkpt lat="55.54011" lon="-4.44799">
        <ele>115.71</ele>
        <time>2021-03-20T18:51:01Z</time>
      </trkpt>
      <trkpt lat="55.54013" lon="-4.44818">
        <ele>115.54</ele>
        <time>2021-03-20T18:51:08Z</time>
      </trkpt>
      <trkpt lat="55.54023" lon="-4.44838">
        <ele>115.32</ele>
        <time>2021-03-20T18:51:15Z</time>
      </trkpt>
      <trkpt lat="55.54269" lon="-4.45205">
        <ele>118.36</ele>
        <time>2021-03-20T18:51:22Z</time>
      </trkpt>
      <trkpt lat="55.54285" lon="-4.45236">
        <ele>120.04</ele>
        <time>2021-03-20T18:51:28Z</time>
      </trkpt>
      <trkpt lat="55.54294" lon="-4.45265">
        <ele>121.16</ele>
        <time>2021-03-20T18:51:35Z</time>
      </trkpt>
      <trkpt lat="55.543" lon="-4.45299">
        <ele>122.36</ele>
        <time>2021-03-20T18:51:42Z</time>
      </trkpt>
      <trkpt lat="55.54305" lon="-4.45351">
        <ele>123.57</ele>
        <time>2021-03-20T18:51:48Z</time>
      </trkpt>
      <trkpt lat="55.54315" lon="-4.45531">
        <ele>124.34</ele>
        <time>2021-03-20T18:51:55Z</time>
      </trkpt>
      <trkpt lat="55.54326" lon="-4.4558">
        <ele>123.86</ele>
        <time>2021-03-20T18:52:02Z</time>
      </trkpt>
      <trkpt lat="55.54336" lon="-4.45609">
        <ele>124.09</ele>
        <time>2021-03-20T18:52:08Z</time>
      </trkpt>
      <trkpt lat="55.54371" lon="-4.4568">
        <ele>123.5</ele>
        <time>2021-03-20T18:52:15Z</time>
      </trkpt>
      <trkpt lat="55.54418" lon="-4.45748">
        <ele>120.01</ele>
        <time>2021-03-20T18:52:22Z</time>
      </trkpt>
      <trkpt lat="55.54469" lon="-4.45802">
        <ele>117.13</ele>
        <time>2021-03-20T18:52:29Z</time>
      </trkpt>
      <trkpt lat="55.54509" lon="-4.45838">
        <ele>114.53</ele>
        <time>2021-03-20T18:52:35Z</time>
      </trkpt>
      <trkpt lat="55.54546" lon="-4.4586">
        <ele>111.75</ele>
        <time>2021-03-20T18:52:42Z</time>
      </trkpt>
      <trkpt lat="55.54599" lon="-4.4588">
        <ele>107.86</ele>
        <time>2021-03-20T18:52:49Z</time>
      </trkpt>
      <trkpt lat="55.54634" lon="-4.45901">
        <ele>104.9</ele>
        <time>2021-03-20T18:52:55Z</time>
      </trkpt>
      <trkpt lat="55.55106" lon="-4.46305">
        <ele>89.45</ele>
        <time>2021-03-20T18:53:02Z</time>
      </trkpt>
      <trkpt lat="55.55072" lon="-4.46607">
        <ele>88.15</ele>
        <time>2021-03-20T18:53:09Z</time>
      </trkpt>
      <trkpt lat="55.55069" lon="-4.46819">
        <ele>88.75</ele>
        <time>2021-03-20T18:53:16Z</time>
      </trkpt>
      <trkpt lat="55.55057" lon="-4.46876">
        <ele>87.12</ele>
        <time>2021-03-20T18:53:23Z</time>
      </trkpt>
      <trkpt lat="55.55028" lon="-4.4695">
        <ele>87.03</ele>
        <time>2021-03-20T18:53:30Z</time>
      </trkpt>
      <trkpt lat="55.54988" lon="-4.47124">
        <ele>87.35</ele>
        <time>2021-03-20T18:53:37Z</time>
      </trkpt>
      <trkpt lat="55.54914" lon="-4.47273">
        <ele>87.65</ele>
        <time>2021-03-20T18:53:44Z</time>
      </trkpt>
      <trkpt lat="55.54889" lon="-4.47319">
        <ele>87</ele>
        <time>2021-03-20T18:53:51Z</time>
      </trkpt>
      <trkpt lat="55.54851" lon="-4.4751">
        <ele>87.42</ele>
        <time>2021-03-20T18:53:58Z</time>
      </trkpt>
      <trkpt lat="55.54824" lon="-4.47696">
        <ele>88.67</ele>
        <time>2021-03-20T18:54:05Z</time>
      </trkpt>
      <trkpt lat="55.54785" lon="-4.47848">
        <ele>90.77</ele>
        <time>2021-03-20T18:54:12Z</time>
      </trkpt>
      <trkpt lat="55.54613" lon="-4.48313">
        <ele>93.07</ele>
        <time>2021-03-20T18:54:18Z</time>
      </trkpt>
      <trkpt lat="55.54462" lon="-4.48715">
        <ele>101.75</ele>
        <time>2021-03-20T18:54:25Z</time>
      </trkpt>
      <trkpt lat="55.54671" lon="-4.49057">
        <ele>103.33</ele>
        <time>2021-03-20T18:54:31Z</time>
      </trkpt>
      <trkpt lat="55.54679" lon="-4.49076">
        <ele>103.58</ele>
        <time>2021-03-20T18:54:36Z</time>
      </trkpt>
      <trkpt lat="55.5469" lon="-4.49117">
        <ele>103.8</ele>
        <time>2021-03-20T18:54:41Z</time>
      </trkpt>
      <trkpt lat="55.54693" lon="-4.49137">
        <ele>103.89</ele>
        <time>2021-03-20T18:54:46Z</time>
      </trkpt>
      <trkpt lat="55.54697" lon="-4.49207">
        <ele>104.11</ele>
        <time>2021-03-20T18:54:51Z</time>
      </trkpt>
      <trkpt lat="55.54702" lon="-4.49248">
        <ele>104.94</ele>
        <time>2021-03-20T18:54:56Z</time>
      </trkpt>
      <trkpt lat="55.54578" lon="-4.49876">
        <ele>104</ele>
        <time>2021-03-20T18:55:01Z</time>
      </trkpt>
      <trkpt lat="55.54571" lon="-4.49923">
        <ele>104.56</ele>
        <time>2021-03-20T18:55:06Z</time>
      </trkpt>
      <trkpt lat="55.54567" lon="-4.4997">
        <ele>105.56</ele>
        <time>2021-03-20T18:55:11Z</time>
      </trkpt>
      <trkpt lat="55.54551" lon="-4.50259">
        <ele>107.84</ele>
        <time>2021-03-20T18:55:16Z</time>
      </trkpt>
      <trkpt lat="55.54539" lon="-4.50515">
        <ele>106.44</ele>
        <time>2021-03-20T18:55:21Z</time>
      </trkpt>
      <trkpt lat="55.54543" lon="-4.50666">
        <ele>103.47</ele>
        <time>2021-03-20T18:55:26Z</time>
      </trkpt>
      <trkpt lat="55.54542" lon="-4.50689">
        <ele>103.09</ele>
        <time>2021-03-20T18:55:32Z</time>
      </trkpt>
      <trkpt lat="55.54531" lon="-4.5075">
        <ele>102.01</ele>
        <time>2021-03-20T18:55:37Z</time>
      </trkpt>
      <trkpt lat="55.54528" lon="-4.50779">
        <ele>101.95</ele>
        <time>2021-03-20T18:55:42Z</time>
      </trkpt>
      <trkpt lat="55.54527" lon="-4.50801">
        <ele>101.14</ele>
        <time>2021-03-20T18:55:47Z</time>
      </trkpt>
      <trkpt lat="55.54528" lon="-4.50873">
        <ele>100</ele>
        <time>2021-03-20T18:55:52Z</time>
      </trkpt>
      <trkpt lat="55.54532" lon="-4.50905">
        <ele>99.56</ele>
        <time>2021-03-20T18:55:57Z</time>
      </trkpt>
      <trkpt lat="55.54542" lon="-4.50968">
        <ele>99.5</ele>
        <time>2021-03-20T18:56:02Z</time>
      </trkpt>
      <trkpt lat="55.5456" lon="-4.51047">
        <ele>99</ele>
        <time>2021-03-20T18:56:07Z</time>
      </trkpt>
      <trkpt lat="55.54561" lon="-4.51055">
        <ele>99</ele>
        <time>2021-03-20T18:56:12Z</time>
      </trkpt>
      <trkpt lat="55.54559" lon="-4.51062">
        <ele>99</ele>
        <time>2021-03-20T18:56:17Z</time>
      </trkpt>
      <trkpt lat="55.5457" lon="-4.51079">
        <ele>99</ele>
        <time>2021-03-20T18:56:20Z</time>
      </trkpt>
      <trkpt lat="55.54577" lon="-4.51093">
        <ele>99</ele>
        <time>2021-03-20T18:56:23Z</time>
      </trkpt>
      <trkpt lat="55.54586" lon="-4.51115">
        <ele>98.94</ele>
        <time>2021-03-20T18:56:25Z</time>
      </trkpt>
      <trkpt lat="55.54594" lon="-4.51141">
        <ele>98.37</ele>
        <time>2021-03-20T18:56:28Z</time>
      </trkpt>
      <trkpt lat="55.54852" lon="-4.52089">
        <ele>89</ele>
        <time>2021-03-20T18:56:31Z</time>
      </trkpt>
      <trkpt lat="55.54924" lon="-4.52367">
        <ele>90</ele>
        <time>2021-03-20T18:56:33Z</time>
      </trkpt>
      <trkpt lat="55.54929" lon="-4.52391">
        <ele>90.03</ele>
        <time>2021-03-20T18:56:36Z</time>
      </trkpt>
      <trkpt lat="55.54931" lon="-4.52428">
        <ele>90.52</ele>
        <time>2021-03-20T18:56:39Z</time>
      </trkpt>
      <trkpt lat="55.54931" lon="-4.52509">
        <ele>90.85</ele>
        <time>2021-03-20T18:56:41Z</time>
      </trkpt>
      <trkpt lat="55.54924" lon="-4.52636">
        <ele>88.48</ele>
        <time>2021-03-20T18:56:44Z</time>
      </trkpt>
      <trkpt lat="55.54924" lon="-4.52703">
        <ele>89.51</ele>
        <time>2021-03-20T18:56:47Z</time>
      </trkpt>
      <trkpt lat="55.54922" lon="-4.52752">
        <ele>89.17</ele>
        <time>2021-03-20T18:56:49Z</time>
      </trkpt>
      <trkpt lat="55.54921" lon="-4.52792">
        <ele>88.67</ele>
        <time>2021-03-20T18:56:52Z</time>
      </trkpt>
      <trkpt lat="55.54925" lon="-4.52849">
        <ele>88.13</ele>
        <time>2021-03-20T18:56:55Z</time>
      </trkpt>
      <trkpt lat="55.54939" lon="-4.52974">
        <ele>86</ele>
        <time>2021-03-20T18:56:57Z</time>
      </trkpt>
      <trkpt lat="55.54951" lon="-4.53055">
        <ele>86.24</ele>
        <time>2021-03-20T18:57:00Z</time>
      </trkpt>
      <trkpt lat="55.55025" lon="-4.53449">
        <ele>84.85</ele>
        <time>2021-03-20T18:57:03Z</time>
      </trkpt>
      <trkpt lat="55.55035" lon="-4.53488">
        <ele>84</ele>
        <time>2021-03-20T18:57:06Z</time>
      </trkpt>
      <trkpt lat="55.55053" lon="-4.53527">
        <ele>82.17</ele>
        <time>2021-03-20T18:57:08Z</time>
      </trkpt>
      <trkpt lat="55.55133" lon="-4.53655">
        <ele>85.55</ele>
        <time>2021-03-20T18:57:11Z</time>
      </trkpt>
      <trkpt lat="55.5519" lon="-4.53741">
        <ele>82.62</ele>
        <time>2021-03-20T18:57:14Z</time>
      </trkpt>
      <trkpt lat="55.55204" lon="-4.53757">
        <ele>81.92</ele>
        <time>2021-03-20T18:57:16Z</time>
      </trkpt>
      <trkpt lat="55.55217" lon="-4.53768">
        <ele>81.46</ele>
        <time>2021-03-20T18:57:19Z</time>
      </trkpt>
      <trkpt lat="55.5526" lon="-4.53785">
        <ele>81.75</ele>
        <time>2021-03-20T18:57:22Z</time>
      </trkpt>
      <trkpt lat="55.55282" lon="-4.53795">
        <ele>81.38</ele>
        <time>2021-03-20T18:57:24Z</time>
      </trkpt>
      <trkpt lat="55.55291" lon="-4.53803">
        <ele>81.1</ele>
        <time>2021-03-20T18:57:27Z</time>
      </trkpt>
      <trkpt lat="55.55316" lon="-4.53836">
        <ele>81.36</ele>
        <time>2021-03-20T18:57:30Z</time>
      </trkpt>
      <trkpt lat="55.55349" lon="-4.53893">
        <ele>81.92</ele>
        <time>2021-03-20T18:57:32Z</time>
      </trkpt>
      <trkpt lat="55.5536" lon="-4.53908">
        <ele>81.33</ele>
        <time>2021-03-20T18:57:35Z</time>
      </trkpt>
      <trkpt lat="55.55368" lon="-4.53915">
        <ele>80.84</ele>
        <time>2021-03-20T18:57:38Z</time>
      </trkpt>
      <trkpt lat="55.55383" lon="-4.53919">
        <ele>80.23</ele>
        <time>2021-03-20T18:57:40Z</time>
      </trkpt>
      <trkpt lat="55.55408" lon="-4.53921">
        <ele>80.7</ele>
        <time>2021-03-20T18:57:43Z</time>
      </trkpt>
      <trkpt lat="55.55416" lon="-4.53926">
        <ele>80.96</ele>
        <time>2021-03-20T18:57:46Z</time>
      </trkpt>
      <trkpt lat="55.55425" lon="-4.53936">
        <ele>81</ele>
        <time>2021-03-20T18:57:48Z</time>
      </trkpt>
      <trkpt lat="55.55552" lon="-4.54131">
        <ele>85.83</ele>
        <time>2021-03-20T18:57:51Z</time>
      </trkpt>
      <trkpt lat="55.55575" lon="-4.54174">
        <ele>86.76</ele>
        <time>2021-03-20T18:57:54Z</time>
      </trkpt>
      <trkpt lat="55.55582" lon="-4.54193">
        <ele>87</ele>
        <time>2021-03-20T18:57:57Z</time>
      </trkpt>
      <trkpt lat="55.55586" lon="-4.54213">
        <ele>87</ele>
        <time>2021-03-20T18:57:59Z</time>
      </trkpt>
      <trkpt lat="55.55583" lon="-4.54264">
        <ele>87.99</ele>
        <time>2021-03-20T18:58:02Z</time>
      </trkpt>
      <trkpt lat="55.55572" lon="-4.54284">
        <ele>87.69</ele>
        <time>2021-03-20T18:58:05Z</time>
      </trkpt>
      <trkpt lat="55.55557" lon="-4.5432">
        <ele>88</ele>
        <time>2021-03-20T18:58:08Z</time>
      </trkpt>
      <trkpt lat="55.55541" lon="-4.54365">
        <ele>88</ele>
        <time>2021-03-20T18:58:11Z</time>
      </trkpt>
      <trkpt lat="55.55539" lon="-4.54388">
        <ele>88</ele>
        <time>2021-03-20T18:58:14Z</time>
      </trkpt>
      <trkpt lat="55.5554" lon="-4.54404">
        <ele>87.46</ele>
        <time>2021-03-20T18:58:16Z</time>
      </trkpt>
      <trkpt lat="55.55544" lon="-4.54418">
        <ele>87</ele>
        <time>2021-03-20T18:58:19Z</time>
      </trkpt>
      <trkpt lat="55.55558" lon="-4.54448">
        <ele>87.31</ele>
        <time>2021-03-20T18:58:22Z</time>
      </trkpt>
      <trkpt lat="55.55615" lon="-4.5454">
        <ele>92.14</ele>
        <time>2021-03-20T18:58:25Z</time>
      </trkpt>
      <trkpt lat="55.55681" lon="-4.54655">
        <ele>93.98</ele>
        <time>2021-03-20T18:58:28Z</time>
      </trkpt>
      <trkpt lat="55.55692" lon="-4.5467">
        <ele>93.03</ele>
        <time>2021-03-20T18:58:31Z</time>
      </trkpt>
      <trkpt lat="55.55699" lon="-4.54675">
        <ele>92.38</ele>
        <time>2021-03-20T18:58:34Z</time>
      </trkpt>
      <trkpt lat="55.5571" lon="-4.54678">
        <ele>91.51</ele>
        <time>2021-03-20T18:58:37Z</time>
      </trkpt>
      <trkpt lat="55.55722" lon="-4.54675">
        <ele>90.73</ele>
        <time>2021-03-20T18:58:39Z</time>
      </trkpt>
      <trkpt lat="55.55735" lon="-4.54666">
        <ele>91</ele>
        <time>2021-03-20T18:58:42Z</time>
      </trkpt>
      <trkpt lat="55.55801" lon="-4.54605">
        <ele>90.84</ele>
        <time>2021-03-20T18:58:45Z</time>
      </trkpt>
      <trkpt lat="55.55821" lon="-4.546">
        <ele>92.11</ele>
        <time>2021-03-20T18:58:48Z</time>
      </trkpt>
      <trkpt lat="55.55829" lon="-4.54601">
        <ele>92.68</ele>
        <time>2021-03-20T18:58:49Z</time>
      </trkpt>
      <trkpt lat="55.55836" lon="-4.54595">
        <ele>93.29</ele>
        <time>2021-03-20T18:58:51Z</time>
      </trkpt>
      <trkpt lat="55.55846" lon="-4.546">
        <ele>94.41</ele>
        <time>2021-03-20T18:58:52Z</time>
      </trkpt>
      <trkpt lat="55.55878" lon="-4.54648">
        <ele>96.19</ele>
        <time>2021-03-20T18:58:54Z</time>
      </trkpt>
      <trkpt lat="55.55908" lon="-4.5471">
        <ele>96.14</ele>
        <time>2021-03-20T18:58:55Z</time>
      </trkpt>
      <trkpt lat="55.55919" lon="-4.54739">
        <ele>95.49</ele>
        <time>2021-03-20T18:58:57Z</time>
      </trkpt>
      <trkpt lat="55.5594" lon="-4.54807">
        <ele>95.82</ele>
        <time>2021-03-20T18:58:58Z</time>
      </trkpt>
      <trkpt lat="55.55949" lon="-4.54829">
        <ele>96</ele>
        <time>2021-03-20T18:59:00Z</time>
      </trkpt>
      <trkpt lat="55.55973" lon="-4.54865">
        <ele>95</ele>
        <time>2021-03-20T18:59:01Z</time>
      </trkpt>
      <trkpt lat="55.56015" lon="-4.54911">
        <ele>94.22</ele>
        <time>2021-03-20T18:59:03Z</time>
      </trkpt>
      <trkpt lat="55.56057" lon="-4.54965">
        <ele>88.68</ele>
        <time>2021-03-20T18:59:04Z</time>
      </trkpt>
      <trkpt lat="55.56087" lon="-4.55011">
        <ele>82.2</ele>
        <time>2021-03-20T18:59:06Z</time>
      </trkpt>
      <trkpt lat="55.56099" lon="-4.55033">
        <ele>80.71</ele>
        <time>2021-03-20T18:59:07Z</time>
      </trkpt>
      <trkpt lat="55.56107" lon="-4.55041">
        <ele>80.45</ele>
        <time>2021-03-20T18:59:09Z</time>
      </trkpt>
      <trkpt lat="55.56153" lon="-4.55037">
        <ele>81</ele>
        <time>2021-03-20T18:59:10Z</time>
      </trkpt>
      <trkpt lat="55.562" lon="-4.55026">
        <ele>80.87</ele>
        <time>2021-03-20T18:59:12Z</time>
      </trkpt>
      <trkpt lat="55.564" lon="-4.54906">
        <ele>78.58</ele>
        <time>2021-03-20T18:59:15Z</time>
      </trkpt>
      <trkpt lat="55.56586" lon="-4.54801">
        <ele>77.68</ele>
        <time>2021-03-20T18:59:19Z</time>
      </trkpt>
      <trkpt lat="55.56615" lon="-4.54787">
        <ele>76.97</ele>
        <time>2021-03-20T18:59:22Z</time>
      </trkpt>
      <trkpt lat="55.56625" lon="-4.54787">
        <ele>76.67</ele>
        <time>2021-03-20T18:59:26Z</time>
      </trkpt>
      <trkpt lat="55.56637" lon="-4.54791">
        <ele>76.06</ele>
        <time>2021-03-20T18:59:29Z</time>
      </trkpt>
      <trkpt lat="55.5666" lon="-4.54804">
        <ele>75.86</ele>
        <time>2021-03-20T18:59:33Z</time>
      </trkpt>
      <trkpt lat="55.56707" lon="-4.54844">
        <ele>75.14</ele>
        <time>2021-03-20T18:59:36Z</time>
      </trkpt>
      <trkpt lat="55.56761" lon="-4.54852">
        <ele>69.49</ele>
        <time>2021-03-20T18:59:40Z</time>
      </trkpt>
      <trkpt lat="55.5682" lon="-4.54856">
        <ele>62.48</ele>
        <time>2021-03-20T18:59:43Z</time>
      </trkpt>
      <trkpt lat="55.56996" lon="-4.54808">
        <ele>47.16</ele>
        <time>2021-03-20T18:59:47Z</time>
      </trkpt>
      <trkpt lat="55.57044" lon="-4.54791">
        <ele>45.47</ele>
        <time>2021-03-20T18:59:50Z</time>
      </trkpt>
      <trkpt lat="55.57066" lon="-4.54777">
        <ele>45.39</ele>
        <time>2021-03-20T18:59:53Z</time>
      </trkpt>
      <trkpt lat="55.57117" lon="-4.54732">
        <ele>46.85</ele>
        <time>2021-03-20T18:59:57Z</time>
      </trkpt>
      <trkpt lat="55.57131" lon="-4.54725">
        <ele>46.34</ele>
        <time>2021-03-20T19:00:00Z</time>
      </trkpt>
      <trkpt lat="55.5719" lon="-4.54703">
        <ele>47.83</ele>
        <time>2021-03-20T19:00:04Z</time>
      </trkpt>
      <trkpt lat="55.57236" lon="-4.5462">
        <ele>48.15</ele>
        <time>2021-03-20T19:00:07Z</time>
      </trkpt>
      <trkpt lat="55.57293" lon="-4.54488">
        <ele>47.47</ele>
        <time>2021-03-20T19:00:11Z</time>
      </trkpt>
      <trkpt lat="55.57358" lon="-4.54387">
        <ele>49</ele>
        <time>2021-03-20T19:00:14Z</time>
      </trkpt>
      <trkpt lat="55.57467" lon="-4.54252">
        <ele>45.55</ele>
        <time>2021-03-20T19:00:18Z</time>
      </trkpt>
      <trkpt lat="55.57558" lon="-4.54223">
        <ele>44.77</ele>
        <time>2021-03-20T19:00:21Z</time>
      </trkpt>
      <trkpt lat="55.57584" lon="-4.54278">
        <ele>41.96</ele>
        <time>2021-03-20T19:00:25Z</time>
      </trkpt>
      <trkpt lat="55.57638" lon="-4.54403">
        <ele>37.48</ele>
        <time>2021-03-20T19:00:28Z</time>
      </trkpt>
      <trkpt lat="55.57679" lon="-4.54473">
        <ele>34.44</ele>
        <time>2021-03-20T19:00:32Z</time>
      </trkpt>
      <trkpt lat="55.57711" lon="-4.54539">
        <ele>34.58</ele>
        <time>2021-03-20T19:00:35Z</time>
      </trkpt>
      <trkpt lat="55.57722" lon="-4.54553">
        <ele>34.99</ele>
        <time>2021-03-20T19:00:39Z</time>
      </trkpt>
      <trkpt lat="55.57785" lon="-4.54611">
        <ele>40.24</ele>
        <time>2021-03-20T19:00:43Z</time>
      </trkpt>
      <trkpt lat="55.57809" lon="-4.54643">
        <ele>41.89</ele>
        <time>2021-03-20T19:00:46Z</time>
      </trkpt>
      <trkpt lat="55.57897" lon="-4.54803">
        <ele>38.64</ele>
        <time>2021-03-20T19:00:50Z</time>
      </trkpt>
      <trkpt lat="55.57936" lon="-4.54856">
        <ele>38</ele>
        <time>2021-03-20T19:00:53Z</time>
      </trkpt>
      <trkpt lat="55.57966" lon="-4.54888">
        <ele>38</ele>
        <time>2021-03-20T19:00:57Z</time>
      </trkpt>
      <trkpt lat="55.57993" lon="-4.54924">
        <ele>38</ele>
        <time>2021-03-20T19:01:01Z</time>
      </trkpt>
      <trkpt lat="55.58047" lon="-4.55001">
        <ele>39.03</ele>
        <time>2021-03-20T19:01:04Z</time>
      </trkpt>
      <trkpt lat="55.58156" lon="-4.55182">
        <ele>33.27</ele>
        <time>2021-03-20T19:01:08Z</time>
      </trkpt>
      <trkpt lat="55.58169" lon="-4.55196">
        <ele>31.78</ele>
        <time>2021-03-20T19:01:11Z</time>
      </trkpt>
      <trkpt lat="55.58211" lon="-4.55222">
        <ele>28.83</ele>
        <time>2021-03-20T19:01:15Z</time>
      </trkpt>
      <trkpt lat="55.58236" lon="-4.55263">
        <ele>28.48</ele>
        <time>2021-03-20T19:01:18Z</time>
      </trkpt>
      <trkpt lat="55.5831" lon="-4.55468">
        <ele>31.14</ele>
        <time>2021-03-20T19:01:22Z</time>
      </trkpt>
      <trkpt lat="55.58325" lon="-4.55481">
        <ele>31.7</ele>
        <time>2021-03-20T19:01:26Z</time>
      </trkpt>
      <trkpt lat="55.58462" lon="-4.5555">
        <ele>34</ele>
        <time>2021-03-20T19:01:29Z</time>
      </trkpt>
      <trkpt lat="55.58802" lon="-4.55709">
        <ele>27.53</ele>
        <time>2021-03-20T19:01:33Z</time>
      </trkpt>
      <trkpt lat="55.58832" lon="-4.55601">
        <ele>26</ele>
        <time>2021-03-20T19:01:36Z</time>
      </trkpt>
      <trkpt lat="55.58849" lon="-4.5555">
        <ele>25.92</ele>
        <time>2021-03-20T19:01:39Z</time>
      </trkpt>
      <trkpt lat="55.5887" lon="-4.55506">
        <ele>25.46</ele>
        <time>2021-03-20T19:01:43Z</time>
      </trkpt>
      <trkpt lat="55.58897" lon="-4.55478">
        <ele>26</ele>
        <time>2021-03-20T19:01:46Z</time>
      </trkpt>
      <trkpt lat="55.58928" lon="-4.55455">
        <ele>26.15</ele>
        <time>2021-03-20T19:01:49Z</time>
      </trkpt>
      <trkpt lat="55.58994" lon="-4.55426">
        <ele>26</ele>
        <time>2021-03-20T19:01:53Z</time>
      </trkpt>
      <trkpt lat="55.59062" lon="-4.55402">
        <ele>26.24</ele>
        <time>2021-03-20T19:01:56Z</time>
      </trkpt>
      <trkpt lat="55.59129" lon="-4.55386">
        <ele>21.7</ele>
        <time>2021-03-20T19:01:59Z</time>
      </trkpt>
      <trkpt lat="55.59225" lon="-4.55372">
        <ele>17.09</ele>
        <time>2021-03-20T19:02:03Z</time>
      </trkpt>
      <trkpt lat="55.5924" lon="-4.55366">
        <ele>17.65</ele>
        <time>2021-03-20T19:02:06Z</time>
      </trkpt>
      <trkpt lat="55.59274" lon="-4.55335">
        <ele>18.76</ele>
        <time>2021-03-20T19:02:09Z</time>
      </trkpt>
      <trkpt lat="55.59295" lon="-4.55319">
        <ele>19.75</ele>
        <time>2021-03-20T19:02:13Z</time>
      </trkpt>
      <trkpt lat="55.5933" lon="-4.55296">
        <ele>22.31</ele>
        <time>2021-03-20T19:02:16Z</time>
      </trkpt>
      <trkpt lat="55.59346" lon="-4.55291">
        <ele>23.39</ele>
        <time>2021-03-20T19:02:19Z</time>
      </trkpt>
      <trkpt lat="55.5939" lon="-4.553">
        <ele>24.71</ele>
        <time>2021-03-20T19:02:22Z</time>
      </trkpt>
      <trkpt lat="55.59476" lon="-4.55349">
        <ele>25.13</ele>
        <time>2021-03-20T19:02:26Z</time>
      </trkpt>
      <trkpt lat="55.59491" lon="-4.55356">
        <ele>25.67</ele>
        <time>2021-03-20T19:02:29Z</time>
      </trkpt>
      <trkpt lat="55.59526" lon="-4.55356">
        <ele>26.94</ele>
        <time>2021-03-20T19:02:32Z</time>
      </trkpt>
      <trkpt lat="55.59543" lon="-4.55351">
        <ele>27.86</ele>
        <time>2021-03-20T19:02:36Z</time>
      </trkpt>
      <trkpt lat="55.59558" lon="-4.55339">
        <ele>28.31</ele>
        <time>2021-03-20T19:02:39Z</time>
      </trkpt>
      <trkpt lat="55.59571" lon="-4.55315">
        <ele>28.54</ele>
        <time>2021-03-20T19:02:42Z</time>
      </trkpt>
      <trkpt lat="55.59583" lon="-4.55329">
        <ele>28.98</ele>
        <time>2021-03-20T19:02:48Z</time>
      </trkpt>
      <trkpt lat="55.59749" lon="-4.55716">
        <ele>30.02</ele>
        <time>2021-03-20T19:02:53Z</time>
      </trkpt>
      <trkpt lat="55.5978" lon="-4.5577">
        <ele>30.07</ele>
        <time>2021-03-20T19:02:58Z</time>
      </trkpt>
      <trkpt lat="55.59821" lon="-4.55824">
        <ele>31.55</ele>
        <time>2021-03-20T19:03:04Z</time>
      </trkpt>
      <trkpt lat="55.59873" lon="-4.5587">
        <ele>32.42</ele>
        <time>2021-03-20T19:03:09Z</time>
      </trkpt>
      <trkpt lat="55.59937" lon="-4.55923">
        <ele>32.26</ele>
        <time>2021-03-20T19:03:14Z</time>
      </trkpt>
      <trkpt lat="55.5997" lon="-4.55956">
        <ele>30.14</ele>
        <time>2021-03-20T19:03:19Z</time>
      </trkpt>
      <trkpt lat="55.60019" lon="-4.56015">
        <ele>28.31</ele>
        <time>2021-03-20T19:03:25Z</time>
      </trkpt>
      <trkpt lat="55.60054" lon="-4.56072">
        <ele>27.04</ele>
        <time>2021-03-20T19:03:30Z</time>
      </trkpt>
      <trkpt lat="55.60082" lon="-4.56141">
        <ele>27</ele>
        <time>2021-03-20T19:03:35Z</time>
      </trkpt>
      <trkpt lat="55.60101" lon="-4.56197">
        <ele>27</ele>
        <time>2021-03-20T19:03:41Z</time>
      </trkpt>
      <trkpt lat="55.60222" lon="-4.56815">
        <ele>16.98</ele>
        <time>2021-03-20T19:03:46Z</time>
      </trkpt>
      <trkpt lat="55.60246" lon="-4.56952">
        <ele>20.58</ele>
        <time>2021-03-20T19:03:51Z</time>
      </trkpt>
      <trkpt lat="55.603" lon="-4.57199">
        <ele>25.05</ele>
        <time>2021-03-20T19:03:57Z</time>
      </trkpt>
      <trkpt lat="55.60315" lon="-4.5732">
        <ele>22.3</ele>
        <time>2021-03-20T19:04:02Z</time>
      </trkpt>
      <trkpt lat="55.60319" lon="-4.57344">
        <ele>21.8</ele>
        <time>2021-03-20T19:04:07Z</time>
      </trkpt>
      <trkpt lat="55.60334" lon="-4.57384">
        <ele>21</ele>
        <time>2021-03-20T19:04:13Z</time>
      </trkpt>
      <trkpt lat="55.60346" lon="-4.57406">
        <ele>21.9</ele>
        <time>2021-03-20T19:04:18Z</time>
      </trkpt>
      <trkpt lat="55.60378" lon="-4.57428">
        <ele>24.01</ele>
        <time>2021-03-20T19:04:23Z</time>
      </trkpt>
      <trkpt lat="55.60424" lon="-4.57436">
        <ele>26.5</ele>
        <time>2021-03-20T19:04:28Z</time>
      </trkpt>
      <trkpt lat="55.60522" lon="-4.57436">
        <ele>29.77</ele>
        <time>2021-03-20T19:04:34Z</time>
      </trkpt>
      <trkpt lat="55.60551" lon="-4.57439">
        <ele>30.85</ele>
        <time>2021-03-20T19:04:39Z</time>
      </trkpt>
      <trkpt lat="55.6057" lon="-4.57449">
        <ele>32.19</ele>
        <time>2021-03-20T19:04:44Z</time>
      </trkpt>
      <trkpt lat="55.60608" lon="-4.57478">
        <ele>35.77</ele>
        <time>2021-03-20T19:04:50Z</time>
      </trkpt>
      <trkpt lat="55.60645" lon="-4.57496">
        <ele>37.19</ele>
        <time>2021-03-20T19:04:55Z</time>
      </trkpt>
      <trkpt lat="55.6066" lon="-4.5751">
        <ele>38.11</ele>
        <time>2021-03-20T19:05:00Z</time>
      </trkpt>
      <trkpt lat="55.60711" lon="-4.57562">
        <ele>41.29</ele>
        <time>2021-03-20T19:05:06Z</time>
      </trkpt>
      <trkpt lat="55.60805" lon="-4.57589">
        <ele>39.04</ele>
        <time>2021-03-20T19:05:11Z</time>
      </trkpt>
      <trkpt lat="55.60974" lon="-4.576">
        <ele>32.95</ele>
        <time>2021-03-20T19:05:16Z</time>
      </trkpt>
      <trkpt lat="55.61012" lon="-4.5759">
        <ele>32</ele>
        <time>2021-03-20T19:05:21Z</time>
      </trkpt>
      <trkpt lat="55.61055" lon="-4.57564">
        <ele>31.02</ele>
        <time>2021-03-20T19:05:27Z</time>
      </trkpt>
      <trkpt lat="55.61089" lon="-4.57549">
        <ele>31.4</ele>
        <time>2021-03-20T19:05:32Z</time>
      </trkpt>
      <trkpt lat="55.61132" lon="-4.57561">
        <ele>35.12</ele>
        <time>2021-03-20T19:05:37Z</time>
      </trkpt>
      <trkpt lat="55.61136" lon="-4.57621">
        <ele>34.46</ele>
        <time>2021-03-20T19:05:45Z</time>
      </trkpt>
      <trkpt lat="55.61147" lon="-4.5767">
        <ele>32.89</ele>
        <time>2021-03-20T19:05:53Z</time>
      </trkpt>
      <trkpt lat="55.61382" lon="-4.58609">
        <ele>20</ele>
        <time>2021-03-20T19:06:01Z</time>
      </trkpt>
      <trkpt lat="55.61393" lon="-4.58685">
        <ele>21.5</ele>
        <time>2021-03-20T19:06:09Z</time>
      </trkpt>
      <trkpt lat="55.61395" lon="-4.58733">
        <ele>22.08</ele>
        <time>2021-03-20T19:06:17Z</time>
      </trkpt>
      <trkpt lat="55.61387" lon="-4.58841">
        <ele>22.95</ele>
        <time>2021-03-20T19:06:25Z</time>
      </trkpt>
      <trkpt lat="55.61489" lon="-4.58893">
        <ele>27.14</ele>
        <time>2021-03-20T19:06:41Z</time>
      </trkpt>
      <trkpt lat="55.61502" lon="-4.58903">
        <ele>27.45</ele>
        <time>2021-03-20T19:06:58Z</time>
      </trkpt>
      <trkpt lat="55.61552" lon="-4.58972">
        <ele>24.24</ele>
        <time>2021-03-20T19:07:14Z</time>
      </trkpt>
      <trkpt lat="55.61582" lon="-4.58998">
        <ele>23.03</ele>
        <time>2021-03-20T19:07:30Z</time>
      </trkpt>
      <trkpt lat="55.61613" lon="-4.59014">
        <ele>23</ele>
        <time>2021-03-20T19:07:47Z</time>
      </trkpt>
      <trkpt lat="55.61801" lon="-4.59045">
        <ele>26.82</ele>
        <time>2021-03-20T19:08:03Z</time>
      </trkpt>
      <trkpt lat="55.62177" lon="-4.59096">
        <ele>30.37</ele>
        <time>2021-03-20T19:08:19Z</time>
      </trkpt>
      <trkpt lat="55.62214" lon="-4.59117">
        <ele>30.79</ele>
        <time>2021-03-20T19:08:27Z</time>
      </trkpt>
      <trkpt lat="55.62317" lon="-4.59237">
        <ele>27.89</ele>
        <time>2021-03-20T19:08:35Z</time>
      </trkpt>
      <trkpt lat="55.62334" lon="-4.59249">
        <ele>28.05</ele>
        <time>2021-03-20T19:08:42Z</time>
      </trkpt>
      <trkpt lat="55.62541" lon="-4.59222">
        <ele>35</ele>
        <time>2021-03-20T19:08:50Z</time>
      </trkpt>
      <trkpt lat="55.62595" lon="-4.5921">
        <ele>33.58</ele>
        <time>2021-03-20T19:08:58Z</time>
      </trkpt>
      <trkpt lat="55.62683" lon="-4.59197">
        <ele>28.8</ele>
        <time>2021-03-20T19:09:05Z</time>
      </trkpt>
      <trkpt lat="55.62708" lon="-4.59192">
        <ele>27.01</ele>
        <time>2021-03-20T19:09:13Z</time>
      </trkpt>
      <trkpt lat="55.62742" lon="-4.59191">
        <ele>25.29</ele>
        <time>2021-03-20T19:09:21Z</time>
      </trkpt>
      <trkpt lat="55.62782" lon="-4.59171">
        <ele>24.84</ele>
        <time>2021-03-20T19:09:29Z</time>
      </trkpt>
      <trkpt lat="55.62803" lon="-4.59167">
        <ele>25</ele>
        <time>2021-03-20T19:09:36Z</time>
      </trkpt>
      <trkpt lat="55.6289" lon="-4.59218">
        <ele>24.04</ele>
        <time>2021-03-20T19:09:44Z</time>
      </trkpt>
      <trkpt lat="55.6297" lon="-4.59283">
        <ele>24.99</ele>
        <time>2021-03-20T19:09:52Z</time>
      </trkpt>
      <trkpt lat="55.62999" lon="-4.59326">
        <ele>25</ele>
        <time>2021-03-20T19:09:59Z</time>
      </trkpt>
      <trkpt lat="55.63035" lon="-4.59353">
        <ele>25.07</ele>
        <time>2021-03-20T19:10:07Z</time>
      </trkpt>
      <trkpt lat="55.63062" lon="-4.59367">
        <ele>25.44</ele>
        <time>2021-03-20T19:10:15Z</time>
      </trkpt>
      <trkpt lat="55.63088" lon="-4.59369">
        <ele>27.5</ele>
        <time>2021-03-20T19:10:23Z</time>
      </trkpt>
      <trkpt lat="55.63265" lon="-4.59347">
        <ele>34.51</ele>
        <time>2021-03-20T19:10:30Z</time>
      </trkpt>
      <trkpt lat="55.6333" lon="-4.59348">
        <ele>36.45</ele>
        <time>2021-03-20T19:10:38Z</time>
      </trkpt>
      <trkpt lat="55.63334" lon="-4.59429">
        <ele>36</ele>
        <time>2021-03-20T19:10:48Z</time>
      </trkpt>
      <trkpt lat="55.63342" lon="-4.59521">
        <ele>34.56</ele>
        <time>2021-03-20T19:10:58Z</time>
      </trkpt>
      <trkpt lat="55.63407" lon="-4.6004">
        <ele>40.92</ele>
        <time>2021-03-20T19:11:08Z</time>
      </trkpt>
      <trkpt lat="55.63416" lon="-4.60096">
        <ele>40.97</ele>
        <time>2021-03-20T19:11:18Z</time>
      </trkpt>
      <trkpt lat="55.63429" lon="-4.60139">
        <ele>40.45</ele>
        <time>2021-03-20T19:11:28Z</time>
      </trkpt>
      <trkpt lat="55.63444" lon="-4.6018">
        <ele>41.46</ele>
        <time>2021-03-20T19:11:38Z</time>
      </trkpt>
      <trkpt lat="55.63508" lon="-4.60325">
        <ele>42.73</ele>
        <time>2021-03-20T19:11:48Z</time>
      </trkpt>
      <trkpt lat="55.63538" lon="-4.60251">
        <ele>42.3</ele>
        <time>2021-03-20T19:11:51Z</time>
      </trkpt>
      <trkpt lat="55.63578" lon="-4.60174">
        <ele>42.54</ele>
        <time>2021-03-20T19:11:53Z</time>
      </trkpt>
      <trkpt lat="55.6365" lon="-4.60244">
        <ele>45.39</ele>
        <time>2021-03-20T19:11:59Z</time>
      </trkpt>
      <trkpt lat="55.63676" lon="-4.60274">
        <ele>45.27</ele>
        <time>2021-03-20T19:12:04Z</time>
      </trkpt>
      <trkpt lat="55.638" lon="-4.60436">
        <ele>38.27</ele>
        <time>2021-03-20T19:12:10Z</time>
      </trkpt>
      <trkpt lat="55.63836" lon="-4.60473">
        <ele>35</ele>
        <time>2021-03-20T19:12:15Z</time>
      </trkpt>
      <trkpt lat="55.64015" lon="-4.60586">
        <ele>45.14</ele>
        <time>2021-03-20T19:12:21Z</time>
      </trkpt>
      <trkpt lat="55.64044" lon="-4.60595">
        <ele>47.6</ele>
        <time>2021-03-20T19:12:26Z</time>
      </trkpt>
      <trkpt lat="55.64207" lon="-4.60598">
        <ele>42.55</ele>
        <time>2021-03-20T19:12:31Z</time>
      </trkpt>
      <trkpt lat="55.64216" lon="-4.60593">
        <ele>42.22</ele>
        <time>2021-03-20T19:12:37Z</time>
      </trkpt>
      <trkpt lat="55.64226" lon="-4.60561">
        <ele>41.56</ele>
        <time>2021-03-20T19:12:42Z</time>
      </trkpt>
      <trkpt lat="55.64239" lon="-4.60546">
        <ele>39.17</ele>
        <time>2021-03-20T19:12:48Z</time>
      </trkpt>
      <trkpt lat="55.64261" lon="-4.60537">
        <ele>37.82</ele>
        <time>2021-03-20T19:12:53Z</time>
      </trkpt>
      <trkpt lat="55.64274" lon="-4.6054">
        <ele>38.68</ele>
        <time>2021-03-20T19:12:59Z</time>
      </trkpt>
      <trkpt lat="55.64285" lon="-4.60548">
        <ele>40.19</ele>
        <time>2021-03-20T19:13:04Z</time>
      </trkpt>
      <trkpt lat="55.64322" lon="-4.60596">
        <ele>44.77</ele>
        <time>2021-03-20T19:13:10Z</time>
      </trkpt>
      <trkpt lat="55.64336" lon="-4.60603">
        <ele>46.06</ele>
        <time>2021-03-20T19:13:15Z</time>
      </trkpt>
      <trkpt lat="55.64353" lon="-4.60609">
        <ele>46.64</ele>
        <time>2021-03-20T19:13:21Z</time>
      </trkpt>
      <trkpt lat="55.64362" lon="-4.60615">
        <ele>46.96</ele>
        <time>2021-03-20T19:13:26Z</time>
      </trkpt>
      <trkpt lat="55.6437" lon="-4.60626">
        <ele>46.69</ele>
        <time>2021-03-20T19:13:32Z</time>
      </trkpt>
      <trkpt lat="55.6438" lon="-4.60656">
        <ele>46.31</ele>
        <time>2021-03-20T19:13:37Z</time>
      </trkpt>
      <trkpt lat="55.64376" lon="-4.60689">
        <ele>47.26</ele>
        <time>2021-03-20T19:13:41Z</time>
      </trkpt>
      <trkpt lat="55.64372" lon="-4.61066">
        <ele>44.86</ele>
        <time>2021-03-20T19:13:46Z</time>
      </trkpt>
      <trkpt lat="55.64365" lon="-4.61121">
        <ele>43.42</ele>
        <time>2021-03-20T19:13:50Z</time>
      </trkpt>
      <trkpt lat="55.64342" lon="-4.61218">
        <ele>39.35</ele>
        <time>2021-03-20T19:13:54Z</time>
      </trkpt>
      <trkpt lat="55.64327" lon="-4.61267">
        <ele>38.67</ele>
        <time>2021-03-20T19:13:59Z</time>
      </trkpt>
      <trkpt lat="55.64374" lon="-4.61535">
        <ele>45.07</ele>
        <time>2021-03-20T19:14:03Z</time>
      </trkpt>
      <trkpt lat="55.64375" lon="-4.61602">
        <ele>41.94</ele>
        <time>2021-03-20T19:14:07Z</time>
      </trkpt>
      <trkpt lat="55.64367" lon="-4.61645">
        <ele>39.38</ele>
        <time>2021-03-20T19:14:12Z</time>
      </trkpt>
      <trkpt lat="55.64356" lon="-4.61688">
        <ele>37.41</ele>
        <time>2021-03-20T19:14:16Z</time>
      </trkpt>
      <trkpt lat="55.64343" lon="-4.61713">
        <ele>36.95</ele>
        <time>2021-03-20T19:14:20Z</time>
      </trkpt>
      <trkpt lat="55.64336" lon="-4.61739">
        <ele>36.29</ele>
        <time>2021-03-20T19:14:25Z</time>
      </trkpt>
      <trkpt lat="55.64334" lon="-4.61757">
        <ele>35.98</ele>
        <time>2021-03-20T19:14:29Z</time>
      </trkpt>
      <trkpt lat="55.64334" lon="-4.61775">
        <ele>35.96</ele>
        <time>2021-03-20T19:14:33Z</time>
      </trkpt>
      <trkpt lat="55.64351" lon="-4.61865">
        <ele>34</ele>
        <time>2021-03-20T19:14:38Z</time>
      </trkpt>
      <trkpt lat="55.64351" lon="-4.61883">
        <ele>34</ele>
        <time>2021-03-20T19:14:42Z</time>
      </trkpt>
      <trkpt lat="55.64348" lon="-4.61901">
        <ele>33.58</ele>
        <time>2021-03-20T19:14:46Z</time>
      </trkpt>
      <trkpt lat="55.64338" lon="-4.61924">
        <ele>33</ele>
        <time>2021-03-20T19:14:51Z</time>
      </trkpt>
      <trkpt lat="55.64336" lon="-4.61935">
        <ele>33</ele>
        <time>2021-03-20T19:14:55Z</time>
      </trkpt>
      <trkpt lat="55.64335" lon="-4.61947">
        <ele>33</ele>
        <time>2021-03-20T19:14:59Z</time>
      </trkpt>
      <trkpt lat="55.64341" lon="-4.61978">
        <ele>33</ele>
        <time>2021-03-20T19:15:04Z</time>
      </trkpt>
      <trkpt lat="55.64365" lon="-4.62041">
        <ele>32</ele>
        <time>2021-03-20T19:15:08Z</time>
      </trkpt>
      <trkpt lat="55.64376" lon="-4.62084">
        <ele>31</ele>
        <time>2021-03-20T19:15:12Z</time>
      </trkpt>
      <trkpt lat="55.64376" lon="-4.62121">
        <ele>30.84</ele>
        <time>2021-03-20T19:15:17Z</time>
      </trkpt>
      <trkpt lat="55.64369" lon="-4.62157">
        <ele>30.29</ele>
        <time>2021-03-20T19:15:21Z</time>
      </trkpt>
      <trkpt lat="55.64363" lon="-4.62179">
        <ele>30.04</ele>
        <time>2021-03-20T19:15:25Z</time>
      </trkpt>
      <trkpt lat="55.64356" lon="-4.6225">
        <ele>30.38</ele>
        <time>2021-03-20T19:15:30Z</time>
      </trkpt>
      <trkpt lat="55.6436" lon="-4.62296">
        <ele>30.7</ele>
        <time>2021-03-20T19:15:34Z</time>
      </trkpt>
      <trkpt lat="55.64357" lon="-4.62433">
        <ele>28.49</ele>
        <time>2021-03-20T19:15:38Z</time>
      </trkpt>
      <trkpt lat="55.64351" lon="-4.62445">
        <ele>27.97</ele>
        <time>2021-03-20T19:15:44Z</time>
      </trkpt>
      <trkpt lat="55.64324" lon="-4.62517">
        <ele>26.52</ele>
        <time>2021-03-20T19:15:49Z</time>
      </trkpt>
      <trkpt lat="55.64293" lon="-4.62642">
        <ele>29.46</ele>
        <time>2021-03-20T19:15:55Z</time>
      </trkpt>
      <trkpt lat="55.64249" lon="-4.6278">
        <ele>29.97</ele>
        <time>2021-03-20T19:16:00Z</time>
      </trkpt>
      <trkpt lat="55.64224" lon="-4.62833">
        <ele>29.01</ele>
        <time>2021-03-20T19:16:06Z</time>
      </trkpt>
      <trkpt lat="55.64192" lon="-4.62864">
        <ele>29.08</ele>
        <time>2021-03-20T19:16:11Z</time>
      </trkpt>
      <trkpt lat="55.6416" lon="-4.62884">
        <ele>29.43</ele>
        <time>2021-03-20T19:16:17Z</time>
      </trkpt>
      <trkpt lat="55.64202" lon="-4.63077">
        <ele>25.24</ele>
        <time>2021-03-20T19:16:21Z</time>
      </trkpt>
      <trkpt lat="55.64216" lon="-4.63126">
        <ele>24.87</ele>
        <time>2021-03-20T19:16:26Z</time>
      </trkpt>
      <trkpt lat="55.64236" lon="-4.6318">
        <ele>24.99</ele>
        <time>2021-03-20T19:16:31Z</time>
      </trkpt>
      <trkpt lat="55.64254" lon="-4.63213">
        <ele>26.13</ele>
        <time>2021-03-20T19:16:36Z</time>
      </trkpt>
      <trkpt lat="55.6435" lon="-4.6329">
        <ele>29.19</ele>
        <time>2021-03-20T19:16:41Z</time>
      </trkpt>
      <trkpt lat="55.64355" lon="-4.63297">
        <ele>29.54</ele>
        <time>2021-03-20T19:16:46Z</time>
      </trkpt>
      <trkpt lat="55.64356" lon="-4.63308">
        <ele>29.64</ele>
        <time>2021-03-20T19:16:50Z</time>
      </trkpt>
      <trkpt lat="55.64357" lon="-4.6335">
        <ele>29.77</ele>
        <time>2021-03-20T19:16:55Z</time>
      </trkpt>
      <trkpt lat="55.6436" lon="-4.634">
        <ele>30.35</ele>
        <time>2021-03-20T19:17:00Z</time>
      </trkpt>
      <trkpt lat="55.64387" lon="-4.63498">
        <ele>30.94</ele>
        <time>2021-03-20T19:17:05Z</time>
      </trkpt>
      <trkpt lat="55.64385" lon="-4.63531">
        <ele>29.88</ele>
        <time>2021-03-20T19:17:10Z</time>
      </trkpt>
      <trkpt lat="55.64423" lon="-4.6354">
        <ele>30.21</ele>
        <time>2021-03-20T19:17:12Z</time>
      </trkpt>
      <trkpt lat="55.64467" lon="-4.63538">
        <ele>30.17</ele>
        <time>2021-03-20T19:17:14Z</time>
      </trkpt>
      <trkpt lat="55.64515" lon="-4.63524">
        <ele>28.93</ele>
        <time>2021-03-20T19:17:17Z</time>
      </trkpt>
      <trkpt lat="55.64538" lon="-4.63617">
        <ele>27.79</ele>
        <time>2021-03-20T19:17:20Z</time>
      </trkpt>
      <trkpt lat="55.64592" lon="-4.6372">
        <ele>24.69</ele>
        <time>2021-03-20T19:17:23Z</time>
      </trkpt>
      <trkpt lat="55.64685" lon="-4.64241">
        <ele>24.67</ele>
        <time>2021-03-20T19:17:27Z</time>
      </trkpt>
      <trkpt lat="55.64708" lon="-4.6429">
        <ele>25.26</ele>
        <time>2021-03-20T19:17:30Z</time>
      </trkpt>
      <trkpt lat="55.64847" lon="-4.6447">
        <ele>30.45</ele>
        <time>2021-03-20T19:17:34Z</time>
      </trkpt>
      <trkpt lat="55.64854" lon="-4.64481">
        <ele>30.73</ele>
        <time>2021-03-20T19:17:37Z</time>
      </trkpt>
      <trkpt lat="55.6488" lon="-4.64547">
        <ele>30.86</ele>
        <time>2021-03-20T19:17:40Z</time>
      </trkpt>
      <trkpt lat="55.64913" lon="-4.64617">
        <ele>29.57</ele>
        <time>2021-03-20T19:17:44Z</time>
      </trkpt>
      <trkpt lat="55.6499" lon="-4.64696">
        <ele>34.21</ele>
        <time>2021-03-20T19:17:47Z</time>
      </trkpt>
      <trkpt lat="55.65037" lon="-4.64723">
        <ele>32.29</ele>
        <time>2021-03-20T19:17:50Z</time>
      </trkpt>
      <trkpt lat="55.65172" lon="-4.64789">
        <ele>33.39</ele>
        <time>2021-03-20T19:17:54Z</time>
      </trkpt>
      <trkpt lat="55.65275" lon="-4.64964">
        <ele>25.41</ele>
        <time>2021-03-20T19:17:57Z</time>
      </trkpt>
      <trkpt lat="55.65437" lon="-4.65213">
        <ele>29</ele>
        <time>2021-03-20T19:18:00Z</time>
      </trkpt>
      <trkpt lat="55.65329" lon="-4.65438">
        <ele>28</ele>
        <time>2021-03-20T19:18:04Z</time>
      </trkpt>
      <trkpt lat="55.6531" lon="-4.65474">
        <ele>28</ele>
        <time>2021-03-20T19:18:07Z</time>
      </trkpt>
      <trkpt lat="55.65289" lon="-4.65489">
        <ele>28</ele>
        <time>2021-03-20T19:18:10Z</time>
      </trkpt>
      <trkpt lat="55.65271" lon="-4.65514">
        <ele>28.13</ele>
        <time>2021-03-20T19:18:14Z</time>
      </trkpt>
      <trkpt lat="55.65249" lon="-4.65561">
        <ele>27.99</ele>
        <time>2021-03-20T19:18:17Z</time>
      </trkpt>
      <trkpt lat="55.65224" lon="-4.65624">
        <ele>26.6</ele>
        <time>2021-03-20T19:18:20Z</time>
      </trkpt>
      <trkpt lat="55.65208" lon="-4.65689">
        <ele>25.2</ele>
        <time>2021-03-20T19:18:24Z</time>
      </trkpt>
      <trkpt lat="55.65209" lon="-4.65743">
        <ele>24.26</ele>
        <time>2021-03-20T19:18:27Z</time>
      </trkpt>
      <trkpt lat="55.65225" lon="-4.65798">
        <ele>22.39</ele>
        <time>2021-03-20T19:18:30Z</time>
      </trkpt>
      <trkpt lat="55.65268" lon="-4.65865">
        <ele>21.35</ele>
        <time>2021-03-20T19:18:34Z</time>
      </trkpt>
      <trkpt lat="55.65278" lon="-4.65907">
        <ele>21.66</ele>
        <time>2021-03-20T19:18:37Z</time>
      </trkpt>
      <trkpt lat="55.65274" lon="-4.66004">
        <ele>21.86</ele>
        <time>2021-03-20T19:18:40Z</time>
      </trkpt>
      <trkpt lat="55.65276" lon="-4.6606">
        <ele>20.85</ele>
        <time>2021-03-20T19:18:44Z</time>
      </trkpt>
      <trkpt lat="55.65281" lon="-4.66088">
        <ele>19.84</ele>
        <time>2021-03-20T19:18:47Z</time>
      </trkpt>
      <trkpt lat="55.65306" lon="-4.66163">
        <ele>18</ele>
        <time>2021-03-20T19:18:50Z</time>
      </trkpt>
      <trkpt lat="55.65308" lon="-4.66177">
        <ele>18.04</ele>
        <time>2021-03-20T19:18:54Z</time>
      </trkpt>
      <trkpt lat="55.65303" lon="-4.66214">
        <ele>17.92</ele>
        <time>2021-03-20T19:18:57Z</time>
      </trkpt>
      <trkpt lat="55.65308" lon="-4.66269">
        <ele>18.91</ele>
        <time>2021-03-20T19:19:00Z</time>
      </trkpt>
      <trkpt lat="55.65315" lon="-4.66314">
        <ele>19.77</ele>
        <time>2021-03-20T19:19:04Z</time>
      </trkpt>
      <trkpt lat="55.65321" lon="-4.66348">
        <ele>20.54</ele>
        <time>2021-03-20T19:19:07Z</time>
      </trkpt>
      <trkpt lat="55.6533" lon="-4.66382">
        <ele>21</ele>
        <time>2021-03-20T19:19:11Z</time>
      </trkpt>
      <trkpt lat="55.65338" lon="-4.66405">
        <ele>21</ele>
        <time>2021-03-20T19:19:14Z</time>
      </trkpt>
      <trkpt lat="55.65358" lon="-4.66435">
        <ele>21</ele>
        <time>2021-03-20T19:19:17Z</time>
      </trkpt>
      <trkpt lat="55.65493" lon="-4.6658">
        <ele>27.75</ele>
        <time>2021-03-20T19:19:21Z</time>
      </trkpt>
      <trkpt lat="55.65506" lon="-4.66598">
        <ele>28.23</ele>
        <time>2021-03-20T19:19:24Z</time>
      </trkpt>
      <trkpt lat="55.65516" lon="-4.66618">
        <ele>28.31</ele>
        <time>2021-03-20T19:19:27Z</time>
      </trkpt>
      <trkpt lat="55.6552" lon="-4.66639">
        <ele>27.74</ele>
        <time>2021-03-20T19:19:31Z</time>
      </trkpt>
      <trkpt lat="55.65522" lon="-4.66663">
        <ele>27.79</ele>
        <time>2021-03-20T19:19:34Z</time>
      </trkpt>
      <trkpt lat="55.65506" lon="-4.66794">
        <ele>25.61</ele>
        <time>2021-03-20T19:19:37Z</time>
      </trkpt>
      <trkpt lat="55.65501" lon="-4.6685">
        <ele>25.02</ele>
        <time>2021-03-20T19:19:41Z</time>
      </trkpt>
      <trkpt lat="55.65484" lon="-4.67244">
        <ele>29.19</ele>
        <time>2021-03-20T19:19:44Z</time>
      </trkpt>
      <trkpt lat="55.65438" lon="-4.67567">
        <ele>24.85</ele>
        <time>2021-03-20T19:19:47Z</time>
      </trkpt>
      <trkpt lat="55.65424" lon="-4.6783">
        <ele>25.75</ele>
        <time>2021-03-20T19:19:51Z</time>
      </trkpt>
      <trkpt lat="55.6543" lon="-4.68073">
        <ele>22.85</ele>
        <time>2021-03-20T19:19:54Z</time>
      </trkpt>
      <trkpt lat="55.65461" lon="-4.68071">
        <ele>24.01</ele>
        <time>2021-03-20T19:20:08Z</time>
      </trkpt>
      <trkpt lat="55.65901" lon="-4.67896">
        <ele>29.47</ele>
        <time>2021-03-20T19:20:22Z</time>
      </trkpt>
      <trkpt lat="55.65932" lon="-4.67866">
        <ele>30.18</ele>
        <time>2021-03-20T19:20:36Z</time>
      </trkpt>
      <trkpt lat="55.66077" lon="-4.67915">
        <ele>30.36</ele>
        <time>2021-03-20T19:20:50Z</time>
      </trkpt>
      <trkpt lat="55.66155" lon="-4.67894">
        <ele>31.38</ele>
        <time>2021-03-20T19:21:04Z</time>
      </trkpt>
      <trkpt lat="55.66172" lon="-4.67895">
        <ele>31.97</ele>
        <time>2021-03-20T19:21:18Z</time>
      </trkpt>
      <trkpt lat="55.6624" lon="-4.67937">
        <ele>32.91</ele>
        <time>2021-03-20T19:21:32Z</time>
      </trkpt>
      <trkpt lat="55.66255" lon="-4.67964">
        <ele>31.97</ele>
        <time>2021-03-20T19:21:46Z</time>
      </trkpt>
      <trkpt lat="55.66356" lon="-4.68263">
        <ele>28</ele>
        <time>2021-03-20T19:21:59Z</time>
      </trkpt>
      <trkpt lat="55.66387" lon="-4.68219">
        <ele>30.02</ele>
        <time>2021-03-20T19:22:01Z</time>
      </trkpt>
      <trkpt lat="55.66471" lon="-4.6838">
        <ele>34</ele>
        <time>2021-03-20T19:22:07Z</time>
      </trkpt>
      <trkpt lat="55.6648" lon="-4.68407">
        <ele>33.52</ele>
        <time>2021-03-20T19:22:12Z</time>
      </trkpt>
      <trkpt lat="55.66481" lon="-4.68439">
        <ele>33.31</ele>
        <time>2021-03-20T19:22:18Z</time>
      </trkpt>
      <trkpt lat="55.66474" lon="-4.68483">
        <ele>30.66</ele>
        <time>2021-03-20T19:22:24Z</time>
      </trkpt>
      <trkpt lat="55.66396" lon="-4.68712">
        <ele>28.26</ele>
        <time>2021-03-20T19:22:29Z</time>
      </trkpt>
      <trkpt lat="55.66397" lon="-4.6874">
        <ele>28.93</ele>
        <time>2021-03-20T19:22:35Z</time>
      </trkpt>
      <trkpt lat="55.66371" lon="-4.68824">
        <ele>29.35</ele>
        <time>2021-03-20T19:22:40Z</time>
      </trkpt>
      <trkpt lat="55.66367" lon="-4.68851">
        <ele>28.57</ele>
        <time>2021-03-20T19:22:46Z</time>
      </trkpt>
      <trkpt lat="55.66367" lon="-4.68925">
        <ele>27.15</ele>
        <time>2021-03-20T19:22:52Z</time>
      </trkpt>
      <trkpt lat="55.6636" lon="-4.6899">
        <ele>26.91</ele>
        <time>2021-03-20T19:22:57Z</time>
      </trkpt>
      <trkpt lat="55.6636" lon="-4.6905">
        <ele>25.95</ele>
        <time>2021-03-20T19:23:03Z</time>
      </trkpt>
      <trkpt lat="55.66432" lon="-4.69045">
        <ele>29.34</ele>
        <time>2021-03-20T19:23:08Z</time>
      </trkpt>
      <trkpt lat="55.66459" lon="-4.69056">
        <ele>29.99</ele>
        <time>2021-03-20T19:23:13Z</time>
      </trkpt>
      <trkpt lat="55.66605" lon="-4.69185">
        <ele>39.77</ele>
        <time>2021-03-20T19:23:19Z</time>
      </trkpt>
      <trkpt lat="55.6667" lon="-4.69265">
        <ele>42</ele>
        <time>2021-03-20T19:23:24Z</time>
      </trkpt>
      <trkpt lat="55.66698" lon="-4.69292">
        <ele>42.35</ele>
        <time>2021-03-20T19:23:29Z</time>
      </trkpt>
      <trkpt lat="55.66724" lon="-4.69295">
        <ele>40.82</ele>
        <time>2021-03-20T19:23:34Z</time>
      </trkpt>
      <trkpt lat="55.66808" lon="-4.6928">
        <ele>37.91</ele>
        <time>2021-03-20T19:23:40Z</time>
      </trkpt>
      <trkpt lat="55.6683" lon="-4.69288">
        <ele>37.64</ele>
        <time>2021-03-20T19:23:45Z</time>
      </trkpt>
      <trkpt lat="55.6688" lon="-4.6937">
        <ele>39.67</ele>
        <time>2021-03-20T19:23:50Z</time>
      </trkpt>
      <trkpt lat="55.66929" lon="-4.69416">
        <ele>37.57</ele>
        <time>2021-03-20T19:23:55Z</time>
      </trkpt>
      <trkpt lat="55.67035" lon="-4.69409">
        <ele>39.73</ele>
        <time>2021-03-20T19:24:00Z</time>
      </trkpt>
      <trkpt lat="55.67125" lon="-4.69377">
        <ele>43</ele>
        <time>2021-03-20T19:24:06Z</time>
      </trkpt>
      <trkpt lat="55.67176" lon="-4.6937">
        <ele>43.68</ele>
        <time>2021-03-20T19:24:11Z</time>
      </trkpt>
      <trkpt lat="55.67207" lon="-4.69355">
        <ele>42.66</ele>
        <time>2021-03-20T19:24:16Z</time>
      </trkpt>
      <trkpt lat="55.67234" lon="-4.69351">
        <ele>42.79</ele>
        <time>2021-03-20T19:24:21Z</time>
      </trkpt>
      <trkpt lat="55.6726" lon="-4.69354">
        <ele>43.26</ele>
        <time>2021-03-20T19:24:27Z</time>
      </trkpt>
      <trkpt lat="55.67312" lon="-4.69384">
        <ele>42.03</ele>
        <time>2021-03-20T19:24:32Z</time>
      </trkpt>
      <trkpt lat="55.67331" lon="-4.69426">
        <ele>37.9</ele>
        <time>2021-03-20T19:24:37Z</time>
      </trkpt>
      <trkpt lat="55.67381" lon="-4.69397">
        <ele>29.77</ele>
        <time>2021-03-20T19:24:42Z</time>
      </trkpt>
      <trkpt lat="55.67559" lon="-4.69407">
        <ele>26.56</ele>
        <time>2021-03-20T19:24:48Z</time>
      </trkpt>
      <trkpt lat="55.67626" lon="-4.69402">
        <ele>28.45</ele>
        <time>2021-03-20T19:24:53Z</time>
      </trkpt>
      <trkpt lat="55.67699" lon="-4.69383">
        <ele>25.87</ele>
        <time>2021-03-20T19:24:58Z</time>
      </trkpt>
      <trkpt lat="55.67733" lon="-4.69388">
        <ele>24.65</ele>
        <time>2021-03-20T19:25:03Z</time>
      </trkpt>
      <trkpt lat="55.67803" lon="-4.69419">
        <ele>23.9</ele>
        <time>2021-03-20T19:25:09Z</time>
      </trkpt>
      <trkpt lat="55.67981" lon="-4.69432">
        <ele>29</ele>
        <time>2021-03-20T19:25:14Z</time>
      </trkpt>
      <trkpt lat="55.68026" lon="-4.69497">
        <ele>28</ele>
        <time>2021-03-20T19:25:19Z</time>
      </trkpt>
      <trkpt lat="55.68032" lon="-4.69525">
        <ele>28.02</ele>
        <time>2021-03-20T19:25:25Z</time>
      </trkpt>
      <trkpt lat="55.68036" lon="-4.69594">
        <ele>27.28</ele>
        <time>2021-03-20T19:25:30Z</time>
      </trkpt>
      <trkpt lat="55.68031" lon="-4.69666">
        <ele>26</ele>
        <time>2021-03-20T19:25:36Z</time>
      </trkpt>
      <trkpt lat="55.68022" lon="-4.69697">
        <ele>26.4</ele>
        <time>2021-03-20T19:25:41Z</time>
      </trkpt>
      <trkpt lat="55.67985" lon="-4.69774">
        <ele>27.08</ele>
        <time>2021-03-20T19:25:46Z</time>
      </trkpt>
      <trkpt lat="55.67981" lon="-4.6984">
        <ele>26.93</ele>
        <time>2021-03-20T19:25:52Z</time>
      </trkpt>
      <trkpt lat="55.67973" lon="-4.69869">
        <ele>26.96</ele>
        <time>2021-03-20T19:25:57Z</time>
      </trkpt>
      <trkpt lat="55.67962" lon="-4.69891">
        <ele>26.91</ele>
        <time>2021-03-20T19:26:03Z</time>
      </trkpt>
      <trkpt lat="55.67932" lon="-4.6992">
        <ele>26</ele>
        <time>2021-03-20T19:26:08Z</time>
      </trkpt>
      <trkpt lat="55.67927" lon="-4.6995">
        <ele>26</ele>
        <time>2021-03-20T19:26:14Z</time>
      </trkpt>
      <trkpt lat="55.67918" lon="-4.70066">
        <ele>26</ele>
        <time>2021-03-20T19:26:19Z</time>
      </trkpt>
      <trkpt lat="55.67921" lon="-4.70097">
        <ele>26</ele>
        <time>2021-03-20T19:26:24Z</time>
      </trkpt>
      <trkpt lat="55.6794" lon="-4.70144">
        <ele>25.85</ele>
        <time>2021-03-20T19:26:30Z</time>
      </trkpt>
      <trkpt lat="55.67941" lon="-4.70167">
        <ele>25.88</ele>
        <time>2021-03-20T19:26:35Z</time>
      </trkpt>
      <trkpt lat="55.67922" lon="-4.70285">
        <ele>26.46</ele>
        <time>2021-03-20T19:26:41Z</time>
      </trkpt>
      <trkpt lat="55.67659" lon="-4.70943">
        <ele>27</ele>
        <time>2021-03-20T19:26:46Z</time>
      </trkpt>
      <trkpt lat="55.67656" lon="-4.70945">
        <ele>26.93</ele>
        <time>2021-03-20T19:26:52Z</time>
      </trkpt>
      <trkpt lat="55.67639" lon="-4.70944">
        <ele>27</ele>
        <time>2021-03-20T19:26:57Z</time>
      </trkpt>
      <trkpt lat="55.67574" lon="-4.70914">
        <ele>21.43</ele>
        <time>2021-03-20T19:27:02Z</time>
      </trkpt>
      <trkpt lat="55.67566" lon="-4.70921">
        <ele>20.61</ele>
        <time>2021-03-20T19:27:08Z</time>
      </trkpt>
      <trkpt lat="55.67561" lon="-4.70932">
        <ele>19.82</ele>
        <time>2021-03-20T19:27:13Z</time>
      </trkpt>
      <trkpt lat="55.67561" lon="-4.70943">
        <ele>19.47</ele>
        <time>2021-03-20T19:27:19Z</time>
      </trkpt>
      <trkpt lat="55.67586" lon="-4.71005">
        <ele>18.14</ele>
        <time>2021-03-20T19:27:24Z</time>
      </trkpt>
      <trkpt lat="55.67587" lon="-4.71048">
        <ele>16.52</ele>
        <time>2021-03-20T19:27:29Z</time>
      </trkpt>
      <trkpt lat="55.67586" lon="-4.7107">
        <ele>16.59</ele>
        <time>2021-03-20T19:27:35Z</time>
      </trkpt>
      <trkpt lat="55.67606" lon="-4.71169">
        <ele>16.47</ele>
        <time>2021-03-20T19:27:40Z</time>
      </trkpt>
      <trkpt lat="55.67628" lon="-4.71269">
        <ele>18.68</ele>
        <time>2021-03-20T19:27:46Z</time>
      </trkpt>
      <trkpt lat="55.67723" lon="-4.71315">
        <ele>22.06</ele>
        <time>2021-03-20T19:27:51Z</time>
      </trkpt>
      <trkpt lat="55.67714" lon="-4.71354">
        <ele>21.93</ele>
        <time>2021-03-20T19:27:59Z</time>
      </trkpt>
      <trkpt lat="55.67698" lon="-4.71382">
        <ele>22</ele>
        <time>2021-03-20T19:28:08Z</time>
      </trkpt>
      <trkpt lat="55.6769" lon="-4.71418">
        <ele>23</ele>
        <time>2021-03-20T19:28:16Z</time>
      </trkpt>
      <trkpt lat="55.67627" lon="-4.71563">
        <ele>29.56</ele>
        <time>2021-03-20T19:28:24Z</time>
      </trkpt>
      <trkpt lat="55.67594" lon="-4.7168">
        <ele>32.53</ele>
        <time>2021-03-20T19:28:33Z</time>
      </trkpt>
      <trkpt lat="55.67543" lon="-4.71699">
        <ele>35.88</ele>
        <time>2021-03-20T19:28:41Z</time>
      </trkpt>
      <trkpt lat="55.67522" lon="-4.7172">
        <ele>37.22</ele>
        <time>2021-03-20T19:28:49Z</time>
      </trkpt>
      <trkpt lat="55.67515" lon="-4.71744">
        <ele>37.05</ele>
        <time>2021-03-20T19:28:57Z</time>
      </trkpt>
      <trkpt lat="55.67487" lon="-4.72292">
        <ele>49.75</ele>
        <time>2021-03-20T19:29:06Z</time>
      </trkpt>
      <trkpt lat="55.67465" lon="-4.72284">
        <ele>49.57</ele>
        <time>2021-03-20T19:29:08Z</time>
      </trkpt>
      <trkpt lat="55.67459" lon="-4.72339">
        <ele>49</ele>
        <time>2021-03-20T19:29:23Z</time>
      </trkpt>
      <trkpt lat="55.67462" lon="-4.72503">
        <ele>52.4</ele>
        <time>2021-03-20T19:29:38Z</time>
      </trkpt>
      <trkpt lat="55.67499" lon="-4.72587">
        <ele>56.01</ele>
        <time>2021-03-20T19:29:53Z</time>
      </trkpt>
      <trkpt lat="55.67526" lon="-4.72635">
        <ele>58.79</ele>
        <time>2021-03-20T19:30:07Z</time>
      </trkpt>
      <trkpt lat="55.67709" lon="-4.73303">
        <ele>92.4</ele>
        <time>2021-03-20T19:30:22Z</time>
      </trkpt>
      <trkpt lat="55.67488" lon="-4.73513">
        <ele>80.27</ele>
        <time>2021-03-20T19:30:31Z</time>
      </trkpt>
      <trkpt lat="55.67464" lon="-4.73516">
        <ele>79.68</ele>
        <time>2021-03-20T19:30:41Z</time>
      </trkpt>
      <trkpt lat="55.67451" lon="-4.73525">
        <ele>79.25</ele>
        <time>2021-03-20T19:30:50Z</time>
      </trkpt>
      <trkpt lat="55.67443" lon="-4.73545">
        <ele>78.89</ele>
        <time>2021-03-20T19:30:59Z</time>
      </trkpt>
      <trkpt lat="55.67364" lon="-4.73593">
        <ele>74.77</ele>
        <time>2021-03-20T19:31:09Z</time>
      </trkpt>
      <trkpt lat="55.6728" lon="-4.73629">
        <ele>70.12</ele>
        <time>2021-03-20T19:31:18Z</time>
      </trkpt>
      <trkpt lat="55.67262" lon="-4.73629">
        <ele>69.43</ele>
        <time>2021-03-20T19:31:27Z</time>
      </trkpt>
      <trkpt lat="55.67233" lon="-4.73612">
        <ele>67.78</ele>
        <time>2021-03-20T19:31:37Z</time>
      </trkpt>
      <trkpt lat="55.672" lon="-4.73618">
        <ele>66.39</ele>
        <time>2021-03-20T19:31:46Z</time>
      </trkpt>
      <trkpt lat="55.67163" lon="-4.73604">
        <ele>67.61</ele>
        <time>2021-03-20T19:31:55Z</time>
      </trkpt>
      <trkpt lat="55.67039" lon="-4.73609">
        <ele>63.35</ele>
        <time>2021-03-20T19:32:05Z</time>
      </trkpt>
      <trkpt lat="55.66932" lon="-4.73676">
        <ele>57.02</ele>
        <time>2021-03-20T19:32:14Z</time>
      </trkpt>
      <trkpt lat="55.66722" lon="-4.73812">
        <ele>48</ele>
        <time>2021-03-20T19:32:23Z</time>
      </trkpt>
      <trkpt lat="55.66756" lon="-4.74092">
        <ele>59.24</ele>
        <time>2021-03-20T19:32:28Z</time>
      </trkpt>
      <trkpt lat="55.66762" lon="-4.74116">
        <ele>61.29</ele>
        <time>2021-03-20T19:32:32Z</time>
      </trkpt>
      <trkpt lat="55.6679" lon="-4.74135">
        <ele>65.92</ele>
        <time>2021-03-20T19:32:36Z</time>
      </trkpt>
      <trkpt lat="55.66794" lon="-4.7415">
        <ele>67.84</ele>
        <time>2021-03-20T19:32:40Z</time>
      </trkpt>
      <trkpt lat="55.66782" lon="-4.74173">
        <ele>67.99</ele>
        <time>2021-03-20T19:32:45Z</time>
      </trkpt>
      <trkpt lat="55.66768" lon="-4.74225">
        <ele>70.2</ele>
        <time>2021-03-20T19:32:49Z</time>
      </trkpt>
      <trkpt lat="55.66774" lon="-4.74237">
        <ele>72.09</ele>
        <time>2021-03-20T19:32:53Z</time>
      </trkpt>
      <trkpt lat="55.668" lon="-4.74242">
        <ele>75.84</ele>
        <time>2021-03-20T19:32:57Z</time>
      </trkpt>
      <trkpt lat="55.66819" lon="-4.74284">
        <ele>79.81</ele>
        <time>2021-03-20T19:33:02Z</time>
      </trkpt>
      <trkpt lat="55.66849" lon="-4.74314">
        <ele>82.89</ele>
        <time>2021-03-20T19:33:06Z</time>
      </trkpt>
      <trkpt lat="55.66873" lon="-4.74489">
        <ele>88.46</ele>
        <time>2021-03-20T19:33:17Z</time>
      </trkpt>
      <trkpt lat="55.66817" lon="-4.74528">
        <ele>86.21</ele>
        <time>2021-03-20T19:33:24Z</time>
      </trkpt>
      <trkpt lat="55.66791" lon="-4.74568">
        <ele>85.62</ele>
        <time>2021-03-20T19:33:31Z</time>
      </trkpt>
      <trkpt lat="55.66783" lon="-4.7462">
        <ele>87.53</ele>
        <time>2021-03-20T19:33:38Z</time>
      </trkpt>
      <trkpt lat="55.66769" lon="-4.7466">
        <ele>88.43</ele>
        <time>2021-03-20T19:33:44Z</time>
      </trkpt>
      <trkpt lat="55.66696" lon="-4.74709">
        <ele>89.53</ele>
        <time>2021-03-20T19:33:51Z</time>
      </trkpt>
      <trkpt lat="55.6665" lon="-4.74726">
        <ele>84.71</ele>
        <time>2021-03-20T19:33:58Z</time>
      </trkpt>
      <trkpt lat="55.66644" lon="-4.74737">
        <ele>84.31</ele>
        <time>2021-03-20T19:34:04Z</time>
      </trkpt>
      <trkpt lat="55.66655" lon="-4.74833">
        <ele>87.13</ele>
        <time>2021-03-20T19:34:11Z</time>
      </trkpt>
      <trkpt lat="55.66655" lon="-4.74867">
        <ele>86.13</ele>
        <time>2021-03-20T19:34:18Z</time>
      </trkpt>
      <trkpt lat="55.66645" lon="-4.74897">
        <ele>85.37</ele>
        <time>2021-03-20T19:34:24Z</time>
      </trkpt>
      <trkpt lat="55.66554" lon="-4.75115">
        <ele>83.97</ele>
        <time>2021-03-20T19:34:31Z</time>
      </trkpt>
      <trkpt lat="55.66546" lon="-4.75151">
        <ele>83.93</ele>
        <time>2021-03-20T19:34:38Z</time>
      </trkpt>
      <trkpt lat="55.66512" lon="-4.75252">
        <ele>82.92</ele>
        <time>2021-03-20T19:34:44Z</time>
      </trkpt>
      <trkpt lat="55.66512" lon="-4.75277">
        <ele>83.32</ele>
        <time>2021-03-20T19:34:51Z</time>
      </trkpt>
      <trkpt lat="55.66544" lon="-4.75422">
        <ele>84.46</ele>
        <time>2021-03-20T19:34:58Z</time>
      </trkpt>
      <trkpt lat="55.66606" lon="-4.75594">
        <ele>78.2</ele>
        <time>2021-03-20T19:35:05Z</time>
      </trkpt>
      <trkpt lat="55.6661" lon="-4.75613">
        <ele>78</ele>
        <time>2021-03-20T19:35:11Z</time>
      </trkpt>
      <trkpt lat="55.66608" lon="-4.75625">
        <ele>77.6</ele>
        <time>2021-03-20T19:35:18Z</time>
      </trkpt>
      <trkpt lat="55.66596" lon="-4.75644">
        <ele>77.46</ele>
        <time>2021-03-20T19:35:25Z</time>
      </trkpt>
      <trkpt lat="55.66566" lon="-4.75674">
        <ele>77.09</ele>
        <time>2021-03-20T19:35:31Z</time>
      </trkpt>
      <trkpt lat="55.66509" lon="-4.75702">
        <ele>73.63</ele>
        <time>2021-03-20T19:35:38Z</time>
      </trkpt>
      <trkpt lat="55.66467" lon="-4.75702">
        <ele>71.75</ele>
        <time>2021-03-20T19:35:45Z</time>
      </trkpt>
      <trkpt lat="55.66406" lon="-4.75737">
        <ele>70.47</ele>
        <time>2021-03-20T19:35:51Z</time>
      </trkpt>
      <trkpt lat="55.66369" lon="-4.75802">
        <ele>68.36</ele>
        <time>2021-03-20T19:35:58Z</time>
      </trkpt>
      <trkpt lat="55.66336" lon="-4.75888">
        <ele>70.97</ele>
        <time>2021-03-20T19:36:05Z</time>
      </trkpt>
      <trkpt lat="55.66298" lon="-4.75917">
        <ele>71.72</ele>
        <time>2021-03-20T19:36:12Z</time>
      </trkpt>
      <trkpt lat="55.66292" lon="-4.75943">
        <ele>72</ele>
        <time>2021-03-20T19:36:18Z</time>
      </trkpt>
      <trkpt lat="55.6629" lon="-4.76017">
        <ele>74.85</ele>
        <time>2021-03-20T19:36:25Z</time>
      </trkpt>
      <trkpt lat="55.66356" lon="-4.76593">
        <ele>77.82</ele>
        <time>2021-03-20T19:36:32Z</time>
      </trkpt>
      <trkpt lat="55.66364" lon="-4.76827">
        <ele>87.89</ele>
        <time>2021-03-20T19:36:38Z</time>
      </trkpt>
      <trkpt lat="55.66347" lon="-4.76828">
        <ele>87.3</ele>
        <time>2021-03-20T19:36:43Z</time>
      </trkpt>
      <trkpt lat="55.66298" lon="-4.76845">
        <ele>86.17</ele>
        <time>2021-03-20T19:36:47Z</time>
      </trkpt>
      <trkpt lat="55.66001" lon="-4.77024">
        <ele>85.74</ele>
        <time>2021-03-20T19:36:52Z</time>
      </trkpt>
      <trkpt lat="55.65902" lon="-4.77081">
        <ele>86.34</ele>
        <time>2021-03-20T19:36:57Z</time>
      </trkpt>
      <trkpt lat="55.65761" lon="-4.77147">
        <ele>89.24</ele>
        <time>2021-03-20T19:37:01Z</time>
      </trkpt>
      <trkpt lat="55.6572" lon="-4.77169">
        <ele>89.96</ele>
        <time>2021-03-20T19:37:06Z</time>
      </trkpt>
      <trkpt lat="55.65651" lon="-4.7721">
        <ele>87.58</ele>
        <time>2021-03-20T19:37:10Z</time>
      </trkpt>
      <trkpt lat="55.65535" lon="-4.77295">
        <ele>83.55</ele>
        <time>2021-03-20T19:37:15Z</time>
      </trkpt>
      <trkpt lat="55.65523" lon="-4.773">
        <ele>82.49</ele>
        <time>2021-03-20T19:37:19Z</time>
      </trkpt>
      <trkpt lat="55.65514" lon="-4.773">
        <ele>81.82</ele>
        <time>2021-03-20T19:37:24Z</time>
      </trkpt>
      <trkpt lat="55.65507" lon="-4.77296">
        <ele>81.17</ele>
        <time>2021-03-20T19:37:28Z</time>
      </trkpt>
      <trkpt lat="55.655" lon="-4.77288">
        <ele>80.36</ele>
        <time>2021-03-20T19:37:40Z</time>
      </trkpt>
      <trkpt lat="55.6549" lon="-4.77283">
        <ele>79.48</ele>
        <time>2021-03-20T19:37:51Z</time>
      </trkpt>
      <trkpt lat="55.65483" lon="-4.77284">
        <ele>79.02</ele>
        <time>2021-03-20T19:38:02Z</time>
      </trkpt>
      <trkpt lat="55.65471" lon="-4.77294">
        <ele>78.51</ele>
        <time>2021-03-20T19:38:13Z</time>
      </trkpt>
      <trkpt lat="55.65466" lon="-4.77303">
        <ele>78.49</ele>
        <time>2021-03-20T19:38:24Z</time>
      </trkpt>
      <trkpt lat="55.65452" lon="-4.77328">
        <ele>78.16</ele>
        <time>2021-03-20T19:38:35Z</time>
      </trkpt>
      <trkpt lat="55.65437" lon="-4.77347">
        <ele>78.72</ele>
        <time>2021-03-20T19:38:46Z</time>
      </trkpt>
      <trkpt lat="55.65386" lon="-4.77376">
        <ele>77.44</ele>
        <time>2021-03-20T19:38:57Z</time>
      </trkpt>
      <trkpt lat="55.65315" lon="-4.77464">
        <ele>78.57</ele>
        <time>2021-03-20T19:39:08Z</time>
      </trkpt>
      <trkpt lat="55.65259" lon="-4.77537">
        <ele>76.33</ele>
        <time>2021-03-20T19:39:19Z</time>
      </trkpt>
      <trkpt lat="55.65213" lon="-4.7759">
        <ele>74.66</ele>
        <time>2021-03-20T19:39:31Z</time>
      </trkpt>
      <trkpt lat="55.65189" lon="-4.77607">
        <ele>73.81</ele>
        <time>2021-03-20T19:39:42Z</time>
      </trkpt>
      <trkpt lat="55.65163" lon="-4.77619">
        <ele>72.47</ele>
        <time>2021-03-20T19:39:53Z</time>
      </trkpt>
      <trkpt lat="55.64729" lon="-4.7782">
        <ele>50.48</ele>
        <time>2021-03-20T19:40:04Z</time>
      </trkpt>
      <trkpt lat="55.64504" lon="-4.7793">
        <ele>41</ele>
        <time>2021-03-20T19:40:15Z</time>
      </trkpt>
      <trkpt lat="55.6423" lon="-4.7806">
        <ele>30.11</ele>
        <time>2021-03-20T19:40:26Z</time>
      </trkpt>
      <trkpt lat="55.63748" lon="-4.78297">
        <ele>15.94</ele>
        <time>2021-03-20T19:40:37Z</time>
      </trkpt>
      <trkpt lat="55.63558" lon="-4.78385">
        <ele>8.93</ele>
        <time>2021-03-20T19:40:48Z</time>
      </trkpt>
      <trkpt lat="55.63545" lon="-4.78386">
        <ele>9</ele>
        <time>2021-03-20T19:40:59Z</time>
      </trkpt>
      <trkpt lat="55.63526" lon="-4.7838">
        <ele>9</ele>
        <time>2021-03-20T19:41:11Z</time>
      </trkpt>
      <trkpt lat="55.63516" lon="-4.78364">
        <ele>9</ele>
        <time>2021-03-20T19:41:22Z</time>
      </trkpt>
      <trkpt lat="55.63495" lon="-4.7828">
        <ele>7.99</ele>
        <time>2021-03-20T19:41:33Z</time>
      </trkpt>
      <trkpt lat="55.63474" lon="-4.78238">
        <ele>8.03</ele>
        <time>2021-03-20T19:41:44Z</time>
      </trkpt>
      <trkpt lat="55.63439" lon="-4.78205">
        <ele>8</ele>
        <time>2021-03-20T19:41:55Z</time>
      </trkpt>
      <trkpt lat="55.63416" lon="-4.78189">
        <ele>8.18</ele>
        <time>2021-03-20T19:42:06Z</time>
      </trkpt>
      <trkpt lat="55.63378" lon="-4.78172">
        <ele>7.59</ele>
        <time>2021-03-20T19:42:17Z</time>
      </trkpt>
      <trkpt lat="55.63368" lon="-4.78255">
        <ele>8</ele>
        <time>2021-03-20T19:42:22Z</time>
      </trkpt>
      <trkpt lat="55.63364" lon="-4.7827">
        <ele>8</ele>
        <time>2021-03-20T19:42:27Z</time>
      </trkpt>
      <trkpt lat="55.6334" lon="-4.78319">
        <ele>8.76</ele>
        <time>2021-03-20T19:42:32Z</time>
      </trkpt>
      <trkpt lat="55.63339" lon="-4.78328">
        <ele>8.79</ele>
        <time>2021-03-20T19:42:37Z</time>
      </trkpt>
      <trkpt lat="55.6334" lon="-4.78346">
        <ele>8.43</ele>
        <time>2021-03-20T19:42:42Z</time>
      </trkpt>
      <trkpt lat="55.63358" lon="-4.78439">
        <ele>8</ele>
        <time>2021-03-20T19:42:47Z</time>
      </trkpt>
      <trkpt lat="55.63384" lon="-4.78564">
        <ele>6</ele>
        <time>2021-03-20T19:42:52Z</time>
      </trkpt>
      <trkpt lat="55.63424" lon="-4.78762">
        <ele>5</ele>
        <time>2021-03-20T19:42:57Z</time>
      </trkpt>
      <trkpt lat="55.63435" lon="-4.78785">
        <ele>5.16</ele>
        <time>2021-03-20T19:43:02Z</time>
      </trkpt>
      <trkpt lat="55.63454" lon="-4.78801">
        <ele>6.2</ele>
        <time>2021-03-20T19:43:07Z</time>
      </trkpt>
      <trkpt lat="55.6346" lon="-4.7881">
        <ele>6.58</ele>
        <time>2021-03-20T19:43:12Z</time>
      </trkpt>
      <trkpt lat="55.63593" lon="-4.7911">
        <ele>8</ele>
        <time>2021-03-20T19:43:18Z</time>
      </trkpt>
      <trkpt lat="55.63598" lon="-4.79143">
        <ele>7.52</ele>
        <time>2021-03-20T19:43:23Z</time>
      </trkpt>
      <trkpt lat="55.63591" lon="-4.79141">
        <ele>7.27</ele>
        <time>2021-03-20T19:43:25Z</time>
      </trkpt>
      <trkpt lat="55.63584" lon="-4.79145">
        <ele>7.01</ele>
        <time>2021-03-20T19:43:27Z</time>
      </trkpt>
      <trkpt lat="55.63578" lon="-4.79161">
        <ele>7.2</ele>
        <time>2021-03-20T19:43:29Z</time>
      </trkpt>
      <trkpt lat="55.63578" lon="-4.79175">
        <ele>7.13</ele>
        <time>2021-03-20T19:43:31Z</time>
      </trkpt>
      <trkpt lat="55.6358" lon="-4.79181">
        <ele>7.06</ele>
        <time>2021-03-20T19:43:33Z</time>
      </trkpt>
      <trkpt lat="55.63586" lon="-4.79191">
        <ele>7.1</ele>
        <time>2021-03-20T19:43:35Z</time>
      </trkpt>
      <trkpt lat="55.63609" lon="-4.79211">
        <ele>7.93</ele>
        <time>2021-03-20T19:43:37Z</time>
      </trkpt>
      <trkpt lat="55.63618" lon="-4.79222">
        <ele>8.24</ele>
        <time>2021-03-20T19:43:39Z</time>
      </trkpt>
      <trkpt lat="55.6386" lon="-4.79461">
        <ele>7.39</ele>
        <time>2021-03-20T19:43:41Z</time>
      </trkpt>
      <trkpt lat="55.63874" lon="-4.7948">
        <ele>7.46</ele>
        <time>2021-03-20T19:43:43Z</time>
      </trkpt>
      <trkpt lat="55.63887" lon="-4.79502">
        <ele>8.02</ele>
        <time>2021-03-20T19:43:45Z</time>
      </trkpt>
      <trkpt lat="55.63906" lon="-4.79549">
        <ele>9.6</ele>
        <time>2021-03-20T19:43:47Z</time>
      </trkpt>
      <trkpt lat="55.63918" lon="-4.79587">
        <ele>9</ele>
        <time>2021-03-20T19:43:49Z</time>
      </trkpt>
      <trkpt lat="55.6393" lon="-4.79649">
        <ele>7.62</ele>
        <time>2021-03-20T19:43:51Z</time>
      </trkpt>
      <trkpt lat="55.63938" lon="-4.79748">
        <ele>5.77</ele>
        <time>2021-03-20T19:43:53Z</time>
      </trkpt>
      <trkpt lat="55.63941" lon="-4.79825">
        <ele>5.74</ele>
        <time>2021-03-20T19:43:55Z</time>
      </trkpt>
      <trkpt lat="55.63939" lon="-4.7989">
        <ele>5.67</ele>
        <time>2021-03-20T19:43:57Z</time>
      </trkpt>
      <trkpt lat="55.63938" lon="-4.79898">
        <ele>5.83</ele>
        <time>2021-03-20T19:43:59Z</time>
      </trkpt>
      <trkpt lat="55.63933" lon="-4.79901">
        <ele>5.63</ele>
        <time>2021-03-20T19:44:02Z</time>
      </trkpt>
      <trkpt lat="55.63931" lon="-4.79912">
        <ele>5.83</ele>
        <time>2021-03-20T19:44:06Z</time>
      </trkpt>
      <trkpt lat="55.63931" lon="-4.79916">
        <ele>6.03</ele>
        <time>2021-03-20T19:44:10Z</time>
      </trkpt>
      <trkpt lat="55.63935" lon="-4.79923">
        <ele>6.3</ele>
        <time>2021-03-20T19:44:14Z</time>
      </trkpt>
      <trkpt lat="55.63954" lon="-4.79978">
        <ele>7.36</ele>
        <time>2021-03-20T19:44:18Z</time>
      </trkpt>
      <trkpt lat="55.63959" lon="-4.8">
        <ele>7.52</ele>
        <time>2021-03-20T19:44:22Z</time>
      </trkpt>
      <trkpt lat="55.63995" lon="-4.80132">
        <ele>7.06</ele>
        <time>2021-03-20T19:44:26Z</time>
      </trkpt>
      <trkpt lat="55.64017" lon="-4.80234">
        <ele>7.75</ele>
        <time>2021-03-20T19:44:30Z</time>
      </trkpt>
      <trkpt lat="55.64033" lon="-4.8033">
        <ele>6</ele>
        <time>2021-03-20T19:44:34Z</time>
      </trkpt>
      <trkpt lat="55.64038" lon="-4.80373">
        <ele>6</ele>
        <time>2021-03-20T19:44:38Z</time>
      </trkpt>
      <trkpt lat="55.64045" lon="-4.80454">
        <ele>5.25</ele>
        <time>2021-03-20T19:44:42Z</time>
      </trkpt>
      <trkpt lat="55.6405" lon="-4.8058">
        <ele>5.63</ele>
        <time>2021-03-20T19:44:46Z</time>
      </trkpt>
      <trkpt lat="55.6405" lon="-4.80639">
        <ele>5.79</ele>
        <time>2021-03-20T19:44:49Z</time>
      </trkpt>
      <trkpt lat="55.64046" lon="-4.80732">
        <ele>6.22</ele>
        <time>2021-03-20T19:44:53Z</time>
      </trkpt>
      <trkpt lat="55.64039" lon="-4.80813">
        <ele>6</ele>
        <time>2021-03-20T19:44:57Z</time>
      </trkpt>
      <trkpt lat="55.64019" lon="-4.80938">
        <ele>5.4</ele>
        <time>2021-03-20T19:45:01Z</time>
      </trkpt>
      <trkpt lat="55.64013" lon="-4.80967">
        <ele>4.56</ele>
        <time>2021-03-20T19:45:05Z</time>
      </trkpt>
      <trkpt lat="55.64001" lon="-4.80992">
        <ele>4.03</ele>
        <time>2021-03-20T19:45:09Z</time>
      </trkpt>
      <trkpt lat="55.63951" lon="-4.81045">
        <ele>4.46</ele>
        <time>2021-03-20T19:45:13Z</time>
      </trkpt>
    </trkseg>
  </trk>
</gpx>